<?xml version="1.0" encoding="UTF-8" standalone="no" ?>
<gpx xmlns="http://www.topografix.com/GPX/1/1" xmlns:xsi="http://www.w3.org/2001/XMLSchema-instance" xsi:schemaLocation="http://www.topografix.com/GPX/1/1 http://www.topografix.com/GPX/1/1/gpx.xsd" version="1.1" creator="VisuGPX - https://www.visugpx.com">
  <metadata>
    <name>Parcours 9 Clochers version 2015</name>
    <desc><![CDATA[Nouveau parcours de la course pedestre des 9 Clochers en Beaujolais 2015
2 nouveautés : A Morancé et au musée des pierres folles]]></desc>
  </metadata>
  <trk>
    <name><![CDATA[Parcours 9 Clochers version 2015_1]]></name>
    <cmt><![CDATA[Reco complète 9 Clochers 2015]]></cmt>
    <trkseg>
      <trkpt lat="45.87556" lon="4.71379">
        <ele>224.74847412109</ele>
        <time>2015-02-24T05:50:01Z</time>
      </trkpt>
      <trkpt lat="45.87563" lon="4.71374">
        <ele>224.91040039062</ele>
        <time>2015-02-24T05:50:05Z</time>
      </trkpt>
      <trkpt lat="45.87579" lon="4.71367">
        <ele>225.15730285644</ele>
        <time>2015-02-24T05:50:10Z</time>
      </trkpt>
      <trkpt lat="45.87598" lon="4.71363">
        <ele>225.16682434082</ele>
        <time>2015-02-24T05:50:16Z</time>
      </trkpt>
      <trkpt lat="45.87602" lon="4.71363">
        <ele>225.15055847168</ele>
        <time>2015-02-24T05:50:17Z</time>
      </trkpt>
      <trkpt lat="45.87611" lon="4.7136">
        <ele>225.12599182129</ele>
        <time>2015-02-24T05:50:20Z</time>
      </trkpt>
      <trkpt lat="45.87621" lon="4.71356">
        <ele>225.13517761231</ele>
        <time>2015-02-24T05:50:23Z</time>
      </trkpt>
      <trkpt lat="45.87623" lon="4.71352">
        <ele>225.18923950195</ele>
        <time>2015-02-24T05:50:24Z</time>
      </trkpt>
      <trkpt lat="45.87624" lon="4.71348">
        <ele>225.24957275391</ele>
        <time>2015-02-24T05:50:25Z</time>
      </trkpt>
      <trkpt lat="45.87623" lon="4.71342">
        <ele>225.35725402832</ele>
        <time>2015-02-24T05:50:26Z</time>
      </trkpt>
      <trkpt lat="45.87622" lon="4.71321">
        <ele>225.38566589356</ele>
        <time>2015-02-24T05:50:31Z</time>
      </trkpt>
      <trkpt lat="45.87622" lon="4.71298">
        <ele>225.08598327637</ele>
        <time>2015-02-24T05:50:36Z</time>
      </trkpt>
      <trkpt lat="45.87617" lon="4.71273">
        <ele>224.74162292481</ele>
        <time>2015-02-24T05:50:42Z</time>
      </trkpt>
      <trkpt lat="45.87616" lon="4.71269">
        <ele>224.67549133301</ele>
        <time>2015-02-24T05:50:43Z</time>
      </trkpt>
      <trkpt lat="45.87609" lon="4.71243">
        <ele>224.10243225098</ele>
        <time>2015-02-24T05:50:50Z</time>
      </trkpt>
      <trkpt lat="45.87607" lon="4.71239">
        <ele>223.96713256836</ele>
        <time>2015-02-24T05:50:51Z</time>
      </trkpt>
      <trkpt lat="45.87603" lon="4.71228">
        <ele>223.57205200195</ele>
        <time>2015-02-24T05:50:54Z</time>
      </trkpt>
      <trkpt lat="45.87598" lon="4.71212">
        <ele>222.97145080566</ele>
        <time>2015-02-24T05:50:58Z</time>
      </trkpt>
      <trkpt lat="45.87596" lon="4.71208">
        <ele>222.80868530273</ele>
        <time>2015-02-24T05:50:59Z</time>
      </trkpt>
      <trkpt lat="45.87589" lon="4.71189">
        <ele>221.97375488281</ele>
        <time>2015-02-24T05:51:04Z</time>
      </trkpt>
      <trkpt lat="45.87587" lon="4.71185">
        <ele>221.79248046875</ele>
        <time>2015-02-24T05:51:05Z</time>
      </trkpt>
      <trkpt lat="45.8758" lon="4.71169">
        <ele>221.03160095215</ele>
        <time>2015-02-24T05:51:09Z</time>
      </trkpt>
      <trkpt lat="45.87579" lon="4.71166">
        <ele>220.87902832031</ele>
        <time>2015-02-24T05:51:10Z</time>
      </trkpt>
      <trkpt lat="45.87572" lon="4.71153">
        <ele>220.09742736816</ele>
        <time>2015-02-24T05:51:13Z</time>
      </trkpt>
      <trkpt lat="45.87569" lon="4.71144">
        <ele>219.60603332519</ele>
        <time>2015-02-24T05:51:15Z</time>
      </trkpt>
      <trkpt lat="45.87567" lon="4.71135">
        <ele>219.17153930664</ele>
        <time>2015-02-24T05:51:17Z</time>
      </trkpt>
      <trkpt lat="45.87568" lon="4.7113">
        <ele>218.96311950684</ele>
        <time>2015-02-24T05:51:18Z</time>
      </trkpt>
      <trkpt lat="45.87568" lon="4.71126">
        <ele>218.75381469727</ele>
        <time>2015-02-24T05:51:19Z</time>
      </trkpt>
      <trkpt lat="45.87569" lon="4.71111">
        <ele>218.1159362793</ele>
        <time>2015-02-24T05:51:23Z</time>
      </trkpt>
      <trkpt lat="45.87568" lon="4.71102">
        <ele>217.64190673828</ele>
        <time>2015-02-24T05:51:34Z</time>
      </trkpt>
      <trkpt lat="45.87568" lon="4.71101">
        <ele>217.6300201416</ele>
        <time>2015-02-24T05:51:35Z</time>
      </trkpt>
      <trkpt lat="45.87566" lon="4.711">
        <ele>217.55551147461</ele>
        <time>2015-02-24T05:51:36Z</time>
      </trkpt>
      <trkpt lat="45.87565" lon="4.71096">
        <ele>217.36167907715</ele>
        <time>2015-02-24T05:51:37Z</time>
      </trkpt>
      <trkpt lat="45.8756" lon="4.71076">
        <ele>216.48962402344</ele>
        <time>2015-02-24T05:51:40Z</time>
      </trkpt>
      <trkpt lat="45.87556" lon="4.71074">
        <ele>216.36366271973</ele>
        <time>2015-02-24T05:51:41Z</time>
      </trkpt>
      <trkpt lat="45.87551" lon="4.71066">
        <ele>216.07788085938</ele>
        <time>2015-02-24T05:51:43Z</time>
      </trkpt>
      <trkpt lat="45.87544" lon="4.71059">
        <ele>215.77856445312</ele>
        <time>2015-02-24T05:51:46Z</time>
      </trkpt>
      <trkpt lat="45.87541" lon="4.71055">
        <ele>215.65132141113</ele>
        <time>2015-02-24T05:51:47Z</time>
      </trkpt>
      <trkpt lat="45.87538" lon="4.71052">
        <ele>215.54005432129</ele>
        <time>2015-02-24T05:51:48Z</time>
      </trkpt>
      <trkpt lat="45.87535" lon="4.71048">
        <ele>215.38688659668</ele>
        <time>2015-02-24T05:51:49Z</time>
      </trkpt>
      <trkpt lat="45.87531" lon="4.7104">
        <ele>215.12742614746</ele>
        <time>2015-02-24T05:51:51Z</time>
      </trkpt>
      <trkpt lat="45.87527" lon="4.71031">
        <ele>214.87283325195</ele>
        <time>2015-02-24T05:51:53Z</time>
      </trkpt>
      <trkpt lat="45.87523" lon="4.71024">
        <ele>214.64698791504</ele>
        <time>2015-02-24T05:51:55Z</time>
      </trkpt>
      <trkpt lat="45.87515" lon="4.71008">
        <ele>214.19705200195</ele>
        <time>2015-02-24T05:51:59Z</time>
      </trkpt>
      <trkpt lat="45.87508" lon="4.70997">
        <ele>214.06819152832</ele>
        <time>2015-02-24T05:52:02Z</time>
      </trkpt>
      <trkpt lat="45.87504" lon="4.7099">
        <ele>214.24015808106</ele>
        <time>2015-02-24T05:52:04Z</time>
      </trkpt>
      <trkpt lat="45.87497" lon="4.70973">
        <ele>214.6584777832</ele>
        <time>2015-02-24T05:52:08Z</time>
      </trkpt>
      <trkpt lat="45.87497" lon="4.70969">
        <ele>214.7451171875</ele>
        <time>2015-02-24T05:52:09Z</time>
      </trkpt>
      <trkpt lat="45.87498" lon="4.70965">
        <ele>214.8419342041</ele>
        <time>2015-02-24T05:52:10Z</time>
      </trkpt>
      <trkpt lat="45.87502" lon="4.70963">
        <ele>214.86608886719</ele>
        <time>2015-02-24T05:52:11Z</time>
      </trkpt>
      <trkpt lat="45.87504" lon="4.70961">
        <ele>214.88772583008</ele>
        <time>2015-02-24T05:52:12Z</time>
      </trkpt>
      <trkpt lat="45.87515" lon="4.70952">
        <ele>214.94039916992</ele>
        <time>2015-02-24T05:52:16Z</time>
      </trkpt>
      <trkpt lat="45.87517" lon="4.70949">
        <ele>214.97219848633</ele>
        <time>2015-02-24T05:52:17Z</time>
      </trkpt>
      <trkpt lat="45.87532" lon="4.70935">
        <ele>214.96562194824</ele>
        <time>2015-02-24T05:52:23Z</time>
      </trkpt>
      <trkpt lat="45.87539" lon="4.70926">
        <ele>214.94250488281</ele>
        <time>2015-02-24T05:52:25Z</time>
      </trkpt>
      <trkpt lat="45.87547" lon="4.70918">
        <ele>214.85804748535</ele>
        <time>2015-02-24T05:52:28Z</time>
      </trkpt>
      <trkpt lat="45.87548" lon="4.70915">
        <ele>214.84085083008</ele>
        <time>2015-02-24T05:52:29Z</time>
      </trkpt>
      <trkpt lat="45.87557" lon="4.70906">
        <ele>214.68363952637</ele>
        <time>2015-02-24T05:52:32Z</time>
      </trkpt>
      <trkpt lat="45.87572" lon="4.70888">
        <ele>214.51789855957</ele>
        <time>2015-02-24T05:52:38Z</time>
      </trkpt>
      <trkpt lat="45.87585" lon="4.70874">
        <ele>214.56874084473</ele>
        <time>2015-02-24T05:52:43Z</time>
      </trkpt>
      <trkpt lat="45.87597" lon="4.70859">
        <ele>215.12886047363</ele>
        <time>2015-02-24T05:52:48Z</time>
      </trkpt>
      <trkpt lat="45.8761" lon="4.7084">
        <ele>215.61804199219</ele>
        <time>2015-02-24T05:52:54Z</time>
      </trkpt>
      <trkpt lat="45.87622" lon="4.70817">
        <ele>215.85902404785</ele>
        <time>2015-02-24T05:53:00Z</time>
      </trkpt>
      <trkpt lat="45.87633" lon="4.70794">
        <ele>215.82019042969</ele>
        <time>2015-02-24T05:53:06Z</time>
      </trkpt>
      <trkpt lat="45.87638" lon="4.70782">
        <ele>215.71746826172</ele>
        <time>2015-02-24T05:53:09Z</time>
      </trkpt>
      <trkpt lat="45.87641" lon="4.70774">
        <ele>215.6241607666</ele>
        <time>2015-02-24T05:53:11Z</time>
      </trkpt>
      <trkpt lat="45.87647" lon="4.70753">
        <ele>215.27735900879</ele>
        <time>2015-02-24T05:53:16Z</time>
      </trkpt>
      <trkpt lat="45.87648" lon="4.7075">
        <ele>215.22537231445</ele>
        <time>2015-02-24T05:53:17Z</time>
      </trkpt>
      <trkpt lat="45.8765" lon="4.70745">
        <ele>215.12896728516</ele>
        <time>2015-02-24T05:53:18Z</time>
      </trkpt>
      <trkpt lat="45.87654" lon="4.70727">
        <ele>214.84185791016</ele>
        <time>2015-02-24T05:53:22Z</time>
      </trkpt>
      <trkpt lat="45.87659" lon="4.70706">
        <ele>214.51577758789</ele>
        <time>2015-02-24T05:53:27Z</time>
      </trkpt>
      <trkpt lat="45.87666" lon="4.70683">
        <ele>214.20120239258</ele>
        <time>2015-02-24T05:53:32Z</time>
      </trkpt>
      <trkpt lat="45.87677" lon="4.7066">
        <ele>214.57098388672</ele>
        <time>2015-02-24T05:53:38Z</time>
      </trkpt>
      <trkpt lat="45.8769" lon="4.7064">
        <ele>215.32865905762</ele>
        <time>2015-02-24T05:53:44Z</time>
      </trkpt>
      <trkpt lat="45.87699" lon="4.70624">
        <ele>215.86773681641</ele>
        <time>2015-02-24T05:53:49Z</time>
      </trkpt>
      <trkpt lat="45.8771" lon="4.7061">
        <ele>216.39767456055</ele>
        <time>2015-02-24T05:53:54Z</time>
      </trkpt>
      <trkpt lat="45.87719" lon="4.70593">
        <ele>216.85238647461</ele>
        <time>2015-02-24T05:53:59Z</time>
      </trkpt>
      <trkpt lat="45.87733" lon="4.70572">
        <ele>217.34858703613</ele>
        <time>2015-02-24T05:54:05Z</time>
      </trkpt>
      <trkpt lat="45.87738" lon="4.70561">
        <ele>217.53157043457</ele>
        <time>2015-02-24T05:54:08Z</time>
      </trkpt>
      <trkpt lat="45.8774" lon="4.70558">
        <ele>217.58609008789</ele>
        <time>2015-02-24T05:54:09Z</time>
      </trkpt>
      <trkpt lat="45.8775" lon="4.70541">
        <ele>218.00735473633</ele>
        <time>2015-02-24T05:54:14Z</time>
      </trkpt>
      <trkpt lat="45.87761" lon="4.70524">
        <ele>218.34251403809</ele>
        <time>2015-02-24T05:54:19Z</time>
      </trkpt>
      <trkpt lat="45.87771" lon="4.70508">
        <ele>218.72691345215</ele>
        <time>2015-02-24T05:54:24Z</time>
      </trkpt>
      <trkpt lat="45.87777" lon="4.70498">
        <ele>218.97009277344</ele>
        <time>2015-02-24T05:54:27Z</time>
      </trkpt>
      <trkpt lat="45.87783" lon="4.70487">
        <ele>219.17608642578</ele>
        <time>2015-02-24T05:54:30Z</time>
      </trkpt>
      <trkpt lat="45.87791" lon="4.70471">
        <ele>219.47821044922</ele>
        <time>2015-02-24T05:54:35Z</time>
      </trkpt>
      <trkpt lat="45.87795" lon="4.70459">
        <ele>219.61553955078</ele>
        <time>2015-02-24T05:54:38Z</time>
      </trkpt>
      <trkpt lat="45.87797" lon="4.70452">
        <ele>219.69793701172</ele>
        <time>2015-02-24T05:54:40Z</time>
      </trkpt>
      <trkpt lat="45.87799" lon="4.70447">
        <ele>219.7666015625</ele>
        <time>2015-02-24T05:54:41Z</time>
      </trkpt>
      <trkpt lat="45.878" lon="4.70444">
        <ele>219.80780029297</ele>
        <time>2015-02-24T05:54:42Z</time>
      </trkpt>
      <trkpt lat="45.87805" lon="4.70427">
        <ele>219.986328125</ele>
        <time>2015-02-24T05:54:46Z</time>
      </trkpt>
      <trkpt lat="45.87812" lon="4.704">
        <ele>220.34675598144</ele>
        <time>2015-02-24T05:54:53Z</time>
      </trkpt>
      <trkpt lat="45.87815" lon="4.70394">
        <ele>220.45124816894</ele>
        <time>2015-02-24T05:54:55Z</time>
      </trkpt>
      <trkpt lat="45.87819" lon="4.70382">
        <ele>220.63552856445</ele>
        <time>2015-02-24T05:54:58Z</time>
      </trkpt>
      <trkpt lat="45.87822" lon="4.70379">
        <ele>220.70428466797</ele>
        <time>2015-02-24T05:54:59Z</time>
      </trkpt>
      <trkpt lat="45.87824" lon="4.70376">
        <ele>220.77857971191</ele>
        <time>2015-02-24T05:55:00Z</time>
      </trkpt>
      <trkpt lat="45.87827" lon="4.70374">
        <ele>220.85743713379</ele>
        <time>2015-02-24T05:55:01Z</time>
      </trkpt>
      <trkpt lat="45.8783" lon="4.70372">
        <ele>220.92198181152</ele>
        <time>2015-02-24T05:55:02Z</time>
      </trkpt>
      <trkpt lat="45.87834" lon="4.70371">
        <ele>221.02716064453</ele>
        <time>2015-02-24T05:55:03Z</time>
      </trkpt>
      <trkpt lat="45.87849" lon="4.70368">
        <ele>221.94268798828</ele>
        <time>2015-02-24T05:55:08Z</time>
      </trkpt>
      <trkpt lat="45.87852" lon="4.70368">
        <ele>222.12579345703</ele>
        <time>2015-02-24T05:55:09Z</time>
      </trkpt>
      <trkpt lat="45.87867" lon="4.70366">
        <ele>223.04132080078</ele>
        <time>2015-02-24T05:55:14Z</time>
      </trkpt>
      <trkpt lat="45.87873" lon="4.70366">
        <ele>223.38464355469</ele>
        <time>2015-02-24T05:55:16Z</time>
      </trkpt>
      <trkpt lat="45.8789" lon="4.70365">
        <ele>224.39172363281</ele>
        <time>2015-02-24T05:55:22Z</time>
      </trkpt>
      <trkpt lat="45.87897" lon="4.70365">
        <ele>224.8037109375</ele>
        <time>2015-02-24T05:55:24Z</time>
      </trkpt>
      <trkpt lat="45.87906" lon="4.70364">
        <ele>225.33013916016</ele>
        <time>2015-02-24T05:55:27Z</time>
      </trkpt>
      <trkpt lat="45.87914" lon="4.70364">
        <ele>225.85656738281</ele>
        <time>2015-02-24T05:55:30Z</time>
      </trkpt>
      <trkpt lat="45.8792" lon="4.70363">
        <ele>226.29109191894</ele>
        <time>2015-02-24T05:55:32Z</time>
      </trkpt>
      <trkpt lat="45.87928" lon="4.70363">
        <ele>227.02597045898</ele>
        <time>2015-02-24T05:55:35Z</time>
      </trkpt>
      <trkpt lat="45.87931" lon="4.70363">
        <ele>227.25926208496</ele>
        <time>2015-02-24T05:55:36Z</time>
      </trkpt>
      <trkpt lat="45.87944" lon="4.7036">
        <ele>228.41947937012</ele>
        <time>2015-02-24T05:55:41Z</time>
      </trkpt>
      <trkpt lat="45.8795" lon="4.70347">
        <ele>229.04991149902</ele>
        <time>2015-02-24T05:55:45Z</time>
      </trkpt>
      <trkpt lat="45.87953" lon="4.70322">
        <ele>229.54374694824</ele>
        <time>2015-02-24T05:55:51Z</time>
      </trkpt>
      <trkpt lat="45.87954" lon="4.70314">
        <ele>229.67156982422</ele>
        <time>2015-02-24T05:55:53Z</time>
      </trkpt>
      <trkpt lat="45.87957" lon="4.70284">
        <ele>230.17645263672</ele>
        <time>2015-02-24T05:56:00Z</time>
      </trkpt>
      <trkpt lat="45.87963" lon="4.7026">
        <ele>230.88221740723</ele>
        <time>2015-02-24T05:56:06Z</time>
      </trkpt>
      <trkpt lat="45.87971" lon="4.70236">
        <ele>230.96105957031</ele>
        <time>2015-02-24T05:56:12Z</time>
      </trkpt>
      <trkpt lat="45.87984" lon="4.70216">
        <ele>230.9660949707</ele>
        <time>2015-02-24T05:56:18Z</time>
      </trkpt>
      <trkpt lat="45.87987" lon="4.70213">
        <ele>230.98783874512</ele>
        <time>2015-02-24T05:56:19Z</time>
      </trkpt>
      <trkpt lat="45.88003" lon="4.70199">
        <ele>231.00512695312</ele>
        <time>2015-02-24T05:56:25Z</time>
      </trkpt>
      <trkpt lat="45.88021" lon="4.70187">
        <ele>230.7024230957</ele>
        <time>2015-02-24T05:56:31Z</time>
      </trkpt>
      <trkpt lat="45.88023" lon="4.70184">
        <ele>230.60343933106</ele>
        <time>2015-02-24T05:56:32Z</time>
      </trkpt>
      <trkpt lat="45.88032" lon="4.70171">
        <ele>230.01292419434</ele>
        <time>2015-02-24T05:56:36Z</time>
      </trkpt>
      <trkpt lat="45.8804" lon="4.70153">
        <ele>230.44831848144</ele>
        <time>2015-02-24T05:56:41Z</time>
      </trkpt>
      <trkpt lat="45.8805" lon="4.70131">
        <ele>231.56777954102</ele>
        <time>2015-02-24T05:56:47Z</time>
      </trkpt>
      <trkpt lat="45.88058" lon="4.70118">
        <ele>232.37254333496</ele>
        <time>2015-02-24T05:56:51Z</time>
      </trkpt>
      <trkpt lat="45.8806" lon="4.70115">
        <ele>232.56114196777</ele>
        <time>2015-02-24T05:56:52Z</time>
      </trkpt>
      <trkpt lat="45.88062" lon="4.70113">
        <ele>232.73175048828</ele>
        <time>2015-02-24T05:56:53Z</time>
      </trkpt>
      <trkpt lat="45.88065" lon="4.70107">
        <ele>233.1003112793</ele>
        <time>2015-02-24T05:56:55Z</time>
      </trkpt>
      <trkpt lat="45.88066" lon="4.70103">
        <ele>233.31509399414</ele>
        <time>2015-02-24T05:56:56Z</time>
      </trkpt>
      <trkpt lat="45.88069" lon="4.70097">
        <ele>233.6974029541</ele>
        <time>2015-02-24T05:56:58Z</time>
      </trkpt>
      <trkpt lat="45.8807" lon="4.70094">
        <ele>233.87828063965</ele>
        <time>2015-02-24T05:56:59Z</time>
      </trkpt>
      <trkpt lat="45.88071" lon="4.70091">
        <ele>234.08917236328</ele>
        <time>2015-02-24T05:57:00Z</time>
      </trkpt>
      <trkpt lat="45.88075" lon="4.70081">
        <ele>234.72903442383</ele>
        <time>2015-02-24T05:57:03Z</time>
      </trkpt>
      <trkpt lat="45.88076" lon="4.70078">
        <ele>234.96398925781</ele>
        <time>2015-02-24T05:57:04Z</time>
      </trkpt>
      <trkpt lat="45.88078" lon="4.70076">
        <ele>235.20425415039</ele>
        <time>2015-02-24T05:57:05Z</time>
      </trkpt>
      <trkpt lat="45.88083" lon="4.70061">
        <ele>236.32176208496</ele>
        <time>2015-02-24T05:57:10Z</time>
      </trkpt>
      <trkpt lat="45.88084" lon="4.70058">
        <ele>236.48301696777</ele>
        <time>2015-02-24T05:57:11Z</time>
      </trkpt>
      <trkpt lat="45.88087" lon="4.70046">
        <ele>237.14909362793</ele>
        <time>2015-02-24T05:57:15Z</time>
      </trkpt>
      <trkpt lat="45.88089" lon="4.70043">
        <ele>237.31265258789</ele>
        <time>2015-02-24T05:57:16Z</time>
      </trkpt>
      <trkpt lat="45.88091" lon="4.70042">
        <ele>237.30252075195</ele>
        <time>2015-02-24T05:57:17Z</time>
      </trkpt>
      <trkpt lat="45.88094" lon="4.70037">
        <ele>237.54606628418</ele>
        <time>2015-02-24T05:57:19Z</time>
      </trkpt>
      <trkpt lat="45.88098" lon="4.7002">
        <ele>238.35786437988</ele>
        <time>2015-02-24T05:57:24Z</time>
      </trkpt>
      <trkpt lat="45.881" lon="4.70014">
        <ele>238.64828491211</ele>
        <time>2015-02-24T05:57:26Z</time>
      </trkpt>
      <trkpt lat="45.88103" lon="4.69998">
        <ele>239.31962585449</ele>
        <time>2015-02-24T05:57:31Z</time>
      </trkpt>
      <trkpt lat="45.88105" lon="4.69992">
        <ele>239.39859008789</ele>
        <time>2015-02-24T05:57:33Z</time>
      </trkpt>
      <trkpt lat="45.88105" lon="4.69984">
        <ele>239.58512878418</ele>
        <time>2015-02-24T05:57:35Z</time>
      </trkpt>
      <trkpt lat="45.88106" lon="4.69976">
        <ele>239.76480102539</ele>
        <time>2015-02-24T05:57:37Z</time>
      </trkpt>
      <trkpt lat="45.88105" lon="4.69965">
        <ele>240.04861450195</ele>
        <time>2015-02-24T05:57:40Z</time>
      </trkpt>
      <trkpt lat="45.88104" lon="4.69949">
        <ele>240.46632385254</ele>
        <time>2015-02-24T05:57:44Z</time>
      </trkpt>
      <trkpt lat="45.88104" lon="4.69925">
        <ele>241.0373840332</ele>
        <time>2015-02-24T05:57:50Z</time>
      </trkpt>
      <trkpt lat="45.88105" lon="4.69903">
        <ele>241.96910095215</ele>
        <time>2015-02-24T05:57:56Z</time>
      </trkpt>
      <trkpt lat="45.88105" lon="4.69899">
        <ele>242.18637084961</ele>
        <time>2015-02-24T05:57:57Z</time>
      </trkpt>
      <trkpt lat="45.88106" lon="4.69887">
        <ele>242.81207275391</ele>
        <time>2015-02-24T05:58:00Z</time>
      </trkpt>
      <trkpt lat="45.88108" lon="4.69871">
        <ele>243.60615539551</ele>
        <time>2015-02-24T05:58:04Z</time>
      </trkpt>
      <trkpt lat="45.88109" lon="4.69868">
        <ele>243.80238342285</ele>
        <time>2015-02-24T05:58:05Z</time>
      </trkpt>
      <trkpt lat="45.88113" lon="4.6985">
        <ele>244.72560119629</ele>
        <time>2015-02-24T05:58:10Z</time>
      </trkpt>
      <trkpt lat="45.88114" lon="4.69842">
        <ele>245.14219665527</ele>
        <time>2015-02-24T05:58:12Z</time>
      </trkpt>
      <trkpt lat="45.88118" lon="4.69827">
        <ele>245.7272644043</ele>
        <time>2015-02-24T05:58:16Z</time>
      </trkpt>
      <trkpt lat="45.8812" lon="4.69819">
        <ele>245.88356018066</ele>
        <time>2015-02-24T05:58:18Z</time>
      </trkpt>
      <trkpt lat="45.88122" lon="4.69804">
        <ele>246.22285461426</ele>
        <time>2015-02-24T05:58:22Z</time>
      </trkpt>
      <trkpt lat="45.88124" lon="4.69791">
        <ele>246.51396179199</ele>
        <time>2015-02-24T05:58:25Z</time>
      </trkpt>
      <trkpt lat="45.88125" lon="4.69779">
        <ele>246.81596374512</ele>
        <time>2015-02-24T05:58:28Z</time>
      </trkpt>
      <trkpt lat="45.88128" lon="4.69763">
        <ele>247.21131896973</ele>
        <time>2015-02-24T05:58:32Z</time>
      </trkpt>
      <trkpt lat="45.88128" lon="4.69754">
        <ele>247.43293762207</ele>
        <time>2015-02-24T05:58:34Z</time>
      </trkpt>
      <trkpt lat="45.88132" lon="4.6973">
        <ele>247.86875915527</ele>
        <time>2015-02-24T05:58:40Z</time>
      </trkpt>
      <trkpt lat="45.88138" lon="4.69705">
        <ele>248.35752868652</ele>
        <time>2015-02-24T05:58:46Z</time>
      </trkpt>
      <trkpt lat="45.88145" lon="4.69677">
        <ele>249.01727294922</ele>
        <time>2015-02-24T05:58:53Z</time>
      </trkpt>
      <trkpt lat="45.88148" lon="4.69648">
        <ele>250.05117797852</ele>
        <time>2015-02-24T05:59:00Z</time>
      </trkpt>
      <trkpt lat="45.88148" lon="4.69644">
        <ele>250.22407531738</ele>
        <time>2015-02-24T05:59:01Z</time>
      </trkpt>
      <trkpt lat="45.88151" lon="4.69619">
        <ele>251.23736572266</ele>
        <time>2015-02-24T05:59:07Z</time>
      </trkpt>
      <trkpt lat="45.88154" lon="4.6959">
        <ele>252.44587707519</ele>
        <time>2015-02-24T05:59:14Z</time>
      </trkpt>
      <trkpt lat="45.88157" lon="4.69574">
        <ele>253.23248291016</ele>
        <time>2015-02-24T05:59:18Z</time>
      </trkpt>
      <trkpt lat="45.88159" lon="4.69562">
        <ele>253.83560180664</ele>
        <time>2015-02-24T05:59:21Z</time>
      </trkpt>
      <trkpt lat="45.88161" lon="4.69538">
        <ele>255.06323242188</ele>
        <time>2015-02-24T05:59:27Z</time>
      </trkpt>
      <trkpt lat="45.88163" lon="4.69527">
        <ele>255.65924072266</ele>
        <time>2015-02-24T05:59:30Z</time>
      </trkpt>
      <trkpt lat="45.88165" lon="4.69503">
        <ele>256.82168579102</ele>
        <time>2015-02-24T05:59:36Z</time>
      </trkpt>
      <trkpt lat="45.88166" lon="4.69499">
        <ele>257.02996826172</ele>
        <time>2015-02-24T05:59:37Z</time>
      </trkpt>
      <trkpt lat="45.88168" lon="4.69479">
        <ele>258.26553344727</ele>
        <time>2015-02-24T05:59:42Z</time>
      </trkpt>
      <trkpt lat="45.88168" lon="4.69471">
        <ele>258.76742553711</ele>
        <time>2015-02-24T05:59:44Z</time>
      </trkpt>
      <trkpt lat="45.8817" lon="4.6946">
        <ele>259.46459960938</ele>
        <time>2015-02-24T05:59:47Z</time>
      </trkpt>
      <trkpt lat="45.8817" lon="4.69456">
        <ele>259.69427490234</ele>
        <time>2015-02-24T05:59:48Z</time>
      </trkpt>
      <trkpt lat="45.88171" lon="4.69448">
        <ele>260.13497924805</ele>
        <time>2015-02-24T05:59:50Z</time>
      </trkpt>
      <trkpt lat="45.88174" lon="4.6943">
        <ele>261.22589111328</ele>
        <time>2015-02-24T05:59:55Z</time>
      </trkpt>
      <trkpt lat="45.88174" lon="4.69426">
        <ele>261.43710327148</ele>
        <time>2015-02-24T05:59:56Z</time>
      </trkpt>
      <trkpt lat="45.88176" lon="4.69416">
        <ele>262.03219604492</ele>
        <time>2015-02-24T05:59:59Z</time>
      </trkpt>
      <trkpt lat="45.88178" lon="4.69405">
        <ele>262.72341918945</ele>
        <time>2015-02-24T06:00:02Z</time>
      </trkpt>
      <trkpt lat="45.88183" lon="4.69383">
        <ele>264.07748413086</ele>
        <time>2015-02-24T06:00:08Z</time>
      </trkpt>
      <trkpt lat="45.88184" lon="4.69376">
        <ele>264.51504516602</ele>
        <time>2015-02-24T06:00:10Z</time>
      </trkpt>
      <trkpt lat="45.88186" lon="4.69365">
        <ele>265.24127197266</ele>
        <time>2015-02-24T06:00:13Z</time>
      </trkpt>
      <trkpt lat="45.88187" lon="4.69361">
        <ele>265.47198486328</ele>
        <time>2015-02-24T06:00:14Z</time>
      </trkpt>
      <trkpt lat="45.88187" lon="4.69361">
        <ele>265.47198486328</ele>
        <time>2015-02-24T06:00:14Z</time>
      </trkpt>
      <trkpt lat="45.8819" lon="4.69351">
        <ele>266.18762207031</ele>
        <time>2015-02-24T06:00:17Z</time>
      </trkpt>
      <trkpt lat="45.88195" lon="4.6933">
        <ele>267.54638671875</ele>
        <time>2015-02-24T06:00:23Z</time>
      </trkpt>
      <trkpt lat="45.88197" lon="4.69322">
        <ele>268.12777709961</ele>
        <time>2015-02-24T06:00:25Z</time>
      </trkpt>
      <trkpt lat="45.88198" lon="4.69318">
        <ele>268.37893676758</ele>
        <time>2015-02-24T06:00:26Z</time>
      </trkpt>
      <trkpt lat="45.88198" lon="4.69314">
        <ele>268.63616943359</ele>
        <time>2015-02-24T06:00:27Z</time>
      </trkpt>
      <trkpt lat="45.88199" lon="4.69307">
        <ele>269.11630249023</ele>
        <time>2015-02-24T06:00:29Z</time>
      </trkpt>
      <trkpt lat="45.88203" lon="4.69291">
        <ele>270.20330810547</ele>
        <time>2015-02-24T06:00:33Z</time>
      </trkpt>
      <trkpt lat="45.8821" lon="4.69278">
        <ele>271.17269897461</ele>
        <time>2015-02-24T06:00:37Z</time>
      </trkpt>
      <trkpt lat="45.88212" lon="4.69277">
        <ele>271.30532836914</ele>
        <time>2015-02-24T06:00:38Z</time>
      </trkpt>
      <trkpt lat="45.88224" lon="4.69277">
        <ele>271.55435180664</ele>
        <time>2015-02-24T06:00:42Z</time>
      </trkpt>
      <trkpt lat="45.88227" lon="4.69277">
        <ele>271.63549804688</ele>
        <time>2015-02-24T06:00:43Z</time>
      </trkpt>
      <trkpt lat="45.88231" lon="4.69276">
        <ele>271.72015380859</ele>
        <time>2015-02-24T06:00:44Z</time>
      </trkpt>
      <trkpt lat="45.88234" lon="4.69276">
        <ele>271.80181884766</ele>
        <time>2015-02-24T06:00:45Z</time>
      </trkpt>
      <trkpt lat="45.88246" lon="4.69276">
        <ele>272.05267333984</ele>
        <time>2015-02-24T06:00:49Z</time>
      </trkpt>
      <trkpt lat="45.88249" lon="4.69276">
        <ele>272.11111450195</ele>
        <time>2015-02-24T06:00:50Z</time>
      </trkpt>
      <trkpt lat="45.88256" lon="4.69275">
        <ele>272.02282714844</ele>
        <time>2015-02-24T06:00:53Z</time>
      </trkpt>
      <trkpt lat="45.88271" lon="4.69275">
        <ele>271.63613891602</ele>
        <time>2015-02-24T06:00:57Z</time>
      </trkpt>
      <trkpt lat="45.88285" lon="4.69275">
        <ele>271.18225097656</ele>
        <time>2015-02-24T06:01:02Z</time>
      </trkpt>
      <trkpt lat="45.88303" lon="4.69276">
        <ele>270.61163330078</ele>
        <time>2015-02-24T06:01:08Z</time>
      </trkpt>
      <trkpt lat="45.88306" lon="4.69275">
        <ele>270.55377197266</ele>
        <time>2015-02-24T06:01:09Z</time>
      </trkpt>
      <trkpt lat="45.88322" lon="4.69277">
        <ele>270.01705932617</ele>
        <time>2015-02-24T06:01:14Z</time>
      </trkpt>
      <trkpt lat="45.88341" lon="4.69277">
        <ele>269.72229003906</ele>
        <time>2015-02-24T06:01:20Z</time>
      </trkpt>
      <trkpt lat="45.88359" lon="4.69275">
        <ele>269.81384277344</ele>
        <time>2015-02-24T06:01:26Z</time>
      </trkpt>
      <trkpt lat="45.88362" lon="4.69274">
        <ele>269.84817504883</ele>
        <time>2015-02-24T06:01:27Z</time>
      </trkpt>
      <trkpt lat="45.88377" lon="4.69272">
        <ele>269.94201660156</ele>
        <time>2015-02-24T06:01:32Z</time>
      </trkpt>
      <trkpt lat="45.8838" lon="4.69272">
        <ele>269.96490478516</ele>
        <time>2015-02-24T06:01:33Z</time>
      </trkpt>
      <trkpt lat="45.88384" lon="4.69271">
        <ele>270.00381469727</ele>
        <time>2015-02-24T06:01:35Z</time>
      </trkpt>
      <trkpt lat="45.88396" lon="4.6927">
        <ele>270.02899169922</ele>
        <time>2015-02-24T06:01:38Z</time>
      </trkpt>
      <trkpt lat="45.88401" lon="4.69271">
        <ele>269.97177124023</ele>
        <time>2015-02-24T06:01:40Z</time>
      </trkpt>
      <trkpt lat="45.88417" lon="4.69274">
        <ele>269.85723876953</ele>
        <time>2015-02-24T06:01:45Z</time>
      </trkpt>
      <trkpt lat="45.88422" lon="4.69275">
        <ele>269.70388793945</ele>
        <time>2015-02-24T06:01:47Z</time>
      </trkpt>
      <trkpt lat="45.8844" lon="4.69277">
        <ele>269.31036376953</ele>
        <time>2015-02-24T06:01:53Z</time>
      </trkpt>
      <trkpt lat="45.88458" lon="4.69281">
        <ele>268.90048217773</ele>
        <time>2015-02-24T06:01:59Z</time>
      </trkpt>
      <trkpt lat="45.88476" lon="4.69282">
        <ele>268.57803344727</ele>
        <time>2015-02-24T06:02:05Z</time>
      </trkpt>
      <trkpt lat="45.88497" lon="4.69286">
        <ele>268.1748046875</ele>
        <time>2015-02-24T06:02:12Z</time>
      </trkpt>
      <trkpt lat="45.885" lon="4.69287">
        <ele>268.10424804688</ele>
        <time>2015-02-24T06:02:13Z</time>
      </trkpt>
      <trkpt lat="45.88506" lon="4.69288">
        <ele>267.98538208008</ele>
        <time>2015-02-24T06:02:15Z</time>
      </trkpt>
      <trkpt lat="45.8852" lon="4.69281">
        <ele>267.85272216797</ele>
        <time>2015-02-24T06:02:20Z</time>
      </trkpt>
      <trkpt lat="45.88526" lon="4.69275">
        <ele>267.87237548828</ele>
        <time>2015-02-24T06:02:22Z</time>
      </trkpt>
      <trkpt lat="45.88528" lon="4.69267">
        <ele>267.98876953125</ele>
        <time>2015-02-24T06:02:24Z</time>
      </trkpt>
      <trkpt lat="45.88529" lon="4.69262">
        <ele>268.06100463867</ele>
        <time>2015-02-24T06:02:25Z</time>
      </trkpt>
      <trkpt lat="45.88535" lon="4.69237">
        <ele>268.53237915039</ele>
        <time>2015-02-24T06:02:31Z</time>
      </trkpt>
      <trkpt lat="45.88536" lon="4.69233">
        <ele>268.62536621094</ele>
        <time>2015-02-24T06:02:32Z</time>
      </trkpt>
      <trkpt lat="45.88538" lon="4.69225">
        <ele>268.81246948242</ele>
        <time>2015-02-24T06:02:34Z</time>
      </trkpt>
      <trkpt lat="45.8854" lon="4.69222">
        <ele>268.87725830078</ele>
        <time>2015-02-24T06:02:35Z</time>
      </trkpt>
      <trkpt lat="45.88548" lon="4.69214">
        <ele>268.9670715332</ele>
        <time>2015-02-24T06:02:38Z</time>
      </trkpt>
      <trkpt lat="45.88566" lon="4.69207">
        <ele>268.861328125</ele>
        <time>2015-02-24T06:02:44Z</time>
      </trkpt>
      <trkpt lat="45.88585" lon="4.69203">
        <ele>268.69549560547</ele>
        <time>2015-02-24T06:02:50Z</time>
      </trkpt>
      <trkpt lat="45.88594" lon="4.692">
        <ele>268.95919799805</ele>
        <time>2015-02-24T06:02:53Z</time>
      </trkpt>
      <trkpt lat="45.88603" lon="4.69198">
        <ele>269.181640625</ele>
        <time>2015-02-24T06:02:56Z</time>
      </trkpt>
      <trkpt lat="45.88612" lon="4.69197">
        <ele>269.37298583984</ele>
        <time>2015-02-24T06:02:59Z</time>
      </trkpt>
      <trkpt lat="45.88622" lon="4.69197">
        <ele>269.53634643555</ele>
        <time>2015-02-24T06:03:02Z</time>
      </trkpt>
      <trkpt lat="45.88637" lon="4.69198">
        <ele>269.74942016602</ele>
        <time>2015-02-24T06:03:07Z</time>
      </trkpt>
      <trkpt lat="45.88655" lon="4.69201">
        <ele>269.97357177734</ele>
        <time>2015-02-24T06:03:13Z</time>
      </trkpt>
      <trkpt lat="45.88675" lon="4.69206">
        <ele>270.1494140625</ele>
        <time>2015-02-24T06:03:20Z</time>
      </trkpt>
      <trkpt lat="45.88688" lon="4.69215">
        <ele>270.09448242188</ele>
        <time>2015-02-24T06:03:25Z</time>
      </trkpt>
      <trkpt lat="45.88691" lon="4.69218">
        <ele>270.05444335938</ele>
        <time>2015-02-24T06:03:26Z</time>
      </trkpt>
      <trkpt lat="45.88694" lon="4.6922">
        <ele>270.03155517578</ele>
        <time>2015-02-24T06:03:27Z</time>
      </trkpt>
      <trkpt lat="45.887" lon="4.69229">
        <ele>269.89880371094</ele>
        <time>2015-02-24T06:03:30Z</time>
      </trkpt>
      <trkpt lat="45.88705" lon="4.69236">
        <ele>269.78778076172</ele>
        <time>2015-02-24T06:03:32Z</time>
      </trkpt>
      <trkpt lat="45.8871" lon="4.69244">
        <ele>269.66418457031</ele>
        <time>2015-02-24T06:03:34Z</time>
      </trkpt>
      <trkpt lat="45.88713" lon="4.69251">
        <ele>269.54516601562</ele>
        <time>2015-02-24T06:03:36Z</time>
      </trkpt>
      <trkpt lat="45.88717" lon="4.69258">
        <ele>269.42385864258</ele>
        <time>2015-02-24T06:03:38Z</time>
      </trkpt>
      <trkpt lat="45.88719" lon="4.69261">
        <ele>269.36434936523</ele>
        <time>2015-02-24T06:03:39Z</time>
      </trkpt>
      <trkpt lat="45.88724" lon="4.69268">
        <ele>269.24761962891</ele>
        <time>2015-02-24T06:03:41Z</time>
      </trkpt>
      <trkpt lat="45.88729" lon="4.69278">
        <ele>269.07366943359</ele>
        <time>2015-02-24T06:03:44Z</time>
      </trkpt>
      <trkpt lat="45.88744" lon="4.69294">
        <ele>268.87225341797</ele>
        <time>2015-02-24T06:03:50Z</time>
      </trkpt>
      <trkpt lat="45.88749" lon="4.69298">
        <ele>268.83221435547</ele>
        <time>2015-02-24T06:03:52Z</time>
      </trkpt>
      <trkpt lat="45.88764" lon="4.69304">
        <ele>269.26928710938</ele>
        <time>2015-02-24T06:03:57Z</time>
      </trkpt>
      <trkpt lat="45.88773" lon="4.69304">
        <ele>269.60583496094</ele>
        <time>2015-02-24T06:04:00Z</time>
      </trkpt>
      <trkpt lat="45.88791" lon="4.69305">
        <ele>270.31048583984</ele>
        <time>2015-02-24T06:04:06Z</time>
      </trkpt>
      <trkpt lat="45.88794" lon="4.69305">
        <ele>270.42764282227</ele>
        <time>2015-02-24T06:04:07Z</time>
      </trkpt>
      <trkpt lat="45.88808" lon="4.69305">
        <ele>271.00561523438</ele>
        <time>2015-02-24T06:04:12Z</time>
      </trkpt>
      <trkpt lat="45.88825" lon="4.69303">
        <ele>271.6819152832</ele>
        <time>2015-02-24T06:04:18Z</time>
      </trkpt>
      <trkpt lat="45.88834" lon="4.693">
        <ele>271.99453735352</ele>
        <time>2015-02-24T06:04:21Z</time>
      </trkpt>
      <trkpt lat="45.88836" lon="4.69298">
        <ele>271.94390869141</ele>
        <time>2015-02-24T06:04:22Z</time>
      </trkpt>
      <trkpt lat="45.88845" lon="4.69292">
        <ele>271.79516601562</ele>
        <time>2015-02-24T06:04:25Z</time>
      </trkpt>
      <trkpt lat="45.88852" lon="4.69285">
        <ele>271.67712402344</ele>
        <time>2015-02-24T06:04:28Z</time>
      </trkpt>
      <trkpt lat="45.88855" lon="4.69283">
        <ele>271.63125610352</ele>
        <time>2015-02-24T06:04:29Z</time>
      </trkpt>
      <trkpt lat="45.88858" lon="4.69281">
        <ele>271.59994506836</ele>
        <time>2015-02-24T06:04:30Z</time>
      </trkpt>
      <trkpt lat="45.88865" lon="4.69274">
        <ele>271.5055847168</ele>
        <time>2015-02-24T06:04:33Z</time>
      </trkpt>
      <trkpt lat="45.88874" lon="4.69267">
        <ele>271.41586303711</ele>
        <time>2015-02-24T06:04:36Z</time>
      </trkpt>
      <trkpt lat="45.88889" lon="4.69253">
        <ele>271.31530761719</ele>
        <time>2015-02-24T06:04:42Z</time>
      </trkpt>
      <trkpt lat="45.88891" lon="4.6925">
        <ele>271.30407714844</ele>
        <time>2015-02-24T06:04:43Z</time>
      </trkpt>
      <trkpt lat="45.88894" lon="4.69248">
        <ele>271.31634521484</ele>
        <time>2015-02-24T06:04:44Z</time>
      </trkpt>
      <trkpt lat="45.88896" lon="4.69245">
        <ele>271.33453369141</ele>
        <time>2015-02-24T06:04:45Z</time>
      </trkpt>
      <trkpt lat="45.88901" lon="4.69241">
        <ele>271.36770629883</ele>
        <time>2015-02-24T06:04:47Z</time>
      </trkpt>
      <trkpt lat="45.88912" lon="4.69232">
        <ele>271.46640014648</ele>
        <time>2015-02-24T06:04:51Z</time>
      </trkpt>
      <trkpt lat="45.88927" lon="4.69226">
        <ele>271.66323852539</ele>
        <time>2015-02-24T06:04:56Z</time>
      </trkpt>
      <trkpt lat="45.8893" lon="4.69225">
        <ele>271.70510864258</ele>
        <time>2015-02-24T06:04:57Z</time>
      </trkpt>
      <trkpt lat="45.88945" lon="4.69223">
        <ele>271.88244628906</ele>
        <time>2015-02-24T06:05:02Z</time>
      </trkpt>
      <trkpt lat="45.8896" lon="4.69219">
        <ele>272.07141113281</ele>
        <time>2015-02-24T06:05:07Z</time>
      </trkpt>
      <trkpt lat="45.88967" lon="4.69218">
        <ele>272.14077758789</ele>
        <time>2015-02-24T06:05:09Z</time>
      </trkpt>
      <trkpt lat="45.88973" lon="4.69215">
        <ele>272.22900390625</ele>
        <time>2015-02-24T06:05:11Z</time>
      </trkpt>
      <trkpt lat="45.88973" lon="4.69215">
        <ele>272.22900390625</ele>
        <time>2015-02-24T06:05:11Z</time>
      </trkpt>
      <trkpt lat="45.88992" lon="4.69209">
        <ele>272.44421386719</ele>
        <time>2015-02-24T06:05:17Z</time>
      </trkpt>
      <trkpt lat="45.8901" lon="4.69202">
        <ele>272.54626464844</ele>
        <time>2015-02-24T06:05:23Z</time>
      </trkpt>
      <trkpt lat="45.89019" lon="4.692">
        <ele>272.55935668945</ele>
        <time>2015-02-24T06:05:26Z</time>
      </trkpt>
      <trkpt lat="45.89034" lon="4.69198">
        <ele>272.57806396484</ele>
        <time>2015-02-24T06:05:31Z</time>
      </trkpt>
      <trkpt lat="45.89052" lon="4.69204">
        <ele>272.32345581055</ele>
        <time>2015-02-24T06:05:37Z</time>
      </trkpt>
      <trkpt lat="45.89065" lon="4.69217">
        <ele>271.75457763672</ele>
        <time>2015-02-24T06:05:42Z</time>
      </trkpt>
      <trkpt lat="45.8908" lon="4.69233">
        <ele>270.84707641602</ele>
        <time>2015-02-24T06:05:48Z</time>
      </trkpt>
      <trkpt lat="45.89083" lon="4.69236">
        <ele>270.67657470703</ele>
        <time>2015-02-24T06:05:49Z</time>
      </trkpt>
      <trkpt lat="45.89093" lon="4.69247">
        <ele>270.0163269043</ele>
        <time>2015-02-24T06:05:53Z</time>
      </trkpt>
      <trkpt lat="45.89096" lon="4.6925">
        <ele>269.86358642578</ele>
        <time>2015-02-24T06:05:54Z</time>
      </trkpt>
      <trkpt lat="45.89111" lon="4.69265">
        <ele>268.93688964844</ele>
        <time>2015-02-24T06:06:00Z</time>
      </trkpt>
      <trkpt lat="45.89114" lon="4.69268">
        <ele>268.79040527344</ele>
        <time>2015-02-24T06:06:01Z</time>
      </trkpt>
      <trkpt lat="45.89116" lon="4.6927">
        <ele>268.68222045898</ele>
        <time>2015-02-24T06:06:02Z</time>
      </trkpt>
      <trkpt lat="45.89129" lon="4.69281">
        <ele>268.20123291016</ele>
        <time>2015-02-24T06:06:07Z</time>
      </trkpt>
      <trkpt lat="45.89142" lon="4.69291">
        <ele>267.8669128418</ele>
        <time>2015-02-24T06:06:12Z</time>
      </trkpt>
      <trkpt lat="45.89145" lon="4.69293">
        <ele>267.82800292969</ele>
        <time>2015-02-24T06:06:13Z</time>
      </trkpt>
      <trkpt lat="45.89156" lon="4.69298">
        <ele>267.74746704102</ele>
        <time>2015-02-24T06:06:17Z</time>
      </trkpt>
      <trkpt lat="45.89163" lon="4.69301">
        <ele>267.73907470703</ele>
        <time>2015-02-24T06:06:19Z</time>
      </trkpt>
      <trkpt lat="45.89165" lon="4.69302">
        <ele>267.74826049805</ele>
        <time>2015-02-24T06:06:20Z</time>
      </trkpt>
      <trkpt lat="45.89172" lon="4.69305">
        <ele>267.47604370117</ele>
        <time>2015-02-24T06:06:22Z</time>
      </trkpt>
      <trkpt lat="45.89175" lon="4.69306">
        <ele>267.33834838867</ele>
        <time>2015-02-24T06:06:23Z</time>
      </trkpt>
      <trkpt lat="45.89181" lon="4.69309">
        <ele>267.03067016602</ele>
        <time>2015-02-24T06:06:25Z</time>
      </trkpt>
      <trkpt lat="45.8919" lon="4.69313">
        <ele>266.56237792969</ele>
        <time>2015-02-24T06:06:28Z</time>
      </trkpt>
      <trkpt lat="45.89193" lon="4.69315">
        <ele>266.42672729492</ele>
        <time>2015-02-24T06:06:29Z</time>
      </trkpt>
      <trkpt lat="45.89202" lon="4.6932">
        <ele>265.96099853516</ele>
        <time>2015-02-24T06:06:32Z</time>
      </trkpt>
      <trkpt lat="45.89205" lon="4.69322">
        <ele>265.82894897461</ele>
        <time>2015-02-24T06:06:33Z</time>
      </trkpt>
      <trkpt lat="45.89211" lon="4.69324">
        <ele>265.55874633789</ele>
        <time>2015-02-24T06:06:35Z</time>
      </trkpt>
      <trkpt lat="45.8922" lon="4.69328">
        <ele>265.17272949219</ele>
        <time>2015-02-24T06:06:38Z</time>
      </trkpt>
      <trkpt lat="45.89225" lon="4.69331">
        <ele>264.9211730957</ele>
        <time>2015-02-24T06:06:40Z</time>
      </trkpt>
      <trkpt lat="45.89234" lon="4.69335">
        <ele>264.51593017578</ele>
        <time>2015-02-24T06:06:43Z</time>
      </trkpt>
      <trkpt lat="45.89243" lon="4.69339">
        <ele>264.04901123047</ele>
        <time>2015-02-24T06:06:46Z</time>
      </trkpt>
      <trkpt lat="45.89258" lon="4.69346">
        <ele>263.37561035156</ele>
        <time>2015-02-24T06:06:51Z</time>
      </trkpt>
      <trkpt lat="45.89267" lon="4.6935">
        <ele>263.04318237305</ele>
        <time>2015-02-24T06:06:54Z</time>
      </trkpt>
      <trkpt lat="45.89273" lon="4.69352">
        <ele>262.85202026367</ele>
        <time>2015-02-24T06:06:56Z</time>
      </trkpt>
      <trkpt lat="45.89291" lon="4.6936">
        <ele>262.22344970703</ele>
        <time>2015-02-24T06:07:02Z</time>
      </trkpt>
      <trkpt lat="45.89306" lon="4.69366">
        <ele>261.75704956055</ele>
        <time>2015-02-24T06:07:07Z</time>
      </trkpt>
      <trkpt lat="45.89312" lon="4.69367">
        <ele>261.619140625</ele>
        <time>2015-02-24T06:07:09Z</time>
      </trkpt>
      <trkpt lat="45.89324" lon="4.69372">
        <ele>261.23583984375</ele>
        <time>2015-02-24T06:07:13Z</time>
      </trkpt>
      <trkpt lat="45.89336" lon="4.69378">
        <ele>260.65383911133</ele>
        <time>2015-02-24T06:07:17Z</time>
      </trkpt>
      <trkpt lat="45.89342" lon="4.69381">
        <ele>260.0149230957</ele>
        <time>2015-02-24T06:07:19Z</time>
      </trkpt>
      <trkpt lat="45.89348" lon="4.69385">
        <ele>259.30740356445</ele>
        <time>2015-02-24T06:07:21Z</time>
      </trkpt>
      <trkpt lat="45.89359" lon="4.69391">
        <ele>258.14950561523</ele>
        <time>2015-02-24T06:07:25Z</time>
      </trkpt>
      <trkpt lat="45.89362" lon="4.69392">
        <ele>257.84609985352</ele>
        <time>2015-02-24T06:07:26Z</time>
      </trkpt>
      <trkpt lat="45.89374" lon="4.694">
        <ele>256.67910766602</ele>
        <time>2015-02-24T06:07:30Z</time>
      </trkpt>
      <trkpt lat="45.89377" lon="4.69403">
        <ele>256.41772460938</ele>
        <time>2015-02-24T06:07:31Z</time>
      </trkpt>
      <trkpt lat="45.89384" lon="4.69413">
        <ele>255.74578857422</ele>
        <time>2015-02-24T06:07:34Z</time>
      </trkpt>
      <trkpt lat="45.89389" lon="4.69419">
        <ele>255.24462890625</ele>
        <time>2015-02-24T06:07:36Z</time>
      </trkpt>
      <trkpt lat="45.89395" lon="4.6943">
        <ele>254.40635681152</ele>
        <time>2015-02-24T06:07:39Z</time>
      </trkpt>
      <trkpt lat="45.89402" lon="4.69441">
        <ele>253.53425598144</ele>
        <time>2015-02-24T06:07:42Z</time>
      </trkpt>
      <trkpt lat="45.89411" lon="4.69456">
        <ele>252.447265625</ele>
        <time>2015-02-24T06:07:46Z</time>
      </trkpt>
      <trkpt lat="45.89413" lon="4.6946">
        <ele>252.18251037598</ele>
        <time>2015-02-24T06:07:47Z</time>
      </trkpt>
      <trkpt lat="45.8942" lon="4.69472">
        <ele>251.52667236328</ele>
        <time>2015-02-24T06:07:50Z</time>
      </trkpt>
      <trkpt lat="45.89425" lon="4.69483">
        <ele>250.99406433106</ele>
        <time>2015-02-24T06:07:53Z</time>
      </trkpt>
      <trkpt lat="45.89431" lon="4.69495">
        <ele>250.45053100586</ele>
        <time>2015-02-24T06:07:56Z</time>
      </trkpt>
      <trkpt lat="45.89437" lon="4.69506">
        <ele>249.91819763184</ele>
        <time>2015-02-24T06:07:59Z</time>
      </trkpt>
      <trkpt lat="45.89438" lon="4.6951">
        <ele>249.76052856445</ele>
        <time>2015-02-24T06:08:00Z</time>
      </trkpt>
      <trkpt lat="45.89446" lon="4.69523">
        <ele>249.12747192383</ele>
        <time>2015-02-24T06:08:04Z</time>
      </trkpt>
      <trkpt lat="45.89448" lon="4.69527">
        <ele>248.9708404541</ele>
        <time>2015-02-24T06:08:05Z</time>
      </trkpt>
      <trkpt lat="45.8945" lon="4.69532">
        <ele>248.80790710449</ele>
        <time>2015-02-24T06:08:06Z</time>
      </trkpt>
      <trkpt lat="45.8946" lon="4.69553">
        <ele>248.00137329102</ele>
        <time>2015-02-24T06:08:12Z</time>
      </trkpt>
      <trkpt lat="45.89462" lon="4.69557">
        <ele>247.85568237305</ele>
        <time>2015-02-24T06:08:13Z</time>
      </trkpt>
      <trkpt lat="45.89466" lon="4.69568">
        <ele>247.48161315918</ele>
        <time>2015-02-24T06:08:16Z</time>
      </trkpt>
      <trkpt lat="45.89468" lon="4.69571">
        <ele>247.35011291504</ele>
        <time>2015-02-24T06:08:17Z</time>
      </trkpt>
      <trkpt lat="45.8947" lon="4.69575">
        <ele>247.23004150391</ele>
        <time>2015-02-24T06:08:18Z</time>
      </trkpt>
      <trkpt lat="45.89474" lon="4.69587">
        <ele>246.78842163086</ele>
        <time>2015-02-24T06:08:21Z</time>
      </trkpt>
      <trkpt lat="45.89484" lon="4.69604">
        <ele>245.77040100098</ele>
        <time>2015-02-24T06:08:26Z</time>
      </trkpt>
      <trkpt lat="45.89489" lon="4.69611">
        <ele>245.35787963867</ele>
        <time>2015-02-24T06:08:28Z</time>
      </trkpt>
      <trkpt lat="45.89495" lon="4.6962">
        <ele>244.83778381348</ele>
        <time>2015-02-24T06:08:31Z</time>
      </trkpt>
      <trkpt lat="45.89498" lon="4.69628">
        <ele>244.45831298828</ele>
        <time>2015-02-24T06:08:33Z</time>
      </trkpt>
      <trkpt lat="45.89505" lon="4.69638">
        <ele>243.85946655273</ele>
        <time>2015-02-24T06:08:36Z</time>
      </trkpt>
      <trkpt lat="45.89507" lon="4.69642">
        <ele>243.62728881836</ele>
        <time>2015-02-24T06:08:37Z</time>
      </trkpt>
      <trkpt lat="45.89512" lon="4.69648">
        <ele>243.19375610352</ele>
        <time>2015-02-24T06:08:39Z</time>
      </trkpt>
      <trkpt lat="45.89514" lon="4.69652">
        <ele>243.01310729981</ele>
        <time>2015-02-24T06:08:40Z</time>
      </trkpt>
      <trkpt lat="45.89516" lon="4.69655">
        <ele>242.81172180176</ele>
        <time>2015-02-24T06:08:41Z</time>
      </trkpt>
      <trkpt lat="45.89521" lon="4.69661">
        <ele>242.41592407227</ele>
        <time>2015-02-24T06:08:43Z</time>
      </trkpt>
      <trkpt lat="45.89524" lon="4.69664">
        <ele>242.22764587402</ele>
        <time>2015-02-24T06:08:44Z</time>
      </trkpt>
      <trkpt lat="45.89525" lon="4.69667">
        <ele>242.06996154785</ele>
        <time>2015-02-24T06:08:45Z</time>
      </trkpt>
      <trkpt lat="45.89529" lon="4.69673">
        <ele>241.46067810059</ele>
        <time>2015-02-24T06:08:47Z</time>
      </trkpt>
      <trkpt lat="45.89532" lon="4.69676">
        <ele>241.11334228516</ele>
        <time>2015-02-24T06:08:48Z</time>
      </trkpt>
      <trkpt lat="45.89533" lon="4.69679">
        <ele>240.88418579102</ele>
        <time>2015-02-24T06:08:49Z</time>
      </trkpt>
      <trkpt lat="45.89536" lon="4.69682">
        <ele>240.51481628418</ele>
        <time>2015-02-24T06:08:50Z</time>
      </trkpt>
      <trkpt lat="45.89539" lon="4.69685">
        <ele>240.15388488769</ele>
        <time>2015-02-24T06:08:51Z</time>
      </trkpt>
      <trkpt lat="45.8954" lon="4.69688">
        <ele>239.931640625</ele>
        <time>2015-02-24T06:08:52Z</time>
      </trkpt>
      <trkpt lat="45.89543" lon="4.69691">
        <ele>239.54423522949</ele>
        <time>2015-02-24T06:08:53Z</time>
      </trkpt>
      <trkpt lat="45.89547" lon="4.69698">
        <ele>238.87884521484</ele>
        <time>2015-02-24T06:08:55Z</time>
      </trkpt>
      <trkpt lat="45.89553" lon="4.69706">
        <ele>237.95913696289</ele>
        <time>2015-02-24T06:08:58Z</time>
      </trkpt>
      <trkpt lat="45.89558" lon="4.6971">
        <ele>237.39225769043</ele>
        <time>2015-02-24T06:09:00Z</time>
      </trkpt>
      <trkpt lat="45.89561" lon="4.69713">
        <ele>237.02806091309</ele>
        <time>2015-02-24T06:09:01Z</time>
      </trkpt>
      <trkpt lat="45.89573" lon="4.69723">
        <ele>235.74197387695</ele>
        <time>2015-02-24T06:09:05Z</time>
      </trkpt>
      <trkpt lat="45.89578" lon="4.69727">
        <ele>235.15998840332</ele>
        <time>2015-02-24T06:09:07Z</time>
      </trkpt>
      <trkpt lat="45.8959" lon="4.69735">
        <ele>234.22448730469</ele>
        <time>2015-02-24T06:09:11Z</time>
      </trkpt>
      <trkpt lat="45.89596" lon="4.69737">
        <ele>234.0166015625</ele>
        <time>2015-02-24T06:09:13Z</time>
      </trkpt>
      <trkpt lat="45.89611" lon="4.69742">
        <ele>233.53199768066</ele>
        <time>2015-02-24T06:09:18Z</time>
      </trkpt>
      <trkpt lat="45.89614" lon="4.69744">
        <ele>233.41740417481</ele>
        <time>2015-02-24T06:09:19Z</time>
      </trkpt>
      <trkpt lat="45.89624" lon="4.69746">
        <ele>233.2188873291</ele>
        <time>2015-02-24T06:09:22Z</time>
      </trkpt>
      <trkpt lat="45.89627" lon="4.69748">
        <ele>233.12202453613</ele>
        <time>2015-02-24T06:09:23Z</time>
      </trkpt>
      <trkpt lat="45.89636" lon="4.69752">
        <ele>232.88999938965</ele>
        <time>2015-02-24T06:09:26Z</time>
      </trkpt>
      <trkpt lat="45.89648" lon="4.69758">
        <ele>232.55087280273</ele>
        <time>2015-02-24T06:09:30Z</time>
      </trkpt>
      <trkpt lat="45.89654" lon="4.69763">
        <ele>232.24105834961</ele>
        <time>2015-02-24T06:09:32Z</time>
      </trkpt>
      <trkpt lat="45.89658" lon="4.6977">
        <ele>231.8518371582</ele>
        <time>2015-02-24T06:09:34Z</time>
      </trkpt>
      <trkpt lat="45.89665" lon="4.6978">
        <ele>231.21098327637</ele>
        <time>2015-02-24T06:09:37Z</time>
      </trkpt>
      <trkpt lat="45.89668" lon="4.69783">
        <ele>230.98045349121</ele>
        <time>2015-02-24T06:09:38Z</time>
      </trkpt>
      <trkpt lat="45.89682" lon="4.69802">
        <ele>229.61578369141</ele>
        <time>2015-02-24T06:09:44Z</time>
      </trkpt>
      <trkpt lat="45.89688" lon="4.69811">
        <ele>229.06170654297</ele>
        <time>2015-02-24T06:09:47Z</time>
      </trkpt>
      <trkpt lat="45.89694" lon="4.69821">
        <ele>228.54745483398</ele>
        <time>2015-02-24T06:09:50Z</time>
      </trkpt>
      <trkpt lat="45.89697" lon="4.69824">
        <ele>228.38822937012</ele>
        <time>2015-02-24T06:09:51Z</time>
      </trkpt>
      <trkpt lat="45.89702" lon="4.6983">
        <ele>228.11965942383</ele>
        <time>2015-02-24T06:09:53Z</time>
      </trkpt>
      <trkpt lat="45.89713" lon="4.69848">
        <ele>227.58108520508</ele>
        <time>2015-02-24T06:09:58Z</time>
      </trkpt>
      <trkpt lat="45.89721" lon="4.69858">
        <ele>227.30393981934</ele>
        <time>2015-02-24T06:10:01Z</time>
      </trkpt>
      <trkpt lat="45.89724" lon="4.69861">
        <ele>227.23655700684</ele>
        <time>2015-02-24T06:10:02Z</time>
      </trkpt>
      <trkpt lat="45.89726" lon="4.69865">
        <ele>227.1434173584</ele>
        <time>2015-02-24T06:10:03Z</time>
      </trkpt>
      <trkpt lat="45.8973" lon="4.69866">
        <ele>227.11047363281</ele>
        <time>2015-02-24T06:10:04Z</time>
      </trkpt>
      <trkpt lat="45.89733" lon="4.69873">
        <ele>226.9582824707</ele>
        <time>2015-02-24T06:10:06Z</time>
      </trkpt>
      <trkpt lat="45.89735" lon="4.69876">
        <ele>226.87785339356</ele>
        <time>2015-02-24T06:10:07Z</time>
      </trkpt>
      <trkpt lat="45.89738" lon="4.6988">
        <ele>226.80941772461</ele>
        <time>2015-02-24T06:10:08Z</time>
      </trkpt>
      <trkpt lat="45.89743" lon="4.69891">
        <ele>226.55009460449</ele>
        <time>2015-02-24T06:10:11Z</time>
      </trkpt>
      <trkpt lat="45.8975" lon="4.69903">
        <ele>226.31884765625</ele>
        <time>2015-02-24T06:10:14Z</time>
      </trkpt>
      <trkpt lat="45.89753" lon="4.69911">
        <ele>226.09239196777</ele>
        <time>2015-02-24T06:10:16Z</time>
      </trkpt>
      <trkpt lat="45.89755" lon="4.69914">
        <ele>225.99168395996</ele>
        <time>2015-02-24T06:10:17Z</time>
      </trkpt>
      <trkpt lat="45.89761" lon="4.69921">
        <ele>225.70980834961</ele>
        <time>2015-02-24T06:10:19Z</time>
      </trkpt>
      <trkpt lat="45.89766" lon="4.69932">
        <ele>225.27436828613</ele>
        <time>2015-02-24T06:10:21Z</time>
      </trkpt>
      <trkpt lat="45.89769" lon="4.69936">
        <ele>225.12657165527</ele>
        <time>2015-02-24T06:10:22Z</time>
      </trkpt>
      <trkpt lat="45.89771" lon="4.6994">
        <ele>224.96710205078</ele>
        <time>2015-02-24T06:10:23Z</time>
      </trkpt>
      <trkpt lat="45.89778" lon="4.6995">
        <ele>224.5983581543</ele>
        <time>2015-02-24T06:10:26Z</time>
      </trkpt>
      <trkpt lat="45.89783" lon="4.69963">
        <ele>224.15727233887</ele>
        <time>2015-02-24T06:10:29Z</time>
      </trkpt>
      <trkpt lat="45.89787" lon="4.69967">
        <ele>224.01637268066</ele>
        <time>2015-02-24T06:10:31Z</time>
      </trkpt>
      <trkpt lat="45.89801" lon="4.69982">
        <ele>223.5224609375</ele>
        <time>2015-02-24T06:10:37Z</time>
      </trkpt>
      <trkpt lat="45.89806" lon="4.69984">
        <ele>223.4446105957</ele>
        <time>2015-02-24T06:10:39Z</time>
      </trkpt>
      <trkpt lat="45.8981" lon="4.69987">
        <ele>223.34330749512</ele>
        <time>2015-02-24T06:10:41Z</time>
      </trkpt>
      <trkpt lat="45.89813" lon="4.69989">
        <ele>223.30444335938</ele>
        <time>2015-02-24T06:10:42Z</time>
      </trkpt>
      <trkpt lat="45.89822" lon="4.69989">
        <ele>223.28343200684</ele>
        <time>2015-02-24T06:10:45Z</time>
      </trkpt>
      <trkpt lat="45.89829" lon="4.69989">
        <ele>223.26602172852</ele>
        <time>2015-02-24T06:10:47Z</time>
      </trkpt>
      <trkpt lat="45.89831" lon="4.69991">
        <ele>223.23001098633</ele>
        <time>2015-02-24T06:10:48Z</time>
      </trkpt>
      <trkpt lat="45.89835" lon="4.6999">
        <ele>223.23391723633</ele>
        <time>2015-02-24T06:10:49Z</time>
      </trkpt>
      <trkpt lat="45.89849" lon="4.69991">
        <ele>223.21789550781</ele>
        <time>2015-02-24T06:10:53Z</time>
      </trkpt>
      <trkpt lat="45.89861" lon="4.69992">
        <ele>223.18241882324</ele>
        <time>2015-02-24T06:10:57Z</time>
      </trkpt>
      <trkpt lat="45.89867" lon="4.69994">
        <ele>223.15037536621</ele>
        <time>2015-02-24T06:10:59Z</time>
      </trkpt>
      <trkpt lat="45.89872" lon="4.69995">
        <ele>223.10917663574</ele>
        <time>2015-02-24T06:11:01Z</time>
      </trkpt>
      <trkpt lat="45.89877" lon="4.69997">
        <ele>223.08056640625</ele>
        <time>2015-02-24T06:11:03Z</time>
      </trkpt>
      <trkpt lat="45.89881" lon="4.69996">
        <ele>223.08514404297</ele>
        <time>2015-02-24T06:11:04Z</time>
      </trkpt>
      <trkpt lat="45.89884" lon="4.69998">
        <ele>223.0553894043</ele>
        <time>2015-02-24T06:11:05Z</time>
      </trkpt>
      <trkpt lat="45.89887" lon="4.69999">
        <ele>223.01647949219</ele>
        <time>2015-02-24T06:11:06Z</time>
      </trkpt>
      <trkpt lat="45.89899" lon="4.70007">
        <ele>222.81829833984</ele>
        <time>2015-02-24T06:11:10Z</time>
      </trkpt>
      <trkpt lat="45.89902" lon="4.70009">
        <ele>222.76856994629</ele>
        <time>2015-02-24T06:11:11Z</time>
      </trkpt>
      <trkpt lat="45.89908" lon="4.70012">
        <ele>222.70283508301</ele>
        <time>2015-02-24T06:11:13Z</time>
      </trkpt>
      <trkpt lat="45.8991" lon="4.70012">
        <ele>222.70671081543</ele>
        <time>2015-02-24T06:11:14Z</time>
      </trkpt>
      <trkpt lat="45.89914" lon="4.70013">
        <ele>222.67289733887</ele>
        <time>2015-02-24T06:11:15Z</time>
      </trkpt>
      <trkpt lat="45.89919" lon="4.70017">
        <ele>222.6862487793</ele>
        <time>2015-02-24T06:11:17Z</time>
      </trkpt>
      <trkpt lat="45.89927" lon="4.70023">
        <ele>222.86299133301</ele>
        <time>2015-02-24T06:11:20Z</time>
      </trkpt>
      <trkpt lat="45.89946" lon="4.70027">
        <ele>223.40089416504</ele>
        <time>2015-02-24T06:11:26Z</time>
      </trkpt>
      <trkpt lat="45.89952" lon="4.70028">
        <ele>223.57037353516</ele>
        <time>2015-02-24T06:11:28Z</time>
      </trkpt>
      <trkpt lat="45.89955" lon="4.70028">
        <ele>223.6891784668</ele>
        <time>2015-02-24T06:11:29Z</time>
      </trkpt>
      <trkpt lat="45.89962" lon="4.70028">
        <ele>223.93719482422</ele>
        <time>2015-02-24T06:11:31Z</time>
      </trkpt>
      <trkpt lat="45.89973" lon="4.70028">
        <ele>224.35192871094</ele>
        <time>2015-02-24T06:11:35Z</time>
      </trkpt>
      <trkpt lat="45.89977" lon="4.70029">
        <ele>224.43576049805</ele>
        <time>2015-02-24T06:11:36Z</time>
      </trkpt>
      <trkpt lat="45.8998" lon="4.7003">
        <ele>224.52635192871</ele>
        <time>2015-02-24T06:11:37Z</time>
      </trkpt>
      <trkpt lat="45.89983" lon="4.7003">
        <ele>224.60850524902</ele>
        <time>2015-02-24T06:11:38Z</time>
      </trkpt>
      <trkpt lat="45.89989" lon="4.70031">
        <ele>224.77169799805</ele>
        <time>2015-02-24T06:11:40Z</time>
      </trkpt>
      <trkpt lat="45.89992" lon="4.70031">
        <ele>224.86134338379</ele>
        <time>2015-02-24T06:11:41Z</time>
      </trkpt>
      <trkpt lat="45.90001" lon="4.70032">
        <ele>225.09915161133</ele>
        <time>2015-02-24T06:11:44Z</time>
      </trkpt>
      <trkpt lat="45.90017" lon="4.70032">
        <ele>225.63101196289</ele>
        <time>2015-02-24T06:11:49Z</time>
      </trkpt>
      <trkpt lat="45.9002" lon="4.70031">
        <ele>225.73892211914</ele>
        <time>2015-02-24T06:11:50Z</time>
      </trkpt>
      <trkpt lat="45.90038" lon="4.70028">
        <ele>226.51560974121</ele>
        <time>2015-02-24T06:11:56Z</time>
      </trkpt>
      <trkpt lat="45.90041" lon="4.70028">
        <ele>226.61904907227</ele>
        <time>2015-02-24T06:11:57Z</time>
      </trkpt>
      <trkpt lat="45.90053" lon="4.70027">
        <ele>227.10578918457</ele>
        <time>2015-02-24T06:12:01Z</time>
      </trkpt>
      <trkpt lat="45.90059" lon="4.70025">
        <ele>227.39352416992</ele>
        <time>2015-02-24T06:12:03Z</time>
      </trkpt>
      <trkpt lat="45.90068" lon="4.70024">
        <ele>227.78955078125</ele>
        <time>2015-02-24T06:12:06Z</time>
      </trkpt>
      <trkpt lat="45.90081" lon="4.70022">
        <ele>228.34967041016</ele>
        <time>2015-02-24T06:12:10Z</time>
      </trkpt>
      <trkpt lat="45.9009" lon="4.7002">
        <ele>228.52578735352</ele>
        <time>2015-02-24T06:12:13Z</time>
      </trkpt>
      <trkpt lat="45.90093" lon="4.70018">
        <ele>228.62626647949</ele>
        <time>2015-02-24T06:12:14Z</time>
      </trkpt>
      <trkpt lat="45.90099" lon="4.70016">
        <ele>228.71304321289</ele>
        <time>2015-02-24T06:12:16Z</time>
      </trkpt>
      <trkpt lat="45.90112" lon="4.70011">
        <ele>228.97399902344</ele>
        <time>2015-02-24T06:12:21Z</time>
      </trkpt>
      <trkpt lat="45.90111" lon="4.70007">
        <ele>229.21574401856</ele>
        <time>2015-02-24T06:12:22Z</time>
      </trkpt>
      <trkpt lat="45.90111" lon="4.7">
        <ele>229.66577148438</ele>
        <time>2015-02-24T06:12:24Z</time>
      </trkpt>
      <trkpt lat="45.90109" lon="4.69993">
        <ele>230.35565185547</ele>
        <time>2015-02-24T06:12:26Z</time>
      </trkpt>
      <trkpt lat="45.9011" lon="4.69987">
        <ele>230.92611694336</ele>
        <time>2015-02-24T06:12:28Z</time>
      </trkpt>
      <trkpt lat="45.90108" lon="4.6998">
        <ele>231.53672790527</ele>
        <time>2015-02-24T06:12:30Z</time>
      </trkpt>
      <trkpt lat="45.90108" lon="4.69973">
        <ele>232.18589782715</ele>
        <time>2015-02-24T06:12:32Z</time>
      </trkpt>
      <trkpt lat="45.90108" lon="4.6997">
        <ele>232.4723815918</ele>
        <time>2015-02-24T06:12:33Z</time>
      </trkpt>
      <trkpt lat="45.90107" lon="4.69967">
        <ele>232.7628326416</ele>
        <time>2015-02-24T06:12:34Z</time>
      </trkpt>
      <trkpt lat="45.90105" lon="4.69953">
        <ele>234.06057739258</ele>
        <time>2015-02-24T06:12:38Z</time>
      </trkpt>
      <trkpt lat="45.90105" lon="4.69951">
        <ele>234.30400085449</ele>
        <time>2015-02-24T06:12:39Z</time>
      </trkpt>
      <trkpt lat="45.90107" lon="4.69941">
        <ele>235.16133117676</ele>
        <time>2015-02-24T06:12:42Z</time>
      </trkpt>
      <trkpt lat="45.90107" lon="4.69935">
        <ele>235.71937561035</ele>
        <time>2015-02-24T06:12:44Z</time>
      </trkpt>
      <trkpt lat="45.90108" lon="4.69929">
        <ele>236.31983947754</ele>
        <time>2015-02-24T06:12:46Z</time>
      </trkpt>
      <trkpt lat="45.90108" lon="4.69926">
        <ele>236.57121276856</ele>
        <time>2015-02-24T06:12:47Z</time>
      </trkpt>
      <trkpt lat="45.90108" lon="4.6992">
        <ele>237.11790466309</ele>
        <time>2015-02-24T06:12:49Z</time>
      </trkpt>
      <trkpt lat="45.90108" lon="4.69917">
        <ele>237.37826538086</ele>
        <time>2015-02-24T06:12:50Z</time>
      </trkpt>
      <trkpt lat="45.90108" lon="4.69903">
        <ele>238.91815185547</ele>
        <time>2015-02-24T06:12:55Z</time>
      </trkpt>
      <trkpt lat="45.90108" lon="4.69898">
        <ele>239.54028320312</ele>
        <time>2015-02-24T06:12:57Z</time>
      </trkpt>
      <trkpt lat="45.90108" lon="4.69892">
        <ele>240.14114379883</ele>
        <time>2015-02-24T06:12:59Z</time>
      </trkpt>
      <trkpt lat="45.90108" lon="4.6989">
        <ele>240.41764831543</ele>
        <time>2015-02-24T06:13:00Z</time>
      </trkpt>
      <trkpt lat="45.90107" lon="4.69887">
        <ele>240.74641418457</ele>
        <time>2015-02-24T06:13:01Z</time>
      </trkpt>
      <trkpt lat="45.90107" lon="4.69882">
        <ele>241.24771118164</ele>
        <time>2015-02-24T06:13:03Z</time>
      </trkpt>
      <trkpt lat="45.90107" lon="4.6988">
        <ele>241.50787353516</ele>
        <time>2015-02-24T06:13:04Z</time>
      </trkpt>
      <trkpt lat="45.90105" lon="4.6987">
        <ele>242.63206481934</ele>
        <time>2015-02-24T06:13:08Z</time>
      </trkpt>
      <trkpt lat="45.90105" lon="4.69865">
        <ele>243.17385864258</ele>
        <time>2015-02-24T06:13:10Z</time>
      </trkpt>
      <trkpt lat="45.90105" lon="4.6986">
        <ele>243.75750732422</ele>
        <time>2015-02-24T06:13:12Z</time>
      </trkpt>
      <trkpt lat="45.90104" lon="4.6985">
        <ele>244.9338684082</ele>
        <time>2015-02-24T06:13:16Z</time>
      </trkpt>
      <trkpt lat="45.90103" lon="4.69844">
        <ele>245.58422851562</ele>
        <time>2015-02-24T06:13:18Z</time>
      </trkpt>
      <trkpt lat="45.90102" lon="4.69841">
        <ele>245.88497924805</ele>
        <time>2015-02-24T06:13:19Z</time>
      </trkpt>
      <trkpt lat="45.90101" lon="4.69827">
        <ele>247.34230041504</ele>
        <time>2015-02-24T06:13:24Z</time>
      </trkpt>
      <trkpt lat="45.901" lon="4.69822">
        <ele>247.83294677734</ele>
        <time>2015-02-24T06:13:26Z</time>
      </trkpt>
      <trkpt lat="45.901" lon="4.69819">
        <ele>248.07737731934</ele>
        <time>2015-02-24T06:13:27Z</time>
      </trkpt>
      <trkpt lat="45.901" lon="4.69811">
        <ele>248.82192993164</ele>
        <time>2015-02-24T06:13:30Z</time>
      </trkpt>
      <trkpt lat="45.901" lon="4.69802">
        <ele>249.55380249023</ele>
        <time>2015-02-24T06:13:33Z</time>
      </trkpt>
      <trkpt lat="45.901" lon="4.698">
        <ele>249.80339050293</ele>
        <time>2015-02-24T06:13:34Z</time>
      </trkpt>
      <trkpt lat="45.901" lon="4.6979">
        <ele>250.64100646973</ele>
        <time>2015-02-24T06:13:37Z</time>
      </trkpt>
      <trkpt lat="45.901" lon="4.69781">
        <ele>251.47137451172</ele>
        <time>2015-02-24T06:13:40Z</time>
      </trkpt>
      <trkpt lat="45.90102" lon="4.69767">
        <ele>252.66802978516</ele>
        <time>2015-02-24T06:13:44Z</time>
      </trkpt>
      <trkpt lat="45.90102" lon="4.69764">
        <ele>252.96600341797</ele>
        <time>2015-02-24T06:13:45Z</time>
      </trkpt>
      <trkpt lat="45.90104" lon="4.6975">
        <ele>254.21058654785</ele>
        <time>2015-02-24T06:13:49Z</time>
      </trkpt>
      <trkpt lat="45.90105" lon="4.69743">
        <ele>254.19500732422</ele>
        <time>2015-02-24T06:13:52Z</time>
      </trkpt>
      <trkpt lat="45.90106" lon="4.69731">
        <ele>254.10563659668</ele>
        <time>2015-02-24T06:13:56Z</time>
      </trkpt>
      <trkpt lat="45.90108" lon="4.69718">
        <ele>254.02688598633</ele>
        <time>2015-02-24T06:14:00Z</time>
      </trkpt>
      <trkpt lat="45.9011" lon="4.69692">
        <ele>253.85357666016</ele>
        <time>2015-02-24T06:14:07Z</time>
      </trkpt>
      <trkpt lat="45.90111" lon="4.69687">
        <ele>253.82144165039</ele>
        <time>2015-02-24T06:14:08Z</time>
      </trkpt>
      <trkpt lat="45.90112" lon="4.69679">
        <ele>253.77355957031</ele>
        <time>2015-02-24T06:14:10Z</time>
      </trkpt>
      <trkpt lat="45.90113" lon="4.69675">
        <ele>253.76751708984</ele>
        <time>2015-02-24T06:14:11Z</time>
      </trkpt>
      <trkpt lat="45.90113" lon="4.69671">
        <ele>253.75570678711</ele>
        <time>2015-02-24T06:14:12Z</time>
      </trkpt>
      <trkpt lat="45.90115" lon="4.69645">
        <ele>253.96054077148</ele>
        <time>2015-02-24T06:14:18Z</time>
      </trkpt>
      <trkpt lat="45.90117" lon="4.69618">
        <ele>254.28956604004</ele>
        <time>2015-02-24T06:14:24Z</time>
      </trkpt>
      <trkpt lat="45.90121" lon="4.69606">
        <ele>254.54524230957</ele>
        <time>2015-02-24T06:14:27Z</time>
      </trkpt>
      <trkpt lat="45.90126" lon="4.69601">
        <ele>254.82652282715</ele>
        <time>2015-02-24T06:14:29Z</time>
      </trkpt>
      <trkpt lat="45.90129" lon="4.696">
        <ele>254.9619140625</ele>
        <time>2015-02-24T06:14:30Z</time>
      </trkpt>
      <trkpt lat="45.90134" lon="4.69595">
        <ele>255.24063110352</ele>
        <time>2015-02-24T06:14:32Z</time>
      </trkpt>
      <trkpt lat="45.90141" lon="4.69588">
        <ele>255.69885253906</ele>
        <time>2015-02-24T06:14:35Z</time>
      </trkpt>
      <trkpt lat="45.90145" lon="4.69582">
        <ele>255.98658752441</ele>
        <time>2015-02-24T06:14:37Z</time>
      </trkpt>
      <trkpt lat="45.90147" lon="4.69579">
        <ele>256.2170715332</ele>
        <time>2015-02-24T06:14:38Z</time>
      </trkpt>
      <trkpt lat="45.90148" lon="4.69576">
        <ele>256.37292480469</ele>
        <time>2015-02-24T06:14:39Z</time>
      </trkpt>
      <trkpt lat="45.90152" lon="4.69563">
        <ele>256.98205566406</ele>
        <time>2015-02-24T06:14:42Z</time>
      </trkpt>
      <trkpt lat="45.90154" lon="4.69554">
        <ele>257.4069519043</ele>
        <time>2015-02-24T06:14:44Z</time>
      </trkpt>
      <trkpt lat="45.90155" lon="4.69551">
        <ele>257.58801269531</ele>
        <time>2015-02-24T06:14:45Z</time>
      </trkpt>
      <trkpt lat="45.90157" lon="4.69543">
        <ele>257.96618652344</ele>
        <time>2015-02-24T06:14:47Z</time>
      </trkpt>
      <trkpt lat="45.9016" lon="4.69534">
        <ele>258.37142944336</ele>
        <time>2015-02-24T06:14:49Z</time>
      </trkpt>
      <trkpt lat="45.90166" lon="4.69513">
        <ele>259.48544311523</ele>
        <time>2015-02-24T06:14:55Z</time>
      </trkpt>
      <trkpt lat="45.90166" lon="4.69508">
        <ele>259.68762207031</ele>
        <time>2015-02-24T06:14:56Z</time>
      </trkpt>
      <trkpt lat="45.9017" lon="4.69492">
        <ele>260.31805419922</ele>
        <time>2015-02-24T06:15:00Z</time>
      </trkpt>
      <trkpt lat="45.90171" lon="4.69487">
        <ele>260.4616394043</ele>
        <time>2015-02-24T06:15:01Z</time>
      </trkpt>
      <trkpt lat="45.90175" lon="4.69473">
        <ele>260.92260742188</ele>
        <time>2015-02-24T06:15:05Z</time>
      </trkpt>
      <trkpt lat="45.90176" lon="4.69457">
        <ele>261.31143188477</ele>
        <time>2015-02-24T06:15:09Z</time>
      </trkpt>
      <trkpt lat="45.90178" lon="4.69453">
        <ele>261.45260620117</ele>
        <time>2015-02-24T06:15:10Z</time>
      </trkpt>
      <trkpt lat="45.90179" lon="4.69449">
        <ele>261.57400512695</ele>
        <time>2015-02-24T06:15:11Z</time>
      </trkpt>
      <trkpt lat="45.90181" lon="4.69442">
        <ele>261.7971496582</ele>
        <time>2015-02-24T06:15:13Z</time>
      </trkpt>
      <trkpt lat="45.90184" lon="4.69429">
        <ele>262.15570068359</ele>
        <time>2015-02-24T06:15:16Z</time>
      </trkpt>
      <trkpt lat="45.90185" lon="4.69425">
        <ele>262.25982666016</ele>
        <time>2015-02-24T06:15:17Z</time>
      </trkpt>
      <trkpt lat="45.90189" lon="4.69414">
        <ele>262.63092041016</ele>
        <time>2015-02-24T06:15:20Z</time>
      </trkpt>
      <trkpt lat="45.90191" lon="4.69409">
        <ele>262.82006835938</ele>
        <time>2015-02-24T06:15:21Z</time>
      </trkpt>
      <trkpt lat="45.90201" lon="4.69394">
        <ele>263.54611206055</ele>
        <time>2015-02-24T06:15:26Z</time>
      </trkpt>
      <trkpt lat="45.90203" lon="4.69391">
        <ele>263.67645263672</ele>
        <time>2015-02-24T06:15:27Z</time>
      </trkpt>
      <trkpt lat="45.9021" lon="4.69383">
        <ele>264.06259155273</ele>
        <time>2015-02-24T06:15:30Z</time>
      </trkpt>
      <trkpt lat="45.90213" lon="4.6938">
        <ele>264.19033813477</ele>
        <time>2015-02-24T06:15:31Z</time>
      </trkpt>
      <trkpt lat="45.90224" lon="4.69367">
        <ele>264.7453918457</ele>
        <time>2015-02-24T06:15:36Z</time>
      </trkpt>
      <trkpt lat="45.90227" lon="4.69365">
        <ele>264.86575317383</ele>
        <time>2015-02-24T06:15:37Z</time>
      </trkpt>
      <trkpt lat="45.90235" lon="4.69363">
        <ele>265.05307006836</ele>
        <time>2015-02-24T06:15:40Z</time>
      </trkpt>
      <trkpt lat="45.90238" lon="4.69364">
        <ele>265.06094360352</ele>
        <time>2015-02-24T06:15:41Z</time>
      </trkpt>
      <trkpt lat="45.90252" lon="4.69378">
        <ele>264.94442749023</ele>
        <time>2015-02-24T06:15:46Z</time>
      </trkpt>
      <trkpt lat="45.90255" lon="4.6938">
        <ele>264.8984375</ele>
        <time>2015-02-24T06:15:47Z</time>
      </trkpt>
      <trkpt lat="45.90266" lon="4.69394">
        <ele>264.59213256836</ele>
        <time>2015-02-24T06:15:52Z</time>
      </trkpt>
      <trkpt lat="45.90282" lon="4.69412">
        <ele>264.12307739258</ele>
        <time>2015-02-24T06:15:59Z</time>
      </trkpt>
      <trkpt lat="45.90292" lon="4.69423">
        <ele>263.83847045898</ele>
        <time>2015-02-24T06:16:03Z</time>
      </trkpt>
      <trkpt lat="45.903" lon="4.69431">
        <ele>263.61199951172</ele>
        <time>2015-02-24T06:16:06Z</time>
      </trkpt>
      <trkpt lat="45.90309" lon="4.6944">
        <ele>263.33135986328</ele>
        <time>2015-02-24T06:16:09Z</time>
      </trkpt>
      <trkpt lat="45.90321" lon="4.69449">
        <ele>262.95129394531</ele>
        <time>2015-02-24T06:16:13Z</time>
      </trkpt>
      <trkpt lat="45.90335" lon="4.69458">
        <ele>262.50875854492</ele>
        <time>2015-02-24T06:16:18Z</time>
      </trkpt>
      <trkpt lat="45.9035" lon="4.6947">
        <ele>261.94515991211</ele>
        <time>2015-02-24T06:16:23Z</time>
      </trkpt>
      <trkpt lat="45.90352" lon="4.69473">
        <ele>261.81008911133</ele>
        <time>2015-02-24T06:16:24Z</time>
      </trkpt>
      <trkpt lat="45.90364" lon="4.69488">
        <ele>261.11233520508</ele>
        <time>2015-02-24T06:16:29Z</time>
      </trkpt>
      <trkpt lat="45.90368" lon="4.69496">
        <ele>260.77261352539</ele>
        <time>2015-02-24T06:16:31Z</time>
      </trkpt>
      <trkpt lat="45.90371" lon="4.69497">
        <ele>260.66799926758</ele>
        <time>2015-02-24T06:16:32Z</time>
      </trkpt>
      <trkpt lat="45.90375" lon="4.69498">
        <ele>260.56774902344</ele>
        <time>2015-02-24T06:16:33Z</time>
      </trkpt>
      <trkpt lat="45.90384" lon="4.69505">
        <ele>260.11566162109</ele>
        <time>2015-02-24T06:16:36Z</time>
      </trkpt>
      <trkpt lat="45.90396" lon="4.69507">
        <ele>259.84216308594</ele>
        <time>2015-02-24T06:16:40Z</time>
      </trkpt>
      <trkpt lat="45.904" lon="4.69508">
        <ele>259.73913574219</ele>
        <time>2015-02-24T06:16:41Z</time>
      </trkpt>
      <trkpt lat="45.90406" lon="4.69509">
        <ele>259.59439086914</ele>
        <time>2015-02-24T06:16:43Z</time>
      </trkpt>
      <trkpt lat="45.90413" lon="4.69512">
        <ele>259.3489074707</ele>
        <time>2015-02-24T06:16:45Z</time>
      </trkpt>
      <trkpt lat="45.90429" lon="4.69517">
        <ele>258.7190246582</ele>
        <time>2015-02-24T06:16:50Z</time>
      </trkpt>
      <trkpt lat="45.90449" lon="4.69525">
        <ele>257.82131958008</ele>
        <time>2015-02-24T06:16:56Z</time>
      </trkpt>
      <trkpt lat="45.90457" lon="4.69535">
        <ele>257.13092041016</ele>
        <time>2015-02-24T06:16:59Z</time>
      </trkpt>
      <trkpt lat="45.90458" lon="4.69539">
        <ele>256.88681030273</ele>
        <time>2015-02-24T06:17:00Z</time>
      </trkpt>
      <trkpt lat="45.90459" lon="4.6955">
        <ele>256.29348754883</ele>
        <time>2015-02-24T06:17:02Z</time>
      </trkpt>
      <trkpt lat="45.9046" lon="4.69558">
        <ele>255.82669067383</ele>
        <time>2015-02-24T06:17:04Z</time>
      </trkpt>
      <trkpt lat="45.90461" lon="4.69572">
        <ele>255.09027099609</ele>
        <time>2015-02-24T06:17:07Z</time>
      </trkpt>
      <trkpt lat="45.90462" lon="4.69576">
        <ele>254.83753967285</ele>
        <time>2015-02-24T06:17:08Z</time>
      </trkpt>
      <trkpt lat="45.90462" lon="4.69584">
        <ele>254.41069030762</ele>
        <time>2015-02-24T06:17:10Z</time>
      </trkpt>
      <trkpt lat="45.90466" lon="4.69602">
        <ele>253.7862701416</ele>
        <time>2015-02-24T06:17:14Z</time>
      </trkpt>
      <trkpt lat="45.90468" lon="4.6961">
        <ele>253.49340820312</ele>
        <time>2015-02-24T06:17:16Z</time>
      </trkpt>
      <trkpt lat="45.9047" lon="4.6962">
        <ele>253.17951965332</ele>
        <time>2015-02-24T06:17:18Z</time>
      </trkpt>
      <trkpt lat="45.90472" lon="4.69632">
        <ele>252.76393127441</ele>
        <time>2015-02-24T06:17:21Z</time>
      </trkpt>
      <trkpt lat="45.90475" lon="4.69655">
        <ele>252.06921386719</ele>
        <time>2015-02-24T06:17:26Z</time>
      </trkpt>
      <trkpt lat="45.90477" lon="4.69667">
        <ele>251.70138549805</ele>
        <time>2015-02-24T06:17:29Z</time>
      </trkpt>
      <trkpt lat="45.90478" lon="4.69677">
        <ele>251.34661865234</ele>
        <time>2015-02-24T06:17:31Z</time>
      </trkpt>
      <trkpt lat="45.90475" lon="4.69695">
        <ele>250.67370605469</ele>
        <time>2015-02-24T06:17:35Z</time>
      </trkpt>
      <trkpt lat="45.90467" lon="4.69712">
        <ele>249.98075866699</ele>
        <time>2015-02-24T06:17:39Z</time>
      </trkpt>
      <trkpt lat="45.90462" lon="4.69735">
        <ele>249.10070800781</ele>
        <time>2015-02-24T06:17:44Z</time>
      </trkpt>
      <trkpt lat="45.90462" lon="4.69744">
        <ele>248.76368713379</ele>
        <time>2015-02-24T06:17:46Z</time>
      </trkpt>
      <trkpt lat="45.90465" lon="4.69757">
        <ele>248.1475982666</ele>
        <time>2015-02-24T06:17:49Z</time>
      </trkpt>
      <trkpt lat="45.90474" lon="4.69768">
        <ele>247.62535095215</ele>
        <time>2015-02-24T06:17:53Z</time>
      </trkpt>
      <trkpt lat="45.90481" lon="4.69772">
        <ele>247.51214599609</ele>
        <time>2015-02-24T06:17:55Z</time>
      </trkpt>
      <trkpt lat="45.90487" lon="4.69775">
        <ele>247.49078369141</ele>
        <time>2015-02-24T06:17:57Z</time>
      </trkpt>
      <trkpt lat="45.90503" lon="4.69779">
        <ele>247.50006103516</ele>
        <time>2015-02-24T06:18:02Z</time>
      </trkpt>
      <trkpt lat="45.90506" lon="4.69779">
        <ele>247.43092346191</ele>
        <time>2015-02-24T06:18:03Z</time>
      </trkpt>
      <trkpt lat="45.90522" lon="4.69782">
        <ele>246.85998535156</ele>
        <time>2015-02-24T06:18:08Z</time>
      </trkpt>
      <trkpt lat="45.90528" lon="4.69785">
        <ele>246.56359863281</ele>
        <time>2015-02-24T06:18:10Z</time>
      </trkpt>
      <trkpt lat="45.90536" lon="4.69793">
        <ele>246.05847167969</ele>
        <time>2015-02-24T06:18:13Z</time>
      </trkpt>
      <trkpt lat="45.90553" lon="4.6981">
        <ele>245.1262512207</ele>
        <time>2015-02-24T06:18:19Z</time>
      </trkpt>
      <trkpt lat="45.90571" lon="4.69821">
        <ele>244.48977661133</ele>
        <time>2015-02-24T06:18:25Z</time>
      </trkpt>
      <trkpt lat="45.90575" lon="4.69822">
        <ele>244.39508056641</ele>
        <time>2015-02-24T06:18:26Z</time>
      </trkpt>
      <trkpt lat="45.90593" lon="4.6983">
        <ele>243.65574645996</ele>
        <time>2015-02-24T06:18:32Z</time>
      </trkpt>
      <trkpt lat="45.90599" lon="4.69833">
        <ele>243.27311706543</ele>
        <time>2015-02-24T06:18:34Z</time>
      </trkpt>
      <trkpt lat="45.90602" lon="4.69833">
        <ele>243.12133789062</ele>
        <time>2015-02-24T06:18:35Z</time>
      </trkpt>
      <trkpt lat="45.90612" lon="4.69832">
        <ele>242.66586303711</ele>
        <time>2015-02-24T06:18:38Z</time>
      </trkpt>
      <trkpt lat="45.90622" lon="4.6983">
        <ele>242.25440979004</ele>
        <time>2015-02-24T06:18:41Z</time>
      </trkpt>
      <trkpt lat="45.90631" lon="4.69826">
        <ele>241.96345520019</ele>
        <time>2015-02-24T06:18:44Z</time>
      </trkpt>
      <trkpt lat="45.90638" lon="4.69824">
        <ele>241.74510192871</ele>
        <time>2015-02-24T06:18:46Z</time>
      </trkpt>
      <trkpt lat="45.90644" lon="4.69821">
        <ele>241.57429504394</ele>
        <time>2015-02-24T06:18:48Z</time>
      </trkpt>
      <trkpt lat="45.90648" lon="4.69822">
        <ele>241.37690734863</ele>
        <time>2015-02-24T06:18:49Z</time>
      </trkpt>
      <trkpt lat="45.90651" lon="4.69824">
        <ele>241.16560363769</ele>
        <time>2015-02-24T06:18:50Z</time>
      </trkpt>
      <trkpt lat="45.90668" lon="4.69833">
        <ele>240.01635742188</ele>
        <time>2015-02-24T06:18:55Z</time>
      </trkpt>
      <trkpt lat="45.90681" lon="4.69835">
        <ele>239.91719055176</ele>
        <time>2015-02-24T06:18:59Z</time>
      </trkpt>
      <trkpt lat="45.90693" lon="4.69839">
        <ele>239.59025573731</ele>
        <time>2015-02-24T06:19:03Z</time>
      </trkpt>
      <trkpt lat="45.90698" lon="4.69857">
        <ele>238.39739990234</ele>
        <time>2015-02-24T06:19:07Z</time>
      </trkpt>
      <trkpt lat="45.90697" lon="4.69865">
        <ele>237.85484313965</ele>
        <time>2015-02-24T06:19:09Z</time>
      </trkpt>
      <trkpt lat="45.90698" lon="4.69874">
        <ele>237.27395629883</ele>
        <time>2015-02-24T06:19:11Z</time>
      </trkpt>
      <trkpt lat="45.90698" lon="4.69884">
        <ele>236.57820129394</ele>
        <time>2015-02-24T06:19:13Z</time>
      </trkpt>
      <trkpt lat="45.90699" lon="4.69897">
        <ele>235.71354675293</ele>
        <time>2015-02-24T06:19:16Z</time>
      </trkpt>
      <trkpt lat="45.90702" lon="4.69901">
        <ele>235.49588012695</ele>
        <time>2015-02-24T06:19:17Z</time>
      </trkpt>
      <trkpt lat="45.90704" lon="4.69905">
        <ele>235.25701904297</ele>
        <time>2015-02-24T06:19:18Z</time>
      </trkpt>
      <trkpt lat="45.90707" lon="4.69906">
        <ele>235.18098449707</ele>
        <time>2015-02-24T06:19:19Z</time>
      </trkpt>
      <trkpt lat="45.90715" lon="4.69908">
        <ele>235.15643310547</ele>
        <time>2015-02-24T06:19:22Z</time>
      </trkpt>
      <trkpt lat="45.90718" lon="4.69908">
        <ele>235.1922454834</ele>
        <time>2015-02-24T06:19:23Z</time>
      </trkpt>
      <trkpt lat="45.90731" lon="4.69904">
        <ele>235.56546020508</ele>
        <time>2015-02-24T06:19:28Z</time>
      </trkpt>
      <trkpt lat="45.90743" lon="4.69902">
        <ele>235.81387329102</ele>
        <time>2015-02-24T06:19:32Z</time>
      </trkpt>
      <trkpt lat="45.90746" lon="4.69901">
        <ele>235.87493896484</ele>
        <time>2015-02-24T06:19:33Z</time>
      </trkpt>
      <trkpt lat="45.90756" lon="4.699">
        <ele>236.12924194336</ele>
        <time>2015-02-24T06:19:37Z</time>
      </trkpt>
      <trkpt lat="45.90762" lon="4.699">
        <ele>236.25073242188</ele>
        <time>2015-02-24T06:19:39Z</time>
      </trkpt>
      <trkpt lat="45.90769" lon="4.69899">
        <ele>236.46705627441</ele>
        <time>2015-02-24T06:19:42Z</time>
      </trkpt>
      <trkpt lat="45.90777" lon="4.69899">
        <ele>236.59506225586</ele>
        <time>2015-02-24T06:19:45Z</time>
      </trkpt>
      <trkpt lat="45.90786" lon="4.69899">
        <ele>236.72752380371</ele>
        <time>2015-02-24T06:19:48Z</time>
      </trkpt>
      <trkpt lat="45.90797" lon="4.69898">
        <ele>237.10333251953</ele>
        <time>2015-02-24T06:19:52Z</time>
      </trkpt>
      <trkpt lat="45.90802" lon="4.69898">
        <ele>237.20375061035</ele>
        <time>2015-02-24T06:19:54Z</time>
      </trkpt>
      <trkpt lat="45.90811" lon="4.69896">
        <ele>237.50903320312</ele>
        <time>2015-02-24T06:19:57Z</time>
      </trkpt>
      <trkpt lat="45.90818" lon="4.69896">
        <ele>237.62678527832</ele>
        <time>2015-02-24T06:19:59Z</time>
      </trkpt>
      <trkpt lat="45.90828" lon="4.69895">
        <ele>237.95397949219</ele>
        <time>2015-02-24T06:20:02Z</time>
      </trkpt>
      <trkpt lat="45.90833" lon="4.69894">
        <ele>238.17680358887</ele>
        <time>2015-02-24T06:20:04Z</time>
      </trkpt>
      <trkpt lat="45.90852" lon="4.69899">
        <ele>238.07119750977</ele>
        <time>2015-02-24T06:20:10Z</time>
      </trkpt>
      <trkpt lat="45.90865" lon="4.69906">
        <ele>237.77806091309</ele>
        <time>2015-02-24T06:20:14Z</time>
      </trkpt>
      <trkpt lat="45.90868" lon="4.69906">
        <ele>237.75535583496</ele>
        <time>2015-02-24T06:20:15Z</time>
      </trkpt>
      <trkpt lat="45.90884" lon="4.69913">
        <ele>237.50308227539</ele>
        <time>2015-02-24T06:20:20Z</time>
      </trkpt>
      <trkpt lat="45.90897" lon="4.69916">
        <ele>237.54661560059</ele>
        <time>2015-02-24T06:20:24Z</time>
      </trkpt>
      <trkpt lat="45.909" lon="4.69917">
        <ele>237.54193115234</ele>
        <time>2015-02-24T06:20:25Z</time>
      </trkpt>
      <trkpt lat="45.90914" lon="4.69922">
        <ele>237.26614379883</ele>
        <time>2015-02-24T06:20:30Z</time>
      </trkpt>
      <trkpt lat="45.9092" lon="4.69922">
        <ele>237.1544342041</ele>
        <time>2015-02-24T06:20:32Z</time>
      </trkpt>
      <trkpt lat="45.9093" lon="4.69922">
        <ele>236.62828063965</ele>
        <time>2015-02-24T06:20:35Z</time>
      </trkpt>
      <trkpt lat="45.90944" lon="4.69924">
        <ele>235.84834289551</ele>
        <time>2015-02-24T06:20:40Z</time>
      </trkpt>
      <trkpt lat="45.90955" lon="4.69924">
        <ele>235.33985900879</ele>
        <time>2015-02-24T06:20:43Z</time>
      </trkpt>
      <trkpt lat="45.90958" lon="4.69923">
        <ele>235.33435058594</ele>
        <time>2015-02-24T06:20:44Z</time>
      </trkpt>
      <trkpt lat="45.90973" lon="4.69924">
        <ele>234.5446472168</ele>
        <time>2015-02-24T06:20:49Z</time>
      </trkpt>
      <trkpt lat="45.9099" lon="4.69923">
        <ele>233.87132263184</ele>
        <time>2015-02-24T06:20:54Z</time>
      </trkpt>
      <trkpt lat="45.91007" lon="4.69922">
        <ele>233.36978149414</ele>
        <time>2015-02-24T06:20:59Z</time>
      </trkpt>
      <trkpt lat="45.91022" lon="4.69925">
        <ele>233.00344848633</ele>
        <time>2015-02-24T06:21:04Z</time>
      </trkpt>
      <trkpt lat="45.91029" lon="4.69927">
        <ele>232.76942443848</ele>
        <time>2015-02-24T06:21:06Z</time>
      </trkpt>
      <trkpt lat="45.91042" lon="4.69932">
        <ele>232.24723815918</ele>
        <time>2015-02-24T06:21:10Z</time>
      </trkpt>
      <trkpt lat="45.91045" lon="4.69932">
        <ele>232.18913269043</ele>
        <time>2015-02-24T06:21:11Z</time>
      </trkpt>
      <trkpt lat="45.91051" lon="4.69936">
        <ele>231.83943176269</ele>
        <time>2015-02-24T06:21:13Z</time>
      </trkpt>
      <trkpt lat="45.91054" lon="4.69937">
        <ele>231.68151855469</ele>
        <time>2015-02-24T06:21:14Z</time>
      </trkpt>
      <trkpt lat="45.91063" lon="4.69942">
        <ele>231.27780151367</ele>
        <time>2015-02-24T06:21:17Z</time>
      </trkpt>
      <trkpt lat="45.91067" lon="4.69944">
        <ele>231.08949279785</ele>
        <time>2015-02-24T06:21:18Z</time>
      </trkpt>
      <trkpt lat="45.91074" lon="4.69953">
        <ele>230.42297363281</ele>
        <time>2015-02-24T06:21:21Z</time>
      </trkpt>
      <trkpt lat="45.91074" lon="4.69956">
        <ele>230.17279052734</ele>
        <time>2015-02-24T06:21:22Z</time>
      </trkpt>
      <trkpt lat="45.91074" lon="4.69962">
        <ele>229.73181152344</ele>
        <time>2015-02-24T06:21:23Z</time>
      </trkpt>
      <trkpt lat="45.91074" lon="4.69976">
        <ele>228.65740966797</ele>
        <time>2015-02-24T06:21:26Z</time>
      </trkpt>
      <trkpt lat="45.91074" lon="4.6998">
        <ele>228.38633728027</ele>
        <time>2015-02-24T06:21:27Z</time>
      </trkpt>
      <trkpt lat="45.91073" lon="4.69994">
        <ele>227.29769897461</ele>
        <time>2015-02-24T06:21:30Z</time>
      </trkpt>
      <trkpt lat="45.91071" lon="4.70014">
        <ele>226.06018066406</ele>
        <time>2015-02-24T06:21:34Z</time>
      </trkpt>
      <trkpt lat="45.9107" lon="4.70018">
        <ele>225.78482055664</ele>
        <time>2015-02-24T06:21:35Z</time>
      </trkpt>
      <trkpt lat="45.91068" lon="4.70033">
        <ele>224.93132019043</ele>
        <time>2015-02-24T06:21:38Z</time>
      </trkpt>
      <trkpt lat="45.91065" lon="4.70046">
        <ele>224.12368774414</ele>
        <time>2015-02-24T06:21:41Z</time>
      </trkpt>
      <trkpt lat="45.91064" lon="4.70051">
        <ele>223.84921264648</ele>
        <time>2015-02-24T06:21:42Z</time>
      </trkpt>
      <trkpt lat="45.91063" lon="4.7006">
        <ele>223.33331298828</ele>
        <time>2015-02-24T06:21:44Z</time>
      </trkpt>
      <trkpt lat="45.91061" lon="4.70074">
        <ele>222.53674316406</ele>
        <time>2015-02-24T06:21:47Z</time>
      </trkpt>
      <trkpt lat="45.91061" lon="4.70078">
        <ele>222.29008483887</ele>
        <time>2015-02-24T06:21:48Z</time>
      </trkpt>
      <trkpt lat="45.91061" lon="4.70082">
        <ele>222.07867431641</ele>
        <time>2015-02-24T06:21:49Z</time>
      </trkpt>
      <trkpt lat="45.9106" lon="4.70091">
        <ele>221.51092529297</ele>
        <time>2015-02-24T06:21:51Z</time>
      </trkpt>
      <trkpt lat="45.91059" lon="4.701">
        <ele>220.96562194824</ele>
        <time>2015-02-24T06:21:53Z</time>
      </trkpt>
      <trkpt lat="45.91059" lon="4.70123">
        <ele>219.49949645996</ele>
        <time>2015-02-24T06:21:58Z</time>
      </trkpt>
      <trkpt lat="45.91063" lon="4.70137">
        <ele>218.65080261231</ele>
        <time>2015-02-24T06:22:01Z</time>
      </trkpt>
      <trkpt lat="45.91065" lon="4.70138">
        <ele>218.59370422363</ele>
        <time>2015-02-24T06:22:02Z</time>
      </trkpt>
      <trkpt lat="45.91068" lon="4.70141">
        <ele>218.42176818848</ele>
        <time>2015-02-24T06:22:03Z</time>
      </trkpt>
      <trkpt lat="45.91078" lon="4.70149">
        <ele>218.00817871094</ele>
        <time>2015-02-24T06:22:06Z</time>
      </trkpt>
      <trkpt lat="45.91088" lon="4.7015">
        <ele>218.00352478027</ele>
        <time>2015-02-24T06:22:09Z</time>
      </trkpt>
      <trkpt lat="45.91092" lon="4.70149">
        <ele>218.00769042969</ele>
        <time>2015-02-24T06:22:10Z</time>
      </trkpt>
      <trkpt lat="45.91113" lon="4.70148">
        <ele>217.95414733887</ele>
        <time>2015-02-24T06:22:16Z</time>
      </trkpt>
      <trkpt lat="45.91116" lon="4.70148">
        <ele>217.94026184082</ele>
        <time>2015-02-24T06:22:17Z</time>
      </trkpt>
      <trkpt lat="45.91132" lon="4.70145">
        <ele>217.99032592773</ele>
        <time>2015-02-24T06:22:22Z</time>
      </trkpt>
      <trkpt lat="45.91152" lon="4.70136">
        <ele>218.22901916504</ele>
        <time>2015-02-24T06:22:28Z</time>
      </trkpt>
      <trkpt lat="45.91167" lon="4.70133">
        <ele>218.20640563965</ele>
        <time>2015-02-24T06:22:33Z</time>
      </trkpt>
      <trkpt lat="45.91181" lon="4.70128">
        <ele>218.45422363281</ele>
        <time>2015-02-24T06:22:37Z</time>
      </trkpt>
      <trkpt lat="45.91191" lon="4.70127">
        <ele>218.55744934082</ele>
        <time>2015-02-24T06:22:40Z</time>
      </trkpt>
      <trkpt lat="45.91194" lon="4.70127">
        <ele>218.56338500977</ele>
        <time>2015-02-24T06:22:41Z</time>
      </trkpt>
      <trkpt lat="45.91208" lon="4.7013">
        <ele>218.51702880859</ele>
        <time>2015-02-24T06:22:46Z</time>
      </trkpt>
      <trkpt lat="45.91219" lon="4.7013">
        <ele>218.59547424316</ele>
        <time>2015-02-24T06:22:50Z</time>
      </trkpt>
      <trkpt lat="45.91232" lon="4.70127">
        <ele>218.79809570312</ele>
        <time>2015-02-24T06:22:54Z</time>
      </trkpt>
      <trkpt lat="45.91245" lon="4.70125">
        <ele>218.97348022461</ele>
        <time>2015-02-24T06:22:58Z</time>
      </trkpt>
      <trkpt lat="45.91248" lon="4.70126">
        <ele>218.94401550293</ele>
        <time>2015-02-24T06:22:59Z</time>
      </trkpt>
      <trkpt lat="45.91257" lon="4.70125">
        <ele>219.15618896484</ele>
        <time>2015-02-24T06:23:02Z</time>
      </trkpt>
      <trkpt lat="45.91274" lon="4.70127">
        <ele>219.45373535156</ele>
        <time>2015-02-24T06:23:07Z</time>
      </trkpt>
      <trkpt lat="45.91291" lon="4.70131">
        <ele>219.71466064453</ele>
        <time>2015-02-24T06:23:13Z</time>
      </trkpt>
      <trkpt lat="45.91302" lon="4.70134">
        <ele>219.83139038086</ele>
        <time>2015-02-24T06:23:17Z</time>
      </trkpt>
      <trkpt lat="45.91315" lon="4.70139">
        <ele>219.91607666016</ele>
        <time>2015-02-24T06:23:22Z</time>
      </trkpt>
      <trkpt lat="45.91319" lon="4.70138">
        <ele>220.05340576172</ele>
        <time>2015-02-24T06:23:23Z</time>
      </trkpt>
      <trkpt lat="45.91326" lon="4.70137">
        <ele>220.26397705078</ele>
        <time>2015-02-24T06:23:26Z</time>
      </trkpt>
      <trkpt lat="45.91332" lon="4.70136">
        <ele>220.45623779297</ele>
        <time>2015-02-24T06:23:28Z</time>
      </trkpt>
      <trkpt lat="45.91341" lon="4.70135">
        <ele>220.44651794434</ele>
        <time>2015-02-24T06:23:31Z</time>
      </trkpt>
      <trkpt lat="45.91345" lon="4.70133">
        <ele>220.53820800781</ele>
        <time>2015-02-24T06:23:32Z</time>
      </trkpt>
      <trkpt lat="45.91354" lon="4.70131">
        <ele>220.58190917969</ele>
        <time>2015-02-24T06:23:35Z</time>
      </trkpt>
      <trkpt lat="45.91357" lon="4.7013">
        <ele>220.67774963379</ele>
        <time>2015-02-24T06:23:36Z</time>
      </trkpt>
      <trkpt lat="45.91364" lon="4.70131">
        <ele>220.57173156738</ele>
        <time>2015-02-24T06:23:38Z</time>
      </trkpt>
      <trkpt lat="45.91367" lon="4.7013">
        <ele>220.64088439941</ele>
        <time>2015-02-24T06:23:39Z</time>
      </trkpt>
      <trkpt lat="45.91373" lon="4.70128">
        <ele>220.7725982666</ele>
        <time>2015-02-24T06:23:41Z</time>
      </trkpt>
      <trkpt lat="45.91382" lon="4.70122">
        <ele>221.26081848144</ele>
        <time>2015-02-24T06:23:44Z</time>
      </trkpt>
      <trkpt lat="45.91397" lon="4.70118">
        <ele>221.74639892578</ele>
        <time>2015-02-24T06:23:49Z</time>
      </trkpt>
      <trkpt lat="45.91413" lon="4.70109">
        <ele>222.85061645508</ele>
        <time>2015-02-24T06:23:54Z</time>
      </trkpt>
      <trkpt lat="45.9143" lon="4.70104">
        <ele>223.49382019043</ele>
        <time>2015-02-24T06:23:59Z</time>
      </trkpt>
      <trkpt lat="45.91438" lon="4.70102">
        <ele>223.65403747559</ele>
        <time>2015-02-24T06:24:02Z</time>
      </trkpt>
      <trkpt lat="45.91441" lon="4.70102">
        <ele>223.70350646973</ele>
        <time>2015-02-24T06:24:03Z</time>
      </trkpt>
      <trkpt lat="45.91449" lon="4.70098">
        <ele>224.00447082519</ele>
        <time>2015-02-24T06:24:06Z</time>
      </trkpt>
      <trkpt lat="45.91455" lon="4.70098">
        <ele>223.98315429688</ele>
        <time>2015-02-24T06:24:08Z</time>
      </trkpt>
      <trkpt lat="45.91463" lon="4.70096">
        <ele>224.17059326172</ele>
        <time>2015-02-24T06:24:11Z</time>
      </trkpt>
      <trkpt lat="45.91475" lon="4.70094">
        <ele>224.27182006836</ele>
        <time>2015-02-24T06:24:15Z</time>
      </trkpt>
      <trkpt lat="45.91487" lon="4.70091">
        <ele>224.4884185791</ele>
        <time>2015-02-24T06:24:19Z</time>
      </trkpt>
      <trkpt lat="45.91491" lon="4.7009">
        <ele>224.54713439941</ele>
        <time>2015-02-24T06:24:20Z</time>
      </trkpt>
      <trkpt lat="45.91502" lon="4.70088">
        <ele>224.71696472168</ele>
        <time>2015-02-24T06:24:24Z</time>
      </trkpt>
      <trkpt lat="45.91516" lon="4.70084">
        <ele>225.71992492676</ele>
        <time>2015-02-24T06:24:29Z</time>
      </trkpt>
      <trkpt lat="45.91523" lon="4.70083">
        <ele>226.15885925293</ele>
        <time>2015-02-24T06:24:31Z</time>
      </trkpt>
      <trkpt lat="45.91531" lon="4.7008">
        <ele>226.76498413086</ele>
        <time>2015-02-24T06:24:34Z</time>
      </trkpt>
      <trkpt lat="45.91539" lon="4.70081">
        <ele>227.07019042969</ele>
        <time>2015-02-24T06:24:37Z</time>
      </trkpt>
      <trkpt lat="45.9155" lon="4.70081">
        <ele>227.65333557129</ele>
        <time>2015-02-24T06:24:41Z</time>
      </trkpt>
      <trkpt lat="45.91557" lon="4.70081">
        <ele>227.97575378418</ele>
        <time>2015-02-24T06:24:43Z</time>
      </trkpt>
      <trkpt lat="45.91558" lon="4.7008">
        <ele>228.15954589844</ele>
        <time>2015-02-24T06:24:44Z</time>
      </trkpt>
      <trkpt lat="45.91578" lon="4.70079">
        <ele>229.22465515137</ele>
        <time>2015-02-24T06:24:50Z</time>
      </trkpt>
      <trkpt lat="45.91597" lon="4.70078">
        <ele>229.84582519531</ele>
        <time>2015-02-24T06:24:56Z</time>
      </trkpt>
      <trkpt lat="45.91614" lon="4.70077">
        <ele>230.19778442383</ele>
        <time>2015-02-24T06:25:02Z</time>
      </trkpt>
      <trkpt lat="45.91626" lon="4.70074">
        <ele>230.58297729492</ele>
        <time>2015-02-24T06:25:06Z</time>
      </trkpt>
      <trkpt lat="45.91637" lon="4.70072">
        <ele>231.00375366211</ele>
        <time>2015-02-24T06:25:10Z</time>
      </trkpt>
      <trkpt lat="45.91641" lon="4.70071">
        <ele>231.10501098633</ele>
        <time>2015-02-24T06:25:11Z</time>
      </trkpt>
      <trkpt lat="45.91652" lon="4.70067">
        <ele>231.62690734863</ele>
        <time>2015-02-24T06:25:15Z</time>
      </trkpt>
      <trkpt lat="45.91659" lon="4.70051">
        <ele>233.4494934082</ele>
        <time>2015-02-24T06:25:20Z</time>
      </trkpt>
      <trkpt lat="45.91658" lon="4.70047">
        <ele>233.88531494141</ele>
        <time>2015-02-24T06:25:21Z</time>
      </trkpt>
      <trkpt lat="45.91657" lon="4.70041">
        <ele>234.60681152344</ele>
        <time>2015-02-24T06:25:23Z</time>
      </trkpt>
      <trkpt lat="45.91656" lon="4.70038">
        <ele>234.86152648926</ele>
        <time>2015-02-24T06:25:24Z</time>
      </trkpt>
      <trkpt lat="45.91654" lon="4.70036">
        <ele>235.15029907227</ele>
        <time>2015-02-24T06:25:25Z</time>
      </trkpt>
      <trkpt lat="45.91649" lon="4.70024">
        <ele>236.54020690918</ele>
        <time>2015-02-24T06:25:29Z</time>
      </trkpt>
      <trkpt lat="45.91642" lon="4.70006">
        <ele>238.55725097656</ele>
        <time>2015-02-24T06:25:35Z</time>
      </trkpt>
      <trkpt lat="45.9164" lon="4.70004">
        <ele>238.87992858887</ele>
        <time>2015-02-24T06:25:36Z</time>
      </trkpt>
      <trkpt lat="45.91634" lon="4.69992">
        <ele>239.96801757812</ele>
        <time>2015-02-24T06:25:40Z</time>
      </trkpt>
      <trkpt lat="45.91632" lon="4.69989">
        <ele>240.17172241211</ele>
        <time>2015-02-24T06:25:41Z</time>
      </trkpt>
      <trkpt lat="45.91625" lon="4.69977">
        <ele>241.11929321289</ele>
        <time>2015-02-24T06:25:45Z</time>
      </trkpt>
      <trkpt lat="45.91621" lon="4.6997">
        <ele>241.67318725586</ele>
        <time>2015-02-24T06:25:47Z</time>
      </trkpt>
      <trkpt lat="45.91619" lon="4.69967">
        <ele>241.90893554688</ele>
        <time>2015-02-24T06:25:48Z</time>
      </trkpt>
      <trkpt lat="45.91616" lon="4.69961">
        <ele>242.39645385742</ele>
        <time>2015-02-24T06:25:50Z</time>
      </trkpt>
      <trkpt lat="45.91613" lon="4.69955">
        <ele>242.91830444336</ele>
        <time>2015-02-24T06:25:52Z</time>
      </trkpt>
      <trkpt lat="45.91604" lon="4.69938">
        <ele>244.18287658691</ele>
        <time>2015-02-24T06:25:57Z</time>
      </trkpt>
      <trkpt lat="45.91601" lon="4.69931">
        <ele>244.77911376953</ele>
        <time>2015-02-24T06:25:59Z</time>
      </trkpt>
      <trkpt lat="45.91594" lon="4.69917">
        <ele>245.86859130859</ele>
        <time>2015-02-24T06:26:03Z</time>
      </trkpt>
      <trkpt lat="45.91591" lon="4.69909">
        <ele>246.28437805176</ele>
        <time>2015-02-24T06:26:05Z</time>
      </trkpt>
      <trkpt lat="45.9159" lon="4.69905">
        <ele>246.5106048584</ele>
        <time>2015-02-24T06:26:06Z</time>
      </trkpt>
      <trkpt lat="45.91588" lon="4.69898">
        <ele>246.89808654785</ele>
        <time>2015-02-24T06:26:08Z</time>
      </trkpt>
      <trkpt lat="45.91587" lon="4.69893">
        <ele>247.10676574707</ele>
        <time>2015-02-24T06:26:09Z</time>
      </trkpt>
      <trkpt lat="45.91586" lon="4.69883">
        <ele>247.63499450684</ele>
        <time>2015-02-24T06:26:12Z</time>
      </trkpt>
      <trkpt lat="45.91586" lon="4.69872">
        <ele>248.17654418945</ele>
        <time>2015-02-24T06:26:15Z</time>
      </trkpt>
      <trkpt lat="45.91585" lon="4.69868">
        <ele>248.33317565918</ele>
        <time>2015-02-24T06:26:16Z</time>
      </trkpt>
      <trkpt lat="45.91585" lon="4.69853">
        <ele>249.07403564453</ele>
        <time>2015-02-24T06:26:20Z</time>
      </trkpt>
      <trkpt lat="45.91585" lon="4.69849">
        <ele>249.25364685059</ele>
        <time>2015-02-24T06:26:21Z</time>
      </trkpt>
      <trkpt lat="45.91584" lon="4.69841">
        <ele>249.64227294922</ele>
        <time>2015-02-24T06:26:23Z</time>
      </trkpt>
      <trkpt lat="45.91584" lon="4.69834">
        <ele>249.98918151856</ele>
        <time>2015-02-24T06:26:25Z</time>
      </trkpt>
      <trkpt lat="45.91583" lon="4.69822">
        <ele>250.81625366211</ele>
        <time>2015-02-24T06:26:28Z</time>
      </trkpt>
      <trkpt lat="45.91582" lon="4.6981">
        <ele>251.70300292969</ele>
        <time>2015-02-24T06:26:31Z</time>
      </trkpt>
      <trkpt lat="45.91582" lon="4.69806">
        <ele>251.93342590332</ele>
        <time>2015-02-24T06:26:32Z</time>
      </trkpt>
      <trkpt lat="45.91583" lon="4.69788">
        <ele>253.29046630859</ele>
        <time>2015-02-24T06:26:37Z</time>
      </trkpt>
      <trkpt lat="45.91581" lon="4.69769">
        <ele>254.63233947754</ele>
        <time>2015-02-24T06:26:42Z</time>
      </trkpt>
      <trkpt lat="45.91577" lon="4.69758">
        <ele>255.38961791992</ele>
        <time>2015-02-24T06:26:45Z</time>
      </trkpt>
      <trkpt lat="45.91574" lon="4.69753">
        <ele>255.77453613281</ele>
        <time>2015-02-24T06:26:47Z</time>
      </trkpt>
      <trkpt lat="45.91571" lon="4.69743">
        <ele>256.39813232422</ele>
        <time>2015-02-24T06:26:50Z</time>
      </trkpt>
      <trkpt lat="45.91568" lon="4.69737">
        <ele>256.77377319336</ele>
        <time>2015-02-24T06:26:52Z</time>
      </trkpt>
      <trkpt lat="45.91567" lon="4.69733">
        <ele>256.95492553711</ele>
        <time>2015-02-24T06:26:53Z</time>
      </trkpt>
      <trkpt lat="45.91567" lon="4.6973">
        <ele>257.15277099609</ele>
        <time>2015-02-24T06:26:54Z</time>
      </trkpt>
      <trkpt lat="45.91565" lon="4.69722">
        <ele>257.58087158203</ele>
        <time>2015-02-24T06:26:56Z</time>
      </trkpt>
      <trkpt lat="45.91565" lon="4.69716">
        <ele>257.94396972656</ele>
        <time>2015-02-24T06:26:58Z</time>
      </trkpt>
      <trkpt lat="45.91566" lon="4.69705">
        <ele>258.57424926758</ele>
        <time>2015-02-24T06:27:01Z</time>
      </trkpt>
      <trkpt lat="45.91567" lon="4.69698">
        <ele>259.01031494141</ele>
        <time>2015-02-24T06:27:03Z</time>
      </trkpt>
      <trkpt lat="45.9157" lon="4.69688">
        <ele>259.59469604492</ele>
        <time>2015-02-24T06:27:06Z</time>
      </trkpt>
      <trkpt lat="45.91573" lon="4.69676">
        <ele>260.31845092773</ele>
        <time>2015-02-24T06:27:10Z</time>
      </trkpt>
      <trkpt lat="45.91574" lon="4.69672">
        <ele>260.55316162109</ele>
        <time>2015-02-24T06:27:11Z</time>
      </trkpt>
      <trkpt lat="45.91577" lon="4.69663">
        <ele>261.13122558594</ele>
        <time>2015-02-24T06:27:14Z</time>
      </trkpt>
      <trkpt lat="45.9158" lon="4.69657">
        <ele>261.54193115234</ele>
        <time>2015-02-24T06:27:16Z</time>
      </trkpt>
      <trkpt lat="45.91582" lon="4.6965">
        <ele>261.96606445312</ele>
        <time>2015-02-24T06:27:18Z</time>
      </trkpt>
      <trkpt lat="45.9159" lon="4.69638">
        <ele>262.80966186523</ele>
        <time>2015-02-24T06:27:22Z</time>
      </trkpt>
      <trkpt lat="45.91592" lon="4.69636">
        <ele>263.01388549805</ele>
        <time>2015-02-24T06:27:23Z</time>
      </trkpt>
      <trkpt lat="45.91595" lon="4.69629">
        <ele>263.51657104492</ele>
        <time>2015-02-24T06:27:25Z</time>
      </trkpt>
      <trkpt lat="45.91602" lon="4.69617">
        <ele>264.49053955078</ele>
        <time>2015-02-24T06:27:29Z</time>
      </trkpt>
      <trkpt lat="45.91605" lon="4.69615">
        <ele>264.73803710938</ele>
        <time>2015-02-24T06:27:30Z</time>
      </trkpt>
      <trkpt lat="45.91613" lon="4.69605">
        <ele>265.73065185547</ele>
        <time>2015-02-24T06:27:34Z</time>
      </trkpt>
      <trkpt lat="45.91618" lon="4.696">
        <ele>266.31823730469</ele>
        <time>2015-02-24T06:27:36Z</time>
      </trkpt>
      <trkpt lat="45.91626" lon="4.69591">
        <ele>267.44369506836</ele>
        <time>2015-02-24T06:27:40Z</time>
      </trkpt>
      <trkpt lat="45.91635" lon="4.69581">
        <ele>268.61053466797</ele>
        <time>2015-02-24T06:27:44Z</time>
      </trkpt>
      <trkpt lat="45.91639" lon="4.69576">
        <ele>269.02481079102</ele>
        <time>2015-02-24T06:27:46Z</time>
      </trkpt>
      <trkpt lat="45.91648" lon="4.69567">
        <ele>269.91744995117</ele>
        <time>2015-02-24T06:27:50Z</time>
      </trkpt>
      <trkpt lat="45.91651" lon="4.69565">
        <ele>270.13488769531</ele>
        <time>2015-02-24T06:27:51Z</time>
      </trkpt>
      <trkpt lat="45.91655" lon="4.69559">
        <ele>270.60409545898</ele>
        <time>2015-02-24T06:27:53Z</time>
      </trkpt>
      <trkpt lat="45.91661" lon="4.69551">
        <ele>271.28387451172</ele>
        <time>2015-02-24T06:27:56Z</time>
      </trkpt>
      <trkpt lat="45.91665" lon="4.69546">
        <ele>271.73706054688</ele>
        <time>2015-02-24T06:27:58Z</time>
      </trkpt>
      <trkpt lat="45.91673" lon="4.69538">
        <ele>272.14669799805</ele>
        <time>2015-02-24T06:28:01Z</time>
      </trkpt>
      <trkpt lat="45.91676" lon="4.69532">
        <ele>272.42904663086</ele>
        <time>2015-02-24T06:28:03Z</time>
      </trkpt>
      <trkpt lat="45.91682" lon="4.69525">
        <ele>272.82870483398</ele>
        <time>2015-02-24T06:28:06Z</time>
      </trkpt>
      <trkpt lat="45.91688" lon="4.69516">
        <ele>273.34808349609</ele>
        <time>2015-02-24T06:28:09Z</time>
      </trkpt>
      <trkpt lat="45.91694" lon="4.69509">
        <ele>273.77557373047</ele>
        <time>2015-02-24T06:28:12Z</time>
      </trkpt>
      <trkpt lat="45.91698" lon="4.69505">
        <ele>274.08432006836</ele>
        <time>2015-02-24T06:28:14Z</time>
      </trkpt>
      <trkpt lat="45.91703" lon="4.69496">
        <ele>274.68142700195</ele>
        <time>2015-02-24T06:28:17Z</time>
      </trkpt>
      <trkpt lat="45.91705" lon="4.69493">
        <ele>274.87310791016</ele>
        <time>2015-02-24T06:28:18Z</time>
      </trkpt>
      <trkpt lat="45.91718" lon="4.69483">
        <ele>275.63528442383</ele>
        <time>2015-02-24T06:28:23Z</time>
      </trkpt>
      <trkpt lat="45.91721" lon="4.69483">
        <ele>275.6701965332</ele>
        <time>2015-02-24T06:28:24Z</time>
      </trkpt>
      <trkpt lat="45.91728" lon="4.69486">
        <ele>275.58721923828</ele>
        <time>2015-02-24T06:28:27Z</time>
      </trkpt>
      <trkpt lat="45.91736" lon="4.69489">
        <ele>275.46878051758</ele>
        <time>2015-02-24T06:28:30Z</time>
      </trkpt>
      <trkpt lat="45.91742" lon="4.69494">
        <ele>275.2873840332</ele>
        <time>2015-02-24T06:28:32Z</time>
      </trkpt>
      <trkpt lat="45.91753" lon="4.69498">
        <ele>275.1181640625</ele>
        <time>2015-02-24T06:28:36Z</time>
      </trkpt>
      <trkpt lat="45.91759" lon="4.695">
        <ele>275.02883911133</ele>
        <time>2015-02-24T06:28:38Z</time>
      </trkpt>
      <trkpt lat="45.91774" lon="4.69496">
        <ele>275.26409912109</ele>
        <time>2015-02-24T06:28:43Z</time>
      </trkpt>
      <trkpt lat="45.9178" lon="4.69484">
        <ele>276.0810546875</ele>
        <time>2015-02-24T06:28:47Z</time>
      </trkpt>
      <trkpt lat="45.91782" lon="4.69481">
        <ele>276.30908203125</ele>
        <time>2015-02-24T06:28:48Z</time>
      </trkpt>
      <trkpt lat="45.91787" lon="4.69473">
        <ele>276.92523193359</ele>
        <time>2015-02-24T06:28:51Z</time>
      </trkpt>
      <trkpt lat="45.91792" lon="4.69467">
        <ele>277.33898925781</ele>
        <time>2015-02-24T06:28:53Z</time>
      </trkpt>
      <trkpt lat="45.91793" lon="4.69464">
        <ele>277.578125</ele>
        <time>2015-02-24T06:28:54Z</time>
      </trkpt>
      <trkpt lat="45.918" lon="4.69453">
        <ele>278.49380493164</ele>
        <time>2015-02-24T06:28:58Z</time>
      </trkpt>
      <trkpt lat="45.91802" lon="4.69451">
        <ele>278.70733642578</ele>
        <time>2015-02-24T06:28:59Z</time>
      </trkpt>
      <trkpt lat="45.91814" lon="4.69434">
        <ele>280.17526245117</ele>
        <time>2015-02-24T06:29:05Z</time>
      </trkpt>
      <trkpt lat="45.91817" lon="4.69432">
        <ele>280.41510009766</ele>
        <time>2015-02-24T06:29:06Z</time>
      </trkpt>
      <trkpt lat="45.91822" lon="4.69424">
        <ele>281.17938232422</ele>
        <time>2015-02-24T06:29:09Z</time>
      </trkpt>
      <trkpt lat="45.91824" lon="4.69421">
        <ele>281.40292358398</ele>
        <time>2015-02-24T06:29:10Z</time>
      </trkpt>
      <trkpt lat="45.91826" lon="4.69418">
        <ele>281.68930053711</ele>
        <time>2015-02-24T06:29:11Z</time>
      </trkpt>
      <trkpt lat="45.9183" lon="4.69413">
        <ele>282.39483642578</ele>
        <time>2015-02-24T06:29:13Z</time>
      </trkpt>
      <trkpt lat="45.91838" lon="4.69402">
        <ele>284.18960571289</ele>
        <time>2015-02-24T06:29:17Z</time>
      </trkpt>
      <trkpt lat="45.91841" lon="4.69397">
        <ele>285.1354675293</ele>
        <time>2015-02-24T06:29:19Z</time>
      </trkpt>
      <trkpt lat="45.91847" lon="4.69388">
        <ele>286.82748413086</ele>
        <time>2015-02-24T06:29:22Z</time>
      </trkpt>
      <trkpt lat="45.9185" lon="4.69385">
        <ele>287.36993408203</ele>
        <time>2015-02-24T06:29:23Z</time>
      </trkpt>
      <trkpt lat="45.91862" lon="4.69378">
        <ele>289.11114501953</ele>
        <time>2015-02-24T06:29:28Z</time>
      </trkpt>
      <trkpt lat="45.91864" lon="4.69378">
        <ele>289.25076293945</ele>
        <time>2015-02-24T06:29:29Z</time>
      </trkpt>
      <trkpt lat="45.91871" lon="4.6938">
        <ele>289.55859375</ele>
        <time>2015-02-24T06:29:32Z</time>
      </trkpt>
      <trkpt lat="45.91877" lon="4.69384">
        <ele>289.49224853516</ele>
        <time>2015-02-24T06:29:34Z</time>
      </trkpt>
      <trkpt lat="45.91878" lon="4.69384">
        <ele>289.54315185547</ele>
        <time>2015-02-24T06:29:35Z</time>
      </trkpt>
      <trkpt lat="45.91886" lon="4.69386">
        <ele>289.76516723633</ele>
        <time>2015-02-24T06:29:38Z</time>
      </trkpt>
      <trkpt lat="45.91891" lon="4.6939">
        <ele>289.59979248047</ele>
        <time>2015-02-24T06:29:40Z</time>
      </trkpt>
      <trkpt lat="45.91896" lon="4.69391">
        <ele>289.86474609375</ele>
        <time>2015-02-24T06:29:42Z</time>
      </trkpt>
      <trkpt lat="45.91899" lon="4.69387">
        <ele>290.68243408203</ele>
        <time>2015-02-24T06:29:44Z</time>
      </trkpt>
      <trkpt lat="45.919" lon="4.6938">
        <ele>291.60824584961</ele>
        <time>2015-02-24T06:29:46Z</time>
      </trkpt>
      <trkpt lat="45.91901" lon="4.69368">
        <ele>293.31857299805</ele>
        <time>2015-02-24T06:29:50Z</time>
      </trkpt>
      <trkpt lat="45.91901" lon="4.69364">
        <ele>293.86215209961</ele>
        <time>2015-02-24T06:29:51Z</time>
      </trkpt>
      <trkpt lat="45.91903" lon="4.69354">
        <ele>295.30410766602</ele>
        <time>2015-02-24T06:29:54Z</time>
      </trkpt>
      <trkpt lat="45.91903" lon="4.69344">
        <ele>296.65567016602</ele>
        <time>2015-02-24T06:29:57Z</time>
      </trkpt>
      <trkpt lat="45.91904" lon="4.69342">
        <ele>296.97265625</ele>
        <time>2015-02-24T06:29:58Z</time>
      </trkpt>
      <trkpt lat="45.91904" lon="4.69335">
        <ele>297.84585571289</ele>
        <time>2015-02-24T06:30:00Z</time>
      </trkpt>
      <trkpt lat="45.91904" lon="4.69327">
        <ele>299.35275268555</ele>
        <time>2015-02-24T06:30:03Z</time>
      </trkpt>
      <trkpt lat="45.91903" lon="4.69325">
        <ele>299.67901611328</ele>
        <time>2015-02-24T06:30:04Z</time>
      </trkpt>
      <trkpt lat="45.91894" lon="4.69313">
        <ele>301.39495849609</ele>
        <time>2015-02-24T06:30:08Z</time>
      </trkpt>
      <trkpt lat="45.91892" lon="4.69309">
        <ele>301.92520141602</ele>
        <time>2015-02-24T06:30:09Z</time>
      </trkpt>
      <trkpt lat="45.91882" lon="4.69299">
        <ele>303.23620605469</ele>
        <time>2015-02-24T06:30:13Z</time>
      </trkpt>
      <trkpt lat="45.9188" lon="4.69298">
        <ele>303.42129516602</ele>
        <time>2015-02-24T06:30:14Z</time>
      </trkpt>
      <trkpt lat="45.91869" lon="4.6929">
        <ele>304.29046630859</ele>
        <time>2015-02-24T06:30:18Z</time>
      </trkpt>
      <trkpt lat="45.91854" lon="4.69277">
        <ele>305.76522827148</ele>
        <time>2015-02-24T06:30:24Z</time>
      </trkpt>
      <trkpt lat="45.91852" lon="4.69275">
        <ele>306.00814819336</ele>
        <time>2015-02-24T06:30:25Z</time>
      </trkpt>
      <trkpt lat="45.91843" lon="4.69267">
        <ele>307.12106323242</ele>
        <time>2015-02-24T06:30:29Z</time>
      </trkpt>
      <trkpt lat="45.91841" lon="4.69266">
        <ele>307.27807617188</ele>
        <time>2015-02-24T06:30:30Z</time>
      </trkpt>
      <trkpt lat="45.9183" lon="4.69256">
        <ele>308.36486816406</ele>
        <time>2015-02-24T06:30:35Z</time>
      </trkpt>
      <trkpt lat="45.91828" lon="4.69254">
        <ele>308.54858398438</ele>
        <time>2015-02-24T06:30:36Z</time>
      </trkpt>
      <trkpt lat="45.91819" lon="4.69246">
        <ele>308.96664428711</ele>
        <time>2015-02-24T06:30:40Z</time>
      </trkpt>
      <trkpt lat="45.91817" lon="4.69245">
        <ele>309.11801147461</ele>
        <time>2015-02-24T06:30:41Z</time>
      </trkpt>
      <trkpt lat="45.91808" lon="4.69237">
        <ele>309.75534057617</ele>
        <time>2015-02-24T06:30:45Z</time>
      </trkpt>
      <trkpt lat="45.91804" lon="4.69233">
        <ele>310.09811401367</ele>
        <time>2015-02-24T06:30:47Z</time>
      </trkpt>
      <trkpt lat="45.91797" lon="4.69228">
        <ele>310.34796142578</ele>
        <time>2015-02-24T06:30:50Z</time>
      </trkpt>
      <trkpt lat="45.91793" lon="4.69224">
        <ele>310.77618408203</ele>
        <time>2015-02-24T06:30:52Z</time>
      </trkpt>
      <trkpt lat="45.91784" lon="4.69217">
        <ele>311.24591064453</ele>
        <time>2015-02-24T06:30:56Z</time>
      </trkpt>
      <trkpt lat="45.91779" lon="4.69213">
        <ele>311.54675292969</ele>
        <time>2015-02-24T06:30:58Z</time>
      </trkpt>
      <trkpt lat="45.91772" lon="4.69208">
        <ele>311.88510131836</ele>
        <time>2015-02-24T06:31:01Z</time>
      </trkpt>
      <trkpt lat="45.9177" lon="4.69205">
        <ele>312.36822509766</ele>
        <time>2015-02-24T06:31:02Z</time>
      </trkpt>
      <trkpt lat="45.91765" lon="4.69202">
        <ele>312.58410644531</ele>
        <time>2015-02-24T06:31:04Z</time>
      </trkpt>
      <trkpt lat="45.91759" lon="4.69194">
        <ele>313.79327392578</ele>
        <time>2015-02-24T06:31:07Z</time>
      </trkpt>
      <trkpt lat="45.91753" lon="4.6919">
        <ele>314.00885009766</ele>
        <time>2015-02-24T06:31:10Z</time>
      </trkpt>
      <trkpt lat="45.91748" lon="4.69185">
        <ele>314.49520874023</ele>
        <time>2015-02-24T06:31:12Z</time>
      </trkpt>
      <trkpt lat="45.91744" lon="4.6918">
        <ele>315.0910949707</ele>
        <time>2015-02-24T06:31:14Z</time>
      </trkpt>
      <trkpt lat="45.91737" lon="4.69173">
        <ele>315.68115234375</ele>
        <time>2015-02-24T06:31:17Z</time>
      </trkpt>
      <trkpt lat="45.91731" lon="4.69166">
        <ele>316.34539794922</ele>
        <time>2015-02-24T06:31:20Z</time>
      </trkpt>
      <trkpt lat="45.91727" lon="4.69162">
        <ele>316.70074462891</ele>
        <time>2015-02-24T06:31:22Z</time>
      </trkpt>
      <trkpt lat="45.91721" lon="4.69154">
        <ele>317.4560546875</ele>
        <time>2015-02-24T06:31:25Z</time>
      </trkpt>
      <trkpt lat="45.91716" lon="4.69149">
        <ele>317.70153808594</ele>
        <time>2015-02-24T06:31:27Z</time>
      </trkpt>
      <trkpt lat="45.91712" lon="4.69145">
        <ele>317.91436767578</ele>
        <time>2015-02-24T06:31:29Z</time>
      </trkpt>
      <trkpt lat="45.91706" lon="4.69138">
        <ele>318.58215332031</ele>
        <time>2015-02-24T06:31:32Z</time>
      </trkpt>
      <trkpt lat="45.91703" lon="4.69135">
        <ele>318.82019042969</ele>
        <time>2015-02-24T06:31:33Z</time>
      </trkpt>
      <trkpt lat="45.91695" lon="4.69125">
        <ele>319.57662963867</ele>
        <time>2015-02-24T06:31:37Z</time>
      </trkpt>
      <trkpt lat="45.91693" lon="4.69124">
        <ele>319.54516601562</ele>
        <time>2015-02-24T06:31:38Z</time>
      </trkpt>
      <trkpt lat="45.91687" lon="4.69117">
        <ele>319.94400024414</ele>
        <time>2015-02-24T06:31:41Z</time>
      </trkpt>
      <trkpt lat="45.91681" lon="4.6911">
        <ele>320.53393554688</ele>
        <time>2015-02-24T06:31:44Z</time>
      </trkpt>
      <trkpt lat="45.91673" lon="4.69101">
        <ele>321.34817504883</ele>
        <time>2015-02-24T06:31:48Z</time>
      </trkpt>
      <trkpt lat="45.91671" lon="4.691">
        <ele>321.30068969727</ele>
        <time>2015-02-24T06:31:49Z</time>
      </trkpt>
      <trkpt lat="45.91663" lon="4.6909">
        <ele>321.9382019043</ele>
        <time>2015-02-24T06:31:53Z</time>
      </trkpt>
      <trkpt lat="45.91661" lon="4.69089">
        <ele>321.8283996582</ele>
        <time>2015-02-24T06:31:54Z</time>
      </trkpt>
      <trkpt lat="45.91653" lon="4.6908">
        <ele>321.93688964844</ele>
        <time>2015-02-24T06:31:58Z</time>
      </trkpt>
      <trkpt lat="45.91644" lon="4.69069">
        <ele>321.94171142578</ele>
        <time>2015-02-24T06:32:03Z</time>
      </trkpt>
      <trkpt lat="45.91638" lon="4.69058">
        <ele>322.51434326172</ele>
        <time>2015-02-24T06:32:07Z</time>
      </trkpt>
      <trkpt lat="45.91629" lon="4.69041">
        <ele>323.16607666016</ele>
        <time>2015-02-24T06:32:13Z</time>
      </trkpt>
      <trkpt lat="45.91622" lon="4.69024">
        <ele>324.2219543457</ele>
        <time>2015-02-24T06:32:19Z</time>
      </trkpt>
      <trkpt lat="45.91617" lon="4.69012">
        <ele>324.83251953125</ele>
        <time>2015-02-24T06:32:23Z</time>
      </trkpt>
      <trkpt lat="45.91613" lon="4.68999">
        <ele>326.01214599609</ele>
        <time>2015-02-24T06:32:27Z</time>
      </trkpt>
      <trkpt lat="45.91612" lon="4.68997">
        <ele>326.0188293457</ele>
        <time>2015-02-24T06:32:28Z</time>
      </trkpt>
      <trkpt lat="45.91611" lon="4.68991">
        <ele>326.58624267578</ele>
        <time>2015-02-24T06:32:30Z</time>
      </trkpt>
      <trkpt lat="45.91609" lon="4.68982">
        <ele>327.56604003906</ele>
        <time>2015-02-24T06:32:33Z</time>
      </trkpt>
      <trkpt lat="45.91608" lon="4.6898">
        <ele>327.76654052734</ele>
        <time>2015-02-24T06:32:34Z</time>
      </trkpt>
      <trkpt lat="45.91605" lon="4.6897">
        <ele>328.52264404297</ele>
        <time>2015-02-24T06:32:37Z</time>
      </trkpt>
      <trkpt lat="45.91605" lon="4.68965">
        <ele>329.21670532227</ele>
        <time>2015-02-24T06:32:39Z</time>
      </trkpt>
      <trkpt lat="45.91603" lon="4.68958">
        <ele>329.87319946289</ele>
        <time>2015-02-24T06:32:41Z</time>
      </trkpt>
      <trkpt lat="45.91601" lon="4.68949">
        <ele>330.94104003906</ele>
        <time>2015-02-24T06:32:44Z</time>
      </trkpt>
      <trkpt lat="45.916" lon="4.68946">
        <ele>331.31359863281</ele>
        <time>2015-02-24T06:32:45Z</time>
      </trkpt>
      <trkpt lat="45.91598" lon="4.68932">
        <ele>333.03344726562</ele>
        <time>2015-02-24T06:32:49Z</time>
      </trkpt>
      <trkpt lat="45.91597" lon="4.68928">
        <ele>333.57507324219</ele>
        <time>2015-02-24T06:32:50Z</time>
      </trkpt>
      <trkpt lat="45.91597" lon="4.68918">
        <ele>335.04995727539</ele>
        <time>2015-02-24T06:32:53Z</time>
      </trkpt>
      <trkpt lat="45.91596" lon="4.68914">
        <ele>335.39511108398</ele>
        <time>2015-02-24T06:32:54Z</time>
      </trkpt>
      <trkpt lat="45.91596" lon="4.68907">
        <ele>336.02575683594</ele>
        <time>2015-02-24T06:32:56Z</time>
      </trkpt>
      <trkpt lat="45.91595" lon="4.68897">
        <ele>336.95391845703</ele>
        <time>2015-02-24T06:32:59Z</time>
      </trkpt>
      <trkpt lat="45.91595" lon="4.68884">
        <ele>338.24032592773</ele>
        <time>2015-02-24T06:33:03Z</time>
      </trkpt>
      <trkpt lat="45.91596" lon="4.68881">
        <ele>338.59533691406</ele>
        <time>2015-02-24T06:33:04Z</time>
      </trkpt>
      <trkpt lat="45.91596" lon="4.68871">
        <ele>339.63195800781</ele>
        <time>2015-02-24T06:33:07Z</time>
      </trkpt>
      <trkpt lat="45.91597" lon="4.68864">
        <ele>340.3381652832</ele>
        <time>2015-02-24T06:33:09Z</time>
      </trkpt>
      <trkpt lat="45.91597" lon="4.68858">
        <ele>341.08438110352</ele>
        <time>2015-02-24T06:33:11Z</time>
      </trkpt>
      <trkpt lat="45.91598" lon="4.68845">
        <ele>342.47515869141</ele>
        <time>2015-02-24T06:33:15Z</time>
      </trkpt>
      <trkpt lat="45.91599" lon="4.68835">
        <ele>343.74563598633</ele>
        <time>2015-02-24T06:33:18Z</time>
      </trkpt>
      <trkpt lat="45.91601" lon="4.68828">
        <ele>344.64028930664</ele>
        <time>2015-02-24T06:33:20Z</time>
      </trkpt>
      <trkpt lat="45.91601" lon="4.68825">
        <ele>345.00433349609</ele>
        <time>2015-02-24T06:33:21Z</time>
      </trkpt>
      <trkpt lat="45.91603" lon="4.68812">
        <ele>346.66473388672</ele>
        <time>2015-02-24T06:33:25Z</time>
      </trkpt>
      <trkpt lat="45.91604" lon="4.68809">
        <ele>347.14016723633</ele>
        <time>2015-02-24T06:33:26Z</time>
      </trkpt>
      <trkpt lat="45.91605" lon="4.68797">
        <ele>348.59124755859</ele>
        <time>2015-02-24T06:33:30Z</time>
      </trkpt>
      <trkpt lat="45.91606" lon="4.68793">
        <ele>349.01483154297</ele>
        <time>2015-02-24T06:33:31Z</time>
      </trkpt>
      <trkpt lat="45.91607" lon="4.68781">
        <ele>350.31155395508</ele>
        <time>2015-02-24T06:33:35Z</time>
      </trkpt>
      <trkpt lat="45.91607" lon="4.68775">
        <ele>350.92825317383</ele>
        <time>2015-02-24T06:33:37Z</time>
      </trkpt>
      <trkpt lat="45.91605" lon="4.68769">
        <ele>351.35235595703</ele>
        <time>2015-02-24T06:33:39Z</time>
      </trkpt>
      <trkpt lat="45.91604" lon="4.68758">
        <ele>352.16949462891</ele>
        <time>2015-02-24T06:33:42Z</time>
      </trkpt>
      <trkpt lat="45.91603" lon="4.68749">
        <ele>352.9501953125</ele>
        <time>2015-02-24T06:33:45Z</time>
      </trkpt>
      <trkpt lat="45.91603" lon="4.68739">
        <ele>353.66830444336</ele>
        <time>2015-02-24T06:33:48Z</time>
      </trkpt>
      <trkpt lat="45.91603" lon="4.68722">
        <ele>355.01138305664</ele>
        <time>2015-02-24T06:33:53Z</time>
      </trkpt>
      <trkpt lat="45.91604" lon="4.68719">
        <ele>355.33917236328</ele>
        <time>2015-02-24T06:33:54Z</time>
      </trkpt>
      <trkpt lat="45.91605" lon="4.68708">
        <ele>356.23498535156</ele>
        <time>2015-02-24T06:33:57Z</time>
      </trkpt>
      <trkpt lat="45.91606" lon="4.68698">
        <ele>357.05456542969</ele>
        <time>2015-02-24T06:34:00Z</time>
      </trkpt>
      <trkpt lat="45.91607" lon="4.68692">
        <ele>357.60009765625</ele>
        <time>2015-02-24T06:34:02Z</time>
      </trkpt>
      <trkpt lat="45.9161" lon="4.68682">
        <ele>358.48123168945</ele>
        <time>2015-02-24T06:34:05Z</time>
      </trkpt>
      <trkpt lat="45.91611" lon="4.68679">
        <ele>358.84341430664</ele>
        <time>2015-02-24T06:34:06Z</time>
      </trkpt>
      <trkpt lat="45.91612" lon="4.68673">
        <ele>359.31817626953</ele>
        <time>2015-02-24T06:34:08Z</time>
      </trkpt>
      <trkpt lat="45.91616" lon="4.6866">
        <ele>360.38095092773</ele>
        <time>2015-02-24T06:34:12Z</time>
      </trkpt>
      <trkpt lat="45.91621" lon="4.68644">
        <ele>361.67010498047</ele>
        <time>2015-02-24T06:34:17Z</time>
      </trkpt>
      <trkpt lat="45.91622" lon="4.6864">
        <ele>361.97732543945</ele>
        <time>2015-02-24T06:34:18Z</time>
      </trkpt>
      <trkpt lat="45.91623" lon="4.68627">
        <ele>362.79235839844</ele>
        <time>2015-02-24T06:34:21Z</time>
      </trkpt>
      <trkpt lat="45.91623" lon="4.6862">
        <ele>363.24304199219</ele>
        <time>2015-02-24T06:34:23Z</time>
      </trkpt>
      <trkpt lat="45.91621" lon="4.68604">
        <ele>364.16510009766</ele>
        <time>2015-02-24T06:34:27Z</time>
      </trkpt>
      <trkpt lat="45.9162" lon="4.68601">
        <ele>364.32702636719</ele>
        <time>2015-02-24T06:34:28Z</time>
      </trkpt>
      <trkpt lat="45.91616" lon="4.6859">
        <ele>364.92593383789</ele>
        <time>2015-02-24T06:34:31Z</time>
      </trkpt>
      <trkpt lat="45.91613" lon="4.68584">
        <ele>365.3424987793</ele>
        <time>2015-02-24T06:34:33Z</time>
      </trkpt>
      <trkpt lat="45.91608" lon="4.68575">
        <ele>365.64633178711</ele>
        <time>2015-02-24T06:34:36Z</time>
      </trkpt>
      <trkpt lat="45.91604" lon="4.68565">
        <ele>365.96087646484</ele>
        <time>2015-02-24T06:34:39Z</time>
      </trkpt>
      <trkpt lat="45.91598" lon="4.68551">
        <ele>366.41165161133</ele>
        <time>2015-02-24T06:34:43Z</time>
      </trkpt>
      <trkpt lat="45.91597" lon="4.68549">
        <ele>366.47299194336</ele>
        <time>2015-02-24T06:34:44Z</time>
      </trkpt>
      <trkpt lat="45.9159" lon="4.68536">
        <ele>366.84945678711</ele>
        <time>2015-02-24T06:34:48Z</time>
      </trkpt>
      <trkpt lat="45.91589" lon="4.68532">
        <ele>366.93807983398</ele>
        <time>2015-02-24T06:34:49Z</time>
      </trkpt>
      <trkpt lat="45.91584" lon="4.68523">
        <ele>367.20513916016</ele>
        <time>2015-02-24T06:34:52Z</time>
      </trkpt>
      <trkpt lat="45.91582" lon="4.68516">
        <ele>367.52224731445</ele>
        <time>2015-02-24T06:34:54Z</time>
      </trkpt>
      <trkpt lat="45.9158" lon="4.68514">
        <ele>367.68502807617</ele>
        <time>2015-02-24T06:34:55Z</time>
      </trkpt>
      <trkpt lat="45.91576" lon="4.68504">
        <ele>368.37030029297</ele>
        <time>2015-02-24T06:34:58Z</time>
      </trkpt>
      <trkpt lat="45.91573" lon="4.68498">
        <ele>368.88903808594</ele>
        <time>2015-02-24T06:35:00Z</time>
      </trkpt>
      <trkpt lat="45.91571" lon="4.68495">
        <ele>369.23306274414</ele>
        <time>2015-02-24T06:35:01Z</time>
      </trkpt>
      <trkpt lat="45.9157" lon="4.68491">
        <ele>369.55532836914</ele>
        <time>2015-02-24T06:35:02Z</time>
      </trkpt>
      <trkpt lat="45.91566" lon="4.68481">
        <ele>370.53500366211</ele>
        <time>2015-02-24T06:35:05Z</time>
      </trkpt>
      <trkpt lat="45.91564" lon="4.68478">
        <ele>370.89501953125</ele>
        <time>2015-02-24T06:35:06Z</time>
      </trkpt>
      <trkpt lat="45.91558" lon="4.68465">
        <ele>372.23123168945</ele>
        <time>2015-02-24T06:35:10Z</time>
      </trkpt>
      <trkpt lat="45.91557" lon="4.68461">
        <ele>372.55755615234</ele>
        <time>2015-02-24T06:35:11Z</time>
      </trkpt>
      <trkpt lat="45.91554" lon="4.68454">
        <ele>373.20669555664</ele>
        <time>2015-02-24T06:35:13Z</time>
      </trkpt>
      <trkpt lat="45.91549" lon="4.6844">
        <ele>374.47253417969</ele>
        <time>2015-02-24T06:35:17Z</time>
      </trkpt>
      <trkpt lat="45.91546" lon="4.68424">
        <ele>375.72439575195</ele>
        <time>2015-02-24T06:35:21Z</time>
      </trkpt>
      <trkpt lat="45.91546" lon="4.68421">
        <ele>375.95413208008</ele>
        <time>2015-02-24T06:35:22Z</time>
      </trkpt>
      <trkpt lat="45.91545" lon="4.684">
        <ele>376.93823242188</ele>
        <time>2015-02-24T06:35:27Z</time>
      </trkpt>
      <trkpt lat="45.91545" lon="4.68396">
        <ele>377.06838989258</ele>
        <time>2015-02-24T06:35:28Z</time>
      </trkpt>
      <trkpt lat="45.91547" lon="4.68376">
        <ele>377.73971557617</ele>
        <time>2015-02-24T06:35:33Z</time>
      </trkpt>
      <trkpt lat="45.91547" lon="4.68371">
        <ele>377.89321899414</ele>
        <time>2015-02-24T06:35:34Z</time>
      </trkpt>
      <trkpt lat="45.91547" lon="4.68357">
        <ele>378.41973876953</ele>
        <time>2015-02-24T06:35:37Z</time>
      </trkpt>
      <trkpt lat="45.91548" lon="4.6834">
        <ele>379.02056884766</ele>
        <time>2015-02-24T06:35:41Z</time>
      </trkpt>
      <trkpt lat="45.91549" lon="4.68332">
        <ele>379.27200317383</ele>
        <time>2015-02-24T06:35:43Z</time>
      </trkpt>
      <trkpt lat="45.91548" lon="4.68327">
        <ele>379.34066772461</ele>
        <time>2015-02-24T06:35:44Z</time>
      </trkpt>
      <trkpt lat="45.91549" lon="4.68314">
        <ele>379.48715209961</ele>
        <time>2015-02-24T06:35:47Z</time>
      </trkpt>
      <trkpt lat="45.91549" lon="4.68296">
        <ele>379.69714355469</ele>
        <time>2015-02-24T06:35:51Z</time>
      </trkpt>
      <trkpt lat="45.91549" lon="4.68293">
        <ele>379.74179077148</ele>
        <time>2015-02-24T06:35:52Z</time>
      </trkpt>
      <trkpt lat="45.9155" lon="4.68284">
        <ele>379.8030090332</ele>
        <time>2015-02-24T06:35:54Z</time>
      </trkpt>
      <trkpt lat="45.9155" lon="4.68275">
        <ele>379.88427734375</ele>
        <time>2015-02-24T06:35:56Z</time>
      </trkpt>
      <trkpt lat="45.9155" lon="4.68258">
        <ele>380.11083984375</ele>
        <time>2015-02-24T06:36:00Z</time>
      </trkpt>
      <trkpt lat="45.9155" lon="4.68253">
        <ele>380.14346313477</ele>
        <time>2015-02-24T06:36:01Z</time>
      </trkpt>
      <trkpt lat="45.91551" lon="4.6825">
        <ele>380.15148925781</ele>
        <time>2015-02-24T06:36:02Z</time>
      </trkpt>
      <trkpt lat="45.91554" lon="4.68243">
        <ele>379.98880004883</ele>
        <time>2015-02-24T06:36:04Z</time>
      </trkpt>
      <trkpt lat="45.91554" lon="4.68243">
        <ele>379.98880004883</ele>
        <time>2015-02-24T06:36:04Z</time>
      </trkpt>
      <trkpt lat="45.91555" lon="4.68239">
        <ele>379.93255615234</ele>
        <time>2015-02-24T06:36:05Z</time>
      </trkpt>
      <trkpt lat="45.91561" lon="4.68223">
        <ele>379.57489013672</ele>
        <time>2015-02-24T06:36:09Z</time>
      </trkpt>
      <trkpt lat="45.91562" lon="4.6822">
        <ele>379.49005126953</ele>
        <time>2015-02-24T06:36:10Z</time>
      </trkpt>
      <trkpt lat="45.91568" lon="4.68202">
        <ele>379.09512329102</ele>
        <time>2015-02-24T06:36:14Z</time>
      </trkpt>
      <trkpt lat="45.91575" lon="4.68179">
        <ele>378.54159545898</ele>
        <time>2015-02-24T06:36:19Z</time>
      </trkpt>
      <trkpt lat="45.91576" lon="4.6817">
        <ele>378.36569213867</ele>
        <time>2015-02-24T06:36:21Z</time>
      </trkpt>
      <trkpt lat="45.91578" lon="4.68156">
        <ele>377.62475585938</ele>
        <time>2015-02-24T06:36:24Z</time>
      </trkpt>
      <trkpt lat="45.9158" lon="4.6813">
        <ele>376.04782104492</ele>
        <time>2015-02-24T06:36:29Z</time>
      </trkpt>
      <trkpt lat="45.9158" lon="4.68119">
        <ele>375.42279052734</ele>
        <time>2015-02-24T06:36:31Z</time>
      </trkpt>
      <trkpt lat="45.91579" lon="4.68105">
        <ele>374.70248413086</ele>
        <time>2015-02-24T06:36:34Z</time>
      </trkpt>
      <trkpt lat="45.91578" lon="4.681">
        <ele>374.52182006836</ele>
        <time>2015-02-24T06:36:35Z</time>
      </trkpt>
      <trkpt lat="45.91575" lon="4.68081">
        <ele>373.93490600586</ele>
        <time>2015-02-24T06:36:39Z</time>
      </trkpt>
      <trkpt lat="45.91573" lon="4.68062">
        <ele>374.60882568359</ele>
        <time>2015-02-24T06:36:43Z</time>
      </trkpt>
      <trkpt lat="45.91571" lon="4.68053">
        <ele>374.90783691406</ele>
        <time>2015-02-24T06:36:45Z</time>
      </trkpt>
      <trkpt lat="45.9157" lon="4.68029">
        <ele>375.50790405273</ele>
        <time>2015-02-24T06:36:50Z</time>
      </trkpt>
      <trkpt lat="45.9157" lon="4.68">
        <ele>376.08700561523</ele>
        <time>2015-02-24T06:36:56Z</time>
      </trkpt>
      <trkpt lat="45.91573" lon="4.67976">
        <ele>376.94445800781</ele>
        <time>2015-02-24T06:37:02Z</time>
      </trkpt>
      <trkpt lat="45.91582" lon="4.67964">
        <ele>376.86987304688</ele>
        <time>2015-02-24T06:37:06Z</time>
      </trkpt>
      <trkpt lat="45.91583" lon="4.67961">
        <ele>376.87670898438</ele>
        <time>2015-02-24T06:37:07Z</time>
      </trkpt>
      <trkpt lat="45.91591" lon="4.67954">
        <ele>376.37564086914</ele>
        <time>2015-02-24T06:37:10Z</time>
      </trkpt>
      <trkpt lat="45.91599" lon="4.6794">
        <ele>376.2099609375</ele>
        <time>2015-02-24T06:37:14Z</time>
      </trkpt>
      <trkpt lat="45.91607" lon="4.67931">
        <ele>375.82217407227</ele>
        <time>2015-02-24T06:37:17Z</time>
      </trkpt>
      <trkpt lat="45.91608" lon="4.67926">
        <ele>375.85733032227</ele>
        <time>2015-02-24T06:37:18Z</time>
      </trkpt>
      <trkpt lat="45.91611" lon="4.67911">
        <ele>376.01919555664</ele>
        <time>2015-02-24T06:37:22Z</time>
      </trkpt>
      <trkpt lat="45.91613" lon="4.67906">
        <ele>375.75942993164</ele>
        <time>2015-02-24T06:37:23Z</time>
      </trkpt>
      <trkpt lat="45.91615" lon="4.67881">
        <ele>375.52258300781</ele>
        <time>2015-02-24T06:37:29Z</time>
      </trkpt>
      <trkpt lat="45.91614" lon="4.67876">
        <ele>375.58245849609</ele>
        <time>2015-02-24T06:37:30Z</time>
      </trkpt>
      <trkpt lat="45.91609" lon="4.67849">
        <ele>375.93127441406</ele>
        <time>2015-02-24T06:37:36Z</time>
      </trkpt>
      <trkpt lat="45.91602" lon="4.6783">
        <ele>376.349609375</ele>
        <time>2015-02-24T06:37:41Z</time>
      </trkpt>
      <trkpt lat="45.91599" lon="4.67828">
        <ele>376.53271484375</ele>
        <time>2015-02-24T06:37:42Z</time>
      </trkpt>
      <trkpt lat="45.91591" lon="4.67829">
        <ele>377.25598144531</ele>
        <time>2015-02-24T06:37:45Z</time>
      </trkpt>
      <trkpt lat="45.91583" lon="4.67832">
        <ele>377.99005126953</ele>
        <time>2015-02-24T06:37:48Z</time>
      </trkpt>
      <trkpt lat="45.91581" lon="4.67833">
        <ele>378.11022949219</ele>
        <time>2015-02-24T06:37:49Z</time>
      </trkpt>
      <trkpt lat="45.91576" lon="4.67835">
        <ele>378.37789916992</ele>
        <time>2015-02-24T06:37:51Z</time>
      </trkpt>
      <trkpt lat="45.91568" lon="4.67847">
        <ele>378.93139648438</ele>
        <time>2015-02-24T06:37:55Z</time>
      </trkpt>
      <trkpt lat="45.91559" lon="4.6786">
        <ele>379.59033203125</ele>
        <time>2015-02-24T06:37:59Z</time>
      </trkpt>
      <trkpt lat="45.91557" lon="4.67863">
        <ele>379.75662231445</ele>
        <time>2015-02-24T06:38:00Z</time>
      </trkpt>
      <trkpt lat="45.91549" lon="4.67872">
        <ele>380.32870483398</ele>
        <time>2015-02-24T06:38:03Z</time>
      </trkpt>
      <trkpt lat="45.91545" lon="4.67874">
        <ele>380.54187011719</ele>
        <time>2015-02-24T06:38:04Z</time>
      </trkpt>
      <trkpt lat="45.91531" lon="4.67876">
        <ele>381.37240600586</ele>
        <time>2015-02-24T06:38:08Z</time>
      </trkpt>
      <trkpt lat="45.91527" lon="4.67878">
        <ele>381.60504150391</ele>
        <time>2015-02-24T06:38:09Z</time>
      </trkpt>
      <trkpt lat="45.91521" lon="4.67881">
        <ele>381.99212646484</ele>
        <time>2015-02-24T06:38:11Z</time>
      </trkpt>
      <trkpt lat="45.91518" lon="4.67881">
        <ele>382.17855834961</ele>
        <time>2015-02-24T06:38:12Z</time>
      </trkpt>
      <trkpt lat="45.91514" lon="4.67885">
        <ele>382.45803833008</ele>
        <time>2015-02-24T06:38:14Z</time>
      </trkpt>
      <trkpt lat="45.91508" lon="4.67892">
        <ele>382.95233154297</ele>
        <time>2015-02-24T06:38:16Z</time>
      </trkpt>
      <trkpt lat="45.91495" lon="4.67905">
        <ele>383.49111938477</ele>
        <time>2015-02-24T06:38:21Z</time>
      </trkpt>
      <trkpt lat="45.91481" lon="4.67909">
        <ele>382.94781494141</ele>
        <time>2015-02-24T06:38:25Z</time>
      </trkpt>
      <trkpt lat="45.91465" lon="4.67907">
        <ele>382.11245727539</ele>
        <time>2015-02-24T06:38:30Z</time>
      </trkpt>
      <trkpt lat="45.91449" lon="4.67904">
        <ele>381.34454345703</ele>
        <time>2015-02-24T06:38:35Z</time>
      </trkpt>
      <trkpt lat="45.91444" lon="4.67908">
        <ele>381.1799621582</ele>
        <time>2015-02-24T06:38:37Z</time>
      </trkpt>
      <trkpt lat="45.9144" lon="4.67914">
        <ele>381.06399536133</ele>
        <time>2015-02-24T06:38:39Z</time>
      </trkpt>
      <trkpt lat="45.91426" lon="4.67934">
        <ele>381.31777954102</ele>
        <time>2015-02-24T06:38:45Z</time>
      </trkpt>
      <trkpt lat="45.91424" lon="4.67938">
        <ele>381.48373413086</ele>
        <time>2015-02-24T06:38:46Z</time>
      </trkpt>
      <trkpt lat="45.91419" lon="4.67945">
        <ele>381.76351928711</ele>
        <time>2015-02-24T06:38:48Z</time>
      </trkpt>
      <trkpt lat="45.91412" lon="4.67953">
        <ele>381.99746704102</ele>
        <time>2015-02-24T06:38:51Z</time>
      </trkpt>
      <trkpt lat="45.91405" lon="4.67954">
        <ele>381.70837402344</ele>
        <time>2015-02-24T06:38:53Z</time>
      </trkpt>
      <trkpt lat="45.91402" lon="4.67951">
        <ele>381.40325927734</ele>
        <time>2015-02-24T06:38:54Z</time>
      </trkpt>
      <trkpt lat="45.91389" lon="4.67941">
        <ele>380.27389526367</ele>
        <time>2015-02-24T06:38:58Z</time>
      </trkpt>
      <trkpt lat="45.91381" lon="4.67934">
        <ele>379.40844726562</ele>
        <time>2015-02-24T06:39:01Z</time>
      </trkpt>
      <trkpt lat="45.91378" lon="4.67931">
        <ele>379.07562255859</ele>
        <time>2015-02-24T06:39:02Z</time>
      </trkpt>
      <trkpt lat="45.91369" lon="4.67926">
        <ele>378.30917358398</ele>
        <time>2015-02-24T06:39:05Z</time>
      </trkpt>
      <trkpt lat="45.91366" lon="4.67924">
        <ele>378.05432128906</ele>
        <time>2015-02-24T06:39:06Z</time>
      </trkpt>
      <trkpt lat="45.91357" lon="4.67918">
        <ele>377.23037719727</ele>
        <time>2015-02-24T06:39:09Z</time>
      </trkpt>
      <trkpt lat="45.91354" lon="4.67915">
        <ele>376.9289855957</ele>
        <time>2015-02-24T06:39:10Z</time>
      </trkpt>
      <trkpt lat="45.91346" lon="4.67906">
        <ele>375.84051513672</ele>
        <time>2015-02-24T06:39:13Z</time>
      </trkpt>
      <trkpt lat="45.91343" lon="4.67903">
        <ele>375.44091796875</ele>
        <time>2015-02-24T06:39:14Z</time>
      </trkpt>
      <trkpt lat="45.91335" lon="4.6789">
        <ele>373.87832641602</ele>
        <time>2015-02-24T06:39:18Z</time>
      </trkpt>
      <trkpt lat="45.91332" lon="4.67886">
        <ele>373.40390014648</ele>
        <time>2015-02-24T06:39:19Z</time>
      </trkpt>
      <trkpt lat="45.91325" lon="4.6787">
        <ele>371.97082519531</ele>
        <time>2015-02-24T06:39:23Z</time>
      </trkpt>
      <trkpt lat="45.91322" lon="4.67861">
        <ele>371.17565917969</ele>
        <time>2015-02-24T06:39:25Z</time>
      </trkpt>
      <trkpt lat="45.91316" lon="4.67854">
        <ele>370.45892333984</ele>
        <time>2015-02-24T06:39:27Z</time>
      </trkpt>
      <trkpt lat="45.91311" lon="4.67843">
        <ele>369.35424804688</ele>
        <time>2015-02-24T06:39:30Z</time>
      </trkpt>
      <trkpt lat="45.91302" lon="4.67829">
        <ele>368.15777587891</ele>
        <time>2015-02-24T06:39:34Z</time>
      </trkpt>
      <trkpt lat="45.913" lon="4.67826">
        <ele>368.01702880859</ele>
        <time>2015-02-24T06:39:35Z</time>
      </trkpt>
      <trkpt lat="45.9129" lon="4.67812">
        <ele>367.45397949219</ele>
        <time>2015-02-24T06:39:39Z</time>
      </trkpt>
      <trkpt lat="45.91285" lon="4.67807">
        <ele>367.19534301758</ele>
        <time>2015-02-24T06:39:41Z</time>
      </trkpt>
      <trkpt lat="45.91277" lon="4.67796">
        <ele>366.76159667969</ele>
        <time>2015-02-24T06:39:44Z</time>
      </trkpt>
      <trkpt lat="45.91273" lon="4.6779">
        <ele>366.51214599609</ele>
        <time>2015-02-24T06:39:46Z</time>
      </trkpt>
      <trkpt lat="45.91264" lon="4.67781">
        <ele>366.07269287109</ele>
        <time>2015-02-24T06:39:49Z</time>
      </trkpt>
      <trkpt lat="45.91253" lon="4.6777">
        <ele>365.55883789062</ele>
        <time>2015-02-24T06:39:53Z</time>
      </trkpt>
      <trkpt lat="45.91249" lon="4.67767">
        <ele>365.4001159668</ele>
        <time>2015-02-24T06:39:54Z</time>
      </trkpt>
      <trkpt lat="45.91239" lon="4.67757">
        <ele>364.92367553711</ele>
        <time>2015-02-24T06:39:58Z</time>
      </trkpt>
      <trkpt lat="45.91233" lon="4.67752">
        <ele>364.65414428711</ele>
        <time>2015-02-24T06:40:00Z</time>
      </trkpt>
      <trkpt lat="45.91218" lon="4.67733">
        <ele>364.59963989258</ele>
        <time>2015-02-24T06:40:06Z</time>
      </trkpt>
      <trkpt lat="45.91212" lon="4.67721">
        <ele>364.63970947266</ele>
        <time>2015-02-24T06:40:09Z</time>
      </trkpt>
      <trkpt lat="45.91208" lon="4.67714">
        <ele>364.62478637695</ele>
        <time>2015-02-24T06:40:11Z</time>
      </trkpt>
      <trkpt lat="45.912" lon="4.67694">
        <ele>364.61880493164</ele>
        <time>2015-02-24T06:40:16Z</time>
      </trkpt>
      <trkpt lat="45.91193" lon="4.67674">
        <ele>364.49578857422</ele>
        <time>2015-02-24T06:40:21Z</time>
      </trkpt>
      <trkpt lat="45.91184" lon="4.6765">
        <ele>363.41345214844</ele>
        <time>2015-02-24T06:40:27Z</time>
      </trkpt>
      <trkpt lat="45.9118" lon="4.67641">
        <ele>362.91564941406</ele>
        <time>2015-02-24T06:40:29Z</time>
      </trkpt>
      <trkpt lat="45.91177" lon="4.67634">
        <ele>362.44186401367</ele>
        <time>2015-02-24T06:40:31Z</time>
      </trkpt>
      <trkpt lat="45.91171" lon="4.67617">
        <ele>361.49600219727</ele>
        <time>2015-02-24T06:40:35Z</time>
      </trkpt>
      <trkpt lat="45.91169" lon="4.67613">
        <ele>361.19903564453</ele>
        <time>2015-02-24T06:40:36Z</time>
      </trkpt>
      <trkpt lat="45.91167" lon="4.67607">
        <ele>360.90490722656</ele>
        <time>2015-02-24T06:40:37Z</time>
      </trkpt>
      <trkpt lat="45.91163" lon="4.67596">
        <ele>360.38500976562</ele>
        <time>2015-02-24T06:40:40Z</time>
      </trkpt>
      <trkpt lat="45.91163" lon="4.67596">
        <ele>360.38500976562</ele>
        <time>2015-02-24T06:40:40Z</time>
      </trkpt>
      <trkpt lat="45.91158" lon="4.67582">
        <ele>359.77844238281</ele>
        <time>2015-02-24T06:40:43Z</time>
      </trkpt>
      <trkpt lat="45.91153" lon="4.6757">
        <ele>359.4345703125</ele>
        <time>2015-02-24T06:40:46Z</time>
      </trkpt>
      <trkpt lat="45.9115" lon="4.67561">
        <ele>359.23382568359</ele>
        <time>2015-02-24T06:40:48Z</time>
      </trkpt>
      <trkpt lat="45.91147" lon="4.67552">
        <ele>359.04751586914</ele>
        <time>2015-02-24T06:40:50Z</time>
      </trkpt>
      <trkpt lat="45.91143" lon="4.6754">
        <ele>358.83493041992</ele>
        <time>2015-02-24T06:40:53Z</time>
      </trkpt>
      <trkpt lat="45.91141" lon="4.67531">
        <ele>358.70614624023</ele>
        <time>2015-02-24T06:40:55Z</time>
      </trkpt>
      <trkpt lat="45.91137" lon="4.67505">
        <ele>358.41128540039</ele>
        <time>2015-02-24T06:41:00Z</time>
      </trkpt>
      <trkpt lat="45.91137" lon="4.67496">
        <ele>358.47494506836</ele>
        <time>2015-02-24T06:41:02Z</time>
      </trkpt>
      <trkpt lat="45.91134" lon="4.67473">
        <ele>359.15240478516</ele>
        <time>2015-02-24T06:41:07Z</time>
      </trkpt>
      <trkpt lat="45.91124" lon="4.67464">
        <ele>359.61022949219</ele>
        <time>2015-02-24T06:41:11Z</time>
      </trkpt>
      <trkpt lat="45.91112" lon="4.67463">
        <ele>359.82681274414</ele>
        <time>2015-02-24T06:41:15Z</time>
      </trkpt>
      <trkpt lat="45.91096" lon="4.67464">
        <ele>360.07086181641</ele>
        <time>2015-02-24T06:41:20Z</time>
      </trkpt>
      <trkpt lat="45.91081" lon="4.67465">
        <ele>360.25073242188</ele>
        <time>2015-02-24T06:41:25Z</time>
      </trkpt>
      <trkpt lat="45.91066" lon="4.67464">
        <ele>360.29193115234</ele>
        <time>2015-02-24T06:41:30Z</time>
      </trkpt>
      <trkpt lat="45.9106" lon="4.67463">
        <ele>360.34170532227</ele>
        <time>2015-02-24T06:41:32Z</time>
      </trkpt>
      <trkpt lat="45.91048" lon="4.6746">
        <ele>360.42239379883</ele>
        <time>2015-02-24T06:41:36Z</time>
      </trkpt>
      <trkpt lat="45.91032" lon="4.67456">
        <ele>360.59060668945</ele>
        <time>2015-02-24T06:41:42Z</time>
      </trkpt>
      <trkpt lat="45.91024" lon="4.67452">
        <ele>360.73309326172</ele>
        <time>2015-02-24T06:41:45Z</time>
      </trkpt>
      <trkpt lat="45.91021" lon="4.67451">
        <ele>360.76742553711</ele>
        <time>2015-02-24T06:41:46Z</time>
      </trkpt>
      <trkpt lat="45.91004" lon="4.67446">
        <ele>360.94940185547</ele>
        <time>2015-02-24T06:41:52Z</time>
      </trkpt>
      <trkpt lat="45.9099" lon="4.6744">
        <ele>361.69900512695</ele>
        <time>2015-02-24T06:41:57Z</time>
      </trkpt>
      <trkpt lat="45.90981" lon="4.67438">
        <ele>362.2951965332</ele>
        <time>2015-02-24T06:42:00Z</time>
      </trkpt>
      <trkpt lat="45.90972" lon="4.67435">
        <ele>362.89276123047</ele>
        <time>2015-02-24T06:42:03Z</time>
      </trkpt>
      <trkpt lat="45.90966" lon="4.67433">
        <ele>363.30001831055</ele>
        <time>2015-02-24T06:42:05Z</time>
      </trkpt>
      <trkpt lat="45.90952" lon="4.67428">
        <ele>364.30926513672</ele>
        <time>2015-02-24T06:42:10Z</time>
      </trkpt>
      <trkpt lat="45.90941" lon="4.67425">
        <ele>365.09915161133</ele>
        <time>2015-02-24T06:42:14Z</time>
      </trkpt>
      <trkpt lat="45.90932" lon="4.67422">
        <ele>365.75436401367</ele>
        <time>2015-02-24T06:42:17Z</time>
      </trkpt>
      <trkpt lat="45.90921" lon="4.6742">
        <ele>366.57354736328</ele>
        <time>2015-02-24T06:42:21Z</time>
      </trkpt>
      <trkpt lat="45.90912" lon="4.67418">
        <ele>367.0387878418</ele>
        <time>2015-02-24T06:42:24Z</time>
      </trkpt>
      <trkpt lat="45.90903" lon="4.67416">
        <ele>367.40780639648</ele>
        <time>2015-02-24T06:42:27Z</time>
      </trkpt>
      <trkpt lat="45.90897" lon="4.67414">
        <ele>367.76150512695</ele>
        <time>2015-02-24T06:42:29Z</time>
      </trkpt>
      <trkpt lat="45.90886" lon="4.6741">
        <ele>368.43566894531</ele>
        <time>2015-02-24T06:42:33Z</time>
      </trkpt>
      <trkpt lat="45.90879" lon="4.67409">
        <ele>368.76953125</ele>
        <time>2015-02-24T06:42:35Z</time>
      </trkpt>
      <trkpt lat="45.90864" lon="4.67406">
        <ele>369.56631469727</ele>
        <time>2015-02-24T06:42:40Z</time>
      </trkpt>
      <trkpt lat="45.90853" lon="4.67403">
        <ele>370.17282104492</ele>
        <time>2015-02-24T06:42:44Z</time>
      </trkpt>
      <trkpt lat="45.90846" lon="4.67402">
        <ele>370.49822998047</ele>
        <time>2015-02-24T06:42:46Z</time>
      </trkpt>
      <trkpt lat="45.90835" lon="4.674">
        <ele>371.201171875</ele>
        <time>2015-02-24T06:42:50Z</time>
      </trkpt>
      <trkpt lat="45.90827" lon="4.67397">
        <ele>372.1276550293</ele>
        <time>2015-02-24T06:42:53Z</time>
      </trkpt>
      <trkpt lat="45.90812" lon="4.67395">
        <ele>373.65408325195</ele>
        <time>2015-02-24T06:42:58Z</time>
      </trkpt>
      <trkpt lat="45.9081" lon="4.67395">
        <ele>373.87426757812</ele>
        <time>2015-02-24T06:42:59Z</time>
      </trkpt>
      <trkpt lat="45.908" lon="4.67396">
        <ele>374.63247680664</ele>
        <time>2015-02-24T06:43:02Z</time>
      </trkpt>
      <trkpt lat="45.90795" lon="4.67396">
        <ele>375.04452514648</ele>
        <time>2015-02-24T06:43:04Z</time>
      </trkpt>
      <trkpt lat="45.90783" lon="4.67399">
        <ele>375.84124755859</ele>
        <time>2015-02-24T06:43:08Z</time>
      </trkpt>
      <trkpt lat="45.90768" lon="4.67404">
        <ele>376.82827758789</ele>
        <time>2015-02-24T06:43:13Z</time>
      </trkpt>
      <trkpt lat="45.9076" lon="4.67407">
        <ele>377.4963684082</ele>
        <time>2015-02-24T06:43:16Z</time>
      </trkpt>
      <trkpt lat="45.90751" lon="4.67412">
        <ele>378.11456298828</ele>
        <time>2015-02-24T06:43:19Z</time>
      </trkpt>
      <trkpt lat="45.90734" lon="4.6742">
        <ele>378.74005126953</ele>
        <time>2015-02-24T06:43:25Z</time>
      </trkpt>
      <trkpt lat="45.90729" lon="4.67423">
        <ele>378.88345336914</ele>
        <time>2015-02-24T06:43:27Z</time>
      </trkpt>
      <trkpt lat="45.90717" lon="4.67428">
        <ele>379.25262451172</ele>
        <time>2015-02-24T06:43:31Z</time>
      </trkpt>
      <trkpt lat="45.90702" lon="4.67435">
        <ele>379.62002563477</ele>
        <time>2015-02-24T06:43:36Z</time>
      </trkpt>
      <trkpt lat="45.90697" lon="4.67437">
        <ele>379.81259155273</ele>
        <time>2015-02-24T06:43:38Z</time>
      </trkpt>
      <trkpt lat="45.90685" lon="4.67441">
        <ele>380.19116210938</ele>
        <time>2015-02-24T06:43:42Z</time>
      </trkpt>
      <trkpt lat="45.90677" lon="4.67444">
        <ele>380.42977905273</ele>
        <time>2015-02-24T06:43:45Z</time>
      </trkpt>
      <trkpt lat="45.90671" lon="4.67447">
        <ele>380.61157226562</ele>
        <time>2015-02-24T06:43:47Z</time>
      </trkpt>
      <trkpt lat="45.90659" lon="4.67451">
        <ele>381.0178527832</ele>
        <time>2015-02-24T06:43:51Z</time>
      </trkpt>
      <trkpt lat="45.90656" lon="4.67452">
        <ele>381.16345214844</ele>
        <time>2015-02-24T06:43:52Z</time>
      </trkpt>
      <trkpt lat="45.90639" lon="4.67459">
        <ele>381.78857421875</ele>
        <time>2015-02-24T06:43:58Z</time>
      </trkpt>
      <trkpt lat="45.90633" lon="4.67461">
        <ele>382.0412902832</ele>
        <time>2015-02-24T06:44:00Z</time>
      </trkpt>
      <trkpt lat="45.90622" lon="4.67465">
        <ele>382.52301025391</ele>
        <time>2015-02-24T06:44:04Z</time>
      </trkpt>
      <trkpt lat="45.90607" lon="4.6747">
        <ele>383.19784545898</ele>
        <time>2015-02-24T06:44:09Z</time>
      </trkpt>
      <trkpt lat="45.90593" lon="4.67475">
        <ele>383.89801025391</ele>
        <time>2015-02-24T06:44:14Z</time>
      </trkpt>
      <trkpt lat="45.90583" lon="4.67478">
        <ele>384.32901000977</ele>
        <time>2015-02-24T06:44:17Z</time>
      </trkpt>
      <trkpt lat="45.90578" lon="4.6748">
        <ele>384.51522827148</ele>
        <time>2015-02-24T06:44:19Z</time>
      </trkpt>
      <trkpt lat="45.90563" lon="4.67483">
        <ele>385.06002807617</ele>
        <time>2015-02-24T06:44:24Z</time>
      </trkpt>
      <trkpt lat="45.9056" lon="4.67484">
        <ele>385.18298339844</ele>
        <time>2015-02-24T06:44:25Z</time>
      </trkpt>
      <trkpt lat="45.90546" lon="4.67487">
        <ele>385.73681640625</ele>
        <time>2015-02-24T06:44:30Z</time>
      </trkpt>
      <trkpt lat="45.90533" lon="4.67484">
        <ele>386.62243652344</ele>
        <time>2015-02-24T06:44:35Z</time>
      </trkpt>
      <trkpt lat="45.90523" lon="4.67481">
        <ele>387.32928466797</ele>
        <time>2015-02-24T06:44:39Z</time>
      </trkpt>
      <trkpt lat="45.9052" lon="4.67481">
        <ele>387.54061889648</ele>
        <time>2015-02-24T06:44:40Z</time>
      </trkpt>
      <trkpt lat="45.90512" lon="4.67478">
        <ele>388.18218994141</ele>
        <time>2015-02-24T06:44:43Z</time>
      </trkpt>
      <trkpt lat="45.90503" lon="4.67476">
        <ele>388.81155395508</ele>
        <time>2015-02-24T06:44:46Z</time>
      </trkpt>
      <trkpt lat="45.90492" lon="4.67475">
        <ele>389.8860168457</ele>
        <time>2015-02-24T06:44:50Z</time>
      </trkpt>
      <trkpt lat="45.90489" lon="4.67474">
        <ele>390.22705078125</ele>
        <time>2015-02-24T06:44:51Z</time>
      </trkpt>
      <trkpt lat="45.90483" lon="4.67473">
        <ele>390.92514038086</ele>
        <time>2015-02-24T06:44:53Z</time>
      </trkpt>
      <trkpt lat="45.90472" lon="4.67469">
        <ele>392.34762573242</ele>
        <time>2015-02-24T06:44:57Z</time>
      </trkpt>
      <trkpt lat="45.90469" lon="4.67468">
        <ele>392.6354675293</ele>
        <time>2015-02-24T06:44:58Z</time>
      </trkpt>
      <trkpt lat="45.90459" lon="4.67464">
        <ele>393.95666503906</ele>
        <time>2015-02-24T06:45:02Z</time>
      </trkpt>
      <trkpt lat="45.9045" lon="4.67461">
        <ele>395.09994506836</ele>
        <time>2015-02-24T06:45:06Z</time>
      </trkpt>
      <trkpt lat="45.90446" lon="4.67458">
        <ele>395.70303344727</ele>
        <time>2015-02-24T06:45:08Z</time>
      </trkpt>
      <trkpt lat="45.90439" lon="4.67455">
        <ele>396.5739440918</ele>
        <time>2015-02-24T06:45:11Z</time>
      </trkpt>
      <trkpt lat="45.90435" lon="4.67454">
        <ele>397.13354492188</ele>
        <time>2015-02-24T06:45:13Z</time>
      </trkpt>
      <trkpt lat="45.90432" lon="4.67454">
        <ele>397.3733215332</ele>
        <time>2015-02-24T06:45:14Z</time>
      </trkpt>
      <trkpt lat="45.90422" lon="4.67452">
        <ele>398.49768066406</ele>
        <time>2015-02-24T06:45:18Z</time>
      </trkpt>
      <trkpt lat="45.9042" lon="4.67452">
        <ele>398.67337036133</ele>
        <time>2015-02-24T06:45:19Z</time>
      </trkpt>
      <trkpt lat="45.90414" lon="4.67455">
        <ele>398.85464477539</ele>
        <time>2015-02-24T06:45:21Z</time>
      </trkpt>
      <trkpt lat="45.90411" lon="4.67456">
        <ele>398.75314331055</ele>
        <time>2015-02-24T06:45:22Z</time>
      </trkpt>
      <trkpt lat="45.90396" lon="4.67463">
        <ele>398.48648071289</ele>
        <time>2015-02-24T06:45:27Z</time>
      </trkpt>
      <trkpt lat="45.9038" lon="4.67468">
        <ele>398.42913818359</ele>
        <time>2015-02-24T06:45:32Z</time>
      </trkpt>
      <trkpt lat="45.90364" lon="4.67469">
        <ele>398.59655761719</ele>
        <time>2015-02-24T06:45:37Z</time>
      </trkpt>
      <trkpt lat="45.90355" lon="4.67469">
        <ele>398.80456542969</ele>
        <time>2015-02-24T06:45:40Z</time>
      </trkpt>
      <trkpt lat="45.9035" lon="4.67468">
        <ele>398.98013305664</ele>
        <time>2015-02-24T06:45:42Z</time>
      </trkpt>
      <trkpt lat="45.90347" lon="4.67468">
        <ele>399.07427978516</ele>
        <time>2015-02-24T06:45:43Z</time>
      </trkpt>
      <trkpt lat="45.90334" lon="4.6746">
        <ele>399.89556884766</ele>
        <time>2015-02-24T06:45:48Z</time>
      </trkpt>
      <trkpt lat="45.90322" lon="4.67449">
        <ele>400.4501953125</ele>
        <time>2015-02-24T06:45:53Z</time>
      </trkpt>
      <trkpt lat="45.90317" lon="4.67445">
        <ele>400.70043945312</ele>
        <time>2015-02-24T06:45:55Z</time>
      </trkpt>
      <trkpt lat="45.90308" lon="4.67435">
        <ele>401.2926940918</ele>
        <time>2015-02-24T06:45:59Z</time>
      </trkpt>
      <trkpt lat="45.90303" lon="4.6743">
        <ele>401.6003112793</ele>
        <time>2015-02-24T06:46:01Z</time>
      </trkpt>
      <trkpt lat="45.90296" lon="4.67423">
        <ele>402.09292602539</ele>
        <time>2015-02-24T06:46:04Z</time>
      </trkpt>
      <trkpt lat="45.90287" lon="4.67413">
        <ele>402.64025878906</ele>
        <time>2015-02-24T06:46:08Z</time>
      </trkpt>
      <trkpt lat="45.90282" lon="4.67408">
        <ele>402.83374023438</ele>
        <time>2015-02-24T06:46:10Z</time>
      </trkpt>
      <trkpt lat="45.90273" lon="4.674">
        <ele>403.14739990234</ele>
        <time>2015-02-24T06:46:14Z</time>
      </trkpt>
      <trkpt lat="45.9026" lon="4.6739">
        <ele>403.45791625977</ele>
        <time>2015-02-24T06:46:19Z</time>
      </trkpt>
      <trkpt lat="45.90247" lon="4.6738">
        <ele>403.8212890625</ele>
        <time>2015-02-24T06:46:24Z</time>
      </trkpt>
      <trkpt lat="45.90239" lon="4.67375">
        <ele>404.22222900391</ele>
        <time>2015-02-24T06:46:27Z</time>
      </trkpt>
      <trkpt lat="45.90221" lon="4.67366">
        <ele>405.14645385742</ele>
        <time>2015-02-24T06:46:33Z</time>
      </trkpt>
      <trkpt lat="45.90219" lon="4.67364">
        <ele>405.35681152344</ele>
        <time>2015-02-24T06:46:34Z</time>
      </trkpt>
      <trkpt lat="45.90204" lon="4.67354">
        <ele>406.48794555664</ele>
        <time>2015-02-24T06:46:39Z</time>
      </trkpt>
      <trkpt lat="45.90191" lon="4.67344">
        <ele>407.84136962891</ele>
        <time>2015-02-24T06:46:44Z</time>
      </trkpt>
      <trkpt lat="45.9018" lon="4.67336">
        <ele>409.04721069336</ele>
        <time>2015-02-24T06:46:48Z</time>
      </trkpt>
      <trkpt lat="45.90173" lon="4.6733">
        <ele>409.84173583984</ele>
        <time>2015-02-24T06:46:51Z</time>
      </trkpt>
      <trkpt lat="45.9017" lon="4.67329">
        <ele>410.03399658203</ele>
        <time>2015-02-24T06:46:52Z</time>
      </trkpt>
      <trkpt lat="45.90162" lon="4.67325">
        <ele>410.27310180664</ele>
        <time>2015-02-24T06:46:55Z</time>
      </trkpt>
      <trkpt lat="45.9016" lon="4.67323">
        <ele>410.30764770508</ele>
        <time>2015-02-24T06:46:56Z</time>
      </trkpt>
      <trkpt lat="45.9015" lon="4.67317">
        <ele>410.47821044922</ele>
        <time>2015-02-24T06:47:00Z</time>
      </trkpt>
      <trkpt lat="45.90142" lon="4.67311">
        <ele>410.64834594727</ele>
        <time>2015-02-24T06:47:04Z</time>
      </trkpt>
      <trkpt lat="45.90126" lon="4.67304">
        <ele>410.89303588867</ele>
        <time>2015-02-24T06:47:09Z</time>
      </trkpt>
      <trkpt lat="45.90116" lon="4.67302">
        <ele>410.9987487793</ele>
        <time>2015-02-24T06:47:13Z</time>
      </trkpt>
      <trkpt lat="45.90101" lon="4.67296">
        <ele>411.25247192383</ele>
        <time>2015-02-24T06:47:18Z</time>
      </trkpt>
      <trkpt lat="45.90089" lon="4.67291">
        <ele>411.53771972656</ele>
        <time>2015-02-24T06:47:22Z</time>
      </trkpt>
      <trkpt lat="45.90069" lon="4.67282">
        <ele>412.35690307617</ele>
        <time>2015-02-24T06:47:28Z</time>
      </trkpt>
      <trkpt lat="45.90054" lon="4.67275">
        <ele>413.48287963867</ele>
        <time>2015-02-24T06:47:33Z</time>
      </trkpt>
      <trkpt lat="45.90038" lon="4.67267">
        <ele>415.06619262695</ele>
        <time>2015-02-24T06:47:38Z</time>
      </trkpt>
      <trkpt lat="45.90025" lon="4.67262">
        <ele>416.33474731445</ele>
        <time>2015-02-24T06:47:42Z</time>
      </trkpt>
      <trkpt lat="45.90015" lon="4.67258">
        <ele>417.6471862793</ele>
        <time>2015-02-24T06:47:46Z</time>
      </trkpt>
      <trkpt lat="45.90012" lon="4.67257">
        <ele>417.98843383789</ele>
        <time>2015-02-24T06:47:47Z</time>
      </trkpt>
      <trkpt lat="45.90001" lon="4.67252">
        <ele>419.55084228516</ele>
        <time>2015-02-24T06:47:51Z</time>
      </trkpt>
      <trkpt lat="45.89994" lon="4.67247">
        <ele>420.39059448242</ele>
        <time>2015-02-24T06:47:54Z</time>
      </trkpt>
      <trkpt lat="45.89992" lon="4.67246">
        <ele>420.53747558594</ele>
        <time>2015-02-24T06:47:55Z</time>
      </trkpt>
      <trkpt lat="45.89988" lon="4.67244">
        <ele>420.68487548828</ele>
        <time>2015-02-24T06:47:57Z</time>
      </trkpt>
      <trkpt lat="45.89983" lon="4.67243">
        <ele>420.91583251953</ele>
        <time>2015-02-24T06:47:59Z</time>
      </trkpt>
      <trkpt lat="45.89978" lon="4.6724">
        <ele>421.27062988281</ele>
        <time>2015-02-24T06:48:01Z</time>
      </trkpt>
      <trkpt lat="45.8997" lon="4.67237">
        <ele>421.67770385742</ele>
        <time>2015-02-24T06:48:04Z</time>
      </trkpt>
      <trkpt lat="45.8996" lon="4.67232">
        <ele>422.48892211914</ele>
        <time>2015-02-24T06:48:08Z</time>
      </trkpt>
      <trkpt lat="45.89958" lon="4.67231">
        <ele>422.62933349609</ele>
        <time>2015-02-24T06:48:09Z</time>
      </trkpt>
      <trkpt lat="45.89946" lon="4.67229">
        <ele>423.0485534668</ele>
        <time>2015-02-24T06:48:13Z</time>
      </trkpt>
      <trkpt lat="45.89935" lon="4.67228">
        <ele>423.17144775391</ele>
        <time>2015-02-24T06:48:17Z</time>
      </trkpt>
      <trkpt lat="45.89923" lon="4.67227">
        <ele>423.45571899414</ele>
        <time>2015-02-24T06:48:21Z</time>
      </trkpt>
      <trkpt lat="45.89915" lon="4.67224">
        <ele>424.04272460938</ele>
        <time>2015-02-24T06:48:24Z</time>
      </trkpt>
      <trkpt lat="45.89909" lon="4.67225">
        <ele>424.27505493164</ele>
        <time>2015-02-24T06:48:26Z</time>
      </trkpt>
      <trkpt lat="45.899" lon="4.67224">
        <ele>424.89611816406</ele>
        <time>2015-02-24T06:48:29Z</time>
      </trkpt>
      <trkpt lat="45.89898" lon="4.67224">
        <ele>425.01617431641</ele>
        <time>2015-02-24T06:48:30Z</time>
      </trkpt>
      <trkpt lat="45.89884" lon="4.67223">
        <ele>425.84970092773</ele>
        <time>2015-02-24T06:48:35Z</time>
      </trkpt>
      <trkpt lat="45.89873" lon="4.67225">
        <ele>426.14004516602</ele>
        <time>2015-02-24T06:48:39Z</time>
      </trkpt>
      <trkpt lat="45.89857" lon="4.67225">
        <ele>426.98199462891</ele>
        <time>2015-02-24T06:48:44Z</time>
      </trkpt>
      <trkpt lat="45.89846" lon="4.67227">
        <ele>427.24197387695</ele>
        <time>2015-02-24T06:48:48Z</time>
      </trkpt>
      <trkpt lat="45.89833" lon="4.6723">
        <ele>427.42007446289</ele>
        <time>2015-02-24T06:48:52Z</time>
      </trkpt>
      <trkpt lat="45.89831" lon="4.6723">
        <ele>427.46203613281</ele>
        <time>2015-02-24T06:48:53Z</time>
      </trkpt>
      <trkpt lat="45.89823" lon="4.67231">
        <ele>427.6354675293</ele>
        <time>2015-02-24T06:48:56Z</time>
      </trkpt>
      <trkpt lat="45.8982" lon="4.67231">
        <ele>427.67858886719</ele>
        <time>2015-02-24T06:48:57Z</time>
      </trkpt>
      <trkpt lat="45.89817" lon="4.67233">
        <ele>427.65383911133</ele>
        <time>2015-02-24T06:48:58Z</time>
      </trkpt>
      <trkpt lat="45.89812" lon="4.67234">
        <ele>427.59579467773</ele>
        <time>2015-02-24T06:49:00Z</time>
      </trkpt>
      <trkpt lat="45.89809" lon="4.67235">
        <ele>427.51968383789</ele>
        <time>2015-02-24T06:49:01Z</time>
      </trkpt>
      <trkpt lat="45.89804" lon="4.67237">
        <ele>427.47183227539</ele>
        <time>2015-02-24T06:49:03Z</time>
      </trkpt>
      <trkpt lat="45.89802" lon="4.67236">
        <ele>427.66409301758</ele>
        <time>2015-02-24T06:49:04Z</time>
      </trkpt>
      <trkpt lat="45.89796" lon="4.67238">
        <ele>427.62948608398</ele>
        <time>2015-02-24T06:49:06Z</time>
      </trkpt>
      <trkpt lat="45.8979" lon="4.67239">
        <ele>427.70874023438</ele>
        <time>2015-02-24T06:49:08Z</time>
      </trkpt>
      <trkpt lat="45.89787" lon="4.67239">
        <ele>427.87545776367</ele>
        <time>2015-02-24T06:49:09Z</time>
      </trkpt>
      <trkpt lat="45.89778" lon="4.6724">
        <ele>428.16595458984</ele>
        <time>2015-02-24T06:49:12Z</time>
      </trkpt>
      <trkpt lat="45.89775" lon="4.67241">
        <ele>428.20288085938</ele>
        <time>2015-02-24T06:49:13Z</time>
      </trkpt>
      <trkpt lat="45.89772" lon="4.67241">
        <ele>428.2236328125</ele>
        <time>2015-02-24T06:49:14Z</time>
      </trkpt>
      <trkpt lat="45.89762" lon="4.67245">
        <ele>428.11978149414</ele>
        <time>2015-02-24T06:49:17Z</time>
      </trkpt>
      <trkpt lat="45.89757" lon="4.67248">
        <ele>427.95123291016</ele>
        <time>2015-02-24T06:49:19Z</time>
      </trkpt>
      <trkpt lat="45.8975" lon="4.6725">
        <ele>427.95666503906</ele>
        <time>2015-02-24T06:49:21Z</time>
      </trkpt>
      <trkpt lat="45.89735" lon="4.67255">
        <ele>428.80688476562</ele>
        <time>2015-02-24T06:49:25Z</time>
      </trkpt>
      <trkpt lat="45.89731" lon="4.67256">
        <ele>428.88876342773</ele>
        <time>2015-02-24T06:49:26Z</time>
      </trkpt>
      <trkpt lat="45.89716" lon="4.67261">
        <ele>429.61581420898</ele>
        <time>2015-02-24T06:49:31Z</time>
      </trkpt>
      <trkpt lat="45.897" lon="4.67267">
        <ele>430.17575073242</ele>
        <time>2015-02-24T06:49:36Z</time>
      </trkpt>
      <trkpt lat="45.8969" lon="4.67268">
        <ele>430.83352661133</ele>
        <time>2015-02-24T06:49:39Z</time>
      </trkpt>
      <trkpt lat="45.89684" lon="4.67268">
        <ele>431.24432373047</ele>
        <time>2015-02-24T06:49:41Z</time>
      </trkpt>
      <trkpt lat="45.89669" lon="4.67269">
        <ele>432.36288452148</ele>
        <time>2015-02-24T06:49:46Z</time>
      </trkpt>
      <trkpt lat="45.89653" lon="4.6727">
        <ele>432.62582397461</ele>
        <time>2015-02-24T06:49:51Z</time>
      </trkpt>
      <trkpt lat="45.89647" lon="4.67269">
        <ele>432.91220092773</ele>
        <time>2015-02-24T06:49:53Z</time>
      </trkpt>
      <trkpt lat="45.8964" lon="4.6727">
        <ele>432.82629394531</ele>
        <time>2015-02-24T06:49:55Z</time>
      </trkpt>
      <trkpt lat="45.89625" lon="4.6727">
        <ele>433.06677246094</ele>
        <time>2015-02-24T06:50:00Z</time>
      </trkpt>
      <trkpt lat="45.89615" lon="4.67271">
        <ele>433.17202758789</ele>
        <time>2015-02-24T06:50:03Z</time>
      </trkpt>
      <trkpt lat="45.89612" lon="4.6727">
        <ele>433.34826660156</ele>
        <time>2015-02-24T06:50:04Z</time>
      </trkpt>
      <trkpt lat="45.896" lon="4.67269">
        <ele>433.90017700195</ele>
        <time>2015-02-24T06:50:08Z</time>
      </trkpt>
      <trkpt lat="45.89597" lon="4.67268">
        <ele>434.01672363281</ele>
        <time>2015-02-24T06:50:09Z</time>
      </trkpt>
      <trkpt lat="45.89581" lon="4.67264">
        <ele>434.87689208984</ele>
        <time>2015-02-24T06:50:14Z</time>
      </trkpt>
      <trkpt lat="45.89568" lon="4.67257">
        <ele>435.01055908203</ele>
        <time>2015-02-24T06:50:18Z</time>
      </trkpt>
      <trkpt lat="45.89566" lon="4.67255">
        <ele>435.1076965332</ele>
        <time>2015-02-24T06:50:19Z</time>
      </trkpt>
      <trkpt lat="45.89553" lon="4.67248">
        <ele>434.95880126953</ele>
        <time>2015-02-24T06:50:23Z</time>
      </trkpt>
      <trkpt lat="45.89543" lon="4.67239">
        <ele>434.75674438477</ele>
        <time>2015-02-24T06:50:27Z</time>
      </trkpt>
      <trkpt lat="45.8954" lon="4.67236">
        <ele>434.70330810547</ele>
        <time>2015-02-24T06:50:28Z</time>
      </trkpt>
      <trkpt lat="45.89537" lon="4.67233">
        <ele>434.78921508789</ele>
        <time>2015-02-24T06:50:29Z</time>
      </trkpt>
      <trkpt lat="45.89533" lon="4.67227">
        <ele>435.05743408203</ele>
        <time>2015-02-24T06:50:31Z</time>
      </trkpt>
      <trkpt lat="45.89522" lon="4.67205">
        <ele>436.64379882812</ele>
        <time>2015-02-24T06:50:37Z</time>
      </trkpt>
      <trkpt lat="45.8952" lon="4.67191">
        <ele>438.02294921875</ele>
        <time>2015-02-24T06:50:40Z</time>
      </trkpt>
      <trkpt lat="45.89518" lon="4.67183">
        <ele>438.87619018555</ele>
        <time>2015-02-24T06:50:42Z</time>
      </trkpt>
      <trkpt lat="45.89511" lon="4.67161">
        <ele>440.85800170898</ele>
        <time>2015-02-24T06:50:48Z</time>
      </trkpt>
      <trkpt lat="45.89508" lon="4.6715">
        <ele>441.36114501953</ele>
        <time>2015-02-24T06:50:51Z</time>
      </trkpt>
      <trkpt lat="45.89505" lon="4.67135">
        <ele>442.07537841797</ele>
        <time>2015-02-24T06:50:54Z</time>
      </trkpt>
      <trkpt lat="45.89495" lon="4.67111">
        <ele>442.69119262695</ele>
        <time>2015-02-24T06:51:00Z</time>
      </trkpt>
      <trkpt lat="45.89485" lon="4.67092">
        <ele>442.48068237305</ele>
        <time>2015-02-24T06:51:05Z</time>
      </trkpt>
      <trkpt lat="45.89477" lon="4.6708">
        <ele>442.0817565918</ele>
        <time>2015-02-24T06:51:09Z</time>
      </trkpt>
      <trkpt lat="45.8947" lon="4.67071">
        <ele>441.49951171875</ele>
        <time>2015-02-24T06:51:12Z</time>
      </trkpt>
      <trkpt lat="45.89463" lon="4.67062">
        <ele>440.8991394043</ele>
        <time>2015-02-24T06:51:15Z</time>
      </trkpt>
      <trkpt lat="45.89453" lon="4.67052">
        <ele>440.21160888672</ele>
        <time>2015-02-24T06:51:19Z</time>
      </trkpt>
      <trkpt lat="45.89447" lon="4.67048">
        <ele>439.841796875</ele>
        <time>2015-02-24T06:51:21Z</time>
      </trkpt>
      <trkpt lat="45.89439" lon="4.6704">
        <ele>439.34481811523</ele>
        <time>2015-02-24T06:51:24Z</time>
      </trkpt>
      <trkpt lat="45.89425" lon="4.67027">
        <ele>438.82479858398</ele>
        <time>2015-02-24T06:51:29Z</time>
      </trkpt>
      <trkpt lat="45.89412" lon="4.67012">
        <ele>438.50134277344</ele>
        <time>2015-02-24T06:51:34Z</time>
      </trkpt>
      <trkpt lat="45.89398" lon="4.66998">
        <ele>437.83377075195</ele>
        <time>2015-02-24T06:51:39Z</time>
      </trkpt>
      <trkpt lat="45.89383" lon="4.66984">
        <ele>436.33651733398</ele>
        <time>2015-02-24T06:51:44Z</time>
      </trkpt>
      <trkpt lat="45.8937" lon="4.66969">
        <ele>434.82775878906</ele>
        <time>2015-02-24T06:51:49Z</time>
      </trkpt>
      <trkpt lat="45.89355" lon="4.66956">
        <ele>433.07748413086</ele>
        <time>2015-02-24T06:51:54Z</time>
      </trkpt>
      <trkpt lat="45.89349" lon="4.66951">
        <ele>432.20974731445</ele>
        <time>2015-02-24T06:51:56Z</time>
      </trkpt>
      <trkpt lat="45.8934" lon="4.66945">
        <ele>430.93447875977</ele>
        <time>2015-02-24T06:51:59Z</time>
      </trkpt>
      <trkpt lat="45.89333" lon="4.6694">
        <ele>430.00149536133</ele>
        <time>2015-02-24T06:52:01Z</time>
      </trkpt>
      <trkpt lat="45.89321" lon="4.66934">
        <ele>428.37072753906</ele>
        <time>2015-02-24T06:52:05Z</time>
      </trkpt>
      <trkpt lat="45.89317" lon="4.66932">
        <ele>427.92272949219</ele>
        <time>2015-02-24T06:52:06Z</time>
      </trkpt>
      <trkpt lat="45.89305" lon="4.66927">
        <ele>426.2685546875</ele>
        <time>2015-02-24T06:52:10Z</time>
      </trkpt>
      <trkpt lat="45.89304" lon="4.66922">
        <ele>426.09451293945</ele>
        <time>2015-02-24T06:52:59Z</time>
      </trkpt>
      <trkpt lat="45.89303" lon="4.66922">
        <ele>425.9953918457</ele>
        <time>2015-02-24T06:53:00Z</time>
      </trkpt>
      <trkpt lat="45.89297" lon="4.66921">
        <ele>425.19067382812</ele>
        <time>2015-02-24T06:53:02Z</time>
      </trkpt>
      <trkpt lat="45.89277" lon="4.66912">
        <ele>422.35656738281</ele>
        <time>2015-02-24T06:53:07Z</time>
      </trkpt>
      <trkpt lat="45.89273" lon="4.6691">
        <ele>421.77484130859</ele>
        <time>2015-02-24T06:53:08Z</time>
      </trkpt>
      <trkpt lat="45.89266" lon="4.66907">
        <ele>420.72534179688</ele>
        <time>2015-02-24T06:53:10Z</time>
      </trkpt>
      <trkpt lat="45.89258" lon="4.66903">
        <ele>419.47830200195</ele>
        <time>2015-02-24T06:53:12Z</time>
      </trkpt>
      <trkpt lat="45.89254" lon="4.66901">
        <ele>418.8688659668</ele>
        <time>2015-02-24T06:53:13Z</time>
      </trkpt>
      <trkpt lat="45.89251" lon="4.66899">
        <ele>418.30508422852</ele>
        <time>2015-02-24T06:53:14Z</time>
      </trkpt>
      <trkpt lat="45.89242" lon="4.66895">
        <ele>417.66003417969</ele>
        <time>2015-02-24T06:53:17Z</time>
      </trkpt>
      <trkpt lat="45.89236" lon="4.66891">
        <ele>417.26989746094</ele>
        <time>2015-02-24T06:53:19Z</time>
      </trkpt>
      <trkpt lat="45.89233" lon="4.6689">
        <ele>417.11636352539</ele>
        <time>2015-02-24T06:53:20Z</time>
      </trkpt>
      <trkpt lat="45.89223" lon="4.66885">
        <ele>416.54614257812</ele>
        <time>2015-02-24T06:53:23Z</time>
      </trkpt>
      <trkpt lat="45.89217" lon="4.66881">
        <ele>416.2292175293</ele>
        <time>2015-02-24T06:53:25Z</time>
      </trkpt>
      <trkpt lat="45.8921" lon="4.66878">
        <ele>415.8883972168</ele>
        <time>2015-02-24T06:53:27Z</time>
      </trkpt>
      <trkpt lat="45.892" lon="4.66871">
        <ele>415.40148925781</ele>
        <time>2015-02-24T06:53:30Z</time>
      </trkpt>
      <trkpt lat="45.89193" lon="4.66868">
        <ele>415.12692260742</ele>
        <time>2015-02-24T06:53:32Z</time>
      </trkpt>
      <trkpt lat="45.89183" lon="4.66865">
        <ele>414.78747558594</ele>
        <time>2015-02-24T06:53:35Z</time>
      </trkpt>
      <trkpt lat="45.89169" lon="4.66858">
        <ele>414.35598754883</ele>
        <time>2015-02-24T06:53:39Z</time>
      </trkpt>
      <trkpt lat="45.89167" lon="4.66856">
        <ele>414.29162597656</ele>
        <time>2015-02-24T06:53:40Z</time>
      </trkpt>
      <trkpt lat="45.89155" lon="4.6685">
        <ele>414.25915527344</ele>
        <time>2015-02-24T06:53:44Z</time>
      </trkpt>
      <trkpt lat="45.89152" lon="4.66848">
        <ele>414.25573730469</ele>
        <time>2015-02-24T06:53:45Z</time>
      </trkpt>
      <trkpt lat="45.89151" lon="4.66843">
        <ele>414.2405090332</ele>
        <time>2015-02-24T06:53:46Z</time>
      </trkpt>
      <trkpt lat="45.8915" lon="4.66837">
        <ele>414.21688842773</ele>
        <time>2015-02-24T06:53:47Z</time>
      </trkpt>
      <trkpt lat="45.89148" lon="4.66821">
        <ele>412.51693725586</ele>
        <time>2015-02-24T06:53:51Z</time>
      </trkpt>
      <trkpt lat="45.89146" lon="4.66818">
        <ele>412.12899780273</ele>
        <time>2015-02-24T06:53:52Z</time>
      </trkpt>
      <trkpt lat="45.89138" lon="4.66812">
        <ele>411.65509033203</ele>
        <time>2015-02-24T06:53:55Z</time>
      </trkpt>
      <trkpt lat="45.89126" lon="4.66809">
        <ele>411.69985961914</ele>
        <time>2015-02-24T06:53:59Z</time>
      </trkpt>
      <trkpt lat="45.89116" lon="4.66806">
        <ele>411.77688598633</ele>
        <time>2015-02-24T06:54:02Z</time>
      </trkpt>
      <trkpt lat="45.89112" lon="4.66805">
        <ele>411.77838134766</ele>
        <time>2015-02-24T06:54:03Z</time>
      </trkpt>
      <trkpt lat="45.89109" lon="4.66803">
        <ele>411.71255493164</ele>
        <time>2015-02-24T06:54:04Z</time>
      </trkpt>
      <trkpt lat="45.89096" lon="4.66791">
        <ele>411.23568725586</ele>
        <time>2015-02-24T06:54:09Z</time>
      </trkpt>
      <trkpt lat="45.89083" lon="4.66775">
        <ele>410.81967163086</ele>
        <time>2015-02-24T06:54:14Z</time>
      </trkpt>
      <trkpt lat="45.89077" lon="4.66775">
        <ele>411.16055297852</ele>
        <time>2015-02-24T06:54:16Z</time>
      </trkpt>
      <trkpt lat="45.89072" lon="4.66779">
        <ele>411.69396972656</ele>
        <time>2015-02-24T06:54:18Z</time>
      </trkpt>
      <trkpt lat="45.89059" lon="4.66787">
        <ele>412.81494140625</ele>
        <time>2015-02-24T06:54:23Z</time>
      </trkpt>
      <trkpt lat="45.89058" lon="4.66788">
        <ele>413.01705932617</ele>
        <time>2015-02-24T06:54:24Z</time>
      </trkpt>
      <trkpt lat="45.89056" lon="4.66791">
        <ele>413.25082397461</ele>
        <time>2015-02-24T06:54:25Z</time>
      </trkpt>
      <trkpt lat="45.89049" lon="4.66795">
        <ele>413.88766479492</ele>
        <time>2015-02-24T06:54:27Z</time>
      </trkpt>
      <trkpt lat="45.89046" lon="4.66798">
        <ele>414.16784667969</ele>
        <time>2015-02-24T06:54:28Z</time>
      </trkpt>
      <trkpt lat="45.89043" lon="4.66799">
        <ele>414.40103149414</ele>
        <time>2015-02-24T06:54:29Z</time>
      </trkpt>
      <trkpt lat="45.89033" lon="4.66804">
        <ele>415.09371948242</ele>
        <time>2015-02-24T06:54:32Z</time>
      </trkpt>
      <trkpt lat="45.8903" lon="4.66804">
        <ele>415.27301025391</ele>
        <time>2015-02-24T06:54:33Z</time>
      </trkpt>
      <trkpt lat="45.89023" lon="4.66804">
        <ele>415.53845214844</ele>
        <time>2015-02-24T06:54:35Z</time>
      </trkpt>
      <trkpt lat="45.89014" lon="4.66804">
        <ele>415.96594238281</ele>
        <time>2015-02-24T06:54:38Z</time>
      </trkpt>
      <trkpt lat="45.89002" lon="4.66812">
        <ele>416.90698242188</ele>
        <time>2015-02-24T06:54:42Z</time>
      </trkpt>
      <trkpt lat="45.88998" lon="4.66815">
        <ele>417.13494873047</ele>
        <time>2015-02-24T06:54:43Z</time>
      </trkpt>
      <trkpt lat="45.88991" lon="4.66825">
        <ele>417.79183959961</ele>
        <time>2015-02-24T06:54:46Z</time>
      </trkpt>
      <trkpt lat="45.88987" lon="4.66833">
        <ele>418.27020263672</ele>
        <time>2015-02-24T06:54:48Z</time>
      </trkpt>
      <trkpt lat="45.88981" lon="4.66844">
        <ele>417.81146240234</ele>
        <time>2015-02-24T06:54:51Z</time>
      </trkpt>
      <trkpt lat="45.8897" lon="4.66858">
        <ele>417.23239135742</ele>
        <time>2015-02-24T06:54:55Z</time>
      </trkpt>
      <trkpt lat="45.88961" lon="4.66865">
        <ele>417.02581787109</ele>
        <time>2015-02-24T06:54:58Z</time>
      </trkpt>
      <trkpt lat="45.88955" lon="4.6687">
        <ele>416.87188720703</ele>
        <time>2015-02-24T06:55:00Z</time>
      </trkpt>
      <trkpt lat="45.88938" lon="4.66883">
        <ele>416.52801513672</ele>
        <time>2015-02-24T06:55:06Z</time>
      </trkpt>
      <trkpt lat="45.88926" lon="4.66885">
        <ele>416.64587402344</ele>
        <time>2015-02-24T06:55:10Z</time>
      </trkpt>
      <trkpt lat="45.88923" lon="4.66887">
        <ele>416.66589355469</ele>
        <time>2015-02-24T06:55:11Z</time>
      </trkpt>
      <trkpt lat="45.88906" lon="4.66893">
        <ele>416.24038696289</ele>
        <time>2015-02-24T06:55:16Z</time>
      </trkpt>
      <trkpt lat="45.88891" lon="4.669">
        <ele>415.60577392578</ele>
        <time>2015-02-24T06:55:21Z</time>
      </trkpt>
      <trkpt lat="45.88887" lon="4.66902">
        <ele>415.4714050293</ele>
        <time>2015-02-24T06:55:22Z</time>
      </trkpt>
      <trkpt lat="45.88869" lon="4.66915">
        <ele>414.54373168945</ele>
        <time>2015-02-24T06:55:28Z</time>
      </trkpt>
      <trkpt lat="45.88865" lon="4.66917">
        <ele>414.31332397461</ele>
        <time>2015-02-24T06:55:29Z</time>
      </trkpt>
      <trkpt lat="45.88851" lon="4.66927">
        <ele>412.9469909668</ele>
        <time>2015-02-24T06:55:34Z</time>
      </trkpt>
      <trkpt lat="45.88842" lon="4.66933">
        <ele>412.13961791992</ele>
        <time>2015-02-24T06:55:37Z</time>
      </trkpt>
      <trkpt lat="45.88829" lon="4.6694">
        <ele>411.06164550781</ele>
        <time>2015-02-24T06:55:41Z</time>
      </trkpt>
      <trkpt lat="45.88813" lon="4.66947">
        <ele>409.84439086914</ele>
        <time>2015-02-24T06:55:46Z</time>
      </trkpt>
      <trkpt lat="45.8881" lon="4.66947">
        <ele>409.6471862793</ele>
        <time>2015-02-24T06:55:47Z</time>
      </trkpt>
      <trkpt lat="45.88796" lon="4.66949">
        <ele>409.11840820312</ele>
        <time>2015-02-24T06:55:51Z</time>
      </trkpt>
      <trkpt lat="45.88789" lon="4.66949">
        <ele>408.91610717773</ele>
        <time>2015-02-24T06:55:53Z</time>
      </trkpt>
      <trkpt lat="45.88776" lon="4.66949">
        <ele>408.42425537109</ele>
        <time>2015-02-24T06:55:57Z</time>
      </trkpt>
      <trkpt lat="45.88769" lon="4.6695">
        <ele>408.10385131836</ele>
        <time>2015-02-24T06:55:59Z</time>
      </trkpt>
      <trkpt lat="45.88766" lon="4.66951">
        <ele>407.89343261719</ele>
        <time>2015-02-24T06:56:00Z</time>
      </trkpt>
      <trkpt lat="45.88762" lon="4.66952">
        <ele>407.67596435547</ele>
        <time>2015-02-24T06:56:01Z</time>
      </trkpt>
      <trkpt lat="45.88755" lon="4.66954">
        <ele>407.25216674805</ele>
        <time>2015-02-24T06:56:03Z</time>
      </trkpt>
      <trkpt lat="45.88749" lon="4.66956">
        <ele>406.72650146484</ele>
        <time>2015-02-24T06:56:05Z</time>
      </trkpt>
      <trkpt lat="45.88749" lon="4.66956">
        <ele>406.72650146484</ele>
        <time>2015-02-24T06:56:05Z</time>
      </trkpt>
      <trkpt lat="45.88746" lon="4.66957">
        <ele>406.44708251953</ele>
        <time>2015-02-24T06:56:06Z</time>
      </trkpt>
      <trkpt lat="45.88736" lon="4.66959">
        <ele>405.40591430664</ele>
        <time>2015-02-24T06:56:09Z</time>
      </trkpt>
      <trkpt lat="45.88729" lon="4.66961">
        <ele>404.68084716797</ele>
        <time>2015-02-24T06:56:11Z</time>
      </trkpt>
      <trkpt lat="45.88725" lon="4.66962">
        <ele>404.24960327148</ele>
        <time>2015-02-24T06:56:12Z</time>
      </trkpt>
      <trkpt lat="45.88712" lon="4.66966">
        <ele>402.79736328125</ele>
        <time>2015-02-24T06:56:16Z</time>
      </trkpt>
      <trkpt lat="45.88694" lon="4.66966">
        <ele>401.44845581055</ele>
        <time>2015-02-24T06:56:21Z</time>
      </trkpt>
      <trkpt lat="45.8868" lon="4.66965">
        <ele>400.69888305664</ele>
        <time>2015-02-24T06:56:25Z</time>
      </trkpt>
      <trkpt lat="45.8867" lon="4.66965">
        <ele>399.94311523438</ele>
        <time>2015-02-24T06:56:28Z</time>
      </trkpt>
      <trkpt lat="45.88663" lon="4.66966">
        <ele>399.67828369141</ele>
        <time>2015-02-24T06:56:30Z</time>
      </trkpt>
      <trkpt lat="45.88653" lon="4.66967">
        <ele>399.63098144531</ele>
        <time>2015-02-24T06:56:33Z</time>
      </trkpt>
      <trkpt lat="45.88636" lon="4.66967">
        <ele>399.84100341797</ele>
        <time>2015-02-24T06:56:38Z</time>
      </trkpt>
      <trkpt lat="45.88616" lon="4.66968">
        <ele>399.92309570312</ele>
        <time>2015-02-24T06:56:44Z</time>
      </trkpt>
      <trkpt lat="45.8861" lon="4.66968">
        <ele>400.10690307617</ele>
        <time>2015-02-24T06:56:46Z</time>
      </trkpt>
      <trkpt lat="45.88596" lon="4.66969">
        <ele>400.12640380859</ele>
        <time>2015-02-24T06:56:50Z</time>
      </trkpt>
      <trkpt lat="45.88579" lon="4.66971">
        <ele>399.89312744141</ele>
        <time>2015-02-24T06:56:55Z</time>
      </trkpt>
      <trkpt lat="45.88575" lon="4.66972">
        <ele>399.5573425293</ele>
        <time>2015-02-24T06:56:56Z</time>
      </trkpt>
      <trkpt lat="45.88558" lon="4.66985">
        <ele>396.84872436523</ele>
        <time>2015-02-24T06:57:02Z</time>
      </trkpt>
      <trkpt lat="45.88555" lon="4.66987">
        <ele>396.38641357422</ele>
        <time>2015-02-24T06:57:03Z</time>
      </trkpt>
      <trkpt lat="45.88544" lon="4.66998">
        <ele>394.38354492188</ele>
        <time>2015-02-24T06:57:07Z</time>
      </trkpt>
      <trkpt lat="45.88539" lon="4.67004">
        <ele>393.42333984375</ele>
        <time>2015-02-24T06:57:09Z</time>
      </trkpt>
      <trkpt lat="45.88534" lon="4.67009">
        <ele>392.62524414062</ele>
        <time>2015-02-24T06:57:11Z</time>
      </trkpt>
      <trkpt lat="45.88527" lon="4.67015">
        <ele>391.67742919922</ele>
        <time>2015-02-24T06:57:13Z</time>
      </trkpt>
      <trkpt lat="45.88525" lon="4.67018">
        <ele>391.1598815918</ele>
        <time>2015-02-24T06:57:14Z</time>
      </trkpt>
      <trkpt lat="45.88516" lon="4.67028">
        <ele>389.43502807617</ele>
        <time>2015-02-24T06:57:17Z</time>
      </trkpt>
      <trkpt lat="45.88511" lon="4.67034">
        <ele>388.43298339844</ele>
        <time>2015-02-24T06:57:19Z</time>
      </trkpt>
      <trkpt lat="45.88508" lon="4.67036">
        <ele>387.99630737305</ele>
        <time>2015-02-24T06:57:20Z</time>
      </trkpt>
      <trkpt lat="45.88497" lon="4.67048">
        <ele>385.88842773438</ele>
        <time>2015-02-24T06:57:24Z</time>
      </trkpt>
      <trkpt lat="45.88488" lon="4.67057">
        <ele>384.59558105469</ele>
        <time>2015-02-24T06:57:27Z</time>
      </trkpt>
      <trkpt lat="45.88481" lon="4.67066">
        <ele>383.2370300293</ele>
        <time>2015-02-24T06:57:30Z</time>
      </trkpt>
      <trkpt lat="45.88473" lon="4.67075">
        <ele>381.89376831055</ele>
        <time>2015-02-24T06:57:33Z</time>
      </trkpt>
      <trkpt lat="45.88468" lon="4.67081">
        <ele>381.17922973633</ele>
        <time>2015-02-24T06:57:35Z</time>
      </trkpt>
      <trkpt lat="45.88463" lon="4.67087">
        <ele>380.32244873047</ele>
        <time>2015-02-24T06:57:37Z</time>
      </trkpt>
      <trkpt lat="45.88461" lon="4.67089">
        <ele>380.00259399414</ele>
        <time>2015-02-24T06:57:38Z</time>
      </trkpt>
      <trkpt lat="45.88457" lon="4.67092">
        <ele>379.58883666992</ele>
        <time>2015-02-24T06:57:39Z</time>
      </trkpt>
      <trkpt lat="45.88453" lon="4.67099">
        <ele>378.67831420898</ele>
        <time>2015-02-24T06:57:41Z</time>
      </trkpt>
      <trkpt lat="45.88444" lon="4.67108">
        <ele>377.14105224609</ele>
        <time>2015-02-24T06:57:44Z</time>
      </trkpt>
      <trkpt lat="45.88438" lon="4.67114">
        <ele>376.1867980957</ele>
        <time>2015-02-24T06:57:46Z</time>
      </trkpt>
      <trkpt lat="45.88435" lon="4.67116">
        <ele>375.75106811523</ele>
        <time>2015-02-24T06:57:47Z</time>
      </trkpt>
      <trkpt lat="45.88424" lon="4.67128">
        <ele>373.44299316406</ele>
        <time>2015-02-24T06:57:51Z</time>
      </trkpt>
      <trkpt lat="45.88418" lon="4.67134">
        <ele>372.27520751953</ele>
        <time>2015-02-24T06:57:53Z</time>
      </trkpt>
      <trkpt lat="45.88412" lon="4.67139">
        <ele>371.5305480957</ele>
        <time>2015-02-24T06:57:55Z</time>
      </trkpt>
      <trkpt lat="45.88406" lon="4.67145">
        <ele>370.73736572266</ele>
        <time>2015-02-24T06:57:57Z</time>
      </trkpt>
      <trkpt lat="45.88404" lon="4.67147">
        <ele>370.42337036133</ele>
        <time>2015-02-24T06:57:58Z</time>
      </trkpt>
      <trkpt lat="45.88394" lon="4.67155">
        <ele>369.53338623047</ele>
        <time>2015-02-24T06:58:01Z</time>
      </trkpt>
      <trkpt lat="45.88384" lon="4.67161">
        <ele>368.98220825195</ele>
        <time>2015-02-24T06:58:04Z</time>
      </trkpt>
      <trkpt lat="45.88374" lon="4.67167">
        <ele>368.56399536133</ele>
        <time>2015-02-24T06:58:07Z</time>
      </trkpt>
      <trkpt lat="45.88371" lon="4.67168">
        <ele>368.43200683594</ele>
        <time>2015-02-24T06:58:08Z</time>
      </trkpt>
      <trkpt lat="45.88358" lon="4.67172">
        <ele>368.48776245117</ele>
        <time>2015-02-24T06:58:12Z</time>
      </trkpt>
      <trkpt lat="45.88354" lon="4.67173">
        <ele>368.45101928711</ele>
        <time>2015-02-24T06:58:13Z</time>
      </trkpt>
      <trkpt lat="45.88345" lon="4.67174">
        <ele>368.75262451172</ele>
        <time>2015-02-24T06:58:16Z</time>
      </trkpt>
      <trkpt lat="45.88335" lon="4.67174">
        <ele>369.23132324219</ele>
        <time>2015-02-24T06:58:19Z</time>
      </trkpt>
      <trkpt lat="45.88326" lon="4.67173">
        <ele>369.49893188477</ele>
        <time>2015-02-24T06:58:22Z</time>
      </trkpt>
      <trkpt lat="45.88316" lon="4.67172">
        <ele>369.56518554688</ele>
        <time>2015-02-24T06:58:25Z</time>
      </trkpt>
      <trkpt lat="45.88301" lon="4.67169">
        <ele>369.85003662109</ele>
        <time>2015-02-24T06:58:30Z</time>
      </trkpt>
      <trkpt lat="45.88295" lon="4.67168">
        <ele>369.90975952148</ele>
        <time>2015-02-24T06:58:32Z</time>
      </trkpt>
      <trkpt lat="45.88282" lon="4.67166">
        <ele>369.96398925781</ele>
        <time>2015-02-24T06:58:36Z</time>
      </trkpt>
      <trkpt lat="45.88271" lon="4.67164">
        <ele>369.966796875</ele>
        <time>2015-02-24T06:58:40Z</time>
      </trkpt>
      <trkpt lat="45.8826" lon="4.67164">
        <ele>369.85208129883</ele>
        <time>2015-02-24T06:58:43Z</time>
      </trkpt>
      <trkpt lat="45.88241" lon="4.67161">
        <ele>370.47714233398</ele>
        <time>2015-02-24T06:58:49Z</time>
      </trkpt>
      <trkpt lat="45.88232" lon="4.67159">
        <ele>371.0595703125</ele>
        <time>2015-02-24T06:58:52Z</time>
      </trkpt>
      <trkpt lat="45.88219" lon="4.67158">
        <ele>371.68273925781</ele>
        <time>2015-02-24T06:58:56Z</time>
      </trkpt>
      <trkpt lat="45.88202" lon="4.67156">
        <ele>372.46859741211</ele>
        <time>2015-02-24T06:59:01Z</time>
      </trkpt>
      <trkpt lat="45.88198" lon="4.67157">
        <ele>372.53500366211</ele>
        <time>2015-02-24T06:59:02Z</time>
      </trkpt>
      <trkpt lat="45.88192" lon="4.67156">
        <ele>372.798828125</ele>
        <time>2015-02-24T06:59:04Z</time>
      </trkpt>
      <trkpt lat="45.88188" lon="4.67156">
        <ele>373.00604248047</ele>
        <time>2015-02-24T06:59:05Z</time>
      </trkpt>
      <trkpt lat="45.88182" lon="4.67155">
        <ele>373.27597045898</ele>
        <time>2015-02-24T06:59:07Z</time>
      </trkpt>
      <trkpt lat="45.88166" lon="4.67154">
        <ele>373.8342590332</ele>
        <time>2015-02-24T06:59:12Z</time>
      </trkpt>
      <trkpt lat="45.88162" lon="4.67153">
        <ele>373.82693481445</ele>
        <time>2015-02-24T06:59:13Z</time>
      </trkpt>
      <trkpt lat="45.88159" lon="4.67153">
        <ele>373.82113647461</ele>
        <time>2015-02-24T06:59:14Z</time>
      </trkpt>
      <trkpt lat="45.88147" lon="4.6715">
        <ele>374.01147460938</ele>
        <time>2015-02-24T06:59:18Z</time>
      </trkpt>
      <trkpt lat="45.88141" lon="4.6715">
        <ele>373.95941162109</ele>
        <time>2015-02-24T06:59:20Z</time>
      </trkpt>
      <trkpt lat="45.88137" lon="4.6715">
        <ele>373.83563232422</ele>
        <time>2015-02-24T06:59:21Z</time>
      </trkpt>
      <trkpt lat="45.88127" lon="4.67146">
        <ele>374.18609619141</ele>
        <time>2015-02-24T06:59:24Z</time>
      </trkpt>
      <trkpt lat="45.88111" lon="4.67143">
        <ele>374.42004394531</ele>
        <time>2015-02-24T06:59:29Z</time>
      </trkpt>
      <trkpt lat="45.88098" lon="4.67142">
        <ele>374.39266967773</ele>
        <time>2015-02-24T06:59:33Z</time>
      </trkpt>
      <trkpt lat="45.88085" lon="4.6714">
        <ele>374.42272949219</ele>
        <time>2015-02-24T06:59:37Z</time>
      </trkpt>
      <trkpt lat="45.88071" lon="4.67139">
        <ele>374.46786499023</ele>
        <time>2015-02-24T06:59:41Z</time>
      </trkpt>
      <trkpt lat="45.88068" lon="4.67138">
        <ele>374.62326049805</ele>
        <time>2015-02-24T06:59:42Z</time>
      </trkpt>
      <trkpt lat="45.88058" lon="4.67137">
        <ele>374.72952270508</ele>
        <time>2015-02-24T06:59:45Z</time>
      </trkpt>
      <trkpt lat="45.88052" lon="4.67136">
        <ele>374.93212890625</ele>
        <time>2015-02-24T06:59:47Z</time>
      </trkpt>
      <trkpt lat="45.88038" lon="4.67133">
        <ele>375.22668457031</ele>
        <time>2015-02-24T06:59:51Z</time>
      </trkpt>
      <trkpt lat="45.88035" lon="4.67134">
        <ele>375.07946777344</ele>
        <time>2015-02-24T06:59:52Z</time>
      </trkpt>
      <trkpt lat="45.88021" lon="4.67131">
        <ele>375.29284667969</ele>
        <time>2015-02-24T06:59:56Z</time>
      </trkpt>
      <trkpt lat="45.88008" lon="4.67131">
        <ele>375.26596069336</ele>
        <time>2015-02-24T07:00:00Z</time>
      </trkpt>
      <trkpt lat="45.87995" lon="4.6713">
        <ele>375.22958374023</ele>
        <time>2015-02-24T07:00:04Z</time>
      </trkpt>
      <trkpt lat="45.87981" lon="4.6713">
        <ele>375.0625</ele>
        <time>2015-02-24T07:00:08Z</time>
      </trkpt>
      <trkpt lat="45.87961" lon="4.6713">
        <ele>374.79013061523</ele>
        <time>2015-02-24T07:00:14Z</time>
      </trkpt>
      <trkpt lat="45.87957" lon="4.67131">
        <ele>374.6344909668</ele>
        <time>2015-02-24T07:00:15Z</time>
      </trkpt>
      <trkpt lat="45.87944" lon="4.67132">
        <ele>374.35754394531</ele>
        <time>2015-02-24T07:00:19Z</time>
      </trkpt>
      <trkpt lat="45.87927" lon="4.67132">
        <ele>374.07373046875</ele>
        <time>2015-02-24T07:00:24Z</time>
      </trkpt>
      <trkpt lat="45.87917" lon="4.67132">
        <ele>374.01651000977</ele>
        <time>2015-02-24T07:00:27Z</time>
      </trkpt>
      <trkpt lat="45.87915" lon="4.67133">
        <ele>373.9231262207</ele>
        <time>2015-02-24T07:00:28Z</time>
      </trkpt>
      <trkpt lat="45.8791" lon="4.67134">
        <ele>373.95971679688</ele>
        <time>2015-02-24T07:00:29Z</time>
      </trkpt>
      <trkpt lat="45.87894" lon="4.67136">
        <ele>374.36044311523</ele>
        <time>2015-02-24T07:00:34Z</time>
      </trkpt>
      <trkpt lat="45.87878" lon="4.6714">
        <ele>374.56323242188</ele>
        <time>2015-02-24T07:00:39Z</time>
      </trkpt>
      <trkpt lat="45.87864" lon="4.67141">
        <ele>375.01385498047</ele>
        <time>2015-02-24T07:00:43Z</time>
      </trkpt>
      <trkpt lat="45.87848" lon="4.67145">
        <ele>375.41439819336</ele>
        <time>2015-02-24T07:00:48Z</time>
      </trkpt>
      <trkpt lat="45.87828" lon="4.6715">
        <ele>375.91897583008</ele>
        <time>2015-02-24T07:00:54Z</time>
      </trkpt>
      <trkpt lat="45.87812" lon="4.67158">
        <ele>376.13781738281</ele>
        <time>2015-02-24T07:00:59Z</time>
      </trkpt>
      <trkpt lat="45.87798" lon="4.67165">
        <ele>376.30679321289</ele>
        <time>2015-02-24T07:01:03Z</time>
      </trkpt>
      <trkpt lat="45.87783" lon="4.67175">
        <ele>376.43865966797</ele>
        <time>2015-02-24T07:01:08Z</time>
      </trkpt>
      <trkpt lat="45.87769" lon="4.67187">
        <ele>376.72494506836</ele>
        <time>2015-02-24T07:01:12Z</time>
      </trkpt>
      <trkpt lat="45.87755" lon="4.67203">
        <ele>377.24569702148</ele>
        <time>2015-02-24T07:01:17Z</time>
      </trkpt>
      <trkpt lat="45.87749" lon="4.67209">
        <ele>377.54699707031</ele>
        <time>2015-02-24T07:01:19Z</time>
      </trkpt>
      <trkpt lat="45.87736" lon="4.67225">
        <ele>377.74725341797</ele>
        <time>2015-02-24T07:01:24Z</time>
      </trkpt>
      <trkpt lat="45.87728" lon="4.67239">
        <ele>377.73522949219</ele>
        <time>2015-02-24T07:01:28Z</time>
      </trkpt>
      <trkpt lat="45.8772" lon="4.67254">
        <ele>377.65942382812</ele>
        <time>2015-02-24T07:01:32Z</time>
      </trkpt>
      <trkpt lat="45.87716" lon="4.67263">
        <ele>377.58505249023</ele>
        <time>2015-02-24T07:01:34Z</time>
      </trkpt>
      <trkpt lat="45.87712" lon="4.67275">
        <ele>377.51803588867</ele>
        <time>2015-02-24T07:01:37Z</time>
      </trkpt>
      <trkpt lat="45.87706" lon="4.67291">
        <ele>377.42990112305</ele>
        <time>2015-02-24T07:01:41Z</time>
      </trkpt>
      <trkpt lat="45.87701" lon="4.67307">
        <ele>377.43368530273</ele>
        <time>2015-02-24T07:01:45Z</time>
      </trkpt>
      <trkpt lat="45.8769" lon="4.67331">
        <ele>377.86026000977</ele>
        <time>2015-02-24T07:01:51Z</time>
      </trkpt>
      <trkpt lat="45.87685" lon="4.67338">
        <ele>378.14691162109</ele>
        <time>2015-02-24T07:01:53Z</time>
      </trkpt>
      <trkpt lat="45.87671" lon="4.67353">
        <ele>379.19241333008</ele>
        <time>2015-02-24T07:01:59Z</time>
      </trkpt>
      <trkpt lat="45.87665" lon="4.67358">
        <ele>379.4284362793</ele>
        <time>2015-02-24T07:02:01Z</time>
      </trkpt>
      <trkpt lat="45.87656" lon="4.67362">
        <ele>379.35641479492</ele>
        <time>2015-02-24T07:02:04Z</time>
      </trkpt>
      <trkpt lat="45.8764" lon="4.67366">
        <ele>379.28573608398</ele>
        <time>2015-02-24T07:02:09Z</time>
      </trkpt>
      <trkpt lat="45.87621" lon="4.6737">
        <ele>379.19348144531</ele>
        <time>2015-02-24T07:02:15Z</time>
      </trkpt>
      <trkpt lat="45.87601" lon="4.67372">
        <ele>379.13323974609</ele>
        <time>2015-02-24T07:02:21Z</time>
      </trkpt>
      <trkpt lat="45.87581" lon="4.67374">
        <ele>379.00677490234</ele>
        <time>2015-02-24T07:02:27Z</time>
      </trkpt>
      <trkpt lat="45.87574" lon="4.67375">
        <ele>378.83227539062</ele>
        <time>2015-02-24T07:02:29Z</time>
      </trkpt>
      <trkpt lat="45.87565" lon="4.6738">
        <ele>378.43334960938</ele>
        <time>2015-02-24T07:02:32Z</time>
      </trkpt>
      <trkpt lat="45.87547" lon="4.67394">
        <ele>377.34948730469</ele>
        <time>2015-02-24T07:02:38Z</time>
      </trkpt>
      <trkpt lat="45.87544" lon="4.67396">
        <ele>377.15093994141</ele>
        <time>2015-02-24T07:02:39Z</time>
      </trkpt>
      <trkpt lat="45.87539" lon="4.67403">
        <ele>376.66262817383</ele>
        <time>2015-02-24T07:02:41Z</time>
      </trkpt>
      <trkpt lat="45.87536" lon="4.67418">
        <ele>375.79925537109</ele>
        <time>2015-02-24T07:02:44Z</time>
      </trkpt>
      <trkpt lat="45.87536" lon="4.67429">
        <ele>375.3454284668</ele>
        <time>2015-02-24T07:02:46Z</time>
      </trkpt>
      <trkpt lat="45.87538" lon="4.67445">
        <ele>374.72772216797</ele>
        <time>2015-02-24T07:02:49Z</time>
      </trkpt>
      <trkpt lat="45.87541" lon="4.67459">
        <ele>374.19943237305</ele>
        <time>2015-02-24T07:02:53Z</time>
      </trkpt>
      <trkpt lat="45.87542" lon="4.67459">
        <ele>374.21493530273</ele>
        <time>2015-02-24T07:02:54Z</time>
      </trkpt>
      <trkpt lat="45.87543" lon="4.6746">
        <ele>374.24249267578</ele>
        <time>2015-02-24T07:02:58Z</time>
      </trkpt>
      <trkpt lat="45.87545" lon="4.67461">
        <ele>374.24307250977</ele>
        <time>2015-02-24T07:02:59Z</time>
      </trkpt>
      <trkpt lat="45.87552" lon="4.6747">
        <ele>374.08685302734</ele>
        <time>2015-02-24T07:03:02Z</time>
      </trkpt>
      <trkpt lat="45.87555" lon="4.6749">
        <ele>373.35162353516</ele>
        <time>2015-02-24T07:03:06Z</time>
      </trkpt>
      <trkpt lat="45.87556" lon="4.67521">
        <ele>372.25930786133</ele>
        <time>2015-02-24T07:03:12Z</time>
      </trkpt>
      <trkpt lat="45.87559" lon="4.67524">
        <ele>372.255859375</ele>
        <time>2015-02-24T07:03:13Z</time>
      </trkpt>
      <trkpt lat="45.8757" lon="4.67526">
        <ele>372.56829833984</ele>
        <time>2015-02-24T07:03:16Z</time>
      </trkpt>
      <trkpt lat="45.87574" lon="4.67526">
        <ele>372.71078491211</ele>
        <time>2015-02-24T07:03:17Z</time>
      </trkpt>
      <trkpt lat="45.87583" lon="4.67529">
        <ele>372.94766235352</ele>
        <time>2015-02-24T07:03:19Z</time>
      </trkpt>
      <trkpt lat="45.87592" lon="4.67533">
        <ele>372.91027832031</ele>
        <time>2015-02-24T07:03:21Z</time>
      </trkpt>
      <trkpt lat="45.876" lon="4.67537">
        <ele>372.80023193359</ele>
        <time>2015-02-24T07:03:23Z</time>
      </trkpt>
      <trkpt lat="45.87607" lon="4.67539">
        <ele>372.75888061523</ele>
        <time>2015-02-24T07:03:25Z</time>
      </trkpt>
      <trkpt lat="45.87611" lon="4.6754">
        <ele>372.74960327148</ele>
        <time>2015-02-24T07:03:26Z</time>
      </trkpt>
      <trkpt lat="45.8763" lon="4.67545">
        <ele>372.60565185547</ele>
        <time>2015-02-24T07:03:31Z</time>
      </trkpt>
      <trkpt lat="45.87637" lon="4.67548">
        <ele>372.44482421875</ele>
        <time>2015-02-24T07:03:33Z</time>
      </trkpt>
      <trkpt lat="45.87644" lon="4.6755">
        <ele>372.33087158203</ele>
        <time>2015-02-24T07:03:35Z</time>
      </trkpt>
      <trkpt lat="45.87661" lon="4.67558">
        <ele>371.84936523438</ele>
        <time>2015-02-24T07:03:40Z</time>
      </trkpt>
      <trkpt lat="45.87679" lon="4.6757">
        <ele>371.05187988281</ele>
        <time>2015-02-24T07:03:45Z</time>
      </trkpt>
      <trkpt lat="45.87686" lon="4.67575">
        <ele>370.73760986328</ele>
        <time>2015-02-24T07:03:47Z</time>
      </trkpt>
      <trkpt lat="45.87702" lon="4.67588">
        <ele>370.25512695312</ele>
        <time>2015-02-24T07:03:52Z</time>
      </trkpt>
      <trkpt lat="45.87708" lon="4.67593">
        <ele>370.14950561523</ele>
        <time>2015-02-24T07:03:54Z</time>
      </trkpt>
      <trkpt lat="45.87724" lon="4.67605">
        <ele>370.0959777832</ele>
        <time>2015-02-24T07:03:59Z</time>
      </trkpt>
      <trkpt lat="45.87734" lon="4.67612">
        <ele>370.20483398438</ele>
        <time>2015-02-24T07:04:02Z</time>
      </trkpt>
      <trkpt lat="45.87754" lon="4.67622">
        <ele>370.75802612305</ele>
        <time>2015-02-24T07:04:08Z</time>
      </trkpt>
      <trkpt lat="45.87764" lon="4.67625">
        <ele>371.31198120117</ele>
        <time>2015-02-24T07:04:11Z</time>
      </trkpt>
      <trkpt lat="45.87767" lon="4.67626">
        <ele>371.5</ele>
        <time>2015-02-24T07:04:12Z</time>
      </trkpt>
      <trkpt lat="45.87788" lon="4.67632">
        <ele>372.59765625</ele>
        <time>2015-02-24T07:04:18Z</time>
      </trkpt>
      <trkpt lat="45.87791" lon="4.67633">
        <ele>372.75875854492</ele>
        <time>2015-02-24T07:04:19Z</time>
      </trkpt>
      <trkpt lat="45.87812" lon="4.67634">
        <ele>373.91873168945</ele>
        <time>2015-02-24T07:04:25Z</time>
      </trkpt>
      <trkpt lat="45.87819" lon="4.67635">
        <ele>374.30355834961</ele>
        <time>2015-02-24T07:04:27Z</time>
      </trkpt>
      <trkpt lat="45.87825" lon="4.67638">
        <ele>374.60089111328</ele>
        <time>2015-02-24T07:04:29Z</time>
      </trkpt>
      <trkpt lat="45.8784" lon="4.67641">
        <ele>374.66027832031</ele>
        <time>2015-02-24T07:04:33Z</time>
      </trkpt>
      <trkpt lat="45.8786" lon="4.67645">
        <ele>373.64025878906</ele>
        <time>2015-02-24T07:04:39Z</time>
      </trkpt>
      <trkpt lat="45.87873" lon="4.67649">
        <ele>373.02145385742</ele>
        <time>2015-02-24T07:04:43Z</time>
      </trkpt>
      <trkpt lat="45.87876" lon="4.6765">
        <ele>372.8576965332</ele>
        <time>2015-02-24T07:04:44Z</time>
      </trkpt>
      <trkpt lat="45.8789" lon="4.67658">
        <ele>372.12689208984</ele>
        <time>2015-02-24T07:04:49Z</time>
      </trkpt>
      <trkpt lat="45.87893" lon="4.67665">
        <ele>371.88729858398</ele>
        <time>2015-02-24T07:04:51Z</time>
      </trkpt>
      <trkpt lat="45.87893" lon="4.6767">
        <ele>371.74493408203</ele>
        <time>2015-02-24T07:04:52Z</time>
      </trkpt>
      <trkpt lat="45.87893" lon="4.67672">
        <ele>371.70095825195</ele>
        <time>2015-02-24T07:04:53Z</time>
      </trkpt>
      <trkpt lat="45.87892" lon="4.677">
        <ele>370.88415527344</ele>
        <time>2015-02-24T07:04:59Z</time>
      </trkpt>
      <trkpt lat="45.87886" lon="4.67727">
        <ele>370.04067993164</ele>
        <time>2015-02-24T07:05:06Z</time>
      </trkpt>
      <trkpt lat="45.87885" lon="4.67731">
        <ele>369.89358520508</ele>
        <time>2015-02-24T07:05:07Z</time>
      </trkpt>
      <trkpt lat="45.87886" lon="4.67748">
        <ele>369.33694458008</ele>
        <time>2015-02-24T07:05:11Z</time>
      </trkpt>
      <trkpt lat="45.87888" lon="4.6775">
        <ele>369.29278564453</ele>
        <time>2015-02-24T07:05:12Z</time>
      </trkpt>
      <trkpt lat="45.87894" lon="4.67753">
        <ele>369.23303222656</ele>
        <time>2015-02-24T07:05:14Z</time>
      </trkpt>
      <trkpt lat="45.87901" lon="4.67756">
        <ele>369.17059326172</ele>
        <time>2015-02-24T07:05:16Z</time>
      </trkpt>
      <trkpt lat="45.87913" lon="4.67765">
        <ele>368.84155273438</ele>
        <time>2015-02-24T07:05:20Z</time>
      </trkpt>
      <trkpt lat="45.87919" lon="4.67772">
        <ele>368.37329101562</ele>
        <time>2015-02-24T07:05:22Z</time>
      </trkpt>
      <trkpt lat="45.87925" lon="4.67783">
        <ele>367.40594482422</ele>
        <time>2015-02-24T07:05:25Z</time>
      </trkpt>
      <trkpt lat="45.87935" lon="4.67803">
        <ele>365.78405761719</ele>
        <time>2015-02-24T07:05:30Z</time>
      </trkpt>
      <trkpt lat="45.87938" lon="4.67808">
        <ele>365.38909912109</ele>
        <time>2015-02-24T07:05:31Z</time>
      </trkpt>
      <trkpt lat="45.87945" lon="4.67821">
        <ele>364.45513916016</ele>
        <time>2015-02-24T07:05:34Z</time>
      </trkpt>
      <trkpt lat="45.87948" lon="4.67823">
        <ele>364.30532836914</ele>
        <time>2015-02-24T07:05:35Z</time>
      </trkpt>
      <trkpt lat="45.87954" lon="4.67827">
        <ele>363.94201660156</ele>
        <time>2015-02-24T07:05:37Z</time>
      </trkpt>
      <trkpt lat="45.87963" lon="4.67832">
        <ele>363.5305480957</ele>
        <time>2015-02-24T07:05:40Z</time>
      </trkpt>
      <trkpt lat="45.87978" lon="4.67836">
        <ele>363.20086669922</ele>
        <time>2015-02-24T07:05:44Z</time>
      </trkpt>
      <trkpt lat="45.87981" lon="4.67837">
        <ele>363.12649536133</ele>
        <time>2015-02-24T07:05:45Z</time>
      </trkpt>
      <trkpt lat="45.87992" lon="4.67838">
        <ele>362.96362304688</ele>
        <time>2015-02-24T07:05:48Z</time>
      </trkpt>
      <trkpt lat="45.87996" lon="4.67839">
        <ele>362.90774536133</ele>
        <time>2015-02-24T07:05:49Z</time>
      </trkpt>
      <trkpt lat="45.87999" lon="4.67839">
        <ele>362.86898803711</ele>
        <time>2015-02-24T07:05:50Z</time>
      </trkpt>
      <trkpt lat="45.88007" lon="4.67841">
        <ele>362.87902832031</ele>
        <time>2015-02-24T07:05:52Z</time>
      </trkpt>
      <trkpt lat="45.8801" lon="4.67841">
        <ele>362.90158081055</ele>
        <time>2015-02-24T07:05:53Z</time>
      </trkpt>
      <trkpt lat="45.88017" lon="4.67842">
        <ele>362.92379760742</ele>
        <time>2015-02-24T07:05:55Z</time>
      </trkpt>
      <trkpt lat="45.88035" lon="4.67844">
        <ele>363.01779174805</ele>
        <time>2015-02-24T07:06:00Z</time>
      </trkpt>
      <trkpt lat="45.88038" lon="4.67844">
        <ele>363.03411865234</ele>
        <time>2015-02-24T07:06:01Z</time>
      </trkpt>
      <trkpt lat="45.88049" lon="4.67846">
        <ele>363.00384521484</ele>
        <time>2015-02-24T07:06:04Z</time>
      </trkpt>
      <trkpt lat="45.88058" lon="4.67848">
        <ele>362.95495605469</ele>
        <time>2015-02-24T07:06:07Z</time>
      </trkpt>
      <trkpt lat="45.88062" lon="4.6785">
        <ele>362.91131591797</ele>
        <time>2015-02-24T07:06:08Z</time>
      </trkpt>
      <trkpt lat="45.88068" lon="4.67852">
        <ele>362.80841064453</ele>
        <time>2015-02-24T07:06:10Z</time>
      </trkpt>
      <trkpt lat="45.88071" lon="4.67852">
        <ele>362.80307006836</ele>
        <time>2015-02-24T07:06:11Z</time>
      </trkpt>
      <trkpt lat="45.88074" lon="4.67855">
        <ele>362.67697143555</ele>
        <time>2015-02-24T07:06:12Z</time>
      </trkpt>
      <trkpt lat="45.8809" lon="4.67862">
        <ele>362.0612487793</ele>
        <time>2015-02-24T07:06:17Z</time>
      </trkpt>
      <trkpt lat="45.88097" lon="4.67866">
        <ele>361.63024902344</ele>
        <time>2015-02-24T07:06:19Z</time>
      </trkpt>
      <trkpt lat="45.88115" lon="4.67875">
        <ele>360.52548217773</ele>
        <time>2015-02-24T07:06:25Z</time>
      </trkpt>
      <trkpt lat="45.88118" lon="4.67878">
        <ele>360.27334594727</ele>
        <time>2015-02-24T07:06:26Z</time>
      </trkpt>
      <trkpt lat="45.8813" lon="4.67887">
        <ele>359.47012329102</ele>
        <time>2015-02-24T07:06:30Z</time>
      </trkpt>
      <trkpt lat="45.88142" lon="4.67897">
        <ele>358.60333251953</ele>
        <time>2015-02-24T07:06:34Z</time>
      </trkpt>
      <trkpt lat="45.88145" lon="4.67898">
        <ele>358.46136474609</ele>
        <time>2015-02-24T07:06:35Z</time>
      </trkpt>
      <trkpt lat="45.8816" lon="4.67911">
        <ele>357.43862915039</ele>
        <time>2015-02-24T07:06:40Z</time>
      </trkpt>
      <trkpt lat="45.88172" lon="4.67922">
        <ele>356.34167480469</ele>
        <time>2015-02-24T07:06:44Z</time>
      </trkpt>
      <trkpt lat="45.88174" lon="4.67923">
        <ele>356.05133056641</ele>
        <time>2015-02-24T07:06:45Z</time>
      </trkpt>
      <trkpt lat="45.88178" lon="4.67926">
        <ele>355.64025878906</ele>
        <time>2015-02-24T07:06:46Z</time>
      </trkpt>
      <trkpt lat="45.88181" lon="4.67928">
        <ele>355.35668945312</ele>
        <time>2015-02-24T07:06:47Z</time>
      </trkpt>
      <trkpt lat="45.88184" lon="4.67931">
        <ele>354.96871948242</ele>
        <time>2015-02-24T07:06:48Z</time>
      </trkpt>
      <trkpt lat="45.88187" lon="4.67934">
        <ele>354.62213134766</ele>
        <time>2015-02-24T07:06:49Z</time>
      </trkpt>
      <trkpt lat="45.8819" lon="4.67935">
        <ele>354.36392211914</ele>
        <time>2015-02-24T07:06:50Z</time>
      </trkpt>
      <trkpt lat="45.88197" lon="4.67939">
        <ele>353.68280029297</ele>
        <time>2015-02-24T07:06:52Z</time>
      </trkpt>
      <trkpt lat="45.882" lon="4.67941">
        <ele>353.35946655273</ele>
        <time>2015-02-24T07:06:53Z</time>
      </trkpt>
      <trkpt lat="45.8821" lon="4.67948">
        <ele>352.39730834961</ele>
        <time>2015-02-24T07:06:56Z</time>
      </trkpt>
      <trkpt lat="45.88212" lon="4.67949">
        <ele>352.18258666992</ele>
        <time>2015-02-24T07:06:57Z</time>
      </trkpt>
      <trkpt lat="45.88215" lon="4.67951">
        <ele>351.90832519531</ele>
        <time>2015-02-24T07:06:58Z</time>
      </trkpt>
      <trkpt lat="45.88224" lon="4.67955">
        <ele>351.22106933594</ele>
        <time>2015-02-24T07:07:01Z</time>
      </trkpt>
      <trkpt lat="45.88227" lon="4.67955">
        <ele>351.02453613281</ele>
        <time>2015-02-24T07:07:02Z</time>
      </trkpt>
      <trkpt lat="45.88231" lon="4.67956">
        <ele>350.775390625</ele>
        <time>2015-02-24T07:07:03Z</time>
      </trkpt>
      <trkpt lat="45.88234" lon="4.67957">
        <ele>350.52230834961</ele>
        <time>2015-02-24T07:07:04Z</time>
      </trkpt>
      <trkpt lat="45.88237" lon="4.67958">
        <ele>350.31140136719</ele>
        <time>2015-02-24T07:07:05Z</time>
      </trkpt>
      <trkpt lat="45.88241" lon="4.67959">
        <ele>349.99252319336</ele>
        <time>2015-02-24T07:07:06Z</time>
      </trkpt>
      <trkpt lat="45.88248" lon="4.67961">
        <ele>349.54568481445</ele>
        <time>2015-02-24T07:07:08Z</time>
      </trkpt>
      <trkpt lat="45.88251" lon="4.67961">
        <ele>349.33319091797</ele>
        <time>2015-02-24T07:07:09Z</time>
      </trkpt>
      <trkpt lat="45.88255" lon="4.67963">
        <ele>349.00338745117</ele>
        <time>2015-02-24T07:07:10Z</time>
      </trkpt>
      <trkpt lat="45.88261" lon="4.67966">
        <ele>348.38238525391</ele>
        <time>2015-02-24T07:07:12Z</time>
      </trkpt>
      <trkpt lat="45.88265" lon="4.67968">
        <ele>348.04504394531</ele>
        <time>2015-02-24T07:07:13Z</time>
      </trkpt>
      <trkpt lat="45.88268" lon="4.6797">
        <ele>347.77844238281</ele>
        <time>2015-02-24T07:07:14Z</time>
      </trkpt>
      <trkpt lat="45.88271" lon="4.67972">
        <ele>347.47027587891</ele>
        <time>2015-02-24T07:07:15Z</time>
      </trkpt>
      <trkpt lat="45.88283" lon="4.67984">
        <ele>346.3664855957</ele>
        <time>2015-02-24T07:07:19Z</time>
      </trkpt>
      <trkpt lat="45.88286" lon="4.67988">
        <ele>346.10021972656</ele>
        <time>2015-02-24T07:07:20Z</time>
      </trkpt>
      <trkpt lat="45.88293" lon="4.67999">
        <ele>345.41586303711</ele>
        <time>2015-02-24T07:07:23Z</time>
      </trkpt>
      <trkpt lat="45.88299" lon="4.68007">
        <ele>345.07214355469</ele>
        <time>2015-02-24T07:07:25Z</time>
      </trkpt>
      <trkpt lat="45.88301" lon="4.68011">
        <ele>344.95770263672</ele>
        <time>2015-02-24T07:07:26Z</time>
      </trkpt>
      <trkpt lat="45.88307" lon="4.68019">
        <ele>344.59149169922</ele>
        <time>2015-02-24T07:07:28Z</time>
      </trkpt>
      <trkpt lat="45.88309" lon="4.68022">
        <ele>344.45416259766</ele>
        <time>2015-02-24T07:07:29Z</time>
      </trkpt>
      <trkpt lat="45.88312" lon="4.68025">
        <ele>344.27105712891</ele>
        <time>2015-02-24T07:07:30Z</time>
      </trkpt>
      <trkpt lat="45.88315" lon="4.68028">
        <ele>344.11083984375</ele>
        <time>2015-02-24T07:07:31Z</time>
      </trkpt>
      <trkpt lat="45.88318" lon="4.68032">
        <ele>343.927734375</ele>
        <time>2015-02-24T07:07:32Z</time>
      </trkpt>
      <trkpt lat="45.88326" lon="4.6804">
        <ele>343.46997070312</ele>
        <time>2015-02-24T07:07:35Z</time>
      </trkpt>
      <trkpt lat="45.88329" lon="4.68043">
        <ele>343.24108886719</ele>
        <time>2015-02-24T07:07:36Z</time>
      </trkpt>
      <trkpt lat="45.88332" lon="4.68046">
        <ele>343.10375976562</ele>
        <time>2015-02-24T07:07:37Z</time>
      </trkpt>
      <trkpt lat="45.88335" lon="4.68048">
        <ele>342.87197875977</ele>
        <time>2015-02-24T07:07:38Z</time>
      </trkpt>
      <trkpt lat="45.88338" lon="4.68052">
        <ele>342.67788696289</ele>
        <time>2015-02-24T07:07:39Z</time>
      </trkpt>
      <trkpt lat="45.8834" lon="4.68054">
        <ele>342.48794555664</ele>
        <time>2015-02-24T07:07:40Z</time>
      </trkpt>
      <trkpt lat="45.88344" lon="4.68058">
        <ele>342.25521850586</ele>
        <time>2015-02-24T07:07:41Z</time>
      </trkpt>
      <trkpt lat="45.8835" lon="4.68063">
        <ele>341.88284301758</ele>
        <time>2015-02-24T07:07:43Z</time>
      </trkpt>
      <trkpt lat="45.88353" lon="4.68066">
        <ele>341.69659423828</ele>
        <time>2015-02-24T07:07:44Z</time>
      </trkpt>
      <trkpt lat="45.88362" lon="4.68072">
        <ele>341.15927124023</ele>
        <time>2015-02-24T07:07:47Z</time>
      </trkpt>
      <trkpt lat="45.88365" lon="4.68074">
        <ele>340.98742675781</ele>
        <time>2015-02-24T07:07:48Z</time>
      </trkpt>
      <trkpt lat="45.88367" lon="4.68077">
        <ele>340.87646484375</ele>
        <time>2015-02-24T07:07:49Z</time>
      </trkpt>
      <trkpt lat="45.88383" lon="4.68088">
        <ele>340.29998779297</ele>
        <time>2015-02-24T07:07:54Z</time>
      </trkpt>
      <trkpt lat="45.88398" lon="4.68101">
        <ele>340.16839599609</ele>
        <time>2015-02-24T07:07:59Z</time>
      </trkpt>
      <trkpt lat="45.88411" lon="4.6811">
        <ele>339.9938659668</ele>
        <time>2015-02-24T07:08:03Z</time>
      </trkpt>
      <trkpt lat="45.88414" lon="4.68112">
        <ele>339.92807006836</ele>
        <time>2015-02-24T07:08:04Z</time>
      </trkpt>
      <trkpt lat="45.88422" lon="4.68119">
        <ele>339.65612792969</ele>
        <time>2015-02-24T07:08:07Z</time>
      </trkpt>
      <trkpt lat="45.88432" lon="4.68125">
        <ele>339.25616455078</ele>
        <time>2015-02-24T07:08:10Z</time>
      </trkpt>
      <trkpt lat="45.88447" lon="4.68137">
        <ele>338.63189697266</ele>
        <time>2015-02-24T07:08:15Z</time>
      </trkpt>
      <trkpt lat="45.88462" lon="4.68148">
        <ele>338.09231567383</ele>
        <time>2015-02-24T07:08:20Z</time>
      </trkpt>
      <trkpt lat="45.88477" lon="4.68159">
        <ele>337.47088623047</ele>
        <time>2015-02-24T07:08:25Z</time>
      </trkpt>
      <trkpt lat="45.88481" lon="4.68162">
        <ele>337.31982421875</ele>
        <time>2015-02-24T07:08:26Z</time>
      </trkpt>
      <trkpt lat="45.88496" lon="4.68175">
        <ele>336.88745117188</ele>
        <time>2015-02-24T07:08:31Z</time>
      </trkpt>
      <trkpt lat="45.88514" lon="4.68191">
        <ele>336.50186157227</ele>
        <time>2015-02-24T07:08:37Z</time>
      </trkpt>
      <trkpt lat="45.88517" lon="4.68194">
        <ele>336.49737548828</ele>
        <time>2015-02-24T07:08:38Z</time>
      </trkpt>
      <trkpt lat="45.88519" lon="4.68197">
        <ele>336.48376464844</ele>
        <time>2015-02-24T07:08:39Z</time>
      </trkpt>
      <trkpt lat="45.88534" lon="4.68213">
        <ele>336.29431152344</ele>
        <time>2015-02-24T07:08:44Z</time>
      </trkpt>
      <trkpt lat="45.88539" lon="4.68219">
        <ele>336.23715209961</ele>
        <time>2015-02-24T07:08:46Z</time>
      </trkpt>
      <trkpt lat="45.88549" lon="4.68231">
        <ele>336.08673095703</ele>
        <time>2015-02-24T07:08:50Z</time>
      </trkpt>
      <trkpt lat="45.88562" lon="4.68247">
        <ele>335.81723022461</ele>
        <time>2015-02-24T07:08:55Z</time>
      </trkpt>
      <trkpt lat="45.88575" lon="4.68261">
        <ele>335.13201904297</ele>
        <time>2015-02-24T07:09:00Z</time>
      </trkpt>
      <trkpt lat="45.8858" lon="4.68276">
        <ele>335.27487182617</ele>
        <time>2015-02-24T07:09:04Z</time>
      </trkpt>
      <trkpt lat="45.88578" lon="4.68279">
        <ele>335.49661254883</ele>
        <time>2015-02-24T07:09:05Z</time>
      </trkpt>
      <trkpt lat="45.88573" lon="4.68293">
        <ele>336.49206542969</ele>
        <time>2015-02-24T07:09:09Z</time>
      </trkpt>
      <trkpt lat="45.88564" lon="4.68299">
        <ele>337.47137451172</ele>
        <time>2015-02-24T07:09:13Z</time>
      </trkpt>
      <trkpt lat="45.88562" lon="4.68297">
        <ele>337.56539916992</ele>
        <time>2015-02-24T07:09:14Z</time>
      </trkpt>
      <trkpt lat="45.88558" lon="4.68294">
        <ele>337.86587524414</ele>
        <time>2015-02-24T07:09:16Z</time>
      </trkpt>
      <trkpt lat="45.88556" lon="4.68293">
        <ele>338.04217529297</ele>
        <time>2015-02-24T07:09:17Z</time>
      </trkpt>
      <trkpt lat="45.88549" lon="4.6829">
        <ele>338.57467651367</ele>
        <time>2015-02-24T07:09:20Z</time>
      </trkpt>
      <trkpt lat="45.88546" lon="4.68288">
        <ele>338.73379516602</ele>
        <time>2015-02-24T07:09:21Z</time>
      </trkpt>
      <trkpt lat="45.88543" lon="4.68286">
        <ele>338.93389892578</ele>
        <time>2015-02-24T07:09:22Z</time>
      </trkpt>
      <trkpt lat="45.88541" lon="4.68285">
        <ele>339.13223266602</ele>
        <time>2015-02-24T07:09:23Z</time>
      </trkpt>
      <trkpt lat="45.88532" lon="4.68281">
        <ele>339.81619262695</ele>
        <time>2015-02-24T07:09:26Z</time>
      </trkpt>
      <trkpt lat="45.8853" lon="4.6828">
        <ele>339.99752807617</ele>
        <time>2015-02-24T07:09:27Z</time>
      </trkpt>
      <trkpt lat="45.88515" lon="4.68272">
        <ele>341.10214233398</ele>
        <time>2015-02-24T07:09:32Z</time>
      </trkpt>
      <trkpt lat="45.88513" lon="4.6827">
        <ele>341.25891113281</ele>
        <time>2015-02-24T07:09:33Z</time>
      </trkpt>
      <trkpt lat="45.88503" lon="4.68264">
        <ele>342.06048583984</ele>
        <time>2015-02-24T07:09:37Z</time>
      </trkpt>
      <trkpt lat="45.88501" lon="4.68262">
        <ele>342.23431396484</ele>
        <time>2015-02-24T07:09:38Z</time>
      </trkpt>
      <trkpt lat="45.88497" lon="4.68259">
        <ele>342.50439453125</ele>
        <time>2015-02-24T07:09:40Z</time>
      </trkpt>
      <trkpt lat="45.88492" lon="4.68255">
        <ele>342.79730224609</ele>
        <time>2015-02-24T07:09:42Z</time>
      </trkpt>
      <trkpt lat="45.88482" lon="4.68252">
        <ele>343.59689331055</ele>
        <time>2015-02-24T07:09:46Z</time>
      </trkpt>
      <trkpt lat="45.8848" lon="4.68253">
        <ele>343.77310180664</ele>
        <time>2015-02-24T07:09:47Z</time>
      </trkpt>
      <trkpt lat="45.88474" lon="4.68254">
        <ele>344.36877441406</ele>
        <time>2015-02-24T07:09:50Z</time>
      </trkpt>
      <trkpt lat="45.88469" lon="4.68254">
        <ele>344.79580688477</ele>
        <time>2015-02-24T07:09:52Z</time>
      </trkpt>
      <trkpt lat="45.88464" lon="4.68253">
        <ele>345.21209716797</ele>
        <time>2015-02-24T07:09:54Z</time>
      </trkpt>
      <trkpt lat="45.88454" lon="4.68254">
        <ele>346.03921508789</ele>
        <time>2015-02-24T07:09:58Z</time>
      </trkpt>
      <trkpt lat="45.88451" lon="4.68254">
        <ele>346.28884887695</ele>
        <time>2015-02-24T07:09:59Z</time>
      </trkpt>
      <trkpt lat="45.88442" lon="4.68255">
        <ele>347.11419677734</ele>
        <time>2015-02-24T07:10:03Z</time>
      </trkpt>
      <trkpt lat="45.88432" lon="4.68255">
        <ele>348.02755737305</ele>
        <time>2015-02-24T07:10:07Z</time>
      </trkpt>
      <trkpt lat="45.88427" lon="4.68256">
        <ele>348.56393432617</ele>
        <time>2015-02-24T07:10:09Z</time>
      </trkpt>
      <trkpt lat="45.88424" lon="4.68256">
        <ele>348.7780456543</ele>
        <time>2015-02-24T07:10:10Z</time>
      </trkpt>
      <trkpt lat="45.88416" lon="4.68256">
        <ele>349.466796875</ele>
        <time>2015-02-24T07:10:13Z</time>
      </trkpt>
      <trkpt lat="45.88413" lon="4.68257">
        <ele>349.77124023438</ele>
        <time>2015-02-24T07:10:14Z</time>
      </trkpt>
      <trkpt lat="45.88408" lon="4.68257">
        <ele>350.24273681641</ele>
        <time>2015-02-24T07:10:16Z</time>
      </trkpt>
      <trkpt lat="45.88398" lon="4.68259">
        <ele>351.24291992188</ele>
        <time>2015-02-24T07:10:20Z</time>
      </trkpt>
      <trkpt lat="45.88392" lon="4.6826">
        <ele>351.73617553711</ele>
        <time>2015-02-24T07:10:22Z</time>
      </trkpt>
      <trkpt lat="45.88382" lon="4.68261">
        <ele>352.73867797852</ele>
        <time>2015-02-24T07:10:26Z</time>
      </trkpt>
      <trkpt lat="45.88371" lon="4.68263">
        <ele>353.78582763672</ele>
        <time>2015-02-24T07:10:30Z</time>
      </trkpt>
      <trkpt lat="45.88359" lon="4.68264">
        <ele>354.78030395508</ele>
        <time>2015-02-24T07:10:34Z</time>
      </trkpt>
      <trkpt lat="45.88357" lon="4.68264">
        <ele>354.97256469727</ele>
        <time>2015-02-24T07:10:35Z</time>
      </trkpt>
      <trkpt lat="45.88349" lon="4.68264">
        <ele>355.70040893555</ele>
        <time>2015-02-24T07:10:38Z</time>
      </trkpt>
      <trkpt lat="45.88346" lon="4.68265">
        <ele>356.00823974609</ele>
        <time>2015-02-24T07:10:39Z</time>
      </trkpt>
      <trkpt lat="45.88337" lon="4.68271">
        <ele>357.16067504883</ele>
        <time>2015-02-24T07:10:43Z</time>
      </trkpt>
      <trkpt lat="45.88335" lon="4.68272">
        <ele>357.46279907227</ele>
        <time>2015-02-24T07:10:44Z</time>
      </trkpt>
      <trkpt lat="45.88327" lon="4.68277">
        <ele>358.37545776367</ele>
        <time>2015-02-24T07:10:47Z</time>
      </trkpt>
      <trkpt lat="45.88319" lon="4.6828">
        <ele>359.10983276367</ele>
        <time>2015-02-24T07:10:50Z</time>
      </trkpt>
      <trkpt lat="45.88308" lon="4.68281">
        <ele>359.97830200195</ele>
        <time>2015-02-24T07:10:54Z</time>
      </trkpt>
      <trkpt lat="45.88306" lon="4.68282">
        <ele>360.13302612305</ele>
        <time>2015-02-24T07:10:55Z</time>
      </trkpt>
      <trkpt lat="45.88301" lon="4.68283">
        <ele>360.59411621094</ele>
        <time>2015-02-24T07:10:57Z</time>
      </trkpt>
      <trkpt lat="45.8829" lon="4.68287">
        <ele>361.42370605469</ele>
        <time>2015-02-24T07:11:01Z</time>
      </trkpt>
      <trkpt lat="45.88285" lon="4.68288">
        <ele>361.80606079102</ele>
        <time>2015-02-24T07:11:03Z</time>
      </trkpt>
      <trkpt lat="45.88276" lon="4.68289">
        <ele>362.41882324219</ele>
        <time>2015-02-24T07:11:06Z</time>
      </trkpt>
      <trkpt lat="45.88261" lon="4.68288">
        <ele>363.28036499023</ele>
        <time>2015-02-24T07:11:11Z</time>
      </trkpt>
      <trkpt lat="45.88258" lon="4.68287">
        <ele>363.46624755859</ele>
        <time>2015-02-24T07:11:12Z</time>
      </trkpt>
      <trkpt lat="45.88252" lon="4.68286">
        <ele>363.8532409668</ele>
        <time>2015-02-24T07:11:14Z</time>
      </trkpt>
      <trkpt lat="45.8824" lon="4.68284">
        <ele>364.16827392578</ele>
        <time>2015-02-24T07:11:18Z</time>
      </trkpt>
      <trkpt lat="45.88231" lon="4.68285">
        <ele>364.33187866211</ele>
        <time>2015-02-24T07:11:21Z</time>
      </trkpt>
      <trkpt lat="45.88221" lon="4.68289">
        <ele>364.51693725586</ele>
        <time>2015-02-24T07:11:24Z</time>
      </trkpt>
      <trkpt lat="45.88211" lon="4.68292">
        <ele>364.70385742188</ele>
        <time>2015-02-24T07:11:27Z</time>
      </trkpt>
      <trkpt lat="45.88202" lon="4.68293">
        <ele>364.87692260742</ele>
        <time>2015-02-24T07:11:30Z</time>
      </trkpt>
      <trkpt lat="45.88183" lon="4.68291">
        <ele>365.20626831055</ele>
        <time>2015-02-24T07:11:36Z</time>
      </trkpt>
      <trkpt lat="45.88179" lon="4.68292">
        <ele>365.27615356445</ele>
        <time>2015-02-24T07:11:37Z</time>
      </trkpt>
      <trkpt lat="45.88164" lon="4.68291">
        <ele>365.58520507812</ele>
        <time>2015-02-24T07:11:42Z</time>
      </trkpt>
      <trkpt lat="45.88144" lon="4.68289">
        <ele>366.17739868164</ele>
        <time>2015-02-24T07:11:48Z</time>
      </trkpt>
      <trkpt lat="45.88133" lon="4.68287">
        <ele>366.52655029297</ele>
        <time>2015-02-24T07:11:52Z</time>
      </trkpt>
      <trkpt lat="45.88127" lon="4.68286">
        <ele>366.71716308594</ele>
        <time>2015-02-24T07:11:54Z</time>
      </trkpt>
      <trkpt lat="45.88118" lon="4.68283">
        <ele>367.02905273438</ele>
        <time>2015-02-24T07:11:57Z</time>
      </trkpt>
      <trkpt lat="45.88103" lon="4.6828">
        <ele>367.60238647461</ele>
        <time>2015-02-24T07:12:02Z</time>
      </trkpt>
      <trkpt lat="45.88094" lon="4.68278">
        <ele>367.94091796875</ele>
        <time>2015-02-24T07:12:05Z</time>
      </trkpt>
      <trkpt lat="45.88086" lon="4.68274">
        <ele>368.33547973633</ele>
        <time>2015-02-24T07:12:08Z</time>
      </trkpt>
      <trkpt lat="45.8808" lon="4.68273">
        <ele>368.58380126953</ele>
        <time>2015-02-24T07:12:10Z</time>
      </trkpt>
      <trkpt lat="45.8807" lon="4.68269">
        <ele>369.01751708984</ele>
        <time>2015-02-24T07:12:13Z</time>
      </trkpt>
      <trkpt lat="45.88067" lon="4.68269">
        <ele>369.11822509766</ele>
        <time>2015-02-24T07:12:14Z</time>
      </trkpt>
      <trkpt lat="45.88061" lon="4.68267">
        <ele>369.39978027344</ele>
        <time>2015-02-24T07:12:16Z</time>
      </trkpt>
      <trkpt lat="45.88057" lon="4.68266">
        <ele>369.54739379883</ele>
        <time>2015-02-24T07:12:17Z</time>
      </trkpt>
      <trkpt lat="45.88039" lon="4.6826">
        <ele>370.35763549805</ele>
        <time>2015-02-24T07:12:23Z</time>
      </trkpt>
      <trkpt lat="45.88026" lon="4.68258">
        <ele>370.86920166016</ele>
        <time>2015-02-24T07:12:27Z</time>
      </trkpt>
      <trkpt lat="45.88023" lon="4.68257">
        <ele>370.98477172852</ele>
        <time>2015-02-24T07:12:28Z</time>
      </trkpt>
      <trkpt lat="45.88021" lon="4.68257">
        <ele>371.08319091797</ele>
        <time>2015-02-24T07:12:29Z</time>
      </trkpt>
      <trkpt lat="45.88011" lon="4.68255">
        <ele>371.48373413086</ele>
        <time>2015-02-24T07:12:32Z</time>
      </trkpt>
      <trkpt lat="45.88008" lon="4.68254">
        <ele>371.60046386719</ele>
        <time>2015-02-24T07:12:33Z</time>
      </trkpt>
      <trkpt lat="45.87996" lon="4.68251">
        <ele>372.25619506836</ele>
        <time>2015-02-24T07:12:37Z</time>
      </trkpt>
      <trkpt lat="45.87993" lon="4.68251">
        <ele>372.47189331055</ele>
        <time>2015-02-24T07:12:38Z</time>
      </trkpt>
      <trkpt lat="45.87981" lon="4.68246">
        <ele>373.25891113281</ele>
        <time>2015-02-24T07:12:42Z</time>
      </trkpt>
      <trkpt lat="45.87978" lon="4.68245">
        <ele>373.42965698242</ele>
        <time>2015-02-24T07:12:43Z</time>
      </trkpt>
      <trkpt lat="45.87972" lon="4.68244">
        <ele>373.9065246582</ele>
        <time>2015-02-24T07:12:45Z</time>
      </trkpt>
      <trkpt lat="45.87963" lon="4.68244">
        <ele>374.5930480957</ele>
        <time>2015-02-24T07:12:48Z</time>
      </trkpt>
      <trkpt lat="45.87957" lon="4.68243">
        <ele>375.05081176758</ele>
        <time>2015-02-24T07:12:50Z</time>
      </trkpt>
      <trkpt lat="45.87944" lon="4.68244">
        <ele>376.03729248047</ele>
        <time>2015-02-24T07:12:54Z</time>
      </trkpt>
      <trkpt lat="45.8793" lon="4.68253">
        <ele>376.82836914062</ele>
        <time>2015-02-24T07:12:59Z</time>
      </trkpt>
      <trkpt lat="45.87928" lon="4.68255">
        <ele>376.79434204102</ele>
        <time>2015-02-24T07:13:00Z</time>
      </trkpt>
      <trkpt lat="45.87925" lon="4.6826">
        <ele>376.64492797852</ele>
        <time>2015-02-24T07:13:01Z</time>
      </trkpt>
      <trkpt lat="45.87917" lon="4.68269">
        <ele>376.38247680664</ele>
        <time>2015-02-24T07:13:04Z</time>
      </trkpt>
      <trkpt lat="45.87916" lon="4.6827">
        <ele>376.32373046875</ele>
        <time>2015-02-24T07:13:05Z</time>
      </trkpt>
      <trkpt lat="45.87911" lon="4.68279">
        <ele>375.71975708008</ele>
        <time>2015-02-24T07:13:46Z</time>
      </trkpt>
      <trkpt lat="45.8791" lon="4.68279">
        <ele>375.7001953125</ele>
        <time>2015-02-24T07:13:47Z</time>
      </trkpt>
      <trkpt lat="45.87904" lon="4.68281">
        <ele>375.66528320312</ele>
        <time>2015-02-24T07:13:49Z</time>
      </trkpt>
      <trkpt lat="45.87897" lon="4.68283">
        <ele>375.57528686523</ele>
        <time>2015-02-24T07:13:51Z</time>
      </trkpt>
      <trkpt lat="45.87887" lon="4.68286">
        <ele>375.46063232422</ele>
        <time>2015-02-24T07:13:54Z</time>
      </trkpt>
      <trkpt lat="45.87884" lon="4.68287">
        <ele>375.40081787109</ele>
        <time>2015-02-24T07:13:55Z</time>
      </trkpt>
      <trkpt lat="45.8788" lon="4.68289">
        <ele>375.25158691406</ele>
        <time>2015-02-24T07:13:56Z</time>
      </trkpt>
      <trkpt lat="45.87877" lon="4.6829">
        <ele>375.16110229492</ele>
        <time>2015-02-24T07:13:57Z</time>
      </trkpt>
      <trkpt lat="45.87873" lon="4.68292">
        <ele>374.95126342773</ele>
        <time>2015-02-24T07:13:58Z</time>
      </trkpt>
      <trkpt lat="45.87871" lon="4.68293">
        <ele>374.8717956543</ele>
        <time>2015-02-24T07:13:59Z</time>
      </trkpt>
      <trkpt lat="45.87867" lon="4.68295">
        <ele>374.77438354492</ele>
        <time>2015-02-24T07:14:00Z</time>
      </trkpt>
      <trkpt lat="45.87864" lon="4.68297">
        <ele>374.57144165039</ele>
        <time>2015-02-24T07:14:01Z</time>
      </trkpt>
      <trkpt lat="45.8786" lon="4.68298">
        <ele>374.42538452148</ele>
        <time>2015-02-24T07:14:02Z</time>
      </trkpt>
      <trkpt lat="45.87843" lon="4.68307">
        <ele>373.39007568359</ele>
        <time>2015-02-24T07:14:07Z</time>
      </trkpt>
      <trkpt lat="45.8784" lon="4.68309">
        <ele>373.14785766602</ele>
        <time>2015-02-24T07:14:08Z</time>
      </trkpt>
      <trkpt lat="45.87836" lon="4.68311">
        <ele>372.97946166992</ele>
        <time>2015-02-24T07:14:09Z</time>
      </trkpt>
      <trkpt lat="45.87833" lon="4.68313">
        <ele>372.68054199219</ele>
        <time>2015-02-24T07:14:10Z</time>
      </trkpt>
      <trkpt lat="45.8783" lon="4.68315">
        <ele>372.6745300293</ele>
        <time>2015-02-24T07:14:11Z</time>
      </trkpt>
      <trkpt lat="45.87826" lon="4.68316">
        <ele>372.68310546875</ele>
        <time>2015-02-24T07:14:12Z</time>
      </trkpt>
      <trkpt lat="45.87823" lon="4.6832">
        <ele>372.35235595703</ele>
        <time>2015-02-24T07:14:13Z</time>
      </trkpt>
      <trkpt lat="45.8782" lon="4.68321">
        <ele>372.39471435547</ele>
        <time>2015-02-24T07:14:14Z</time>
      </trkpt>
      <trkpt lat="45.87817" lon="4.68324">
        <ele>372.27569580078</ele>
        <time>2015-02-24T07:14:15Z</time>
      </trkpt>
      <trkpt lat="45.87811" lon="4.68327">
        <ele>372.15725708008</ele>
        <time>2015-02-24T07:14:17Z</time>
      </trkpt>
      <trkpt lat="45.87804" lon="4.68331">
        <ele>372.03021240234</ele>
        <time>2015-02-24T07:14:19Z</time>
      </trkpt>
      <trkpt lat="45.87788" lon="4.68339">
        <ele>371.85833740234</ele>
        <time>2015-02-24T07:14:24Z</time>
      </trkpt>
      <trkpt lat="45.87785" lon="4.6834">
        <ele>371.84448242188</ele>
        <time>2015-02-24T07:14:25Z</time>
      </trkpt>
      <trkpt lat="45.87778" lon="4.68343">
        <ele>371.83450317383</ele>
        <time>2015-02-24T07:14:27Z</time>
      </trkpt>
      <trkpt lat="45.87772" lon="4.68345">
        <ele>371.73910522461</ele>
        <time>2015-02-24T07:14:29Z</time>
      </trkpt>
      <trkpt lat="45.87769" lon="4.68347">
        <ele>371.74969482422</ele>
        <time>2015-02-24T07:14:30Z</time>
      </trkpt>
      <trkpt lat="45.87761" lon="4.68351">
        <ele>371.49383544922</ele>
        <time>2015-02-24T07:14:33Z</time>
      </trkpt>
      <trkpt lat="45.87746" lon="4.68357">
        <ele>371.06246948242</ele>
        <time>2015-02-24T07:14:37Z</time>
      </trkpt>
      <trkpt lat="45.87743" lon="4.68359">
        <ele>370.78909301758</ele>
        <time>2015-02-24T07:14:38Z</time>
      </trkpt>
      <trkpt lat="45.87733" lon="4.68364">
        <ele>370.10995483398</ele>
        <time>2015-02-24T07:14:41Z</time>
      </trkpt>
      <trkpt lat="45.8773" lon="4.68366">
        <ele>369.859375</ele>
        <time>2015-02-24T07:14:42Z</time>
      </trkpt>
      <trkpt lat="45.8772" lon="4.6837">
        <ele>369.43319702148</ele>
        <time>2015-02-24T07:14:45Z</time>
      </trkpt>
      <trkpt lat="45.87714" lon="4.6837">
        <ele>369.45944213867</ele>
        <time>2015-02-24T07:14:47Z</time>
      </trkpt>
      <trkpt lat="45.87704" lon="4.68371">
        <ele>369.40783691406</ele>
        <time>2015-02-24T07:14:50Z</time>
      </trkpt>
      <trkpt lat="45.87684" lon="4.68373">
        <ele>369.43811035156</ele>
        <time>2015-02-24T07:14:56Z</time>
      </trkpt>
      <trkpt lat="45.87682" lon="4.68374">
        <ele>369.33471679688</ele>
        <time>2015-02-24T07:14:57Z</time>
      </trkpt>
      <trkpt lat="45.87662" lon="4.68377">
        <ele>368.57693481445</ele>
        <time>2015-02-24T07:15:03Z</time>
      </trkpt>
      <trkpt lat="45.87659" lon="4.68377">
        <ele>368.34805297852</ele>
        <time>2015-02-24T07:15:04Z</time>
      </trkpt>
      <trkpt lat="45.87659" lon="4.68377">
        <ele>368.34805297852</ele>
        <time>2015-02-24T07:15:04Z</time>
      </trkpt>
      <trkpt lat="45.87653" lon="4.68378">
        <ele>367.31692504883</ele>
        <time>2015-02-24T07:15:06Z</time>
      </trkpt>
      <trkpt lat="45.87646" lon="4.6838">
        <ele>366.38717651367</ele>
        <time>2015-02-24T07:15:08Z</time>
      </trkpt>
      <trkpt lat="45.87626" lon="4.68384">
        <ele>363.77923583984</ele>
        <time>2015-02-24T07:15:14Z</time>
      </trkpt>
      <trkpt lat="45.87616" lon="4.68386">
        <ele>362.59460449219</ele>
        <time>2015-02-24T07:15:17Z</time>
      </trkpt>
      <trkpt lat="45.87603" lon="4.68389">
        <ele>361.18014526367</ele>
        <time>2015-02-24T07:15:21Z</time>
      </trkpt>
      <trkpt lat="45.87599" lon="4.6839">
        <ele>360.84307861328</ele>
        <time>2015-02-24T07:15:22Z</time>
      </trkpt>
      <trkpt lat="45.87585" lon="4.68392">
        <ele>359.52355957031</ele>
        <time>2015-02-24T07:15:26Z</time>
      </trkpt>
      <trkpt lat="45.87581" lon="4.68393">
        <ele>359.16012573242</ele>
        <time>2015-02-24T07:15:27Z</time>
      </trkpt>
      <trkpt lat="45.87568" lon="4.68394">
        <ele>357.5622253418</ele>
        <time>2015-02-24T07:15:31Z</time>
      </trkpt>
      <trkpt lat="45.87551" lon="4.68396">
        <ele>355.70397949219</ele>
        <time>2015-02-24T07:15:36Z</time>
      </trkpt>
      <trkpt lat="45.87548" lon="4.68397">
        <ele>355.35455322266</ele>
        <time>2015-02-24T07:15:37Z</time>
      </trkpt>
      <trkpt lat="45.87538" lon="4.68399">
        <ele>354.40621948242</ele>
        <time>2015-02-24T07:15:40Z</time>
      </trkpt>
      <trkpt lat="45.87534" lon="4.684">
        <ele>354.04025268555</ele>
        <time>2015-02-24T07:15:41Z</time>
      </trkpt>
      <trkpt lat="45.8753" lon="4.68401">
        <ele>353.68991088867</ele>
        <time>2015-02-24T07:15:42Z</time>
      </trkpt>
      <trkpt lat="45.87523" lon="4.68402">
        <ele>353.1418762207</ele>
        <time>2015-02-24T07:15:44Z</time>
      </trkpt>
      <trkpt lat="45.87518" lon="4.68396">
        <ele>351.65417480469</ele>
        <time>2015-02-24T07:15:47Z</time>
      </trkpt>
      <trkpt lat="45.87523" lon="4.68387">
        <ele>351.04861450195</ele>
        <time>2015-02-24T07:15:49Z</time>
      </trkpt>
      <trkpt lat="45.87526" lon="4.68383">
        <ele>351.02938842773</ele>
        <time>2015-02-24T07:15:50Z</time>
      </trkpt>
      <trkpt lat="45.87532" lon="4.68374">
        <ele>350.99594116211</ele>
        <time>2015-02-24T07:15:52Z</time>
      </trkpt>
      <trkpt lat="45.87538" lon="4.68367">
        <ele>351.14447021484</ele>
        <time>2015-02-24T07:15:54Z</time>
      </trkpt>
      <trkpt lat="45.87545" lon="4.68355">
        <ele>351.30645751953</ele>
        <time>2015-02-24T07:15:57Z</time>
      </trkpt>
      <trkpt lat="45.87548" lon="4.68351">
        <ele>351.39086914062</ele>
        <time>2015-02-24T07:15:58Z</time>
      </trkpt>
      <trkpt lat="45.8755" lon="4.68347">
        <ele>351.50384521484</ele>
        <time>2015-02-24T07:15:59Z</time>
      </trkpt>
      <trkpt lat="45.87555" lon="4.68339">
        <ele>351.93954467773</ele>
        <time>2015-02-24T07:16:01Z</time>
      </trkpt>
      <trkpt lat="45.87561" lon="4.68325">
        <ele>351.97442626953</ele>
        <time>2015-02-24T07:16:04Z</time>
      </trkpt>
      <trkpt lat="45.87562" lon="4.68321">
        <ele>351.66436767578</ele>
        <time>2015-02-24T07:16:05Z</time>
      </trkpt>
      <trkpt lat="45.87566" lon="4.68307">
        <ele>351.03509521484</ele>
        <time>2015-02-24T07:16:08Z</time>
      </trkpt>
      <trkpt lat="45.87567" lon="4.68302">
        <ele>350.74960327148</ele>
        <time>2015-02-24T07:16:09Z</time>
      </trkpt>
      <trkpt lat="45.87571" lon="4.68287">
        <ele>349.84078979492</ele>
        <time>2015-02-24T07:16:12Z</time>
      </trkpt>
      <trkpt lat="45.87571" lon="4.68283">
        <ele>349.51187133789</ele>
        <time>2015-02-24T07:16:13Z</time>
      </trkpt>
      <trkpt lat="45.87572" lon="4.68277">
        <ele>349.04605102539</ele>
        <time>2015-02-24T07:16:14Z</time>
      </trkpt>
      <trkpt lat="45.87572" lon="4.68273">
        <ele>348.68023681641</ele>
        <time>2015-02-24T07:16:15Z</time>
      </trkpt>
      <trkpt lat="45.87575" lon="4.68257">
        <ele>347.56307983398</ele>
        <time>2015-02-24T07:16:18Z</time>
      </trkpt>
      <trkpt lat="45.87575" lon="4.68252">
        <ele>347.10943603516</ele>
        <time>2015-02-24T07:16:19Z</time>
      </trkpt>
      <trkpt lat="45.87578" lon="4.68227">
        <ele>345.47857666016</ele>
        <time>2015-02-24T07:16:24Z</time>
      </trkpt>
      <trkpt lat="45.87581" lon="4.68203">
        <ele>344.01559448242</ele>
        <time>2015-02-24T07:16:29Z</time>
      </trkpt>
      <trkpt lat="45.87582" lon="4.68198">
        <ele>343.65600585938</ele>
        <time>2015-02-24T07:16:30Z</time>
      </trkpt>
      <trkpt lat="45.87584" lon="4.68177">
        <ele>342.32214355469</ele>
        <time>2015-02-24T07:16:34Z</time>
      </trkpt>
      <trkpt lat="45.87585" lon="4.68168">
        <ele>341.58917236328</ele>
        <time>2015-02-24T07:16:36Z</time>
      </trkpt>
      <trkpt lat="45.87586" lon="4.68162">
        <ele>341.59896850586</ele>
        <time>2015-02-24T07:16:37Z</time>
      </trkpt>
      <trkpt lat="45.87588" lon="4.68147">
        <ele>341.6911315918</ele>
        <time>2015-02-24T07:16:40Z</time>
      </trkpt>
      <trkpt lat="45.8759" lon="4.68137">
        <ele>341.87475585938</ele>
        <time>2015-02-24T07:16:42Z</time>
      </trkpt>
      <trkpt lat="45.87592" lon="4.68128">
        <ele>342.01290893555</ele>
        <time>2015-02-24T07:16:44Z</time>
      </trkpt>
      <trkpt lat="45.87595" lon="4.68109">
        <ele>342.01742553711</ele>
        <time>2015-02-24T07:16:48Z</time>
      </trkpt>
      <trkpt lat="45.876" lon="4.68082">
        <ele>341.88983154297</ele>
        <time>2015-02-24T07:16:54Z</time>
      </trkpt>
      <trkpt lat="45.87605" lon="4.68059">
        <ele>342.15646362305</ele>
        <time>2015-02-24T07:16:59Z</time>
      </trkpt>
      <trkpt lat="45.87607" lon="4.68033">
        <ele>341.83242797852</ele>
        <time>2015-02-24T07:17:05Z</time>
      </trkpt>
      <trkpt lat="45.87609" lon="4.68028">
        <ele>341.88455200195</ele>
        <time>2015-02-24T07:17:06Z</time>
      </trkpt>
      <trkpt lat="45.87609" lon="4.68013">
        <ele>341.54885864258</ele>
        <time>2015-02-24T07:17:09Z</time>
      </trkpt>
      <trkpt lat="45.87606" lon="4.67985">
        <ele>340.80249023438</ele>
        <time>2015-02-24T07:17:15Z</time>
      </trkpt>
      <trkpt lat="45.87596" lon="4.67971">
        <ele>339.68270874023</ele>
        <time>2015-02-24T07:17:19Z</time>
      </trkpt>
      <trkpt lat="45.87592" lon="4.6797">
        <ele>339.32388305664</ele>
        <time>2015-02-24T07:17:20Z</time>
      </trkpt>
      <trkpt lat="45.87585" lon="4.67968">
        <ele>338.52890014648</ele>
        <time>2015-02-24T07:17:22Z</time>
      </trkpt>
      <trkpt lat="45.87577" lon="4.67968">
        <ele>337.39984130859</ele>
        <time>2015-02-24T07:17:24Z</time>
      </trkpt>
      <trkpt lat="45.87574" lon="4.6797">
        <ele>336.82672119141</ele>
        <time>2015-02-24T07:17:25Z</time>
      </trkpt>
      <trkpt lat="45.87567" lon="4.67973">
        <ele>335.71377563477</ele>
        <time>2015-02-24T07:17:27Z</time>
      </trkpt>
      <trkpt lat="45.87556" lon="4.67981">
        <ele>333.77282714844</ele>
        <time>2015-02-24T07:17:30Z</time>
      </trkpt>
      <trkpt lat="45.87551" lon="4.67988">
        <ele>332.6279296875</ele>
        <time>2015-02-24T07:17:32Z</time>
      </trkpt>
      <trkpt lat="45.87541" lon="4.67995">
        <ele>330.55712890625</ele>
        <time>2015-02-24T07:17:35Z</time>
      </trkpt>
      <trkpt lat="45.87534" lon="4.67991">
        <ele>329.46295166016</ele>
        <time>2015-02-24T07:17:37Z</time>
      </trkpt>
      <trkpt lat="45.87531" lon="4.67987">
        <ele>329.1667175293</ele>
        <time>2015-02-24T07:17:38Z</time>
      </trkpt>
      <trkpt lat="45.87524" lon="4.67974">
        <ele>328.69195556641</ele>
        <time>2015-02-24T07:17:41Z</time>
      </trkpt>
      <trkpt lat="45.8752" lon="4.67964">
        <ele>328.65222167969</ele>
        <time>2015-02-24T07:17:43Z</time>
      </trkpt>
      <trkpt lat="45.87518" lon="4.67959">
        <ele>328.63455200195</ele>
        <time>2015-02-24T07:17:44Z</time>
      </trkpt>
      <trkpt lat="45.87517" lon="4.67954">
        <ele>328.75354003906</ele>
        <time>2015-02-24T07:17:45Z</time>
      </trkpt>
      <trkpt lat="45.87516" lon="4.6795">
        <ele>328.85446166992</ele>
        <time>2015-02-24T07:17:46Z</time>
      </trkpt>
      <trkpt lat="45.87513" lon="4.6794">
        <ele>329.15856933594</ele>
        <time>2015-02-24T07:17:48Z</time>
      </trkpt>
      <trkpt lat="45.87511" lon="4.67936">
        <ele>329.14721679688</ele>
        <time>2015-02-24T07:17:49Z</time>
      </trkpt>
      <trkpt lat="45.87513" lon="4.67937">
        <ele>329.25881958008</ele>
        <time>2015-02-24T07:19:43Z</time>
      </trkpt>
      <trkpt lat="45.87513" lon="4.67937">
        <ele>329.25881958008</ele>
        <time>2015-02-24T07:19:44Z</time>
      </trkpt>
      <trkpt lat="45.87513" lon="4.67932">
        <ele>329.65240478516</ele>
        <time>2015-02-24T07:19:46Z</time>
      </trkpt>
      <trkpt lat="45.87513" lon="4.67928">
        <ele>329.79858398438</ele>
        <time>2015-02-24T07:19:47Z</time>
      </trkpt>
      <trkpt lat="45.87511" lon="4.6792">
        <ele>330.06625366211</ele>
        <time>2015-02-24T07:19:49Z</time>
      </trkpt>
      <trkpt lat="45.87508" lon="4.67913">
        <ele>330.35012817383</ele>
        <time>2015-02-24T07:19:51Z</time>
      </trkpt>
      <trkpt lat="45.87506" lon="4.67907">
        <ele>330.7624206543</ele>
        <time>2015-02-24T07:19:53Z</time>
      </trkpt>
      <trkpt lat="45.87501" lon="4.67894">
        <ele>331.50588989258</ele>
        <time>2015-02-24T07:19:57Z</time>
      </trkpt>
      <trkpt lat="45.87498" lon="4.67888">
        <ele>331.90570068359</ele>
        <time>2015-02-24T07:19:59Z</time>
      </trkpt>
      <trkpt lat="45.87496" lon="4.67885">
        <ele>332.14611816406</ele>
        <time>2015-02-24T07:20:00Z</time>
      </trkpt>
      <trkpt lat="45.87491" lon="4.67876">
        <ele>332.74227905273</ele>
        <time>2015-02-24T07:20:03Z</time>
      </trkpt>
      <trkpt lat="45.87488" lon="4.6787">
        <ele>333.17877197266</ele>
        <time>2015-02-24T07:20:05Z</time>
      </trkpt>
      <trkpt lat="45.87483" lon="4.6786">
        <ele>333.79623413086</ele>
        <time>2015-02-24T07:20:08Z</time>
      </trkpt>
      <trkpt lat="45.87478" lon="4.67851">
        <ele>334.38757324219</ele>
        <time>2015-02-24T07:20:11Z</time>
      </trkpt>
      <trkpt lat="45.87476" lon="4.67848">
        <ele>334.61901855469</ele>
        <time>2015-02-24T07:20:12Z</time>
      </trkpt>
      <trkpt lat="45.87472" lon="4.6784">
        <ele>335.2424621582</ele>
        <time>2015-02-24T07:20:15Z</time>
      </trkpt>
      <trkpt lat="45.87471" lon="4.67838">
        <ele>335.37194824219</ele>
        <time>2015-02-24T07:20:16Z</time>
      </trkpt>
      <trkpt lat="45.87464" lon="4.67827">
        <ele>336.34622192383</ele>
        <time>2015-02-24T07:20:20Z</time>
      </trkpt>
      <trkpt lat="45.87457" lon="4.67814">
        <ele>337.86862182617</ele>
        <time>2015-02-24T07:20:25Z</time>
      </trkpt>
      <trkpt lat="45.8745" lon="4.67808">
        <ele>338.42837524414</ele>
        <time>2015-02-24T07:20:29Z</time>
      </trkpt>
      <trkpt lat="45.87444" lon="4.67804">
        <ele>338.75274658203</ele>
        <time>2015-02-24T07:20:31Z</time>
      </trkpt>
      <trkpt lat="45.87437" lon="4.67797">
        <ele>339.35986328125</ele>
        <time>2015-02-24T07:20:34Z</time>
      </trkpt>
      <trkpt lat="45.87424" lon="4.67789">
        <ele>339.90628051758</ele>
        <time>2015-02-24T07:20:39Z</time>
      </trkpt>
      <trkpt lat="45.87421" lon="4.67788">
        <ele>339.90713500977</ele>
        <time>2015-02-24T07:20:40Z</time>
      </trkpt>
      <trkpt lat="45.8741" lon="4.67783">
        <ele>340.38583374023</ele>
        <time>2015-02-24T07:20:44Z</time>
      </trkpt>
      <trkpt lat="45.87403" lon="4.67781">
        <ele>340.72323608398</ele>
        <time>2015-02-24T07:20:46Z</time>
      </trkpt>
      <trkpt lat="45.87395" lon="4.67778">
        <ele>341.12084960938</ele>
        <time>2015-02-24T07:20:49Z</time>
      </trkpt>
      <trkpt lat="45.87378" lon="4.67772">
        <ele>341.84332275391</ele>
        <time>2015-02-24T07:20:55Z</time>
      </trkpt>
      <trkpt lat="45.87361" lon="4.67767">
        <ele>342.37561035156</ele>
        <time>2015-02-24T07:21:01Z</time>
      </trkpt>
      <trkpt lat="45.87352" lon="4.67764">
        <ele>342.63638305664</ele>
        <time>2015-02-24T07:21:04Z</time>
      </trkpt>
      <trkpt lat="45.87346" lon="4.67761">
        <ele>342.87908935547</ele>
        <time>2015-02-24T07:21:06Z</time>
      </trkpt>
      <trkpt lat="45.87332" lon="4.67755">
        <ele>343.34423828125</ele>
        <time>2015-02-24T07:21:11Z</time>
      </trkpt>
      <trkpt lat="45.87318" lon="4.67747">
        <ele>343.35461425781</ele>
        <time>2015-02-24T07:21:16Z</time>
      </trkpt>
      <trkpt lat="45.87303" lon="4.67739">
        <ele>343.22644042969</ele>
        <time>2015-02-24T07:21:21Z</time>
      </trkpt>
      <trkpt lat="45.873" lon="4.67738">
        <ele>343.12573242188</ele>
        <time>2015-02-24T07:21:22Z</time>
      </trkpt>
      <trkpt lat="45.87297" lon="4.67737">
        <ele>343.04791259766</ele>
        <time>2015-02-24T07:21:23Z</time>
      </trkpt>
      <trkpt lat="45.87286" lon="4.67732">
        <ele>342.86480712891</ele>
        <time>2015-02-24T07:21:27Z</time>
      </trkpt>
      <trkpt lat="45.87283" lon="4.67731">
        <ele>342.81903076172</ele>
        <time>2015-02-24T07:21:28Z</time>
      </trkpt>
      <trkpt lat="45.8727" lon="4.67724">
        <ele>342.67712402344</ele>
        <time>2015-02-24T07:21:33Z</time>
      </trkpt>
      <trkpt lat="45.87255" lon="4.67709">
        <ele>343.21728515625</ele>
        <time>2015-02-24T07:21:39Z</time>
      </trkpt>
      <trkpt lat="45.87242" lon="4.6769">
        <ele>344.07550048828</ele>
        <time>2015-02-24T07:21:45Z</time>
      </trkpt>
      <trkpt lat="45.87233" lon="4.67672">
        <ele>344.88461303711</ele>
        <time>2015-02-24T07:21:50Z</time>
      </trkpt>
      <trkpt lat="45.87225" lon="4.67654">
        <ele>345.10015869141</ele>
        <time>2015-02-24T07:21:55Z</time>
      </trkpt>
      <trkpt lat="45.87218" lon="4.67635">
        <ele>345.18325805664</ele>
        <time>2015-02-24T07:22:00Z</time>
      </trkpt>
      <trkpt lat="45.8721" lon="4.67617">
        <ele>345.22204589844</ele>
        <time>2015-02-24T07:22:05Z</time>
      </trkpt>
      <trkpt lat="45.872" lon="4.67594">
        <ele>345.32669067383</ele>
        <time>2015-02-24T07:22:11Z</time>
      </trkpt>
      <trkpt lat="45.87191" lon="4.67576">
        <ele>345.32467651367</ele>
        <time>2015-02-24T07:22:16Z</time>
      </trkpt>
      <trkpt lat="45.8718" lon="4.67554">
        <ele>345.12042236328</ele>
        <time>2015-02-24T07:22:22Z</time>
      </trkpt>
      <trkpt lat="45.87178" lon="4.6755">
        <ele>345.07409667969</ele>
        <time>2015-02-24T07:22:23Z</time>
      </trkpt>
      <trkpt lat="45.87167" lon="4.67528">
        <ele>344.99768066406</ele>
        <time>2015-02-24T07:22:29Z</time>
      </trkpt>
      <trkpt lat="45.87155" lon="4.67506">
        <ele>344.78884887695</ele>
        <time>2015-02-24T07:22:35Z</time>
      </trkpt>
      <trkpt lat="45.87144" lon="4.67485">
        <ele>344.54937744141</ele>
        <time>2015-02-24T07:22:41Z</time>
      </trkpt>
      <trkpt lat="45.87136" lon="4.67472">
        <ele>344.33731079102</ele>
        <time>2015-02-24T07:22:45Z</time>
      </trkpt>
      <trkpt lat="45.87135" lon="4.67469">
        <ele>344.26824951172</ele>
        <time>2015-02-24T07:22:46Z</time>
      </trkpt>
      <trkpt lat="45.87127" lon="4.67454">
        <ele>344.07855224609</ele>
        <time>2015-02-24T07:22:50Z</time>
      </trkpt>
      <trkpt lat="45.87124" lon="4.67447">
        <ele>343.97247314453</ele>
        <time>2015-02-24T07:22:52Z</time>
      </trkpt>
      <trkpt lat="45.87115" lon="4.67428">
        <ele>343.76098632812</ele>
        <time>2015-02-24T07:22:57Z</time>
      </trkpt>
      <trkpt lat="45.87105" lon="4.67405">
        <ele>343.09716796875</ele>
        <time>2015-02-24T07:23:03Z</time>
      </trkpt>
      <trkpt lat="45.87103" lon="4.67401">
        <ele>342.9140625</ele>
        <time>2015-02-24T07:23:04Z</time>
      </trkpt>
      <trkpt lat="45.87103" lon="4.674">
        <ele>342.9140625</ele>
        <time>2015-02-24T07:23:05Z</time>
      </trkpt>
      <trkpt lat="45.87096" lon="4.67386">
        <ele>342.2548828125</ele>
        <time>2015-02-24T07:23:08Z</time>
      </trkpt>
      <trkpt lat="45.87093" lon="4.67379">
        <ele>341.9619140625</ele>
        <time>2015-02-24T07:23:10Z</time>
      </trkpt>
      <trkpt lat="45.8709" lon="4.67372">
        <ele>341.63232421875</ele>
        <time>2015-02-24T07:23:12Z</time>
      </trkpt>
      <trkpt lat="45.87088" lon="4.67368">
        <ele>341.48583984375</ele>
        <time>2015-02-24T07:23:13Z</time>
      </trkpt>
      <trkpt lat="45.87087" lon="4.67365">
        <ele>341.33935546875</ele>
        <time>2015-02-24T07:23:14Z</time>
      </trkpt>
      <trkpt lat="45.87085" lon="4.6736">
        <ele>341.19287109375</ele>
        <time>2015-02-24T07:23:15Z</time>
      </trkpt>
      <trkpt lat="45.87082" lon="4.67353">
        <ele>340.87628173828</ele>
        <time>2015-02-24T07:23:17Z</time>
      </trkpt>
      <trkpt lat="45.87074" lon="4.67334">
        <ele>340.20623779297</ele>
        <time>2015-02-24T07:23:22Z</time>
      </trkpt>
      <trkpt lat="45.87071" lon="4.67327">
        <ele>339.6298828125</ele>
        <time>2015-02-24T07:23:24Z</time>
      </trkpt>
      <trkpt lat="45.87066" lon="4.67315">
        <ele>338.68002319336</ele>
        <time>2015-02-24T07:23:27Z</time>
      </trkpt>
      <trkpt lat="45.87059" lon="4.67296">
        <ele>337.16253662109</ele>
        <time>2015-02-24T07:23:32Z</time>
      </trkpt>
      <trkpt lat="45.87053" lon="4.67281">
        <ele>335.9563293457</ele>
        <time>2015-02-24T07:23:36Z</time>
      </trkpt>
      <trkpt lat="45.87049" lon="4.6727">
        <ele>335.0888671875</ele>
        <time>2015-02-24T07:23:39Z</time>
      </trkpt>
      <trkpt lat="45.87048" lon="4.67266">
        <ele>334.77758789062</ele>
        <time>2015-02-24T07:23:40Z</time>
      </trkpt>
      <trkpt lat="45.87043" lon="4.6725">
        <ele>333.58511352539</ele>
        <time>2015-02-24T07:23:44Z</time>
      </trkpt>
      <trkpt lat="45.87041" lon="4.67246">
        <ele>333.27154541016</ele>
        <time>2015-02-24T07:23:45Z</time>
      </trkpt>
      <trkpt lat="45.8704" lon="4.67236">
        <ele>332.66958618164</ele>
        <time>2015-02-24T07:23:47Z</time>
      </trkpt>
      <trkpt lat="45.87038" lon="4.67228">
        <ele>332.12713623047</ele>
        <time>2015-02-24T07:23:49Z</time>
      </trkpt>
      <trkpt lat="45.87038" lon="4.67223">
        <ele>331.87078857422</ele>
        <time>2015-02-24T07:23:50Z</time>
      </trkpt>
      <trkpt lat="45.87037" lon="4.67219">
        <ele>331.59841918945</ele>
        <time>2015-02-24T07:23:51Z</time>
      </trkpt>
      <trkpt lat="45.87036" lon="4.67215">
        <ele>331.33749389648</ele>
        <time>2015-02-24T07:23:52Z</time>
      </trkpt>
      <trkpt lat="45.87036" lon="4.67209">
        <ele>331.05596923828</ele>
        <time>2015-02-24T07:23:53Z</time>
      </trkpt>
      <trkpt lat="45.87034" lon="4.67191">
        <ele>330.00540161133</ele>
        <time>2015-02-24T07:23:57Z</time>
      </trkpt>
      <trkpt lat="45.87033" lon="4.67187">
        <ele>329.73303222656</ele>
        <time>2015-02-24T07:23:58Z</time>
      </trkpt>
      <trkpt lat="45.87033" lon="4.67182">
        <ele>329.46981811523</ele>
        <time>2015-02-24T07:23:59Z</time>
      </trkpt>
      <trkpt lat="45.87031" lon="4.67173">
        <ele>328.90219116211</ele>
        <time>2015-02-24T07:24:01Z</time>
      </trkpt>
      <trkpt lat="45.8703" lon="4.67168">
        <ele>328.61608886719</ele>
        <time>2015-02-24T07:24:02Z</time>
      </trkpt>
      <trkpt lat="45.87027" lon="4.67154">
        <ele>328.32308959961</ele>
        <time>2015-02-24T07:24:05Z</time>
      </trkpt>
      <trkpt lat="45.87026" lon="4.67149">
        <ele>328.2626953125</ele>
        <time>2015-02-24T07:24:06Z</time>
      </trkpt>
      <trkpt lat="45.87023" lon="4.6714">
        <ele>328.13775634766</ele>
        <time>2015-02-24T07:24:08Z</time>
      </trkpt>
      <trkpt lat="45.8702" lon="4.67132">
        <ele>328.04278564453</ele>
        <time>2015-02-24T07:24:10Z</time>
      </trkpt>
      <trkpt lat="45.87016" lon="4.6712">
        <ele>327.91937255859</ele>
        <time>2015-02-24T07:24:13Z</time>
      </trkpt>
      <trkpt lat="45.87012" lon="4.67113">
        <ele>327.81408691406</ele>
        <time>2015-02-24T07:24:15Z</time>
      </trkpt>
      <trkpt lat="45.87001" lon="4.67098">
        <ele>327.69927978516</ele>
        <time>2015-02-24T07:24:20Z</time>
      </trkpt>
      <trkpt lat="45.8699" lon="4.67085">
        <ele>327.07110595703</ele>
        <time>2015-02-24T07:24:25Z</time>
      </trkpt>
      <trkpt lat="45.86972" lon="4.67073">
        <ele>325.74923706055</ele>
        <time>2015-02-24T07:24:31Z</time>
      </trkpt>
      <trkpt lat="45.86954" lon="4.67064">
        <ele>324.66793823242</ele>
        <time>2015-02-24T07:24:37Z</time>
      </trkpt>
      <trkpt lat="45.86935" lon="4.67057">
        <ele>323.69323730469</ele>
        <time>2015-02-24T07:24:43Z</time>
      </trkpt>
      <trkpt lat="45.86916" lon="4.67054">
        <ele>322.76644897461</ele>
        <time>2015-02-24T07:24:49Z</time>
      </trkpt>
      <trkpt lat="45.86897" lon="4.67056">
        <ele>322.9797668457</ele>
        <time>2015-02-24T07:24:55Z</time>
      </trkpt>
      <trkpt lat="45.86891" lon="4.67057">
        <ele>323.00445556641</ele>
        <time>2015-02-24T07:24:57Z</time>
      </trkpt>
      <trkpt lat="45.86879" lon="4.67058">
        <ele>323.09149169922</ele>
        <time>2015-02-24T07:25:01Z</time>
      </trkpt>
      <trkpt lat="45.86863" lon="4.6706">
        <ele>323.19326782227</ele>
        <time>2015-02-24T07:25:06Z</time>
      </trkpt>
      <trkpt lat="45.86847" lon="4.67062">
        <ele>323.33810424805</ele>
        <time>2015-02-24T07:25:11Z</time>
      </trkpt>
      <trkpt lat="45.86838" lon="4.67061">
        <ele>323.54086303711</ele>
        <time>2015-02-24T07:25:14Z</time>
      </trkpt>
      <trkpt lat="45.86831" lon="4.67059">
        <ele>323.61584472656</ele>
        <time>2015-02-24T07:25:16Z</time>
      </trkpt>
      <trkpt lat="45.86822" lon="4.67056">
        <ele>323.29766845703</ele>
        <time>2015-02-24T07:25:19Z</time>
      </trkpt>
      <trkpt lat="45.86816" lon="4.67053">
        <ele>323.15118408203</ele>
        <time>2015-02-24T07:25:21Z</time>
      </trkpt>
      <trkpt lat="45.86808" lon="4.6704">
        <ele>323.58605957031</ele>
        <time>2015-02-24T07:25:25Z</time>
      </trkpt>
      <trkpt lat="45.86812" lon="4.67028">
        <ele>324.68585205078</ele>
        <time>2015-02-24T07:25:28Z</time>
      </trkpt>
      <trkpt lat="45.86817" lon="4.67023">
        <ele>325.36450195312</ele>
        <time>2015-02-24T07:25:30Z</time>
      </trkpt>
      <trkpt lat="45.8682" lon="4.67021">
        <ele>325.67233276367</ele>
        <time>2015-02-24T07:25:31Z</time>
      </trkpt>
      <trkpt lat="45.86822" lon="4.67018">
        <ele>326.03051757812</ele>
        <time>2015-02-24T07:25:32Z</time>
      </trkpt>
      <trkpt lat="45.86823" lon="4.67009">
        <ele>326.75036621094</ele>
        <time>2015-02-24T07:25:34Z</time>
      </trkpt>
      <trkpt lat="45.8683" lon="4.66995">
        <ele>327.60794067383</ele>
        <time>2015-02-24T07:25:38Z</time>
      </trkpt>
      <trkpt lat="45.86833" lon="4.66993">
        <ele>327.74081420898</ele>
        <time>2015-02-24T07:25:39Z</time>
      </trkpt>
      <trkpt lat="45.86839" lon="4.66987">
        <ele>327.45529174805</ele>
        <time>2015-02-24T07:25:41Z</time>
      </trkpt>
      <trkpt lat="45.86843" lon="4.66974">
        <ele>326.9619140625</ele>
        <time>2015-02-24T07:25:44Z</time>
      </trkpt>
      <trkpt lat="45.86848" lon="4.66954">
        <ele>326.3928527832</ele>
        <time>2015-02-24T07:25:49Z</time>
      </trkpt>
      <trkpt lat="45.8684" lon="4.6695">
        <ele>326.22573852539</ele>
        <time>2015-02-24T07:25:52Z</time>
      </trkpt>
      <trkpt lat="45.86837" lon="4.6695">
        <ele>326.21881103516</ele>
        <time>2015-02-24T07:25:53Z</time>
      </trkpt>
      <trkpt lat="45.86834" lon="4.6695">
        <ele>326.22125244141</ele>
        <time>2015-02-24T07:25:54Z</time>
      </trkpt>
      <trkpt lat="45.86823" lon="4.66958">
        <ele>325.69079589844</ele>
        <time>2015-02-24T07:25:58Z</time>
      </trkpt>
      <trkpt lat="45.86816" lon="4.6696">
        <ele>325.36111450195</ele>
        <time>2015-02-24T07:26:00Z</time>
      </trkpt>
      <trkpt lat="45.8681" lon="4.66965">
        <ele>325.08535766602</ele>
        <time>2015-02-24T07:26:03Z</time>
      </trkpt>
      <trkpt lat="45.86806" lon="4.66967">
        <ele>324.92636108398</ele>
        <time>2015-02-24T07:26:05Z</time>
      </trkpt>
      <trkpt lat="45.86804" lon="4.66968">
        <ele>324.78646850586</ele>
        <time>2015-02-24T07:26:06Z</time>
      </trkpt>
      <trkpt lat="45.86799" lon="4.66969">
        <ele>324.55648803711</ele>
        <time>2015-02-24T07:26:08Z</time>
      </trkpt>
      <trkpt lat="45.86797" lon="4.6697">
        <ele>324.41500854492</ele>
        <time>2015-02-24T07:26:09Z</time>
      </trkpt>
      <trkpt lat="45.86782" lon="4.66974">
        <ele>323.60171508789</ele>
        <time>2015-02-24T07:26:14Z</time>
      </trkpt>
      <trkpt lat="45.86774" lon="4.66988">
        <ele>323.82818603516</ele>
        <time>2015-02-24T07:26:18Z</time>
      </trkpt>
      <trkpt lat="45.86777" lon="4.67005">
        <ele>324.26812744141</ele>
        <time>2015-02-24T07:26:22Z</time>
      </trkpt>
      <trkpt lat="45.86782" lon="4.67017">
        <ele>323.70965576172</ele>
        <time>2015-02-24T07:26:25Z</time>
      </trkpt>
      <trkpt lat="45.86784" lon="4.67019">
        <ele>323.61468505859</ele>
        <time>2015-02-24T07:26:26Z</time>
      </trkpt>
      <trkpt lat="45.8679" lon="4.67026">
        <ele>323.56091308594</ele>
        <time>2015-02-24T07:26:29Z</time>
      </trkpt>
      <trkpt lat="45.86795" lon="4.67031">
        <ele>323.49795532227</ele>
        <time>2015-02-24T07:26:31Z</time>
      </trkpt>
      <trkpt lat="45.86798" lon="4.67034">
        <ele>323.40753173828</ele>
        <time>2015-02-24T07:26:32Z</time>
      </trkpt>
      <trkpt lat="45.86802" lon="4.67047">
        <ele>322.75524902344</ele>
        <time>2015-02-24T07:26:35Z</time>
      </trkpt>
      <trkpt lat="45.86802" lon="4.67052">
        <ele>322.41192626953</ele>
        <time>2015-02-24T07:26:36Z</time>
      </trkpt>
      <trkpt lat="45.86803" lon="4.6707">
        <ele>321.13589477539</ele>
        <time>2015-02-24T07:26:40Z</time>
      </trkpt>
      <trkpt lat="45.86803" lon="4.67075">
        <ele>320.81201171875</ele>
        <time>2015-02-24T07:26:41Z</time>
      </trkpt>
      <trkpt lat="45.86804" lon="4.67079">
        <ele>320.50531005859</ele>
        <time>2015-02-24T07:26:42Z</time>
      </trkpt>
      <trkpt lat="45.86806" lon="4.67088">
        <ele>319.63983154297</ele>
        <time>2015-02-24T07:26:44Z</time>
      </trkpt>
      <trkpt lat="45.86808" lon="4.67097">
        <ele>318.43450927734</ele>
        <time>2015-02-24T07:26:46Z</time>
      </trkpt>
      <trkpt lat="45.8681" lon="4.67107">
        <ele>317.19692993164</ele>
        <time>2015-02-24T07:26:48Z</time>
      </trkpt>
      <trkpt lat="45.86811" lon="4.6711">
        <ele>316.8108215332</ele>
        <time>2015-02-24T07:26:49Z</time>
      </trkpt>
      <trkpt lat="45.86814" lon="4.67118">
        <ele>315.96640014648</ele>
        <time>2015-02-24T07:26:51Z</time>
      </trkpt>
      <trkpt lat="45.86816" lon="4.67121">
        <ele>315.66390991211</ele>
        <time>2015-02-24T07:26:52Z</time>
      </trkpt>
      <trkpt lat="45.86829" lon="4.67142">
        <ele>313.83270263672</ele>
        <time>2015-02-24T07:26:58Z</time>
      </trkpt>
      <trkpt lat="45.86831" lon="4.67146">
        <ele>313.53189086914</ele>
        <time>2015-02-24T07:26:59Z</time>
      </trkpt>
      <trkpt lat="45.86839" lon="4.67159">
        <ele>312.39700317383</ele>
        <time>2015-02-24T07:27:03Z</time>
      </trkpt>
      <trkpt lat="45.86842" lon="4.67162">
        <ele>312.11944580078</ele>
        <time>2015-02-24T07:27:04Z</time>
      </trkpt>
      <trkpt lat="45.86847" lon="4.67172">
        <ele>311.91696166992</ele>
        <time>2015-02-24T07:27:07Z</time>
      </trkpt>
      <trkpt lat="45.86852" lon="4.67178">
        <ele>312.12796020508</ele>
        <time>2015-02-24T07:27:09Z</time>
      </trkpt>
      <trkpt lat="45.86855" lon="4.67184">
        <ele>312.32485961914</ele>
        <time>2015-02-24T07:27:11Z</time>
      </trkpt>
      <trkpt lat="45.86859" lon="4.67191">
        <ele>312.55099487305</ele>
        <time>2015-02-24T07:27:13Z</time>
      </trkpt>
      <trkpt lat="45.86867" lon="4.67203">
        <ele>313.09558105469</ele>
        <time>2015-02-24T07:27:17Z</time>
      </trkpt>
      <trkpt lat="45.8687" lon="4.67209">
        <ele>313.30853271484</ele>
        <time>2015-02-24T07:27:19Z</time>
      </trkpt>
      <trkpt lat="45.86874" lon="4.67222">
        <ele>313.60873413086</ele>
        <time>2015-02-24T07:27:22Z</time>
      </trkpt>
      <trkpt lat="45.86874" lon="4.67227">
        <ele>313.57556152344</ele>
        <time>2015-02-24T07:27:23Z</time>
      </trkpt>
      <trkpt lat="45.86873" lon="4.67231">
        <ele>313.43606567383</ele>
        <time>2015-02-24T07:27:24Z</time>
      </trkpt>
      <trkpt lat="45.86868" lon="4.67236">
        <ele>312.82397460938</ele>
        <time>2015-02-24T07:27:26Z</time>
      </trkpt>
      <trkpt lat="45.86864" lon="4.67237">
        <ele>312.46307373047</ele>
        <time>2015-02-24T07:27:27Z</time>
      </trkpt>
      <trkpt lat="45.86854" lon="4.67242">
        <ele>311.36904907227</ele>
        <time>2015-02-24T07:27:30Z</time>
      </trkpt>
      <trkpt lat="45.86851" lon="4.67244">
        <ele>311.02655029297</ele>
        <time>2015-02-24T07:27:31Z</time>
      </trkpt>
      <trkpt lat="45.86848" lon="4.67245">
        <ele>310.64413452148</ele>
        <time>2015-02-24T07:27:32Z</time>
      </trkpt>
      <trkpt lat="45.86835" lon="4.67248">
        <ele>309.19931030273</ele>
        <time>2015-02-24T07:27:36Z</time>
      </trkpt>
      <trkpt lat="45.86832" lon="4.67248">
        <ele>308.91656494141</ele>
        <time>2015-02-24T07:27:37Z</time>
      </trkpt>
      <trkpt lat="45.86822" lon="4.67249">
        <ele>308.21078491211</ele>
        <time>2015-02-24T07:27:40Z</time>
      </trkpt>
      <trkpt lat="45.86819" lon="4.67249">
        <ele>307.96371459961</ele>
        <time>2015-02-24T07:27:41Z</time>
      </trkpt>
      <trkpt lat="45.86812" lon="4.67248">
        <ele>307.50622558594</ele>
        <time>2015-02-24T07:27:43Z</time>
      </trkpt>
      <trkpt lat="45.86799" lon="4.67248">
        <ele>306.57553100586</ele>
        <time>2015-02-24T07:27:47Z</time>
      </trkpt>
      <trkpt lat="45.86793" lon="4.67247">
        <ele>306.14477539062</ele>
        <time>2015-02-24T07:27:49Z</time>
      </trkpt>
      <trkpt lat="45.86786" lon="4.67246">
        <ele>305.64916992188</ele>
        <time>2015-02-24T07:27:51Z</time>
      </trkpt>
      <trkpt lat="45.86777" lon="4.67244">
        <ele>305.02456665039</ele>
        <time>2015-02-24T07:27:54Z</time>
      </trkpt>
      <trkpt lat="45.86765" lon="4.67242">
        <ele>304.07815551758</ele>
        <time>2015-02-24T07:27:58Z</time>
      </trkpt>
      <trkpt lat="45.86761" lon="4.67242">
        <ele>303.85275268555</ele>
        <time>2015-02-24T07:27:59Z</time>
      </trkpt>
      <trkpt lat="45.86752" lon="4.6724">
        <ele>303.11639404297</ele>
        <time>2015-02-24T07:28:02Z</time>
      </trkpt>
      <trkpt lat="45.86739" lon="4.67239">
        <ele>302.11450195312</ele>
        <time>2015-02-24T07:28:06Z</time>
      </trkpt>
      <trkpt lat="45.86736" lon="4.67238">
        <ele>301.83697509766</ele>
        <time>2015-02-24T07:28:07Z</time>
      </trkpt>
      <trkpt lat="45.86726" lon="4.67238">
        <ele>301.08950805664</ele>
        <time>2015-02-24T07:28:10Z</time>
      </trkpt>
      <trkpt lat="45.86723" lon="4.67237">
        <ele>300.79415893555</ele>
        <time>2015-02-24T07:28:11Z</time>
      </trkpt>
      <trkpt lat="45.8672" lon="4.67236">
        <ele>300.5246887207</ele>
        <time>2015-02-24T07:28:12Z</time>
      </trkpt>
      <trkpt lat="45.86707" lon="4.67232">
        <ele>299.38262939453</ele>
        <time>2015-02-24T07:28:16Z</time>
      </trkpt>
      <trkpt lat="45.86704" lon="4.67231">
        <ele>299.07852172852</ele>
        <time>2015-02-24T07:28:17Z</time>
      </trkpt>
      <trkpt lat="45.86695" lon="4.67226">
        <ele>298.11651611328</ele>
        <time>2015-02-24T07:28:20Z</time>
      </trkpt>
      <trkpt lat="45.86686" lon="4.67223">
        <ele>297.17868041992</ele>
        <time>2015-02-24T07:28:23Z</time>
      </trkpt>
      <trkpt lat="45.86679" lon="4.67223">
        <ele>296.51605224609</ele>
        <time>2015-02-24T07:28:25Z</time>
      </trkpt>
      <trkpt lat="45.8667" lon="4.67225">
        <ele>295.79876708984</ele>
        <time>2015-02-24T07:28:28Z</time>
      </trkpt>
      <trkpt lat="45.86667" lon="4.67225">
        <ele>295.52850341797</ele>
        <time>2015-02-24T07:28:29Z</time>
      </trkpt>
      <trkpt lat="45.86655" lon="4.67228">
        <ele>295.44674682617</ele>
        <time>2015-02-24T07:28:33Z</time>
      </trkpt>
      <trkpt lat="45.86652" lon="4.67228">
        <ele>295.42520141602</ele>
        <time>2015-02-24T07:28:34Z</time>
      </trkpt>
      <trkpt lat="45.86637" lon="4.67231">
        <ele>295.33630371094</ele>
        <time>2015-02-24T07:28:39Z</time>
      </trkpt>
      <trkpt lat="45.86621" lon="4.67234">
        <ele>295.29580688477</ele>
        <time>2015-02-24T07:28:44Z</time>
      </trkpt>
      <trkpt lat="45.86607" lon="4.6724">
        <ele>295.53588867188</ele>
        <time>2015-02-24T07:28:49Z</time>
      </trkpt>
      <trkpt lat="45.86595" lon="4.67252">
        <ele>296.2412109375</ele>
        <time>2015-02-24T07:28:54Z</time>
      </trkpt>
      <trkpt lat="45.86584" lon="4.67268">
        <ele>296.66482543945</ele>
        <time>2015-02-24T07:28:59Z</time>
      </trkpt>
      <trkpt lat="45.86582" lon="4.67271">
        <ele>296.71658325195</ele>
        <time>2015-02-24T07:29:00Z</time>
      </trkpt>
      <trkpt lat="45.8658" lon="4.67274">
        <ele>296.75918579102</ele>
        <time>2015-02-24T07:29:01Z</time>
      </trkpt>
      <trkpt lat="45.86575" lon="4.6728">
        <ele>296.810546875</ele>
        <time>2015-02-24T07:29:03Z</time>
      </trkpt>
      <trkpt lat="45.86566" lon="4.67291">
        <ele>296.84698486328</ele>
        <time>2015-02-24T07:29:07Z</time>
      </trkpt>
      <trkpt lat="45.86563" lon="4.67293">
        <ele>296.83837890625</ele>
        <time>2015-02-24T07:29:08Z</time>
      </trkpt>
      <trkpt lat="45.86553" lon="4.67303">
        <ele>296.7131652832</ele>
        <time>2015-02-24T07:29:12Z</time>
      </trkpt>
      <trkpt lat="45.8655" lon="4.67305">
        <ele>296.66244506836</ele>
        <time>2015-02-24T07:29:13Z</time>
      </trkpt>
      <trkpt lat="45.86537" lon="4.67315">
        <ele>296.35607910156</ele>
        <time>2015-02-24T07:29:18Z</time>
      </trkpt>
      <trkpt lat="45.86524" lon="4.67329">
        <ele>296.07266235352</ele>
        <time>2015-02-24T07:29:23Z</time>
      </trkpt>
      <trkpt lat="45.86515" lon="4.67341">
        <ele>295.71304321289</ele>
        <time>2015-02-24T07:29:27Z</time>
      </trkpt>
      <trkpt lat="45.86511" lon="4.67347">
        <ele>295.46209716797</ele>
        <time>2015-02-24T07:29:29Z</time>
      </trkpt>
      <trkpt lat="45.86503" lon="4.67361">
        <ele>294.86389160156</ele>
        <time>2015-02-24T07:29:33Z</time>
      </trkpt>
      <trkpt lat="45.86492" lon="4.67377">
        <ele>293.95547485352</ele>
        <time>2015-02-24T07:29:38Z</time>
      </trkpt>
      <trkpt lat="45.8649" lon="4.67381">
        <ele>293.77056884766</ele>
        <time>2015-02-24T07:29:39Z</time>
      </trkpt>
      <trkpt lat="45.86481" lon="4.67393">
        <ele>293.08639526367</ele>
        <time>2015-02-24T07:29:43Z</time>
      </trkpt>
      <trkpt lat="45.86479" lon="4.67396">
        <ele>292.94009399414</ele>
        <time>2015-02-24T07:29:44Z</time>
      </trkpt>
      <trkpt lat="45.86477" lon="4.67399">
        <ele>292.7438659668</ele>
        <time>2015-02-24T07:29:45Z</time>
      </trkpt>
      <trkpt lat="45.86469" lon="4.67406">
        <ele>292.18865966797</ele>
        <time>2015-02-24T07:29:48Z</time>
      </trkpt>
      <trkpt lat="45.8646" lon="4.67411">
        <ele>291.64050292969</ele>
        <time>2015-02-24T07:29:51Z</time>
      </trkpt>
      <trkpt lat="45.86457" lon="4.67413">
        <ele>291.46926879883</ele>
        <time>2015-02-24T07:29:52Z</time>
      </trkpt>
      <trkpt lat="45.86446" lon="4.67419">
        <ele>290.72537231445</ele>
        <time>2015-02-24T07:29:56Z</time>
      </trkpt>
      <trkpt lat="45.86443" lon="4.67421">
        <ele>290.50045776367</ele>
        <time>2015-02-24T07:29:57Z</time>
      </trkpt>
      <trkpt lat="45.8643" lon="4.67429">
        <ele>289.38705444336</ele>
        <time>2015-02-24T07:30:02Z</time>
      </trkpt>
      <trkpt lat="45.86424" lon="4.67433">
        <ele>288.9091796875</ele>
        <time>2015-02-24T07:30:04Z</time>
      </trkpt>
      <trkpt lat="45.86415" lon="4.67439">
        <ele>288.00778198242</ele>
        <time>2015-02-24T07:30:07Z</time>
      </trkpt>
      <trkpt lat="45.86412" lon="4.6744">
        <ele>287.63903808594</ele>
        <time>2015-02-24T07:30:08Z</time>
      </trkpt>
      <trkpt lat="45.86403" lon="4.67444">
        <ele>286.61291503906</ele>
        <time>2015-02-24T07:30:11Z</time>
      </trkpt>
      <trkpt lat="45.86398" lon="4.67447">
        <ele>285.93051147461</ele>
        <time>2015-02-24T07:30:13Z</time>
      </trkpt>
      <trkpt lat="45.86395" lon="4.67448">
        <ele>285.61926269531</ele>
        <time>2015-02-24T07:30:14Z</time>
      </trkpt>
      <trkpt lat="45.86392" lon="4.67449">
        <ele>285.26940917969</ele>
        <time>2015-02-24T07:30:15Z</time>
      </trkpt>
      <trkpt lat="45.86374" lon="4.67456">
        <ele>283.22158813477</ele>
        <time>2015-02-24T07:30:21Z</time>
      </trkpt>
      <trkpt lat="45.86362" lon="4.67459">
        <ele>281.87646484375</ele>
        <time>2015-02-24T07:30:25Z</time>
      </trkpt>
      <trkpt lat="45.86356" lon="4.67461">
        <ele>281.21032714844</ele>
        <time>2015-02-24T07:30:27Z</time>
      </trkpt>
      <trkpt lat="45.8635" lon="4.67462">
        <ele>280.58319091797</ele>
        <time>2015-02-24T07:30:29Z</time>
      </trkpt>
      <trkpt lat="45.86341" lon="4.67466">
        <ele>279.59619140625</ele>
        <time>2015-02-24T07:30:32Z</time>
      </trkpt>
      <trkpt lat="45.86335" lon="4.6747">
        <ele>278.88919067383</ele>
        <time>2015-02-24T07:30:34Z</time>
      </trkpt>
      <trkpt lat="45.86324" lon="4.67476">
        <ele>277.89575195312</ele>
        <time>2015-02-24T07:30:38Z</time>
      </trkpt>
      <trkpt lat="45.86321" lon="4.67478">
        <ele>277.63714599609</ele>
        <time>2015-02-24T07:30:39Z</time>
      </trkpt>
      <trkpt lat="45.86309" lon="4.67484">
        <ele>276.6689453125</ele>
        <time>2015-02-24T07:30:43Z</time>
      </trkpt>
      <trkpt lat="45.86307" lon="4.67485">
        <ele>276.43664550781</ele>
        <time>2015-02-24T07:30:44Z</time>
      </trkpt>
      <trkpt lat="45.86295" lon="4.67494">
        <ele>275.38836669922</ele>
        <time>2015-02-24T07:30:48Z</time>
      </trkpt>
      <trkpt lat="45.86292" lon="4.67496">
        <ele>275.14346313477</ele>
        <time>2015-02-24T07:30:49Z</time>
      </trkpt>
      <trkpt lat="45.8628" lon="4.67505">
        <ele>274.03796386719</ele>
        <time>2015-02-24T07:30:53Z</time>
      </trkpt>
      <trkpt lat="45.86275" lon="4.6751">
        <ele>273.53900146484</ele>
        <time>2015-02-24T07:30:55Z</time>
      </trkpt>
      <trkpt lat="45.86272" lon="4.67512">
        <ele>273.29867553711</ele>
        <time>2015-02-24T07:30:56Z</time>
      </trkpt>
      <trkpt lat="45.86261" lon="4.67521">
        <ele>272.31219482422</ele>
        <time>2015-02-24T07:31:00Z</time>
      </trkpt>
      <trkpt lat="45.86256" lon="4.67525">
        <ele>271.79949951172</ele>
        <time>2015-02-24T07:31:02Z</time>
      </trkpt>
      <trkpt lat="45.86247" lon="4.67533">
        <ele>271.09844970703</ele>
        <time>2015-02-24T07:31:05Z</time>
      </trkpt>
      <trkpt lat="45.86244" lon="4.67535">
        <ele>270.94506835938</ele>
        <time>2015-02-24T07:31:06Z</time>
      </trkpt>
      <trkpt lat="45.86241" lon="4.67537">
        <ele>270.78717041016</ele>
        <time>2015-02-24T07:31:07Z</time>
      </trkpt>
      <trkpt lat="45.8623" lon="4.67544">
        <ele>270.20236206055</ele>
        <time>2015-02-24T07:31:11Z</time>
      </trkpt>
      <trkpt lat="45.86224" lon="4.67549">
        <ele>269.88192749023</ele>
        <time>2015-02-24T07:31:13Z</time>
      </trkpt>
      <trkpt lat="45.86218" lon="4.67553">
        <ele>269.57751464844</ele>
        <time>2015-02-24T07:31:15Z</time>
      </trkpt>
      <trkpt lat="45.86218" lon="4.67553">
        <ele>269.57751464844</ele>
        <time>2015-02-24T07:31:15Z</time>
      </trkpt>
      <trkpt lat="45.86209" lon="4.6756">
        <ele>269.07971191406</ele>
        <time>2015-02-24T07:31:18Z</time>
      </trkpt>
      <trkpt lat="45.86201" lon="4.67567">
        <ele>268.6162109375</ele>
        <time>2015-02-24T07:31:21Z</time>
      </trkpt>
      <trkpt lat="45.86193" lon="4.67574">
        <ele>268.15960693359</ele>
        <time>2015-02-24T07:31:24Z</time>
      </trkpt>
      <trkpt lat="45.86184" lon="4.67581">
        <ele>267.67663574219</ele>
        <time>2015-02-24T07:31:27Z</time>
      </trkpt>
      <trkpt lat="45.86175" lon="4.67588">
        <ele>267.05120849609</ele>
        <time>2015-02-24T07:31:30Z</time>
      </trkpt>
      <trkpt lat="45.86167" lon="4.67594">
        <ele>266.46856689453</ele>
        <time>2015-02-24T07:31:33Z</time>
      </trkpt>
      <trkpt lat="45.86155" lon="4.67603">
        <ele>265.19119262695</ele>
        <time>2015-02-24T07:31:37Z</time>
      </trkpt>
      <trkpt lat="45.86147" lon="4.67611">
        <ele>264.3205871582</ele>
        <time>2015-02-24T07:31:40Z</time>
      </trkpt>
      <trkpt lat="45.86143" lon="4.67613">
        <ele>264.03930664062</ele>
        <time>2015-02-24T07:31:41Z</time>
      </trkpt>
      <trkpt lat="45.8613" lon="4.67623">
        <ele>262.84051513672</ele>
        <time>2015-02-24T07:31:46Z</time>
      </trkpt>
      <trkpt lat="45.86118" lon="4.67633">
        <ele>261.94625854492</ele>
        <time>2015-02-24T07:31:50Z</time>
      </trkpt>
      <trkpt lat="45.86116" lon="4.67636">
        <ele>261.75787353516</ele>
        <time>2015-02-24T07:31:51Z</time>
      </trkpt>
      <trkpt lat="45.86109" lon="4.67652">
        <ele>261.13473510742</ele>
        <time>2015-02-24T07:31:55Z</time>
      </trkpt>
      <trkpt lat="45.861" lon="4.67676">
        <ele>260.41787719727</ele>
        <time>2015-02-24T07:32:01Z</time>
      </trkpt>
      <trkpt lat="45.86095" lon="4.67693">
        <ele>259.95910644531</ele>
        <time>2015-02-24T07:32:05Z</time>
      </trkpt>
      <trkpt lat="45.86093" lon="4.67698">
        <ele>259.84735107422</ele>
        <time>2015-02-24T07:32:06Z</time>
      </trkpt>
      <trkpt lat="45.86086" lon="4.67722">
        <ele>259.36087036133</ele>
        <time>2015-02-24T07:32:12Z</time>
      </trkpt>
      <trkpt lat="45.86084" lon="4.6773">
        <ele>259.24639892578</ele>
        <time>2015-02-24T07:32:14Z</time>
      </trkpt>
      <trkpt lat="45.86078" lon="4.6775">
        <ele>258.86932373047</ele>
        <time>2015-02-24T07:32:19Z</time>
      </trkpt>
      <trkpt lat="45.86077" lon="4.67755">
        <ele>258.84609985352</ele>
        <time>2015-02-24T07:32:20Z</time>
      </trkpt>
      <trkpt lat="45.86073" lon="4.67767">
        <ele>258.78369140625</ele>
        <time>2015-02-24T07:32:23Z</time>
      </trkpt>
      <trkpt lat="45.86072" lon="4.6777">
        <ele>258.76452636719</ele>
        <time>2015-02-24T07:32:24Z</time>
      </trkpt>
      <trkpt lat="45.8607" lon="4.67779">
        <ele>258.73361206055</ele>
        <time>2015-02-24T07:32:26Z</time>
      </trkpt>
      <trkpt lat="45.86068" lon="4.67787">
        <ele>258.7131652832</ele>
        <time>2015-02-24T07:32:28Z</time>
      </trkpt>
      <trkpt lat="45.86063" lon="4.67803">
        <ele>258.67376708984</ele>
        <time>2015-02-24T07:32:32Z</time>
      </trkpt>
      <trkpt lat="45.86061" lon="4.67812">
        <ele>258.658203125</ele>
        <time>2015-02-24T07:32:34Z</time>
      </trkpt>
      <trkpt lat="45.86055" lon="4.67831">
        <ele>258.64761352539</ele>
        <time>2015-02-24T07:32:39Z</time>
      </trkpt>
      <trkpt lat="45.86048" lon="4.67852">
        <ele>257.7018737793</ele>
        <time>2015-02-24T07:32:44Z</time>
      </trkpt>
      <trkpt lat="45.86042" lon="4.67868">
        <ele>257.04769897461</ele>
        <time>2015-02-24T07:32:48Z</time>
      </trkpt>
      <trkpt lat="45.86034" lon="4.67885">
        <ele>256.51531982422</ele>
        <time>2015-02-24T07:32:53Z</time>
      </trkpt>
      <trkpt lat="45.86022" lon="4.67909">
        <ele>256.17623901367</ele>
        <time>2015-02-24T07:33:00Z</time>
      </trkpt>
      <trkpt lat="45.86016" lon="4.67928">
        <ele>255.0686340332</ele>
        <time>2015-02-24T07:33:05Z</time>
      </trkpt>
      <trkpt lat="45.86013" lon="4.67941">
        <ele>254.02009582519</ele>
        <time>2015-02-24T07:33:08Z</time>
      </trkpt>
      <trkpt lat="45.86011" lon="4.67954">
        <ele>252.8829498291</ele>
        <time>2015-02-24T07:33:11Z</time>
      </trkpt>
      <trkpt lat="45.86008" lon="4.67962">
        <ele>252.14738464356</ele>
        <time>2015-02-24T07:33:13Z</time>
      </trkpt>
      <trkpt lat="45.86005" lon="4.67974">
        <ele>251.25395202637</ele>
        <time>2015-02-24T07:33:16Z</time>
      </trkpt>
      <trkpt lat="45.86003" lon="4.67978">
        <ele>250.98101806641</ele>
        <time>2015-02-24T07:33:17Z</time>
      </trkpt>
      <trkpt lat="45.85997" lon="4.67991">
        <ele>249.54829406738</ele>
        <time>2015-02-24T07:33:21Z</time>
      </trkpt>
      <trkpt lat="45.85995" lon="4.67994">
        <ele>249.04277038574</ele>
        <time>2015-02-24T07:33:22Z</time>
      </trkpt>
      <trkpt lat="45.85991" lon="4.68001">
        <ele>248.14762878418</ele>
        <time>2015-02-24T07:33:24Z</time>
      </trkpt>
      <trkpt lat="45.8599" lon="4.68005">
        <ele>247.70939636231</ele>
        <time>2015-02-24T07:33:25Z</time>
      </trkpt>
      <trkpt lat="45.85989" lon="4.68009">
        <ele>247.28166198731</ele>
        <time>2015-02-24T07:33:26Z</time>
      </trkpt>
      <trkpt lat="45.85987" lon="4.68013">
        <ele>246.86492919922</ele>
        <time>2015-02-24T07:33:27Z</time>
      </trkpt>
      <trkpt lat="45.85986" lon="4.6802">
        <ele>246.1600189209</ele>
        <time>2015-02-24T07:33:29Z</time>
      </trkpt>
      <trkpt lat="45.85986" lon="4.68024">
        <ele>245.73667907715</ele>
        <time>2015-02-24T07:33:30Z</time>
      </trkpt>
      <trkpt lat="45.85984" lon="4.68032">
        <ele>244.93751525879</ele>
        <time>2015-02-24T07:33:32Z</time>
      </trkpt>
      <trkpt lat="45.85984" lon="4.68036">
        <ele>244.52403259277</ele>
        <time>2015-02-24T07:33:33Z</time>
      </trkpt>
      <trkpt lat="45.85982" lon="4.68048">
        <ele>243.29647827148</ele>
        <time>2015-02-24T07:33:36Z</time>
      </trkpt>
      <trkpt lat="45.85981" lon="4.68052">
        <ele>242.87968444824</ele>
        <time>2015-02-24T07:33:37Z</time>
      </trkpt>
      <trkpt lat="45.85981" lon="4.68056">
        <ele>242.51985168457</ele>
        <time>2015-02-24T07:33:38Z</time>
      </trkpt>
      <trkpt lat="45.85981" lon="4.68069">
        <ele>241.40040588379</ele>
        <time>2015-02-24T07:33:41Z</time>
      </trkpt>
      <trkpt lat="45.85981" lon="4.68073">
        <ele>241.02792358398</ele>
        <time>2015-02-24T07:33:42Z</time>
      </trkpt>
      <trkpt lat="45.85981" lon="4.68086">
        <ele>239.85766601562</ele>
        <time>2015-02-24T07:33:45Z</time>
      </trkpt>
      <trkpt lat="45.85981" lon="4.68094">
        <ele>238.70832824707</ele>
        <time>2015-02-24T07:33:47Z</time>
      </trkpt>
      <trkpt lat="45.85981" lon="4.68098">
        <ele>238.07421875</ele>
        <time>2015-02-24T07:33:48Z</time>
      </trkpt>
      <trkpt lat="45.8598" lon="4.68107">
        <ele>236.80297851562</ele>
        <time>2015-02-24T07:33:50Z</time>
      </trkpt>
      <trkpt lat="45.85979" lon="4.68115">
        <ele>235.72203063965</ele>
        <time>2015-02-24T07:33:52Z</time>
      </trkpt>
      <trkpt lat="45.85979" lon="4.6812">
        <ele>235.01091003418</ele>
        <time>2015-02-24T07:33:53Z</time>
      </trkpt>
      <trkpt lat="45.85979" lon="4.68123">
        <ele>234.49732971191</ele>
        <time>2015-02-24T07:33:54Z</time>
      </trkpt>
      <trkpt lat="45.8598" lon="4.68137">
        <ele>232.72839355469</ele>
        <time>2015-02-24T07:33:57Z</time>
      </trkpt>
      <trkpt lat="45.85983" lon="4.6815">
        <ele>231.02449035644</ele>
        <time>2015-02-24T07:34:00Z</time>
      </trkpt>
      <trkpt lat="45.85983" lon="4.68154">
        <ele>230.49235534668</ele>
        <time>2015-02-24T07:34:01Z</time>
      </trkpt>
      <trkpt lat="45.85984" lon="4.68168">
        <ele>228.78625488281</ele>
        <time>2015-02-24T07:34:04Z</time>
      </trkpt>
      <trkpt lat="45.85985" lon="4.68182">
        <ele>227.25546264648</ele>
        <time>2015-02-24T07:34:07Z</time>
      </trkpt>
      <trkpt lat="45.85985" lon="4.68195">
        <ele>225.92677307129</ele>
        <time>2015-02-24T07:34:10Z</time>
      </trkpt>
      <trkpt lat="45.85985" lon="4.68199">
        <ele>225.4972076416</ele>
        <time>2015-02-24T07:34:11Z</time>
      </trkpt>
      <trkpt lat="45.85983" lon="4.68207">
        <ele>224.51252746582</ele>
        <time>2015-02-24T07:34:13Z</time>
      </trkpt>
      <trkpt lat="45.85981" lon="4.6821">
        <ele>223.98457336426</ele>
        <time>2015-02-24T07:34:14Z</time>
      </trkpt>
      <trkpt lat="45.85978" lon="4.68213">
        <ele>223.41886901856</ele>
        <time>2015-02-24T07:34:15Z</time>
      </trkpt>
      <trkpt lat="45.85972" lon="4.68216">
        <ele>222.49014282227</ele>
        <time>2015-02-24T07:34:17Z</time>
      </trkpt>
      <trkpt lat="45.85961" lon="4.68215">
        <ele>221.43186950684</ele>
        <time>2015-02-24T07:34:20Z</time>
      </trkpt>
      <trkpt lat="45.85948" lon="4.68212">
        <ele>220.56452941894</ele>
        <time>2015-02-24T07:34:24Z</time>
      </trkpt>
      <trkpt lat="45.85941" lon="4.68209">
        <ele>220.26457214356</ele>
        <time>2015-02-24T07:34:26Z</time>
      </trkpt>
      <trkpt lat="45.85934" lon="4.68205">
        <ele>220.12432861328</ele>
        <time>2015-02-24T07:34:28Z</time>
      </trkpt>
      <trkpt lat="45.85925" lon="4.68201">
        <ele>219.85189819336</ele>
        <time>2015-02-24T07:34:31Z</time>
      </trkpt>
      <trkpt lat="45.8592" lon="4.68198">
        <ele>219.73454284668</ele>
        <time>2015-02-24T07:34:33Z</time>
      </trkpt>
      <trkpt lat="45.85914" lon="4.68196">
        <ele>219.38265991211</ele>
        <time>2015-02-24T07:34:35Z</time>
      </trkpt>
      <trkpt lat="45.85903" lon="4.68188">
        <ele>218.89105224609</ele>
        <time>2015-02-24T07:34:39Z</time>
      </trkpt>
      <trkpt lat="45.85897" lon="4.68183">
        <ele>218.59429931641</ele>
        <time>2015-02-24T07:34:41Z</time>
      </trkpt>
      <trkpt lat="45.85882" lon="4.68169">
        <ele>217.81604003906</ele>
        <time>2015-02-24T07:34:47Z</time>
      </trkpt>
      <trkpt lat="45.85868" lon="4.68152">
        <ele>217.08346557617</ele>
        <time>2015-02-24T07:34:53Z</time>
      </trkpt>
      <trkpt lat="45.85855" lon="4.68134">
        <ele>216.36985778809</ele>
        <time>2015-02-24T07:34:59Z</time>
      </trkpt>
      <trkpt lat="45.85847" lon="4.68127">
        <ele>215.59178161621</ele>
        <time>2015-02-24T07:35:02Z</time>
      </trkpt>
      <trkpt lat="45.85843" lon="4.68121">
        <ele>215.14195251465</ele>
        <time>2015-02-24T07:35:04Z</time>
      </trkpt>
      <trkpt lat="45.85838" lon="4.68114">
        <ele>214.75959777832</ele>
        <time>2015-02-24T07:35:06Z</time>
      </trkpt>
      <trkpt lat="45.85834" lon="4.68109">
        <ele>214.31842041016</ele>
        <time>2015-02-24T07:35:08Z</time>
      </trkpt>
      <trkpt lat="45.85831" lon="4.68105">
        <ele>214.0871887207</ele>
        <time>2015-02-24T07:35:10Z</time>
      </trkpt>
      <trkpt lat="45.85825" lon="4.68095">
        <ele>213.93377685547</ele>
        <time>2015-02-24T07:35:13Z</time>
      </trkpt>
      <trkpt lat="45.85817" lon="4.68086">
        <ele>213.30900573731</ele>
        <time>2015-02-24T07:35:16Z</time>
      </trkpt>
      <trkpt lat="45.85812" lon="4.68081">
        <ele>212.73867797852</ele>
        <time>2015-02-24T07:35:18Z</time>
      </trkpt>
      <trkpt lat="45.85809" lon="4.68078">
        <ele>212.51248168945</ele>
        <time>2015-02-24T07:35:19Z</time>
      </trkpt>
      <trkpt lat="45.85801" lon="4.68071">
        <ele>211.52467346191</ele>
        <time>2015-02-24T07:35:22Z</time>
      </trkpt>
      <trkpt lat="45.85795" lon="4.68067">
        <ele>210.85136413574</ele>
        <time>2015-02-24T07:35:24Z</time>
      </trkpt>
      <trkpt lat="45.85789" lon="4.68062">
        <ele>210.24673461914</ele>
        <time>2015-02-24T07:35:26Z</time>
      </trkpt>
      <trkpt lat="45.85785" lon="4.68059">
        <ele>209.73544311523</ele>
        <time>2015-02-24T07:35:28Z</time>
      </trkpt>
      <trkpt lat="45.85782" lon="4.68057">
        <ele>209.46565246582</ele>
        <time>2015-02-24T07:35:29Z</time>
      </trkpt>
      <trkpt lat="45.85778" lon="4.68054">
        <ele>209.03219604492</ele>
        <time>2015-02-24T07:35:31Z</time>
      </trkpt>
      <trkpt lat="45.85775" lon="4.68051">
        <ele>208.7278137207</ele>
        <time>2015-02-24T07:35:32Z</time>
      </trkpt>
      <trkpt lat="45.85765" lon="4.68043">
        <ele>207.68461608887</ele>
        <time>2015-02-24T07:35:35Z</time>
      </trkpt>
      <trkpt lat="45.85759" lon="4.68038">
        <ele>207.12727355957</ele>
        <time>2015-02-24T07:35:37Z</time>
      </trkpt>
      <trkpt lat="45.85754" lon="4.68034">
        <ele>206.62675476074</ele>
        <time>2015-02-24T07:35:39Z</time>
      </trkpt>
      <trkpt lat="45.85751" lon="4.68032">
        <ele>206.28082275391</ele>
        <time>2015-02-24T07:35:40Z</time>
      </trkpt>
      <trkpt lat="45.85748" lon="4.68031">
        <ele>206.01037597656</ele>
        <time>2015-02-24T07:35:41Z</time>
      </trkpt>
      <trkpt lat="45.85744" lon="4.68032">
        <ele>205.78460693359</ele>
        <time>2015-02-24T07:35:42Z</time>
      </trkpt>
      <trkpt lat="45.85741" lon="4.68032">
        <ele>205.60916137695</ele>
        <time>2015-02-24T07:35:43Z</time>
      </trkpt>
      <trkpt lat="45.85732" lon="4.68034">
        <ele>204.93980407715</ele>
        <time>2015-02-24T07:35:46Z</time>
      </trkpt>
      <trkpt lat="45.8572" lon="4.68039">
        <ele>203.97944641113</ele>
        <time>2015-02-24T07:35:50Z</time>
      </trkpt>
      <trkpt lat="45.85717" lon="4.68041">
        <ele>203.76693725586</ele>
        <time>2015-02-24T07:35:51Z</time>
      </trkpt>
      <trkpt lat="45.85708" lon="4.68046">
        <ele>203.0450592041</ele>
        <time>2015-02-24T07:35:54Z</time>
      </trkpt>
      <trkpt lat="45.85705" lon="4.6805">
        <ele>202.72969055176</ele>
        <time>2015-02-24T07:35:55Z</time>
      </trkpt>
      <trkpt lat="45.85702" lon="4.68052">
        <ele>202.47106933594</ele>
        <time>2015-02-24T07:35:56Z</time>
      </trkpt>
      <trkpt lat="45.85696" lon="4.68057">
        <ele>202.02963256836</ele>
        <time>2015-02-24T07:35:58Z</time>
      </trkpt>
      <trkpt lat="45.85693" lon="4.68064">
        <ele>201.64198303223</ele>
        <time>2015-02-24T07:36:00Z</time>
      </trkpt>
      <trkpt lat="45.85691" lon="4.68067">
        <ele>201.43032836914</ele>
        <time>2015-02-24T07:36:01Z</time>
      </trkpt>
      <trkpt lat="45.85686" lon="4.68074">
        <ele>201.02894592285</ele>
        <time>2015-02-24T07:36:03Z</time>
      </trkpt>
      <trkpt lat="45.85685" lon="4.68077">
        <ele>200.84635925293</ele>
        <time>2015-02-24T07:36:04Z</time>
      </trkpt>
      <trkpt lat="45.85678" lon="4.68088">
        <ele>200.2991027832</ele>
        <time>2015-02-24T07:36:07Z</time>
      </trkpt>
      <trkpt lat="45.85673" lon="4.68099">
        <ele>199.84550476074</ele>
        <time>2015-02-24T07:36:10Z</time>
      </trkpt>
      <trkpt lat="45.85667" lon="4.68113">
        <ele>199.27914428711</ele>
        <time>2015-02-24T07:36:14Z</time>
      </trkpt>
      <trkpt lat="45.85657" lon="4.68131">
        <ele>199.14033508301</ele>
        <time>2015-02-24T07:36:19Z</time>
      </trkpt>
      <trkpt lat="45.85655" lon="4.68144">
        <ele>199.00576782227</ele>
        <time>2015-02-24T07:36:22Z</time>
      </trkpt>
      <trkpt lat="45.85656" lon="4.68148">
        <ele>198.91714477539</ele>
        <time>2015-02-24T07:36:23Z</time>
      </trkpt>
      <trkpt lat="45.85661" lon="4.68158">
        <ele>198.50979614258</ele>
        <time>2015-02-24T07:36:26Z</time>
      </trkpt>
      <trkpt lat="45.85664" lon="4.68165">
        <ele>198.20695495606</ele>
        <time>2015-02-24T07:36:28Z</time>
      </trkpt>
      <trkpt lat="45.85672" lon="4.68178">
        <ele>198.36415100098</ele>
        <time>2015-02-24T07:36:32Z</time>
      </trkpt>
      <trkpt lat="45.85682" lon="4.68195">
        <ele>198.85450744629</ele>
        <time>2015-02-24T07:36:38Z</time>
      </trkpt>
      <trkpt lat="45.85692" lon="4.68209">
        <ele>199.16539001465</ele>
        <time>2015-02-24T07:36:43Z</time>
      </trkpt>
      <trkpt lat="45.85701" lon="4.68221">
        <ele>199.32055664062</ele>
        <time>2015-02-24T07:36:47Z</time>
      </trkpt>
      <trkpt lat="45.85712" lon="4.68237">
        <ele>199.39904785156</ele>
        <time>2015-02-24T07:36:52Z</time>
      </trkpt>
      <trkpt lat="45.85724" lon="4.68251">
        <ele>199.32060241699</ele>
        <time>2015-02-24T07:36:57Z</time>
      </trkpt>
      <trkpt lat="45.85738" lon="4.68263">
        <ele>199.38676452637</ele>
        <time>2015-02-24T07:37:02Z</time>
      </trkpt>
      <trkpt lat="45.85753" lon="4.68275">
        <ele>199.66673278809</ele>
        <time>2015-02-24T07:37:07Z</time>
      </trkpt>
      <trkpt lat="45.85758" lon="4.68281">
        <ele>199.88435363769</ele>
        <time>2015-02-24T07:37:09Z</time>
      </trkpt>
      <trkpt lat="45.85763" lon="4.68287">
        <ele>200.07501220703</ele>
        <time>2015-02-24T07:37:11Z</time>
      </trkpt>
      <trkpt lat="45.85773" lon="4.68301">
        <ele>200.37805175781</ele>
        <time>2015-02-24T07:37:16Z</time>
      </trkpt>
      <trkpt lat="45.85786" lon="4.68316">
        <ele>200.51069641113</ele>
        <time>2015-02-24T07:37:21Z</time>
      </trkpt>
      <trkpt lat="45.85799" lon="4.68326">
        <ele>200.44277954102</ele>
        <time>2015-02-24T07:37:26Z</time>
      </trkpt>
      <trkpt lat="45.8581" lon="4.68333">
        <ele>200.2780456543</ele>
        <time>2015-02-24T07:37:30Z</time>
      </trkpt>
      <trkpt lat="45.85813" lon="4.68337">
        <ele>200.21752929688</ele>
        <time>2015-02-24T07:37:31Z</time>
      </trkpt>
      <trkpt lat="45.85823" lon="4.68354">
        <ele>199.9072265625</ele>
        <time>2015-02-24T07:37:36Z</time>
      </trkpt>
      <trkpt lat="45.85835" lon="4.68369">
        <ele>199.63899230957</ele>
        <time>2015-02-24T07:37:41Z</time>
      </trkpt>
      <trkpt lat="45.85844" lon="4.68379">
        <ele>199.87750244141</ele>
        <time>2015-02-24T07:37:45Z</time>
      </trkpt>
      <trkpt lat="45.85851" lon="4.68391">
        <ele>199.98645019531</ele>
        <time>2015-02-24T07:37:49Z</time>
      </trkpt>
      <trkpt lat="45.8586" lon="4.68408">
        <ele>200.08366394043</ele>
        <time>2015-02-24T07:37:54Z</time>
      </trkpt>
      <trkpt lat="45.85861" lon="4.68412">
        <ele>200.07328796387</ele>
        <time>2015-02-24T07:37:55Z</time>
      </trkpt>
      <trkpt lat="45.85863" lon="4.68425">
        <ele>200.10023498535</ele>
        <time>2015-02-24T07:37:58Z</time>
      </trkpt>
      <trkpt lat="45.85863" lon="4.68439">
        <ele>200.15983581543</ele>
        <time>2015-02-24T07:38:01Z</time>
      </trkpt>
      <trkpt lat="45.85864" lon="4.68444">
        <ele>200.19700622559</ele>
        <time>2015-02-24T07:38:02Z</time>
      </trkpt>
      <trkpt lat="45.85868" lon="4.68466">
        <ele>200.34970092773</ele>
        <time>2015-02-24T07:38:07Z</time>
      </trkpt>
      <trkpt lat="45.85869" lon="4.68485">
        <ele>200.39942932129</ele>
        <time>2015-02-24T07:38:11Z</time>
      </trkpt>
      <trkpt lat="45.8587" lon="4.6849">
        <ele>200.41893005371</ele>
        <time>2015-02-24T07:38:12Z</time>
      </trkpt>
      <trkpt lat="45.85874" lon="4.68511">
        <ele>200.28503417969</ele>
        <time>2015-02-24T07:38:17Z</time>
      </trkpt>
      <trkpt lat="45.85878" lon="4.68532">
        <ele>199.93838500977</ele>
        <time>2015-02-24T07:38:22Z</time>
      </trkpt>
      <trkpt lat="45.85881" lon="4.68551">
        <ele>199.62063598633</ele>
        <time>2015-02-24T07:38:26Z</time>
      </trkpt>
      <trkpt lat="45.85882" lon="4.68555">
        <ele>199.53012084961</ele>
        <time>2015-02-24T07:38:27Z</time>
      </trkpt>
      <trkpt lat="45.85884" lon="4.68569">
        <ele>199.27598571777</ele>
        <time>2015-02-24T07:38:30Z</time>
      </trkpt>
      <trkpt lat="45.85886" lon="4.68578">
        <ele>199.09754943848</ele>
        <time>2015-02-24T07:38:32Z</time>
      </trkpt>
      <trkpt lat="45.85889" lon="4.686">
        <ele>198.79501342773</ele>
        <time>2015-02-24T07:38:37Z</time>
      </trkpt>
      <trkpt lat="45.8589" lon="4.68618">
        <ele>198.58157348633</ele>
        <time>2015-02-24T07:38:41Z</time>
      </trkpt>
      <trkpt lat="45.85892" lon="4.68644">
        <ele>198.26800537109</ele>
        <time>2015-02-24T07:38:47Z</time>
      </trkpt>
      <trkpt lat="45.85892" lon="4.68649">
        <ele>198.21192932129</ele>
        <time>2015-02-24T07:38:48Z</time>
      </trkpt>
      <trkpt lat="45.85891" lon="4.68672">
        <ele>198.01864624023</ele>
        <time>2015-02-24T07:38:53Z</time>
      </trkpt>
      <trkpt lat="45.85889" lon="4.68694">
        <ele>198.10969543457</ele>
        <time>2015-02-24T07:38:58Z</time>
      </trkpt>
      <trkpt lat="45.85886" lon="4.6872">
        <ele>198.23658752441</ele>
        <time>2015-02-24T07:39:04Z</time>
      </trkpt>
      <trkpt lat="45.85883" lon="4.68735">
        <ele>198.32746887207</ele>
        <time>2015-02-24T07:39:07Z</time>
      </trkpt>
      <trkpt lat="45.8588" lon="4.68762">
        <ele>198.37684631348</ele>
        <time>2015-02-24T07:39:13Z</time>
      </trkpt>
      <trkpt lat="45.8588" lon="4.68766">
        <ele>198.35881042481</ele>
        <time>2015-02-24T07:39:14Z</time>
      </trkpt>
      <trkpt lat="45.85876" lon="4.68785">
        <ele>198.28201293945</ele>
        <time>2015-02-24T07:39:18Z</time>
      </trkpt>
      <trkpt lat="45.8587" lon="4.68816">
        <ele>198.11720275879</ele>
        <time>2015-02-24T07:39:25Z</time>
      </trkpt>
      <trkpt lat="45.85869" lon="4.68825">
        <ele>198.05656433106</ele>
        <time>2015-02-24T07:39:27Z</time>
      </trkpt>
      <trkpt lat="45.85868" lon="4.68847">
        <ele>197.84185791016</ele>
        <time>2015-02-24T07:39:32Z</time>
      </trkpt>
      <trkpt lat="45.85866" lon="4.68865">
        <ele>197.62155151367</ele>
        <time>2015-02-24T07:39:36Z</time>
      </trkpt>
      <trkpt lat="45.85863" lon="4.68888">
        <ele>197.34861755371</ele>
        <time>2015-02-24T07:39:41Z</time>
      </trkpt>
      <trkpt lat="45.85862" lon="4.6891">
        <ele>197.08596801758</ele>
        <time>2015-02-24T07:39:46Z</time>
      </trkpt>
      <trkpt lat="45.8586" lon="4.68937">
        <ele>197.07814025879</ele>
        <time>2015-02-24T07:39:52Z</time>
      </trkpt>
      <trkpt lat="45.8586" lon="4.68942">
        <ele>197.10009765625</ele>
        <time>2015-02-24T07:39:53Z</time>
      </trkpt>
      <trkpt lat="45.85859" lon="4.68961">
        <ele>197.16244506836</ele>
        <time>2015-02-24T07:39:57Z</time>
      </trkpt>
      <trkpt lat="45.8586" lon="4.68987">
        <ele>197.27395629883</ele>
        <time>2015-02-24T07:40:03Z</time>
      </trkpt>
      <trkpt lat="45.85865" lon="4.69013">
        <ele>197.37567138672</ele>
        <time>2015-02-24T07:40:09Z</time>
      </trkpt>
      <trkpt lat="45.85865" lon="4.69018">
        <ele>197.38482666016</ele>
        <time>2015-02-24T07:40:10Z</time>
      </trkpt>
      <trkpt lat="45.8587" lon="4.69035">
        <ele>197.43518066406</ele>
        <time>2015-02-24T07:40:14Z</time>
      </trkpt>
      <trkpt lat="45.85865" lon="4.69052">
        <ele>197.38482666016</ele>
        <time>2015-02-24T07:40:18Z</time>
      </trkpt>
      <trkpt lat="45.8586" lon="4.69073">
        <ele>197.31616210938</ele>
        <time>2015-02-24T07:40:23Z</time>
      </trkpt>
      <trkpt lat="45.85857" lon="4.691">
        <ele>197.70991516113</ele>
        <time>2015-02-24T07:40:29Z</time>
      </trkpt>
      <trkpt lat="45.85856" lon="4.69117">
        <ele>198.146484375</ele>
        <time>2015-02-24T07:40:33Z</time>
      </trkpt>
      <trkpt lat="45.85852" lon="4.69145">
        <ele>198.95457458496</ele>
        <time>2015-02-24T07:40:40Z</time>
      </trkpt>
      <trkpt lat="45.85851" lon="4.69154">
        <ele>199.21934509277</ele>
        <time>2015-02-24T07:40:42Z</time>
      </trkpt>
      <trkpt lat="45.85848" lon="4.69165">
        <ele>199.59703063965</ele>
        <time>2015-02-24T07:40:45Z</time>
      </trkpt>
      <trkpt lat="45.85844" lon="4.6919">
        <ele>199.03509521484</ele>
        <time>2015-02-24T07:40:51Z</time>
      </trkpt>
      <trkpt lat="45.8584" lon="4.69218">
        <ele>198.19903564453</ele>
        <time>2015-02-24T07:40:57Z</time>
      </trkpt>
      <trkpt lat="45.8584" lon="4.69222">
        <ele>198.07087707519</ele>
        <time>2015-02-24T07:40:58Z</time>
      </trkpt>
      <trkpt lat="45.85836" lon="4.69239">
        <ele>197.4518737793</ele>
        <time>2015-02-24T07:41:02Z</time>
      </trkpt>
      <trkpt lat="45.85833" lon="4.6926">
        <ele>196.88401794434</ele>
        <time>2015-02-24T07:41:07Z</time>
      </trkpt>
      <trkpt lat="45.85832" lon="4.69288">
        <ele>196.5559387207</ele>
        <time>2015-02-24T07:41:13Z</time>
      </trkpt>
      <trkpt lat="45.85835" lon="4.69305">
        <ele>196.41546630859</ele>
        <time>2015-02-24T07:41:17Z</time>
      </trkpt>
      <trkpt lat="45.85836" lon="4.6931">
        <ele>196.41235351562</ele>
        <time>2015-02-24T07:41:18Z</time>
      </trkpt>
      <trkpt lat="45.85842" lon="4.69332">
        <ele>196.41519165039</ele>
        <time>2015-02-24T07:41:23Z</time>
      </trkpt>
      <trkpt lat="45.85846" lon="4.69348">
        <ele>197.30271911621</ele>
        <time>2015-02-24T07:41:27Z</time>
      </trkpt>
      <trkpt lat="45.85847" lon="4.69352">
        <ele>197.51564025879</ele>
        <time>2015-02-24T07:41:28Z</time>
      </trkpt>
      <trkpt lat="45.85848" lon="4.69371">
        <ele>198.43962097168</ele>
        <time>2015-02-24T07:41:32Z</time>
      </trkpt>
      <trkpt lat="45.85847" lon="4.69375">
        <ele>198.59342956543</ele>
        <time>2015-02-24T07:41:33Z</time>
      </trkpt>
      <trkpt lat="45.8584" lon="4.69396">
        <ele>199.28507995606</ele>
        <time>2015-02-24T07:41:38Z</time>
      </trkpt>
      <trkpt lat="45.85834" lon="4.69408">
        <ele>199.59907531738</ele>
        <time>2015-02-24T07:41:41Z</time>
      </trkpt>
      <trkpt lat="45.85829" lon="4.69414">
        <ele>199.67584228516</ele>
        <time>2015-02-24T07:41:43Z</time>
      </trkpt>
      <trkpt lat="45.85822" lon="4.69434">
        <ele>199.9787902832</ele>
        <time>2015-02-24T07:41:48Z</time>
      </trkpt>
      <trkpt lat="45.85822" lon="4.69462">
        <ele>200.82312011719</ele>
        <time>2015-02-24T07:41:54Z</time>
      </trkpt>
      <trkpt lat="45.85823" lon="4.69474">
        <ele>201.32783508301</ele>
        <time>2015-02-24T07:41:57Z</time>
      </trkpt>
      <trkpt lat="45.85825" lon="4.69483">
        <ele>201.77722167969</ele>
        <time>2015-02-24T07:41:59Z</time>
      </trkpt>
      <trkpt lat="45.85827" lon="4.69497">
        <ele>202.36137390137</ele>
        <time>2015-02-24T07:42:02Z</time>
      </trkpt>
      <trkpt lat="45.85828" lon="4.69506">
        <ele>202.32902526856</ele>
        <time>2015-02-24T07:42:04Z</time>
      </trkpt>
      <trkpt lat="45.85829" lon="4.69525">
        <ele>201.78623962402</ele>
        <time>2015-02-24T07:42:08Z</time>
      </trkpt>
      <trkpt lat="45.85831" lon="4.69552">
        <ele>201.00593566894</ele>
        <time>2015-02-24T07:42:14Z</time>
      </trkpt>
      <trkpt lat="45.85835" lon="4.6958">
        <ele>200.16719055176</ele>
        <time>2015-02-24T07:42:20Z</time>
      </trkpt>
      <trkpt lat="45.85841" lon="4.69606">
        <ele>199.80418395996</ele>
        <time>2015-02-24T07:42:26Z</time>
      </trkpt>
      <trkpt lat="45.85846" lon="4.69627">
        <ele>199.66938781738</ele>
        <time>2015-02-24T07:42:31Z</time>
      </trkpt>
      <trkpt lat="45.85852" lon="4.69651">
        <ele>199.57695007324</ele>
        <time>2015-02-24T07:42:36Z</time>
      </trkpt>
      <trkpt lat="45.85855" lon="4.69674">
        <ele>199.5895690918</ele>
        <time>2015-02-24T07:42:41Z</time>
      </trkpt>
      <trkpt lat="45.85863" lon="4.69694">
        <ele>199.98257446289</ele>
        <time>2015-02-24T07:42:46Z</time>
      </trkpt>
      <trkpt lat="45.85873" lon="4.69717">
        <ele>200.33064270019</ele>
        <time>2015-02-24T07:42:52Z</time>
      </trkpt>
      <trkpt lat="45.85884" lon="4.6974">
        <ele>200.39869689941</ele>
        <time>2015-02-24T07:42:58Z</time>
      </trkpt>
      <trkpt lat="45.85893" lon="4.69758">
        <ele>200.2371673584</ele>
        <time>2015-02-24T07:43:03Z</time>
      </trkpt>
      <trkpt lat="45.85903" lon="4.69777">
        <ele>200.02888488769</ele>
        <time>2015-02-24T07:43:08Z</time>
      </trkpt>
      <trkpt lat="45.85905" lon="4.6978">
        <ele>199.98768615723</ele>
        <time>2015-02-24T07:43:09Z</time>
      </trkpt>
      <trkpt lat="45.85914" lon="4.69794">
        <ele>199.8766784668</ele>
        <time>2015-02-24T07:43:13Z</time>
      </trkpt>
      <trkpt lat="45.85922" lon="4.69807">
        <ele>199.87001037598</ele>
        <time>2015-02-24T07:43:17Z</time>
      </trkpt>
      <trkpt lat="45.85937" lon="4.69826">
        <ele>199.77714538574</ele>
        <time>2015-02-24T07:43:23Z</time>
      </trkpt>
      <trkpt lat="45.85953" lon="4.69843">
        <ele>199.62948608398</ele>
        <time>2015-02-24T07:43:29Z</time>
      </trkpt>
      <trkpt lat="45.85955" lon="4.69846">
        <ele>199.62147521973</ele>
        <time>2015-02-24T07:43:30Z</time>
      </trkpt>
      <trkpt lat="45.85958" lon="4.69849">
        <ele>199.61918640137</ele>
        <time>2015-02-24T07:43:31Z</time>
      </trkpt>
      <trkpt lat="45.85966" lon="4.69856">
        <ele>199.64207458496</ele>
        <time>2015-02-24T07:43:34Z</time>
      </trkpt>
      <trkpt lat="45.85984" lon="4.69872">
        <ele>199.68098449707</ele>
        <time>2015-02-24T07:43:40Z</time>
      </trkpt>
      <trkpt lat="45.85998" lon="4.69884">
        <ele>199.71989440918</ele>
        <time>2015-02-24T07:43:45Z</time>
      </trkpt>
      <trkpt lat="45.86013" lon="4.69894">
        <ele>199.72163391113</ele>
        <time>2015-02-24T07:43:50Z</time>
      </trkpt>
      <trkpt lat="45.86033" lon="4.69899">
        <ele>199.95790100098</ele>
        <time>2015-02-24T07:43:56Z</time>
      </trkpt>
      <trkpt lat="45.86052" lon="4.69898">
        <ele>200.2825012207</ele>
        <time>2015-02-24T07:44:02Z</time>
      </trkpt>
      <trkpt lat="45.86072" lon="4.69893">
        <ele>200.56532287598</ele>
        <time>2015-02-24T07:44:08Z</time>
      </trkpt>
      <trkpt lat="45.86075" lon="4.69893">
        <ele>200.59986877441</ele>
        <time>2015-02-24T07:44:09Z</time>
      </trkpt>
      <trkpt lat="45.86089" lon="4.69888">
        <ele>200.53359985352</ele>
        <time>2015-02-24T07:44:13Z</time>
      </trkpt>
      <trkpt lat="45.86107" lon="4.6988">
        <ele>199.99859619141</ele>
        <time>2015-02-24T07:44:19Z</time>
      </trkpt>
      <trkpt lat="45.86116" lon="4.69874">
        <ele>199.69876098633</ele>
        <time>2015-02-24T07:44:22Z</time>
      </trkpt>
      <trkpt lat="45.86125" lon="4.69867">
        <ele>199.39605712891</ele>
        <time>2015-02-24T07:44:25Z</time>
      </trkpt>
      <trkpt lat="45.86136" lon="4.69857">
        <ele>199.02642822266</ele>
        <time>2015-02-24T07:44:29Z</time>
      </trkpt>
      <trkpt lat="45.86139" lon="4.69854">
        <ele>198.9280090332</ele>
        <time>2015-02-24T07:44:30Z</time>
      </trkpt>
      <trkpt lat="45.86153" lon="4.69843">
        <ele>198.43533325195</ele>
        <time>2015-02-24T07:44:35Z</time>
      </trkpt>
      <trkpt lat="45.86171" lon="4.69829">
        <ele>197.73199462891</ele>
        <time>2015-02-24T07:44:41Z</time>
      </trkpt>
      <trkpt lat="45.86174" lon="4.69826">
        <ele>197.58207702637</ele>
        <time>2015-02-24T07:44:42Z</time>
      </trkpt>
      <trkpt lat="45.86187" lon="4.69814">
        <ele>196.78327941894</ele>
        <time>2015-02-24T07:44:47Z</time>
      </trkpt>
      <trkpt lat="45.86204" lon="4.69803">
        <ele>195.91696166992</ele>
        <time>2015-02-24T07:44:53Z</time>
      </trkpt>
      <trkpt lat="45.86221" lon="4.69792">
        <ele>195.04377746582</ele>
        <time>2015-02-24T07:44:59Z</time>
      </trkpt>
      <trkpt lat="45.86237" lon="4.69775">
        <ele>194.05043029785</ele>
        <time>2015-02-24T07:45:05Z</time>
      </trkpt>
      <trkpt lat="45.86243" lon="4.69769">
        <ele>193.70367431641</ele>
        <time>2015-02-24T07:45:07Z</time>
      </trkpt>
      <trkpt lat="45.86259" lon="4.69761">
        <ele>193.38949584961</ele>
        <time>2015-02-24T07:45:12Z</time>
      </trkpt>
      <trkpt lat="45.86279" lon="4.69757">
        <ele>193.54504394531</ele>
        <time>2015-02-24T07:45:18Z</time>
      </trkpt>
      <trkpt lat="45.86282" lon="4.69757">
        <ele>193.57604980469</ele>
        <time>2015-02-24T07:45:19Z</time>
      </trkpt>
      <trkpt lat="45.86299" lon="4.69756">
        <ele>193.78245544434</ele>
        <time>2015-02-24T07:45:24Z</time>
      </trkpt>
      <trkpt lat="45.86314" lon="4.69757">
        <ele>193.99201965332</ele>
        <time>2015-02-24T07:45:29Z</time>
      </trkpt>
      <trkpt lat="45.8633" lon="4.69761">
        <ele>194.34750366211</ele>
        <time>2015-02-24T07:45:35Z</time>
      </trkpt>
      <trkpt lat="45.8634" lon="4.6977">
        <ele>195.09649658203</ele>
        <time>2015-02-24T07:45:39Z</time>
      </trkpt>
      <trkpt lat="45.86348" lon="4.69782">
        <ele>195.71054077148</ele>
        <time>2015-02-24T07:45:43Z</time>
      </trkpt>
      <trkpt lat="45.86356" lon="4.69796">
        <ele>196.05787658691</ele>
        <time>2015-02-24T07:45:47Z</time>
      </trkpt>
      <trkpt lat="45.86363" lon="4.69809">
        <ele>196.09626770019</ele>
        <time>2015-02-24T07:45:51Z</time>
      </trkpt>
      <trkpt lat="45.86369" lon="4.69824">
        <ele>195.8583984375</ele>
        <time>2015-02-24T07:45:55Z</time>
      </trkpt>
      <trkpt lat="45.86376" lon="4.69837">
        <ele>195.43482971191</ele>
        <time>2015-02-24T07:45:59Z</time>
      </trkpt>
      <trkpt lat="45.86382" lon="4.69847">
        <ele>195.15715026856</ele>
        <time>2015-02-24T07:46:02Z</time>
      </trkpt>
      <trkpt lat="45.86386" lon="4.69859">
        <ele>194.88896179199</ele>
        <time>2015-02-24T07:46:05Z</time>
      </trkpt>
      <trkpt lat="45.86391" lon="4.69872">
        <ele>194.61441040039</ele>
        <time>2015-02-24T07:46:08Z</time>
      </trkpt>
      <trkpt lat="45.86395" lon="4.69891">
        <ele>194.29235839844</ele>
        <time>2015-02-24T07:46:12Z</time>
      </trkpt>
      <trkpt lat="45.86397" lon="4.69909">
        <ele>194.02546691894</ele>
        <time>2015-02-24T07:46:16Z</time>
      </trkpt>
      <trkpt lat="45.86399" lon="4.69937">
        <ele>193.72686767578</ele>
        <time>2015-02-24T07:46:22Z</time>
      </trkpt>
      <trkpt lat="45.86399" lon="4.6996">
        <ele>193.6248626709</ele>
        <time>2015-02-24T07:46:27Z</time>
      </trkpt>
      <trkpt lat="45.864" lon="4.69978">
        <ele>193.50088500977</ele>
        <time>2015-02-24T07:46:31Z</time>
      </trkpt>
      <trkpt lat="45.86399" lon="4.69997">
        <ele>193.4260559082</ele>
        <time>2015-02-24T07:46:35Z</time>
      </trkpt>
      <trkpt lat="45.86397" lon="4.70027">
        <ele>193.22973632812</ele>
        <time>2015-02-24T07:46:41Z</time>
      </trkpt>
      <trkpt lat="45.86394" lon="4.70051">
        <ele>193.10914611816</ele>
        <time>2015-02-24T07:46:46Z</time>
      </trkpt>
      <trkpt lat="45.86389" lon="4.7008">
        <ele>193.01400756836</ele>
        <time>2015-02-24T07:46:52Z</time>
      </trkpt>
      <trkpt lat="45.86388" lon="4.70086">
        <ele>193.02798461914</ele>
        <time>2015-02-24T07:46:53Z</time>
      </trkpt>
      <trkpt lat="45.86384" lon="4.70109">
        <ele>193.30337524414</ele>
        <time>2015-02-24T07:46:58Z</time>
      </trkpt>
      <trkpt lat="45.8638" lon="4.70133">
        <ele>193.59909057617</ele>
        <time>2015-02-24T07:47:03Z</time>
      </trkpt>
      <trkpt lat="45.86375" lon="4.70157">
        <ele>193.92239379883</ele>
        <time>2015-02-24T07:47:08Z</time>
      </trkpt>
      <trkpt lat="45.86375" lon="4.70161">
        <ele>193.98477172852</ele>
        <time>2015-02-24T07:47:09Z</time>
      </trkpt>
      <trkpt lat="45.86372" lon="4.70184">
        <ele>194.85333251953</ele>
        <time>2015-02-24T07:47:14Z</time>
      </trkpt>
      <trkpt lat="45.86366" lon="4.70199">
        <ele>195.65579223633</ele>
        <time>2015-02-24T07:47:18Z</time>
      </trkpt>
      <trkpt lat="45.86359" lon="4.70215">
        <ele>196.45649719238</ele>
        <time>2015-02-24T07:47:22Z</time>
      </trkpt>
      <trkpt lat="45.8635" lon="4.70226">
        <ele>197.06607055664</ele>
        <time>2015-02-24T07:47:26Z</time>
      </trkpt>
      <trkpt lat="45.86339" lon="4.70243">
        <ele>197.73458862305</ele>
        <time>2015-02-24T07:47:31Z</time>
      </trkpt>
      <trkpt lat="45.86334" lon="4.70254">
        <ele>197.99417114258</ele>
        <time>2015-02-24T07:47:35Z</time>
      </trkpt>
      <trkpt lat="45.8633" lon="4.70264">
        <ele>197.76905822754</ele>
        <time>2015-02-24T07:47:38Z</time>
      </trkpt>
      <trkpt lat="45.8633" lon="4.70276">
        <ele>197.74842834473</ele>
        <time>2015-02-24T07:47:41Z</time>
      </trkpt>
      <trkpt lat="45.86329" lon="4.70279">
        <ele>197.72463989258</ele>
        <time>2015-02-24T07:47:42Z</time>
      </trkpt>
      <trkpt lat="45.86324" lon="4.70301">
        <ele>197.36776733398</ele>
        <time>2015-02-24T07:47:47Z</time>
      </trkpt>
      <trkpt lat="45.86324" lon="4.70305">
        <ele>197.37313842773</ele>
        <time>2015-02-24T07:47:48Z</time>
      </trkpt>
      <trkpt lat="45.86325" lon="4.70312">
        <ele>197.50358581543</ele>
        <time>2015-02-24T07:47:50Z</time>
      </trkpt>
      <trkpt lat="45.86334" lon="4.70324">
        <ele>197.99934387207</ele>
        <time>2015-02-24T07:47:54Z</time>
      </trkpt>
      <trkpt lat="45.86339" lon="4.70333">
        <ele>197.99955749512</ele>
        <time>2015-02-24T07:47:57Z</time>
      </trkpt>
      <trkpt lat="45.86349" lon="4.70341">
        <ele>198</ele>
        <time>2015-02-24T07:48:01Z</time>
      </trkpt>
      <trkpt lat="45.86351" lon="4.70344">
        <ele>198</ele>
        <time>2015-02-24T07:48:02Z</time>
      </trkpt>
      <trkpt lat="45.86362" lon="4.70358">
        <ele>198</ele>
        <time>2015-02-24T07:48:07Z</time>
      </trkpt>
      <trkpt lat="45.86367" lon="4.70363">
        <ele>198</ele>
        <time>2015-02-24T07:48:09Z</time>
      </trkpt>
      <trkpt lat="45.86372" lon="4.70369">
        <ele>198</ele>
        <time>2015-02-24T07:48:11Z</time>
      </trkpt>
      <trkpt lat="45.86376" lon="4.70375">
        <ele>198</ele>
        <time>2015-02-24T07:48:13Z</time>
      </trkpt>
      <trkpt lat="45.86379" lon="4.70384">
        <ele>198</ele>
        <time>2015-02-24T07:48:15Z</time>
      </trkpt>
      <trkpt lat="45.86382" lon="4.70398">
        <ele>198</ele>
        <time>2015-02-24T07:48:18Z</time>
      </trkpt>
      <trkpt lat="45.86383" lon="4.70402">
        <ele>198</ele>
        <time>2015-02-24T07:48:19Z</time>
      </trkpt>
      <trkpt lat="45.86386" lon="4.70417">
        <ele>197.99963378906</ele>
        <time>2015-02-24T07:48:23Z</time>
      </trkpt>
      <trkpt lat="45.86388" lon="4.70427">
        <ele>197.8360748291</ele>
        <time>2015-02-24T07:48:25Z</time>
      </trkpt>
      <trkpt lat="45.86386" lon="4.70436">
        <ele>197.68525695801</ele>
        <time>2015-02-24T07:48:27Z</time>
      </trkpt>
      <trkpt lat="45.8638" lon="4.70454">
        <ele>197.36145019531</ele>
        <time>2015-02-24T07:48:31Z</time>
      </trkpt>
      <trkpt lat="45.86371" lon="4.70475">
        <ele>196.91026306152</ele>
        <time>2015-02-24T07:48:36Z</time>
      </trkpt>
      <trkpt lat="45.86366" lon="4.70496">
        <ele>196.46475219727</ele>
        <time>2015-02-24T07:48:41Z</time>
      </trkpt>
      <trkpt lat="45.86366" lon="4.70511">
        <ele>196.52755737305</ele>
        <time>2015-02-24T07:48:44Z</time>
      </trkpt>
      <trkpt lat="45.86369" lon="4.70533">
        <ele>196.77716064453</ele>
        <time>2015-02-24T07:48:49Z</time>
      </trkpt>
      <trkpt lat="45.8637" lon="4.70547">
        <ele>196.88757324219</ele>
        <time>2015-02-24T07:48:52Z</time>
      </trkpt>
      <trkpt lat="45.86379" lon="4.70567">
        <ele>196.74935913086</ele>
        <time>2015-02-24T07:48:57Z</time>
      </trkpt>
      <trkpt lat="45.86388" lon="4.70571">
        <ele>196.43176269531</ele>
        <time>2015-02-24T07:49:00Z</time>
      </trkpt>
      <trkpt lat="45.8639" lon="4.70571">
        <ele>196.34449768066</ele>
        <time>2015-02-24T07:49:01Z</time>
      </trkpt>
      <trkpt lat="45.86399" lon="4.70569">
        <ele>196.01062011719</ele>
        <time>2015-02-24T07:49:04Z</time>
      </trkpt>
      <trkpt lat="45.86419" lon="4.70563">
        <ele>195.45643615723</ele>
        <time>2015-02-24T07:49:10Z</time>
      </trkpt>
      <trkpt lat="45.86429" lon="4.70563">
        <ele>195.38421630859</ele>
        <time>2015-02-24T07:49:13Z</time>
      </trkpt>
      <trkpt lat="45.86445" lon="4.7056">
        <ele>195.32180786133</ele>
        <time>2015-02-24T07:49:18Z</time>
      </trkpt>
      <trkpt lat="45.86458" lon="4.70557">
        <ele>195.30467224121</ele>
        <time>2015-02-24T07:49:22Z</time>
      </trkpt>
      <trkpt lat="45.86476" lon="4.70556">
        <ele>195.17111206055</ele>
        <time>2015-02-24T07:49:28Z</time>
      </trkpt>
      <trkpt lat="45.86493" lon="4.70559">
        <ele>194.95518493652</ele>
        <time>2015-02-24T07:49:33Z</time>
      </trkpt>
      <trkpt lat="45.86506" lon="4.70564">
        <ele>194.82962036133</ele>
        <time>2015-02-24T07:49:37Z</time>
      </trkpt>
      <trkpt lat="45.86523" lon="4.70575">
        <ele>194.82794189453</ele>
        <time>2015-02-24T07:49:42Z</time>
      </trkpt>
      <trkpt lat="45.86536" lon="4.70593">
        <ele>195.0852355957</ele>
        <time>2015-02-24T07:49:47Z</time>
      </trkpt>
      <trkpt lat="45.86543" lon="4.7061">
        <ele>195.6932220459</ele>
        <time>2015-02-24T07:49:51Z</time>
      </trkpt>
      <trkpt lat="45.86557" lon="4.70626">
        <ele>196.56335449219</ele>
        <time>2015-02-24T07:49:56Z</time>
      </trkpt>
      <trkpt lat="45.8656" lon="4.70627">
        <ele>196.73388671875</ele>
        <time>2015-02-24T07:49:57Z</time>
      </trkpt>
      <trkpt lat="45.86567" lon="4.70629">
        <ele>197.03665161133</ele>
        <time>2015-02-24T07:49:59Z</time>
      </trkpt>
      <trkpt lat="45.86574" lon="4.70629">
        <ele>197.29983520508</ele>
        <time>2015-02-24T07:50:01Z</time>
      </trkpt>
      <trkpt lat="45.86576" lon="4.7063">
        <ele>197.40901184082</ele>
        <time>2015-02-24T07:50:02Z</time>
      </trkpt>
      <trkpt lat="45.86583" lon="4.7063">
        <ele>197.68246459961</ele>
        <time>2015-02-24T07:50:04Z</time>
      </trkpt>
      <trkpt lat="45.86596" lon="4.70627">
        <ele>197.73294067383</ele>
        <time>2015-02-24T07:50:08Z</time>
      </trkpt>
      <trkpt lat="45.86608" lon="4.7063">
        <ele>197.97384643555</ele>
        <time>2015-02-24T07:50:12Z</time>
      </trkpt>
      <trkpt lat="45.86608" lon="4.7063">
        <ele>197.97384643555</ele>
        <time>2015-02-24T07:50:12Z</time>
      </trkpt>
      <trkpt lat="45.86619" lon="4.70638">
        <ele>198.38983154297</ele>
        <time>2015-02-24T07:50:16Z</time>
      </trkpt>
      <trkpt lat="45.86634" lon="4.70642">
        <ele>198.72799682617</ele>
        <time>2015-02-24T07:50:21Z</time>
      </trkpt>
      <trkpt lat="45.86641" lon="4.70635">
        <ele>198.55119323731</ele>
        <time>2015-02-24T07:50:24Z</time>
      </trkpt>
      <trkpt lat="45.86643" lon="4.70628">
        <ele>198.32116699219</ele>
        <time>2015-02-24T07:50:26Z</time>
      </trkpt>
      <trkpt lat="45.86644" lon="4.70625">
        <ele>198.21702575684</ele>
        <time>2015-02-24T07:50:27Z</time>
      </trkpt>
      <trkpt lat="45.8665" lon="4.70614">
        <ele>197.91775512695</ele>
        <time>2015-02-24T07:50:30Z</time>
      </trkpt>
      <trkpt lat="45.86652" lon="4.70613">
        <ele>197.8811340332</ele>
        <time>2015-02-24T07:50:31Z</time>
      </trkpt>
      <trkpt lat="45.86662" lon="4.70609">
        <ele>197.87426757812</ele>
        <time>2015-02-24T07:50:34Z</time>
      </trkpt>
      <trkpt lat="45.86665" lon="4.70609">
        <ele>197.90803527832</ele>
        <time>2015-02-24T07:50:35Z</time>
      </trkpt>
      <trkpt lat="45.86668" lon="4.70609">
        <ele>197.9734954834</ele>
        <time>2015-02-24T07:50:36Z</time>
      </trkpt>
      <trkpt lat="45.86673" lon="4.70614">
        <ele>198.24333190918</ele>
        <time>2015-02-24T07:50:38Z</time>
      </trkpt>
      <trkpt lat="45.86681" lon="4.70633">
        <ele>198.86990356445</ele>
        <time>2015-02-24T07:50:43Z</time>
      </trkpt>
      <trkpt lat="45.86685" lon="4.70642">
        <ele>199.06799316406</ele>
        <time>2015-02-24T07:50:46Z</time>
      </trkpt>
      <trkpt lat="45.86687" lon="4.70646">
        <ele>199.12702941894</ele>
        <time>2015-02-24T07:50:47Z</time>
      </trkpt>
      <trkpt lat="45.86693" lon="4.70656">
        <ele>199.22456359863</ele>
        <time>2015-02-24T07:50:50Z</time>
      </trkpt>
      <trkpt lat="45.86694" lon="4.70659">
        <ele>199.25006103516</ele>
        <time>2015-02-24T07:50:51Z</time>
      </trkpt>
      <trkpt lat="45.86704" lon="4.70678">
        <ele>198.63006591797</ele>
        <time>2015-02-24T07:50:56Z</time>
      </trkpt>
      <trkpt lat="45.86716" lon="4.70695">
        <ele>197.64538574219</ele>
        <time>2015-02-24T07:51:01Z</time>
      </trkpt>
      <trkpt lat="45.86731" lon="4.70703">
        <ele>197.03875732422</ele>
        <time>2015-02-24T07:51:06Z</time>
      </trkpt>
      <trkpt lat="45.86741" lon="4.70713">
        <ele>196.49610900879</ele>
        <time>2015-02-24T07:51:11Z</time>
      </trkpt>
      <trkpt lat="45.86747" lon="4.7072">
        <ele>196.14926147461</ele>
        <time>2015-02-24T07:51:14Z</time>
      </trkpt>
      <trkpt lat="45.86748" lon="4.70723">
        <ele>196.02313232422</ele>
        <time>2015-02-24T07:51:15Z</time>
      </trkpt>
      <trkpt lat="45.86757" lon="4.70733">
        <ele>195.91702270508</ele>
        <time>2015-02-24T07:51:19Z</time>
      </trkpt>
      <trkpt lat="45.8676" lon="4.70735">
        <ele>195.97933959961</ele>
        <time>2015-02-24T07:51:20Z</time>
      </trkpt>
      <trkpt lat="45.86761" lon="4.70738">
        <ele>195.97994995117</ele>
        <time>2015-02-24T07:51:21Z</time>
      </trkpt>
      <trkpt lat="45.86763" lon="4.70741">
        <ele>195.93978881836</ele>
        <time>2015-02-24T07:51:22Z</time>
      </trkpt>
      <trkpt lat="45.86763" lon="4.70745">
        <ele>195.81462097168</ele>
        <time>2015-02-24T07:51:23Z</time>
      </trkpt>
      <trkpt lat="45.86765" lon="4.70761">
        <ele>195.41613769531</ele>
        <time>2015-02-24T07:51:26Z</time>
      </trkpt>
      <trkpt lat="45.86764" lon="4.7077">
        <ele>195.13415527344</ele>
        <time>2015-02-24T07:51:28Z</time>
      </trkpt>
      <trkpt lat="45.86764" lon="4.70779">
        <ele>194.91174316406</ele>
        <time>2015-02-24T07:51:30Z</time>
      </trkpt>
      <trkpt lat="45.86766" lon="4.70789">
        <ele>194.73185729981</ele>
        <time>2015-02-24T07:51:32Z</time>
      </trkpt>
      <trkpt lat="45.8677" lon="4.70797">
        <ele>194.68565368652</ele>
        <time>2015-02-24T07:51:34Z</time>
      </trkpt>
      <trkpt lat="45.86781" lon="4.70815">
        <ele>194.65283203125</ele>
        <time>2015-02-24T07:51:39Z</time>
      </trkpt>
      <trkpt lat="45.86784" lon="4.70819">
        <ele>194.62992858887</ele>
        <time>2015-02-24T07:51:40Z</time>
      </trkpt>
      <trkpt lat="45.8679" lon="4.70825">
        <ele>194.70663452148</ele>
        <time>2015-02-24T07:51:43Z</time>
      </trkpt>
      <trkpt lat="45.86795" lon="4.7083">
        <ele>194.74404907227</ele>
        <time>2015-02-24T07:51:45Z</time>
      </trkpt>
      <trkpt lat="45.868" lon="4.70837">
        <ele>194.69737243652</ele>
        <time>2015-02-24T07:51:47Z</time>
      </trkpt>
      <trkpt lat="45.86808" lon="4.70848">
        <ele>194.51821899414</ele>
        <time>2015-02-24T07:51:50Z</time>
      </trkpt>
      <trkpt lat="45.86809" lon="4.70853">
        <ele>194.3984375</ele>
        <time>2015-02-24T07:51:51Z</time>
      </trkpt>
      <trkpt lat="45.86814" lon="4.70864">
        <ele>194.10668945312</ele>
        <time>2015-02-24T07:51:54Z</time>
      </trkpt>
      <trkpt lat="45.86824" lon="4.70884">
        <ele>193.43421936035</ele>
        <time>2015-02-24T07:51:59Z</time>
      </trkpt>
      <trkpt lat="45.8683" lon="4.70896">
        <ele>192.95655822754</ele>
        <time>2015-02-24T07:52:02Z</time>
      </trkpt>
      <trkpt lat="45.86832" lon="4.709">
        <ele>192.7879486084</ele>
        <time>2015-02-24T07:52:03Z</time>
      </trkpt>
      <trkpt lat="45.86834" lon="4.70904">
        <ele>192.62947082519</ele>
        <time>2015-02-24T07:52:04Z</time>
      </trkpt>
      <trkpt lat="45.86843" lon="4.70924">
        <ele>191.94483947754</ele>
        <time>2015-02-24T07:52:09Z</time>
      </trkpt>
      <trkpt lat="45.86851" lon="4.7094">
        <ele>191.64042663574</ele>
        <time>2015-02-24T07:52:13Z</time>
      </trkpt>
      <trkpt lat="45.86861" lon="4.70965">
        <ele>191.16206359863</ele>
        <time>2015-02-24T07:52:19Z</time>
      </trkpt>
      <trkpt lat="45.86868" lon="4.70991">
        <ele>190.61618041992</ele>
        <time>2015-02-24T07:52:25Z</time>
      </trkpt>
      <trkpt lat="45.86872" lon="4.71019">
        <ele>190.46520996094</ele>
        <time>2015-02-24T07:52:31Z</time>
      </trkpt>
      <trkpt lat="45.86873" lon="4.71023">
        <ele>190.47436523438</ele>
        <time>2015-02-24T07:52:32Z</time>
      </trkpt>
      <trkpt lat="45.86877" lon="4.71046">
        <ele>190.52471923828</ele>
        <time>2015-02-24T07:52:37Z</time>
      </trkpt>
      <trkpt lat="45.86878" lon="4.7105">
        <ele>190.53845214844</ele>
        <time>2015-02-24T07:52:38Z</time>
      </trkpt>
      <trkpt lat="45.86884" lon="4.71062">
        <ele>190.6025390625</ele>
        <time>2015-02-24T07:52:41Z</time>
      </trkpt>
      <trkpt lat="45.86896" lon="4.71069">
        <ele>190.7490234375</ele>
        <time>2015-02-24T07:52:45Z</time>
      </trkpt>
      <trkpt lat="45.86913" lon="4.71068">
        <ele>190.95043945312</ele>
        <time>2015-02-24T07:52:50Z</time>
      </trkpt>
      <trkpt lat="45.86919" lon="4.71068">
        <ele>191.11303710938</ele>
        <time>2015-02-24T07:52:52Z</time>
      </trkpt>
      <trkpt lat="45.86929" lon="4.71068">
        <ele>191.58911132812</ele>
        <time>2015-02-24T07:52:55Z</time>
      </trkpt>
      <trkpt lat="45.86946" lon="4.71068">
        <ele>192.39477539062</ele>
        <time>2015-02-24T07:53:00Z</time>
      </trkpt>
      <trkpt lat="45.86964" lon="4.71066">
        <ele>193.2919921875</ele>
        <time>2015-02-24T07:53:06Z</time>
      </trkpt>
      <trkpt lat="45.86972" lon="4.71067">
        <ele>193.63989257812</ele>
        <time>2015-02-24T07:53:09Z</time>
      </trkpt>
      <trkpt lat="45.86972" lon="4.71066">
        <ele>193.67651367188</ele>
        <time>2015-02-24T07:53:10Z</time>
      </trkpt>
      <trkpt lat="45.8698" lon="4.71065">
        <ele>194.06103515625</ele>
        <time>2015-02-24T07:53:13Z</time>
      </trkpt>
      <trkpt lat="45.86983" lon="4.71066">
        <ele>194.20751953125</ele>
        <time>2015-02-24T07:53:14Z</time>
      </trkpt>
      <trkpt lat="45.86987" lon="4.71068">
        <ele>194.35400390625</ele>
        <time>2015-02-24T07:53:15Z</time>
      </trkpt>
      <trkpt lat="45.86998" lon="4.71073">
        <ele>194.88500976562</ele>
        <time>2015-02-24T07:53:19Z</time>
      </trkpt>
      <trkpt lat="45.87009" lon="4.71079">
        <ele>195.00526428223</ele>
        <time>2015-02-24T07:53:24Z</time>
      </trkpt>
      <trkpt lat="45.8702" lon="4.71077">
        <ele>195.01795959473</ele>
        <time>2015-02-24T07:53:28Z</time>
      </trkpt>
      <trkpt lat="45.87023" lon="4.71077">
        <ele>195.02011108398</ele>
        <time>2015-02-24T07:53:29Z</time>
      </trkpt>
      <trkpt lat="45.87039" lon="4.71077">
        <ele>195.03324890137</ele>
        <time>2015-02-24T07:53:34Z</time>
      </trkpt>
      <trkpt lat="45.87059" lon="4.71076">
        <ele>195.05937194824</ele>
        <time>2015-02-24T07:53:40Z</time>
      </trkpt>
      <trkpt lat="45.8707" lon="4.71075">
        <ele>195.08111572266</ele>
        <time>2015-02-24T07:53:43Z</time>
      </trkpt>
      <trkpt lat="45.87077" lon="4.71074">
        <ele>195.10386657715</ele>
        <time>2015-02-24T07:53:45Z</time>
      </trkpt>
      <trkpt lat="45.87097" lon="4.7107">
        <ele>194.89100646973</ele>
        <time>2015-02-24T07:53:51Z</time>
      </trkpt>
      <trkpt lat="45.87115" lon="4.71065">
        <ele>194.62338256836</ele>
        <time>2015-02-24T07:53:57Z</time>
      </trkpt>
      <trkpt lat="45.87134" lon="4.71066">
        <ele>194.26164245606</ele>
        <time>2015-02-24T07:54:03Z</time>
      </trkpt>
      <trkpt lat="45.87137" lon="4.71074">
        <ele>193.9737701416</ele>
        <time>2015-02-24T07:54:05Z</time>
      </trkpt>
      <trkpt lat="45.87143" lon="4.71087">
        <ele>193.58389282227</ele>
        <time>2015-02-24T07:54:08Z</time>
      </trkpt>
      <trkpt lat="45.8715" lon="4.71099">
        <ele>193.48046875</ele>
        <time>2015-02-24T07:54:11Z</time>
      </trkpt>
    </trkseg>
  </trk>
</gpx>